<?xml version="1.0" encoding="UTF-8" standalone="yes"?><gpx xmlns="http://www.topografix.com/GPX/1/0" version="1.0" creator="Generated by Christian Pesch's RouteConverter. See http://www.routeconverter.de"><trk><name>Hamburg -&gt; Kroatien und zurück</name><trkseg><trkpt lon="10.10624" lat="53.63128"><ele>25.1</ele><time>2009-09-05T09:43:27.000Z</time><speed>0.0</speed><name>Pfeilshof</name></trkpt><trkpt lon="10.11224" lat="53.62425"><ele>19.6</ele><time>2009-09-05T09:45:14.000Z</time><speed>12.222222222222221</speed><name>Pfeilshof</name></trkpt><trkpt lon="10.11407" lat="53.62486"><ele>31.8</ele><time>2009-09-05T09:47:15.000Z</time><speed>0.0</speed><name>Pfeilshof</name></trkpt><trkpt lon="10.12124" lat="53.6223"><ele>15.6</ele><time>2009-09-05T09:53:37.000Z</time><speed>0.0</speed><name>Saselheide</name></trkpt><trkpt lon="10.1248" lat="53.62739"><ele>16.1</ele><time>2009-09-05T09:56:30.000Z</time><speed>15.833333333333334</speed><name>Saselheide</name></trkpt><trkpt lon="10.14078" lat="53.62885"><ele>23.0</ele><time>2009-09-05T09:58:50.000Z</time><speed>11.38888888888889</speed><name>Saselheide</name></trkpt><trkpt lon="10.14419" lat="53.62689"><ele>24.6</ele><time>2009-09-05T09:59:13.000Z</time><speed>16.11111111111111</speed><name>Saselheide</name></trkpt><trkpt lon="10.14649" lat="53.62305"><ele>28.3</ele><time>2009-09-05T09:59:43.000Z</time><speed>16.11111111111111</speed><name>Saselheide</name></trkpt><trkpt lon="10.15647" lat="53.61429"><ele>23.0</ele><time>2009-09-05T10:02:33.000Z</time><speed>12.222222222222221</speed><name>Rahlstedt</name></trkpt><trkpt lon="10.17858" lat="53.61047"><ele>31.4</ele><time>2009-09-05T10:04:00.000Z</time><speed>21.38888888888889</speed><name>Rahlstedt</name></trkpt><trkpt lon="10.18344" lat="53.60705"><ele>31.7</ele><time>2009-09-05T10:04:29.000Z</time><speed>11.38888888888889</speed><name>Rahlstedt</name></trkpt><trkpt lon="10.19721" lat="53.61085"><ele>38.6</ele><time>2009-09-05T10:05:27.000Z</time><speed>20.0</speed><name>Stapelfeld</name></trkpt><trkpt lon="10.22998" lat="53.61559"><ele>45.1</ele><time>2009-09-05T10:07:43.000Z</time><speed>8.333333333333334</speed><name>Braak</name></trkpt><trkpt lon="10.2327" lat="53.61483"><ele>50.0</ele><time>2009-09-05T10:09:20.000Z</time><speed>14.166666666666666</speed><name>Braak</name></trkpt><trkpt lon="10.23145" lat="53.61025"><ele>52.9</ele><time>2009-09-05T10:09:48.000Z</time><speed>25.27777777777778</speed><name>Braak</name></trkpt><trkpt lon="10.2194" lat="53.59338"><ele>35.9</ele><time>2009-09-05T10:10:57.000Z</time><speed>31.11111111111111</speed><name>Stapelfeld</name></trkpt><trkpt lon="10.14725" lat="53.54456"><ele>10.1</ele><time>2009-09-05T10:15:31.000Z</time><speed>30.0</speed><name>Billstedt</name></trkpt><trkpt lon="10.11256" lat="53.51516"><name>10:17:42 - Billwerder an der Bille</name></trkpt><trkpt lon="10.10086" lat="53.51089"><name>10:18:19 - Billwerder an der Bille</name></trkpt><trkpt lon="10.04047" lat="53.50976"><ele>-0.5</ele><time>2009-09-05T10:20:53.000Z</time><speed>23.61111111111111</speed><name>Peute</name></trkpt><trkpt lon="10.03859" lat="53.50194"><ele>0.8</ele><time>2009-09-05T10:21:39.000Z</time><speed>27.5</speed><name>Niedergeorgswerder</name></trkpt><trkpt lon="10.03632" lat="53.49703"><name>10:21:59 - Niedergeorgswerder</name></trkpt><trkpt lon="10.02237" lat="53.47695"><ele>6.4</ele><time>2009-09-05T10:23:16.000Z</time><speed>31.666666666666668</speed><name>Kirchdorf</name></trkpt><trkpt lon="10.02795" lat="53.45431"><name>10:24:33 - Brammerhagen</name></trkpt><trkpt lon="10.02987" lat="53.44375"><name>10:25:11 - Brammerhagen</name></trkpt><trkpt lon="10.0172" lat="53.38177"><ele>11.3</ele><time>2009-09-05T10:28:43.000Z</time><speed>29.72222222222222</speed><name>Horst</name></trkpt><trkpt lon="10.01932" lat="53.37696"><ele>8.8</ele><time>2009-09-05T10:29:01.000Z</time><speed>31.38888888888889</speed><name>Horst</name></trkpt><trkpt lon="10.02948" lat="53.36936"><ele>13.4</ele><time>2009-09-05T10:29:37.000Z</time><speed>31.666666666666668</speed><name>Horst</name></trkpt><trkpt lon="10.0622" lat="53.31788"><ele>56.2</ele><time>2009-09-05T10:32:39.000Z</time><speed>39.166666666666664</speed><name>Thieshope</name></trkpt><trkpt lon="10.07598" lat="53.29504"><ele>37.5</ele><time>2009-09-05T10:33:56.000Z</time><speed>35.55555555555556</speed><name>Tangendorf</name></trkpt><trkpt lon="10.08549" lat="53.24874"><ele>64.0</ele><time>2009-09-05T10:36:14.000Z</time><speed>39.72222222222222</speed><name>Garlstorf</name></trkpt><trkpt lon="10.07571" lat="53.22144"><ele>87.9</ele><time>2009-09-05T10:37:35.000Z</time><speed>38.333333333333336</speed><name>Garlstorf</name></trkpt><trkpt lon="10.08223" lat="53.19357"><ele>104.9</ele><time>2009-09-05T10:38:55.000Z</time><speed>40.0</speed><name>Lübberstedt</name></trkpt><trkpt lon="10.08344" lat="53.18634"><ele>85.5</ele><time>2009-09-05T10:39:15.000Z</time><speed>40.55555555555556</speed><name>Egestorf</name></trkpt><trkpt lon="10.03143" lat="53.14965"><ele>66.8</ele><time>2009-09-05T10:41:40.000Z</time><speed>39.166666666666664</speed><name>Hörpel</name></trkpt><trkpt lon="9.95919" lat="53.07426"><ele>92.7</ele><time>2009-09-05T10:46:11.000Z</time><speed>38.333333333333336</speed><name>Steinkenhöfen</name></trkpt><trkpt lon="9.87041" lat="52.9446"><ele>69.2</ele><time>2009-09-05T10:54:08.000Z</time><speed>32.22222222222222</speed><name>Lehmberg</name></trkpt><trkpt lon="9.86395" lat="52.94088"><ele>66.8</ele><time>2009-09-05T10:54:26.000Z</time><speed>33.611111111111114</speed><name>Lehmberg</name></trkpt><trkpt lon="9.83455" lat="52.92977"><ele>62.6</ele><time>2009-09-05T10:55:37.000Z</time><speed>33.05555555555556</speed><name>Fuhrhop</name></trkpt><trkpt lon="9.82026" lat="52.92462"><ele>62.0</ele><time>2009-09-05T10:56:13.000Z</time><speed>28.88888888888889</speed><name>Wense</name></trkpt><trkpt lon="9.79615" lat="52.91096"><ele>64.4</ele><time>2009-09-05T10:57:23.000Z</time><speed>33.611111111111114</speed><name>Mengebostel</name></trkpt><trkpt lon="9.71266" lat="52.85882"><ele>75.4</ele><time>2009-09-05T11:01:36.000Z</time><speed>31.11111111111111</speed><name>Lager Fallingbostel</name></trkpt><trkpt lon="9.70503" lat="52.85644"><ele>79.0</ele><time>2009-09-05T11:01:54.000Z</time><speed>31.944444444444443</speed><name>Oerbke</name></trkpt><trkpt lon="9.68864" lat="52.8438"><ele>75.4</ele><time>2009-09-05T11:02:51.000Z</time><speed>32.77777777777778</speed><name>Böstlingen</name></trkpt><trkpt lon="9.68121" lat="52.71904"><ele>30.2</ele><time>2009-09-05T11:10:11.000Z</time><speed>39.166666666666664</speed><name>Westsiedlung</name></trkpt><trkpt lon="9.69079" lat="52.68038"><ele>36.1</ele><time>2009-09-05T11:13:54.000Z</time><speed>22.77777777777778</speed><name>Engehausen</name></trkpt><trkpt lon="9.71585" lat="52.63759"><ele>35.4</ele><time>2009-09-05T11:16:57.000Z</time><speed>38.05555555555556</speed><name>Sprockhof</name></trkpt><trkpt lon="9.82223" lat="52.50859"><ele>41.6</ele><time>2009-09-05T11:30:37.000Z</time><speed>31.944444444444443</speed><name>Großburgwedel</name></trkpt><trkpt lon="9.82866" lat="52.49943"><ele>43.1</ele><time>2009-09-05T11:31:13.000Z</time><speed>32.22222222222222</speed><name>Großburgwedel</name></trkpt><trkpt lon="9.85556" lat="52.47167"><ele>62.8</ele><time>2009-09-05T11:33:45.000Z</time><speed>5.833333333333333</speed><name>Farster Bauerschaft</name></trkpt><trkpt lon="9.89407" lat="52.41594"><ele>58.3</ele><time>2009-09-05T11:44:57.000Z</time><speed>25.555555555555557</speed><name>Altwarmbüchen</name></trkpt><trkpt lon="9.88723" lat="52.36028"><ele>56.9</ele><time>2009-09-05T11:49:13.000Z</time><speed>32.22222222222222</speed><name>Höver</name></trkpt><trkpt lon="9.86529" lat="52.33831"><ele>65.0</ele><time>2009-09-05T11:50:43.000Z</time><speed>34.166666666666664</speed><name>Wülferode</name></trkpt><trkpt lon="9.87586" lat="52.30458"><ele>72.1</ele><time>2009-09-05T11:52:49.000Z</time><speed>32.5</speed><name>Oesselse</name></trkpt><trkpt lon="9.89818" lat="52.28978"><ele>67.5</ele><time>2009-09-05T11:54:12.000Z</time><speed>16.944444444444443</speed><name>Ingeln</name></trkpt><trkpt lon="9.90008" lat="52.28835"><ele>71.5</ele><time>2009-09-05T11:54:26.000Z</time><speed>14.722222222222221</speed><name>Ingeln</name></trkpt><trkpt lon="9.90832" lat="52.28018"><ele>87.6</ele><time>2009-09-05T11:55:21.000Z</time><speed>15.555555555555555</speed><name>Ingeln</name></trkpt><trkpt lon="9.9096" lat="52.27843"><ele>88.1</ele><time>2009-09-05T11:55:35.000Z</time><speed>14.444444444444445</speed><name>Bledeln</name></trkpt><trkpt lon="9.9166" lat="52.26243"><ele>86.2</ele><time>2009-09-05T11:57:10.000Z</time><speed>20.555555555555557</speed><name>Hotteln</name></trkpt><trkpt lon="9.93176" lat="52.23445"><ele>65.5</ele><time>2009-09-05T11:59:19.000Z</time><speed>31.11111111111111</speed><name>Klein Förste</name></trkpt><trkpt lon="9.93937" lat="52.20171"><ele>77.1</ele><time>2009-09-05T12:01:06.000Z</time><speed>36.94444444444444</speed><name>Hasede</name></trkpt><trkpt lon="9.94622" lat="52.19643"><ele>79.5</ele><time>2009-09-05T12:01:25.000Z</time><speed>37.77777777777778</speed><name>Asel</name></trkpt><trkpt lon="9.97195" lat="52.18217"><ele>82.1</ele><time>2009-09-05T12:02:27.000Z</time><speed>38.888888888888886</speed><name>Drispenstedt</name></trkpt><trkpt lon="9.9908" lat="52.15428"><ele>91.9</ele><time>2009-09-05T12:03:55.000Z</time><speed>39.166666666666664</speed><name>Achtum</name></trkpt><trkpt lon="10.04545" lat="52.12928"><ele>171.4</ele><time>2009-09-05T12:06:15.000Z</time><speed>17.22222222222222</speed><name>Lechstedt</name></trkpt><trkpt lon="10.08853" lat="52.12056"><ele>156.0</ele><time>2009-09-05T12:08:32.000Z</time><speed>26.666666666666668</speed><name>Heersum</name></trkpt><trkpt lon="10.18075" lat="52.04383"><ele>160.6</ele><time>2009-09-05T12:15:37.000Z</time><speed>31.38888888888889</speed><name>Volkersheim</name></trkpt><trkpt lon="10.14015" lat="51.95413"><ele>149.4</ele><time>2009-09-05T12:21:22.000Z</time><speed>25.555555555555557</speed><name>Groß Rhüden</name></trkpt><trkpt lon="10.1137" lat="51.82918"><ele>211.0</ele><time>2009-09-05T12:29:13.000Z</time><speed>33.611111111111114</speed><name>Oldenrode</name></trkpt><trkpt lon="10.02852" lat="51.77403"><ele>167.2</ele><time>2009-09-05T12:33:52.000Z</time><speed>32.5</speed><name>Eboldshausen</name></trkpt><trkpt lon="9.97049" lat="51.73346"><ele>122.2</ele><time>2009-09-05T12:37:52.000Z</time><speed>15.555555555555555</speed><name>Hollenstedt</name></trkpt><trkpt lon="9.97301" lat="51.73402"><ele>120.0</ele><time>2009-09-05T12:38:21.000Z</time><speed>15.555555555555555</speed><name>Hollenstedt</name></trkpt><trkpt lon="9.97238" lat="51.73153"><ele>119.8</ele><time>2009-09-05T12:39:26.000Z</time><speed>9.444444444444445</speed><name>Hollenstedt</name></trkpt><trkpt lon="9.97268" lat="51.7311"><ele>113.4</ele><time>2009-09-05T12:39:37.000Z</time><speed>0.0</speed><name>Hollenstedt</name></trkpt><trkpt lon="9.97266" lat="51.73215"><ele>118.2</ele><time>2009-09-05T12:44:50.000Z</time><speed>0.0</speed><name>Hollenstedt</name></trkpt><trkpt lon="9.97284" lat="51.73225"><ele>119.5</ele><time>2009-09-05T12:48:56.000Z</time><speed>0.0</speed><name>Hollenstedt</name></trkpt><trkpt lon="9.97283" lat="51.73218"><ele>121.5</ele><time>2009-09-05T13:15:08.000Z</time><speed>0.0</speed><name>Hollenstedt</name></trkpt><trkpt lon="9.97267" lat="51.73217"><ele>120.7</ele><time>2009-09-05T13:15:26.000Z</time><speed>0.0</speed><name>Hollenstedt</name></trkpt><trkpt lon="9.97366" lat="51.73268"><ele>121.8</ele><time>2009-09-05T13:20:22.000Z</time><speed>12.5</speed><name>Hollenstedt</name></trkpt><trkpt lon="9.97135" lat="51.73463"><ele>121.2</ele><time>2009-09-05T13:20:50.000Z</time><speed>15.0</speed><name>Hollenstedt</name></trkpt><trkpt lon="9.96532" lat="51.73084"><ele>118.7</ele><time>2009-09-05T13:21:17.000Z</time><speed>31.38888888888889</speed><name>Hollenstedt</name></trkpt><trkpt lon="9.94519" lat="51.72015"><ele>126.0</ele><time>2009-09-05T13:22:12.000Z</time><speed>32.22222222222222</speed><name>Hollenstedt</name></trkpt><trkpt lon="9.92468" lat="51.67658"><ele>196.0</ele><time>2009-09-05T13:24:37.000Z</time><speed>33.333333333333336</speed><name>Schnedinghausen</name></trkpt><trkpt lon="9.92142" lat="51.64208"><ele>144.1</ele><time>2009-09-05T13:27:04.000Z</time><speed>27.22222222222222</speed><name>Lütgenrode</name></trkpt><trkpt lon="9.90454" lat="51.59468"><ele>132.7</ele><time>2009-09-05T13:30:44.000Z</time><speed>26.666666666666668</speed><name>Lenglern</name></trkpt><trkpt lon="9.88699" lat="51.56832"><ele>152.8</ele><time>2009-09-05T13:33:25.000Z</time><speed>24.166666666666668</speed><name>Holtensen</name></trkpt><trkpt lon="9.8782" lat="51.50836"><ele>172.1</ele><time>2009-09-05T13:37:51.000Z</time><speed>33.333333333333336</speed><name>Groß Ellershausen</name></trkpt><trkpt lon="9.83798" lat="51.41705"><ele>290.7</ele><time>2009-09-05T13:43:23.000Z</time><speed>27.22222222222222</speed><name>Mollenfelde</name></trkpt><trkpt lon="9.82171" lat="51.40835"><ele>298.1</ele><time>2009-09-05T13:44:18.000Z</time><speed>28.61111111111111</speed><name>Atzenhausen</name></trkpt><trkpt lon="9.77103" lat="51.39596"><ele>156.8</ele><time>2009-09-05T13:46:41.000Z</time><speed>24.72222222222222</speed><name>Hedemünden</name></trkpt><trkpt lon="9.65585" lat="51.37774"><ele>376.7</ele><time>2009-09-05T13:52:07.000Z</time><speed>40.833333333333336</speed><name>Sichelnstein</name></trkpt><trkpt lon="9.58955" lat="51.33741"><ele>298.3</ele><time>2009-09-05T13:55:02.000Z</time><speed>41.94444444444444</speed><name>Landwehrhagen</name></trkpt><trkpt lon="9.5602" lat="51.29403"><ele>166.1</ele><time>2009-09-05T13:57:39.000Z</time><speed>33.05555555555556</speed><name>Bettenhausen</name></trkpt><trkpt lon="9.53054" lat="51.27701"><ele>158.1</ele><time>2009-09-05T13:59:00.000Z</time><speed>29.72222222222222</speed><name>Waldau</name></trkpt><trkpt lon="9.51651" lat="51.26501"><ele>183.8</ele><time>2009-09-05T14:00:05.000Z</time><speed>26.666666666666668</speed><name>Bergshausen</name></trkpt><trkpt lon="9.4744" lat="51.21565"><ele>186.2</ele><time>2009-09-05T14:04:14.000Z</time><speed>24.72222222222222</speed><name>Dörnhagen</name></trkpt><trkpt lon="9.48118" lat="51.15678"><ele>267.9</ele><time>2009-09-05T14:07:30.000Z</time><speed>40.27777777777778</speed><name>Melgershausen</name></trkpt><trkpt lon="9.48365" lat="51.09089"><ele>272.6</ele><time>2009-09-05T14:10:50.000Z</time><speed>40.833333333333336</speed><name>Elfershausen</name></trkpt><trkpt lon="9.49717" lat="51.0475"><ele>274.4</ele><time>2009-09-05T14:13:03.000Z</time><speed>35.55555555555556</speed><name>Oberbeisheim</name></trkpt><trkpt lon="9.54165" lat="50.93943"><ele>446.4</ele><time>2009-09-05T14:20:21.000Z</time><speed>33.05555555555556</speed><name>Mühlbach</name></trkpt><trkpt lon="9.57916" lat="50.89145"><ele>361.1</ele><time>2009-09-05T14:24:02.000Z</time><speed>18.61111111111111</speed><name>Obergeis</name></trkpt><trkpt lon="9.57221" lat="50.825"><ele>253.8</ele><time>2009-09-05T14:28:45.000Z</time><speed>31.944444444444443</speed><name>Kirchheim</name></trkpt><trkpt lon="9.55247" lat="50.81846"><ele>349.5</ele><time>2009-09-05T14:29:40.000Z</time><speed>31.666666666666668</speed><name>Gershausen</name></trkpt><trkpt lon="9.53961" lat="50.81086"><ele>364.6</ele><time>2009-09-05T14:30:17.000Z</time><speed>35.0</speed><name>Reimboldshausen</name></trkpt><trkpt lon="9.51382" lat="50.8081"><ele>369.1</ele><time>2009-09-05T14:31:13.000Z</time><speed>35.833333333333336</speed><name>Kemmerode</name></trkpt><trkpt lon="9.40847" lat="50.7812"><ele>362.6</ele><time>2009-09-05T14:35:34.000Z</time><speed>35.833333333333336</speed><name>Ottrau</name></trkpt><trkpt lon="9.22157" lat="50.72701"><ele>327.5</ele><time>2009-09-05T14:42:43.000Z</time><speed>36.388888888888886</speed><name>Romrod</name></trkpt><trkpt lon="9.15526" lat="50.7116"><ele>356.0</ele><time>2009-09-05T14:44:59.000Z</time><speed>39.44444444444444</speed><name>Heimertshausen</name></trkpt><trkpt lon="9.02561" lat="50.67265"><ele>268.7</ele><time>2009-09-05T14:50:28.000Z</time><speed>30.27777777777778</speed><name>Burg Gemünden</name></trkpt><trkpt lon="8.95568" lat="50.6395"><ele>314.0</ele><time>2009-09-05T14:54:40.000Z</time><speed>30.0</speed><name>Lumda</name></trkpt><trkpt lon="8.87971" lat="50.61707"><ele>333.8</ele><time>2009-09-05T14:57:17.000Z</time><speed>38.333333333333336</speed><name>Reinhardshain</name></trkpt><trkpt lon="8.82314" lat="50.60772"><ele>274.4</ele><time>2009-09-05T14:59:15.000Z</time><speed>37.5</speed><name>Reiskirchen</name></trkpt><trkpt lon="8.81283" lat="50.59382"><ele>219.4</ele><time>2009-09-05T14:59:59.000Z</time><speed>39.166666666666664</speed><name>Burkhardsfelden</name></trkpt><trkpt lon="8.79626" lat="50.56718"><ele>258.8</ele><time>2009-09-05T15:01:21.000Z</time><speed>39.44444444444444</speed><name>Oppenrod</name></trkpt><trkpt lon="8.77078" lat="50.53397"><ele>244.0</ele><time>2009-09-05T15:03:04.000Z</time><speed>41.94444444444444</speed><name>Garbenteich</name></trkpt><trkpt lon="8.72417" lat="50.46939"><ele>209.7</ele><time>2009-09-05T15:06:22.000Z</time><speed>33.611111111111114</speed><name>Gambach</name></trkpt><trkpt lon="8.70521" lat="50.45126"><ele>179.5</ele><time>2009-09-05T15:07:37.000Z</time><speed>35.55555555555556</speed><name>Griedel</name></trkpt><trkpt lon="8.70379" lat="50.38667"><ele>181.8</ele><time>2009-09-05T15:10:54.000Z</time><speed>40.27777777777778</speed><name>Nieder-Mörlen</name></trkpt><trkpt lon="8.69497" lat="50.33153"><ele>233.1</ele><time>2009-09-05T15:13:38.000Z</time><speed>35.0</speed><name>Ockstadt</name></trkpt><trkpt lon="8.68211" lat="50.3077"><ele>256.7</ele><time>2009-09-05T15:15:07.000Z</time><speed>31.666666666666668</speed><name>Oberrosbach</name></trkpt><trkpt lon="8.66682" lat="50.2774"><ele>233.7</ele><time>2009-09-05T15:16:57.000Z</time><speed>32.77777777777778</speed><name>Köppern</name></trkpt><trkpt lon="8.66288" lat="50.23593"><ele>158.5</ele><time>2009-09-05T15:19:20.000Z</time><speed>32.77777777777778</speed><name>Seulberg</name></trkpt><trkpt lon="8.66177" lat="50.21392"><ele>134.9</ele><time>2009-09-05T15:20:35.000Z</time><speed>33.05555555555556</speed><name>Ober Eschbach</name></trkpt><trkpt lon="8.63558" lat="50.19553"><ele>156.1</ele><time>2009-09-05T15:22:07.000Z</time><speed>26.666666666666668</speed><name>Kalbach</name></trkpt><trkpt lon="8.61755" lat="50.18317"><ele>155.8</ele><time>2009-09-05T15:23:28.000Z</time><speed>29.166666666666668</speed><name>Weißkirchen</name></trkpt><trkpt lon="8.60017" lat="50.15206"><ele>134.5</ele><time>2009-09-05T15:25:37.000Z</time><speed>27.77777777777778</speed><name>Praunheim</name></trkpt><trkpt lon="8.59149" lat="50.13705"><ele>113.7</ele><time>2009-09-05T15:26:45.000Z</time><speed>19.444444444444443</speed><name>Rödelheim</name></trkpt><trkpt lon="8.5854" lat="50.13405"><ele>120.5</ele><time>2009-09-05T15:27:19.000Z</time><speed>20.0</speed><name>Rödelheim</name></trkpt><trkpt lon="8.58135" lat="50.13227"><ele>119.7</ele><time>2009-09-05T15:27:34.000Z</time><speed>25.27777777777778</speed><name>Sossenheim</name></trkpt><trkpt lon="8.54321" lat="50.1191"><ele>122.7</ele><time>2009-09-05T15:29:28.000Z</time><speed>28.055555555555557</speed><name>Unterliederbach</name></trkpt><trkpt lon="8.53435" lat="50.11632"><ele>116.7</ele><time>2009-09-05T15:30:02.000Z</time><speed>14.722222222222221</speed><name>Unterliederbach</name></trkpt><trkpt lon="8.53182" lat="50.11671"><ele>114.4</ele><time>2009-09-05T15:30:14.000Z</time><speed>16.944444444444443</speed><name>Unterliederbach</name></trkpt><trkpt lon="8.52563" lat="50.12183"><ele>129.9</ele><time>2009-09-05T15:30:49.000Z</time><speed>21.666666666666668</speed><name>Sulzbach</name></trkpt><trkpt lon="8.52104" lat="50.12631"><ele>134.2</ele><time>2009-09-05T15:32:01.000Z</time><speed>10.833333333333334</speed><name>Kronthal</name></trkpt><trkpt lon="8.51419" lat="50.13233"><ele>152.8</ele><time>2009-09-05T07:31:54.000Z</time><speed>17.22222222222222</speed><name>Kronthal</name></trkpt><trkpt lon="8.52127" lat="50.12582"><ele>137.2</ele><time>2009-09-05T07:34:04.000Z</time><speed>15.833333333333334</speed><name>Kronthal</name></trkpt><trkpt lon="8.53209" lat="50.11628"><ele>113.2</ele><time>2009-09-05T07:35:05.000Z</time><speed>15.555555555555555</speed><name>Unterliederbach</name></trkpt><trkpt lon="8.53036" lat="50.11461"><ele>111.1</ele><time>2009-09-05T07:35:19.000Z</time><speed>16.11111111111111</speed><name>Unterliederbach</name></trkpt><trkpt lon="8.53434" lat="50.11568"><ele>117.8</ele><time>2009-09-05T07:35:34.000Z</time><speed>22.5</speed><name>Unterliederbach</name></trkpt><trkpt lon="8.54761" lat="50.12045"><ele>115.2</ele><time>2009-09-05T07:36:17.000Z</time><speed>27.77777777777778</speed><name>Sossenheim</name></trkpt><trkpt lon="8.5663" lat="50.12813"><ele>121.8</ele><time>2009-09-05T07:37:14.000Z</time><speed>28.333333333333332</speed><name>Sossenheim</name></trkpt><trkpt lon="8.58427" lat="50.11985"><ele>98.0</ele><time>2009-09-05T07:38:12.000Z</time><speed>28.333333333333332</speed><name>Sossenheim</name></trkpt><trkpt lon="8.59907" lat="50.1134"><ele>104.6</ele><time>2009-09-05T07:39:11.000Z</time><speed>18.61111111111111</speed><name>Griesheim</name></trkpt><trkpt lon="8.60159" lat="50.1103"><ele>98.5</ele><time>2009-09-05T07:39:28.000Z</time><speed>26.944444444444443</speed><name>Griesheim</name></trkpt><trkpt lon="8.61648" lat="50.07802"><ele>106.8</ele><time>2009-09-05T07:41:24.000Z</time><speed>31.11111111111111</speed><name>Goldstein</name></trkpt><trkpt lon="8.6082" lat="50.06184"><ele>109.0</ele><time>2009-09-05T07:42:26.000Z</time><speed>30.833333333333332</speed><name>Goldstein</name></trkpt><trkpt lon="8.6031" lat="50.05145"><ele>111.6</ele><time>2009-09-05T07:43:11.000Z</time><speed>15.0</speed><name>Frankfurt International Airport</name></trkpt><trkpt lon="8.62729" lat="50.05278"><ele>114.8</ele><time>2009-09-05T07:44:36.000Z</time><speed>31.38888888888889</speed><name>Zeppelinheim</name></trkpt><trkpt lon="8.65144" lat="50.05939"><ele>114.2</ele><time>2009-09-05T07:45:34.000Z</time><speed>32.5</speed><name>Neulsenburg</name></trkpt><trkpt lon="8.72085" lat="50.06447"><ele>131.8</ele><time>2009-09-05T07:48:00.000Z</time><speed>36.666666666666664</speed><name>Gravenbruch</name></trkpt><trkpt lon="8.7337" lat="50.06427"><ele>132.5</ele><time>2009-09-05T07:48:26.000Z</time><speed>35.55555555555556</speed><name>Gravenbruch</name></trkpt><trkpt lon="8.77808" lat="50.06735"><ele>126.3</ele><time>2009-09-05T07:50:02.000Z</time><speed>34.72222222222222</speed><name>Heusenstamm</name></trkpt><trkpt lon="8.86944" lat="50.06012"><ele>129.7</ele><time>2009-09-05T07:53:13.000Z</time><speed>34.44444444444444</speed><name>Weiskirchen</name></trkpt><trkpt lon="8.91337" lat="50.05399"><ele>132.0</ele><time>2009-09-05T07:54:49.000Z</time><speed>34.166666666666664</speed><name>Froschhausen</name></trkpt><trkpt lon="8.9761" lat="50.00983"><ele>136.7</ele><time>2009-09-05T07:58:07.000Z</time><speed>34.44444444444444</speed><name>Zellhausen</name></trkpt><trkpt lon="9.01409" lat="49.99332"><ele>132.0</ele><time>2009-09-05T07:59:42.000Z</time><speed>35.27777777777778</speed><name>Waldrandsiedlung</name></trkpt><trkpt lon="9.02946" lat="49.98831"><ele>134.2</ele><time>2009-09-05T08:00:19.000Z</time><speed>31.666666666666668</speed><name>Waldrandsiedlung</name></trkpt><trkpt lon="9.0509" lat="49.98636"><ele>122.0</ele><time>2009-09-05T08:01:27.000Z</time><speed>18.88888888888889</speed><name>Stockstadt am Main</name></trkpt><trkpt lon="9.05124" lat="49.98342"><ele>118.4</ele><time>2009-09-05T08:01:42.000Z</time><speed>26.38888888888889</speed><name>Stockstadt am Main</name></trkpt><trkpt lon="9.0605" lat="49.94542"><ele>127.3</ele><time>2009-09-05T08:04:15.000Z</time><speed>36.111111111111114</speed><name>Ringheim</name></trkpt><trkpt lon="9.11195" lat="49.91884"><ele>122.9</ele><time>2009-09-05T08:06:40.000Z</time><speed>33.611111111111114</speed><name>Niedernberg</name></trkpt><trkpt lon="9.13557" lat="49.88893"><ele>124.2</ele><time>2009-09-05T08:08:31.000Z</time><speed>33.05555555555556</speed><name>Großwallstadt</name></trkpt><trkpt lon="9.15555" lat="49.85932"><ele>119.9</ele><time>2009-09-05T08:10:21.000Z</time><speed>29.444444444444443</speed><name>Kleinwallstadt</name></trkpt><trkpt lon="9.13446" lat="49.81631"><ele>125.2</ele><time>2009-09-05T08:14:18.000Z</time><speed>34.44444444444444</speed><name>Eisenbach</name></trkpt><trkpt lon="9.16431" lat="49.7788"><ele>158.7</ele><time>2009-09-05T08:16:42.000Z</time><speed>35.0</speed><name>Trennfurt</name></trkpt><trkpt lon="9.17546" lat="49.75682"><ele>129.3</ele><time>2009-09-05T08:18:23.000Z</time><speed>20.0</speed><name>Laudenbach</name></trkpt><trkpt lon="9.19367" lat="49.72927"><ele>135.5</ele><time>2009-09-05T08:21:57.000Z</time><speed>19.72222222222222</speed><name>Kleinheubach</name></trkpt><trkpt lon="9.21512" lat="49.71289"><ele>144.1</ele><time>2009-09-05T08:24:02.000Z</time><speed>22.5</speed><name>Kleinheubach</name></trkpt><trkpt lon="9.22657" lat="49.70911"><ele>135.5</ele><time>2009-09-05T08:24:51.000Z</time><speed>23.61111111111111</speed><name>Kleinheubach</name></trkpt><trkpt lon="9.2366" lat="49.70419"><ele>133.7</ele><time>2009-09-05T08:25:48.000Z</time><speed>9.166666666666666</speed><name>Breitendiel</name></trkpt><trkpt lon="9.24466" lat="49.70069"><ele>131.8</ele><time>2009-09-05T08:26:52.000Z</time><speed>10.555555555555555</speed><name>Miltenberg</name></trkpt><trkpt lon="9.25963" lat="49.70419"><ele>134.2</ele><time>2009-09-05T08:29:38.000Z</time><speed>11.666666666666666</speed><name>Miltenberg</name></trkpt><trkpt lon="9.26726" lat="49.70466"><ele>152.0</ele><time>2009-09-05T08:31:48.000Z</time><speed>0.0</speed><name>Miltenberg</name></trkpt><trkpt lon="9.26734" lat="49.70439"><ele>129.1</ele><time>2009-09-05T08:39:15.000Z</time><speed>0.0</speed><name>Miltenberg</name></trkpt><trkpt lon="9.27008" lat="49.70508"><ele>155.7</ele><time>2009-09-05T08:42:34.000Z</time><speed>12.777777777777779</speed><name>Miltenberg</name></trkpt><trkpt lon="9.27193" lat="49.70638"><ele>149.5</ele><time>2009-09-05T08:43:17.000Z</time><speed>12.777777777777779</speed><name>Miltenberg</name></trkpt><trkpt lon="9.28979" lat="49.70477"><ele>147.8</ele><time>2009-09-05T08:44:22.000Z</time><speed>27.77777777777778</speed><name>Bürgstadt</name></trkpt><trkpt lon="9.30423" lat="49.70667"><ele>159.9</ele><time>2009-09-05T08:44:58.000Z</time><speed>28.333333333333332</speed><name>Eichenbühl</name></trkpt><trkpt lon="9.31108" lat="49.70731"><ele>165.9</ele><time>2009-09-05T08:45:17.000Z</time><speed>27.77777777777778</speed><name>Eichenbühl</name></trkpt><trkpt lon="9.3236" lat="49.70593"><ele>161.8</ele><time>2009-09-05T08:45:54.000Z</time><speed>17.5</speed><name>Eichenbühl</name></trkpt><trkpt lon="9.32661" lat="49.70539"><ele>158.7</ele><time>2009-09-05T08:46:08.000Z</time><speed>14.444444444444445</speed><name>Eichenbühl</name></trkpt><trkpt lon="9.33974" lat="49.69846"><ele>163.0</ele><time>2009-09-05T08:47:49.000Z</time><speed>19.72222222222222</speed><name>Eichenbühl</name></trkpt><trkpt lon="9.34278" lat="49.69664"><ele>166.6</ele><time>2009-09-05T08:48:03.000Z</time><speed>23.333333333333332</speed><name>Eichenbühl</name></trkpt><trkpt lon="9.38903" lat="49.6725"><ele>187.4</ele><time>2009-09-05T08:51:09.000Z</time><speed>24.166666666666668</speed><name>Riedern</name></trkpt><trkpt lon="9.40366" lat="49.66732"><ele>199.1</ele><time>2009-09-05T08:52:15.000Z</time><speed>26.944444444444443</speed><name>Riedern</name></trkpt><trkpt lon="9.45117" lat="49.61575"><ele>260.0</ele><time>2009-09-05T08:57:13.000Z</time><speed>26.11111111111111</speed><name>Hardheim</name></trkpt><trkpt lon="9.47214" lat="49.60946"><ele>278.3</ele><time>2009-09-05T08:58:44.000Z</time><speed>8.055555555555555</speed><name>Hardheim</name></trkpt><trkpt lon="9.47618" lat="49.61753"><ele>309.7</ele><time>2009-09-05T09:00:08.000Z</time><speed>12.777777777777779</speed><name>Hardheim</name></trkpt><trkpt lon="9.4825" lat="49.61635"><ele>291.0</ele><time>2009-09-05T09:00:36.000Z</time><speed>16.944444444444443</speed><name>Hardheim</name></trkpt><trkpt lon="9.48176" lat="49.61052"><ele>277.9</ele><time>2009-09-05T09:01:35.000Z</time><speed>14.444444444444445</speed><name>Hardheim</name></trkpt><trkpt lon="9.49026" lat="49.61276"><ele>290.5</ele><time>2009-09-05T09:02:03.000Z</time><speed>28.333333333333332</speed><name>Hardheim</name></trkpt><trkpt lon="9.53793" lat="49.61891"><ele>357.0</ele><time>2009-09-05T09:04:23.000Z</time><speed>11.666666666666666</speed><name>Weikerstetten</name></trkpt><trkpt lon="9.55182" lat="49.61236"><ele>296.0</ele><time>2009-09-05T09:06:16.000Z</time><speed>12.777777777777779</speed><name>Weikerstetten</name></trkpt><trkpt lon="9.55392" lat="49.61182"><ele>292.4</ele><time>2009-09-05T09:06:28.000Z</time><speed>15.555555555555555</speed><name>Weikerstetten</name></trkpt><trkpt lon="9.61736" lat="49.61908"><ele>213.3</ele><time>2009-09-05T09:09:53.000Z</time><speed>27.5</speed><name>Königheim</name></trkpt><trkpt lon="9.64522" lat="49.60634"><ele>194.5</ele><time>2009-09-05T09:11:35.000Z</time><speed>21.38888888888889</speed><name>Steinbach</name></trkpt><trkpt lon="9.65734" lat="49.61685"><ele>184.6</ele><time>2009-09-05T09:12:36.000Z</time><speed>20.27777777777778</speed><name>Tauberbischofsheim</name></trkpt><trkpt lon="9.67081" lat="49.61912"><ele>180.7</ele><time>2009-09-05T09:13:30.000Z</time><speed>13.333333333333334</speed><name>Tauberbischofsheim</name></trkpt><trkpt lon="9.68837" lat="49.60685"><ele>211.7</ele><time>2009-09-05T09:15:12.000Z</time><speed>17.22222222222222</speed><name>Dittigheim</name></trkpt><trkpt lon="9.69053" lat="49.60474"><ele>218.7</ele><time>2009-09-05T09:15:27.000Z</time><speed>21.944444444444443</speed><name>Distelhausen</name></trkpt><trkpt lon="9.70634" lat="49.58679"><ele>209.5</ele><time>2009-09-05T09:16:52.000Z</time><speed>30.0</speed><name>Gerlachsheim</name></trkpt><trkpt lon="9.70953" lat="49.58003"><ele>185.2</ele><time>2009-09-05T09:17:26.000Z</time><speed>18.055555555555557</speed><name>Gerlachsheim</name></trkpt><trkpt lon="9.71314" lat="49.57026"><ele>186.3</ele><time>2009-09-05T09:18:24.000Z</time><speed>19.72222222222222</speed><name>Lauda-Königshofen</name></trkpt><trkpt lon="9.72932" lat="49.5508"><ele>203.5</ele><time>2009-09-05T09:20:14.000Z</time><speed>11.11111111111111</speed><name>Königshofen</name></trkpt><trkpt lon="9.73847" lat="49.53909"><ele>196.8</ele><time>2009-09-05T09:21:49.000Z</time><speed>24.166666666666668</speed><name>Unterbalbach</name></trkpt><trkpt lon="9.74072" lat="49.53558"><ele>199.7</ele><time>2009-09-05T09:22:05.000Z</time><speed>24.72222222222222</speed><name>Unterbalbach</name></trkpt><trkpt lon="9.74837" lat="49.5228"><ele>214.2</ele><time>2009-09-05T09:23:40.000Z</time><speed>22.77777777777778</speed><name>Unterbalbach</name></trkpt><trkpt lon="9.74909" lat="49.51951"><ele>216.0</ele><time>2009-09-05T09:23:55.000Z</time><speed>24.444444444444443</speed><name>Edelfingen</name></trkpt><trkpt lon="9.7504" lat="49.51671"><ele>212.9</ele><time>2009-09-05T09:24:09.000Z</time><speed>17.77777777777778</speed><name>Edelfingen</name></trkpt><trkpt lon="9.75318" lat="49.50741"><ele>218.8</ele><time>2009-09-05T09:25:20.000Z</time><speed>23.333333333333332</speed><name>Edelfingen</name></trkpt><trkpt lon="9.77247" lat="49.48877"><ele>210.2</ele><time>2009-09-05T09:30:23.000Z</time><speed>0.0</speed><name>Bad Mergentheim</name></trkpt><trkpt lon="9.77422" lat="49.48818"><ele>217.3</ele><time>2009-09-05T09:31:06.000Z</time><speed>10.833333333333334</speed><name>Bad Mergentheim</name></trkpt><trkpt lon="9.77681" lat="49.49"><ele>212.0</ele><time>2009-09-05T09:31:29.000Z</time><speed>13.055555555555555</speed><name>Bad Mergentheim</name></trkpt><trkpt lon="9.79429" lat="49.48996"><ele>209.3</ele><time>2009-09-05T09:32:53.000Z</time><speed>21.38888888888889</speed><name>Bad Mergentheim</name></trkpt><trkpt lon="9.7997" lat="49.49017"><ele>213.9</ele><time>2009-09-05T09:33:09.000Z</time><speed>24.72222222222222</speed><name>Igersheim</name></trkpt><trkpt lon="9.81719" lat="49.49568"><ele>224.2</ele><time>2009-09-05T09:34:24.000Z</time><speed>13.61111111111111</speed><name>Igersheim</name></trkpt><trkpt lon="9.82502" lat="49.48326"><ele>212.2</ele><time>2009-09-05T09:36:00.000Z</time><speed>26.11111111111111</speed><name>Markelsheim</name></trkpt><trkpt lon="9.85356" lat="49.47452"><ele>216.9</ele><time>2009-09-05T09:37:43.000Z</time><speed>27.22222222222222</speed><name>Markelsheim</name></trkpt><trkpt lon="9.89455" lat="49.48381"><ele>229.0</ele><time>2009-09-05T09:40:49.000Z</time><speed>15.833333333333334</speed><name>Weikersheim</name></trkpt><trkpt lon="9.8966" lat="49.48418"><ele>226.5</ele><time>2009-09-05T09:41:04.000Z</time><speed>10.833333333333334</speed><name>Weikersheim</name></trkpt><trkpt lon="9.90094" lat="49.4832"><ele>226.1</ele><time>2009-09-05T09:41:29.000Z</time><speed>13.61111111111111</speed><name>Weikersheim</name></trkpt><trkpt lon="9.90362" lat="49.48149"><ele>225.8</ele><time>2009-09-05T09:41:53.000Z</time><speed>18.61111111111111</speed><name>Weikersheim</name></trkpt><trkpt lon="9.91818" lat="49.47662"><ele>238.7</ele><time>2009-09-05T09:42:44.000Z</time><speed>8.333333333333334</speed><name>Weikersheim</name></trkpt><trkpt lon="9.9489" lat="49.47385"><ele>344.4</ele><time>2009-09-05T09:44:50.000Z</time><speed>10.0</speed><name>Queckbronn</name></trkpt><trkpt lon="9.95238" lat="49.47202"><ele>353.0</ele><time>2009-09-05T09:45:14.000Z</time><speed>21.11111111111111</speed><name>Queckbronn</name></trkpt><trkpt lon="9.97021" lat="49.46531"><ele>368.8</ele><time>2009-09-05T09:46:26.000Z</time><speed>6.944444444444445</speed><name>Neubronn</name></trkpt><trkpt lon="9.97225" lat="49.46659"><ele>367.0</ele><time>2009-09-05T09:46:39.000Z</time><speed>18.61111111111111</speed><name>Neubronn</name></trkpt><trkpt lon="9.98006" lat="49.47237"><ele>341.0</ele><time>2009-09-05T09:47:13.000Z</time><speed>28.333333333333332</speed><name>Neubronn</name></trkpt><trkpt lon="9.98504" lat="49.47534"><ele>325.7</ele><time>2009-09-05T09:47:31.000Z</time><speed>30.833333333333332</speed><name>Niederrimbach</name></trkpt><trkpt lon="9.99451" lat="49.47551"><ele>294.5</ele><time>2009-09-05T09:48:03.000Z</time><speed>15.555555555555555</speed><name>Niederrimbach</name></trkpt><trkpt lon="9.9995" lat="49.47913"><ele>285.9</ele><time>2009-09-05T09:48:46.000Z</time><speed>25.833333333333332</speed><name>Niederrimbach</name></trkpt><trkpt lon="10.01666" lat="49.48394"><ele>261.9</ele><time>2009-09-05T09:49:35.000Z</time><speed>23.333333333333332</speed><name>Klingen</name></trkpt><trkpt lon="10.01967" lat="49.48277"><ele>261.2</ele><time>2009-09-05T09:50:01.000Z</time><speed>22.22222222222222</speed><name>Klingen</name></trkpt><trkpt lon="10.02045" lat="49.47926"><ele>262.6</ele><time>2009-09-05T09:50:16.000Z</time><speed>23.055555555555557</speed><name>Klingen</name></trkpt><trkpt lon="10.0338" lat="49.46999"><ele>268.8</ele><time>2009-09-05T09:51:39.000Z</time><speed>15.0</speed><name>Creglingen</name></trkpt><trkpt lon="10.04363" lat="49.46674"><ele>284.6</ele><time>2009-09-05T09:52:21.000Z</time><speed>28.61111111111111</speed><name>Craintal</name></trkpt><trkpt lon="10.0537" lat="49.4631"><ele>274.0</ele><time>2009-09-05T09:52:57.000Z</time><speed>12.222222222222221</speed><name>Craintal</name></trkpt><trkpt lon="10.0711" lat="49.45363"><ele>279.1</ele><time>2009-09-05T09:54:32.000Z</time><speed>14.166666666666666</speed><name>Archshofen</name></trkpt><trkpt lon="10.07959" lat="49.45208"><ele>297.9</ele><time>2009-09-05T09:55:09.000Z</time><speed>25.833333333333332</speed><name>Schön</name></trkpt><trkpt lon="10.09822" lat="49.44773"><ele>301.7</ele><time>2009-09-05T09:56:06.000Z</time><speed>26.11111111111111</speed><name>Schön</name></trkpt><trkpt lon="10.10736" lat="49.44602"><ele>292.0</ele><time>2009-09-05T09:56:36.000Z</time><speed>20.27777777777778</speed><name>Tauberzell</name></trkpt><trkpt lon="10.11505" lat="49.44707"><ele>294.1</ele><time>2009-09-05T09:57:19.000Z</time><speed>12.222222222222221</speed><name>Tauberzell</name></trkpt><trkpt lon="10.1206" lat="49.44688"><ele>298.3</ele><time>2009-09-05T09:57:54.000Z</time><speed>14.444444444444445</speed><name>Tauberzell</name></trkpt><trkpt lon="10.13812" lat="49.43924"><ele>301.9</ele><time>2009-09-05T09:59:17.000Z</time><speed>12.222222222222221</speed><name>Tauberscheckenbach</name></trkpt><trkpt lon="10.14558" lat="49.42594"><ele>314.6</ele><time>2009-09-05T10:00:32.000Z</time><speed>28.61111111111111</speed><name>Haardt</name></trkpt><trkpt lon="10.14996" lat="49.4218"><ele>315.0</ele><time>2009-09-05T10:00:51.000Z</time><speed>27.22222222222222</speed><name>Seldeneck</name></trkpt><trkpt lon="10.15361" lat="49.4082"><ele>322.1</ele><time>2009-09-05T10:02:06.000Z</time><speed>22.22222222222222</speed><name>Seldeneck</name></trkpt><trkpt lon="10.15974" lat="49.39921"><ele>325.4</ele><time>2009-09-05T10:02:50.000Z</time><speed>26.38888888888889</speed><name>Steinbach</name></trkpt><trkpt lon="10.16939" lat="49.38712"><ele>348.2</ele><time>2009-09-05T10:04:08.000Z</time><speed>18.88888888888889</speed><name>Fuchsmühle</name></trkpt><trkpt lon="10.16996" lat="49.38544"><ele>361.1</ele><time>2009-09-05T10:04:27.000Z</time><speed>15.277777777777779</speed><name>Fuchsmühle</name></trkpt><trkpt lon="10.17214" lat="49.38695"><ele>376.9</ele><time>2009-09-05T10:04:44.000Z</time><speed>11.666666666666666</speed><name>Fuchsmühle</name></trkpt><trkpt lon="10.1755" lat="49.38248"><ele>409.7</ele><time>2009-09-05T10:05:34.000Z</time><speed>10.833333333333334</speed><name>Rothenburg ob der Tauber</name></trkpt><trkpt lon="10.17598" lat="49.38096"><ele>414.2</ele><time>2009-09-05T10:05:48.000Z</time><speed>4.444444444444445</speed><name>Rothenburg ob der Tauber</name></trkpt><trkpt lon="10.17818" lat="49.38052"><ele>421.7</ele><time>2009-09-05T10:06:33.000Z</time><speed>10.833333333333334</speed><name>Rothenburg ob der Tauber</name></trkpt><trkpt lon="10.18442" lat="49.37948"><ele>435.9</ele><time>2009-09-05T10:07:34.000Z</time><speed>3.3333333333333335</speed><name>Rothenburg ob der Tauber</name></trkpt><trkpt lon="10.18455" lat="49.3792"><ele>428.8</ele><time>2009-09-05T10:08:04.000Z</time><speed>0.0</speed><name>1018455:4937920</name></trkpt><trkpt lon="10.18409" lat="49.38065"><ele>436.4</ele><time>2009-09-05T11:17:14.000Z</time><speed>7.5</speed><name>Rothenburg Ob Der Tauber</name><desc>ST2268 Bezoldweg; 61</desc></trkpt><trkpt lon="10.17062" lat="49.38622"><ele>359.2</ele><time>2009-09-05T11:19:36.000Z</time><speed>16.944444444444443</speed><name>Rothenburg Ob Der Tauber</name><desc>ST2268 Hindenburgstraße; 12</desc></trkpt><trkpt lon="10.17196" lat="49.3821"><ele>337.4</ele><time>2009-09-05T11:20:06.000Z</time><speed>18.055555555555557</speed><name>Rothenburg Ob Der Tauber</name><desc>ST2268 Hindenburgsteige</desc></trkpt><trkpt lon="10.17029" lat="49.38124"><ele>336.4</ele><time>2009-09-05T11:20:20.000Z</time><speed>12.222222222222221</speed><name>Rothenburg Ob Der Tauber</name><desc>ST1020</desc></trkpt><trkpt lon="10.17051" lat="49.38072"><ele>336.1</ele><time>2009-09-05T11:20:33.000Z</time><speed>2.5</speed><name>Rothenburg Ob Der Tauber</name><desc>Taubertalweg</desc></trkpt><trkpt lon="10.16016" lat="49.3835"><ele>402.2</ele><time>2009-09-05T11:21:37.000Z</time><speed>18.333333333333332</speed><name>Rothenburg Ob Der Tauber</name><desc>ST1020 Reutsächser Steige</desc></trkpt><trkpt lon="10.1476" lat="49.38833"><ele>453.0</ele><time>2009-09-05T11:22:21.000Z</time><speed>27.22222222222222</speed><name>Creglingen</name><desc>L1020</desc></trkpt><trkpt lon="10.12163" lat="49.38889"><ele>466.2</ele><time>2009-09-05T11:23:58.000Z</time><speed>20.555555555555557</speed><name>Creglingen</name><desc>Straße ohne Namen</desc></trkpt><trkpt lon="10.12486" lat="49.38033"><ele>453.0</ele><time>2009-09-05T11:24:40.000Z</time><speed>22.22222222222222</speed><name>Rothenburg Ob Der Tauber</name><desc>Straße ohne Namen</desc></trkpt><trkpt lon="10.12864" lat="49.37411"><ele>453.3</ele><time>2009-09-05T11:25:24.000Z</time><speed>10.833333333333334</speed><name>Rothenburg Ob Der Tauber</name><desc>Leuzenbronn; 12</desc></trkpt><trkpt lon="10.12682" lat="49.366"><ele>455.7</ele><time>2009-09-05T11:26:17.000Z</time><speed>22.77777777777778</speed><name>Rothenburg Ob Der Tauber</name><desc>Straße ohne Namen</desc></trkpt><trkpt lon="10.12711" lat="49.36108"><ele>457.2</ele><time>2009-09-05T11:26:46.000Z</time><speed>12.222222222222221</speed><name>Rothenburg Ob Der Tauber</name><desc>Schnepfendorf</desc></trkpt><trkpt lon="10.12817" lat="49.35779"><ele>454.1</ele><time>2009-09-05T11:27:09.000Z</time><speed>21.944444444444443</speed><name>Rothenburg Ob Der Tauber</name><desc>Straße ohne Namen</desc></trkpt><trkpt lon="10.14357" lat="49.35975"><ele>441.0</ele><time>2009-09-05T11:28:13.000Z</time><speed>27.77777777777778</speed><name>Rothenburg Ob Der Tauber</name><desc>ST1022</desc></trkpt><trkpt lon="10.15761" lat="49.36603"><ele>422.1</ele><time>2009-09-05T11:28:55.000Z</time><speed>28.61111111111111</speed><name>Rothenburg Ob Der Tauber</name><desc>ST1022 Blinksteige</desc></trkpt><trkpt lon="10.1763" lat="49.37011"><ele>355.0</ele><time>2009-09-05T11:30:09.000Z</time><speed>18.333333333333332</speed><name>Rothenburg Ob Der Tauber</name><desc>ST1022 Taubertalweg</desc></trkpt><trkpt lon="10.17794" lat="49.37302"><ele>366.5</ele><time>2009-09-05T11:30:39.000Z</time><speed>14.444444444444445</speed><name>Rothenburg Ob Der Tauber</name><desc>ST1022</desc></trkpt><trkpt lon="10.18297" lat="49.37168"><ele>415.4</ele><time>2009-09-05T11:32:21.000Z</time><speed>13.333333333333334</speed><name>Rothenburg Ob Der Tauber</name><desc>ST2419 Bensenstraße</desc></trkpt><trkpt lon="10.18949" lat="49.37411"><ele>421.4</ele><time>2009-09-05T11:33:29.000Z</time><speed>11.944444444444445</speed><name>Rothenburg Ob Der Tauber</name><desc>ST2419 Schlachthofstraße; 29</desc></trkpt><trkpt lon="10.19127" lat="49.37521"><ele>421.5</ele><time>2009-09-05T11:33:45.000Z</time><speed>9.166666666666666</speed><name>Rothenburg Ob Der Tauber</name><desc>Straße ohne Namen</desc></trkpt><trkpt lon="10.19662" lat="49.37658"><ele>416.7</ele><time>2009-09-05T11:34:17.000Z</time><speed>15.0</speed><name>Rothenburg Ob Der Tauber</name><desc>ST2250 Ansbacher Straße; 68</desc></trkpt><trkpt lon="10.21285" lat="49.3763"><ele>393.4</ele><time>2009-09-05T11:35:28.000Z</time><speed>5.277777777777778</speed><name>Rothenburg Ob Der Tauber</name><desc>ST2250</desc></trkpt><trkpt lon="10.21413" lat="49.36285"><ele>409.3</ele><time>2009-09-05T11:36:44.000Z</time><speed>36.666666666666664</speed><name>Neusitz</name><desc>A7/E43</desc></trkpt><trkpt lon="10.22253" lat="49.34696"><ele>398.2</ele><time>2009-09-05T11:37:41.000Z</time><speed>33.888888888888886</speed><name>Gebsattel</name><desc>A7/E43</desc></trkpt><trkpt lon="10.20551" lat="49.32152"><ele>414.3</ele><time>2009-09-05T11:39:12.000Z</time><speed>35.0</speed><name>Diebach</name><desc>A7/E43</desc></trkpt><trkpt lon="10.2288" lat="49.28189"><ele>458.6</ele><time>2009-09-05T11:41:47.000Z</time><speed>33.05555555555556</speed><name>Schillingsfürst</name><desc>A7/E43</desc></trkpt><trkpt lon="10.23628" lat="49.27131"><ele>477.4</ele><time>2009-09-05T11:42:25.000Z</time><speed>36.388888888888886</speed><name>Wörnitz</name><desc>A7/E43</desc></trkpt><trkpt lon="10.23089" lat="49.25966"><ele>471.5</ele><time>2009-09-05T11:43:16.000Z</time><speed>13.055555555555555</speed><name>Rosenhof</name><desc>109 As Wörnitz</desc></trkpt><trkpt lon="10.23094" lat="49.26107"><ele>477.3</ele><time>2009-09-05T11:43:30.000Z</time><speed>4.722222222222222</speed><name>Walkersdorf</name><desc>109 As Wörnitz</desc></trkpt><trkpt lon="10.23378" lat="49.26076"><ele>476.6</ele><time>2009-09-05T11:43:45.000Z</time><speed>19.166666666666668</speed><name>Wörnitz</name><desc>ST2419</desc></trkpt><trkpt lon="10.27695" lat="49.23244"><ele>483.0</ele><time>2009-09-05T11:47:00.000Z</time><speed>28.88888888888889</speed><name>Feuchtwangen</name><desc>ST2419</desc></trkpt><trkpt lon="10.30375" lat="49.22988"><ele>472.4</ele><time>2009-09-05T11:48:43.000Z</time><speed>31.11111111111111</speed><name>Feuchtwangen</name><desc>A6/E50</desc></trkpt><trkpt lon="10.33268" lat="49.23903"><ele>477.9</ele><time>2009-09-05T11:50:00.000Z</time><speed>33.05555555555556</speed><name>Aurach</name><desc>A6/E50</desc></trkpt><trkpt lon="10.46958" lat="49.24928"><ele>439.9</ele><time>2009-09-05T11:55:19.000Z</time><speed>27.22222222222222</speed><name>Herrieden</name><desc>A6/E50</desc></trkpt><trkpt lon="10.56173" lat="49.25788"><ele>485.5</ele><time>2009-09-05T11:58:51.000Z</time><speed>27.5</speed><name>Ansbach</name><desc>A6/E50</desc></trkpt><trkpt lon="10.58839" lat="49.26047"><ele>461.9</ele><time>2009-09-05T12:00:58.000Z</time><speed>21.38888888888889</speed><name>Ansbach</name><desc>B13</desc></trkpt><trkpt lon="10.58308" lat="49.2741"><ele>451.1</ele><time>2009-09-05T12:02:06.000Z</time><speed>20.833333333333332</speed><name>Ansbach</name><desc>B13 Bandelstraße</desc></trkpt><trkpt lon="10.58335" lat="49.27559"><ele>452.0</ele><time>2009-09-05T12:02:23.000Z</time><speed>8.88888888888889</speed><name>Ansbach</name><desc>Straße ohne Namen</desc></trkpt><trkpt lon="10.58311" lat="49.27602"><ele>448.0</ele><time>2009-09-05T12:03:25.000Z</time><speed>0.0</speed><name>1058311:4927602</name></trkpt><trkpt lon="10.58335" lat="49.27361"><ele>448.9</ele><time>2009-09-05T12:15:29.000Z</time><speed>18.61111111111111</speed><name>Ansbach</name><desc>B13 Bandelstraße</desc></trkpt><trkpt lon="10.5869" lat="49.26533"><ele>454.3</ele><time>2009-09-05T12:16:02.000Z</time><speed>27.77777777777778</speed><name>Ansbach</name><desc>B13</desc></trkpt><trkpt lon="10.60223" lat="49.24413"><ele>470.5</ele><time>2009-09-05T12:17:50.000Z</time><speed>26.38888888888889</speed><name>Burgoberbach</name><desc>B13</desc></trkpt><trkpt lon="10.61459" lat="49.23546"><ele>465.7</ele><time>2009-09-05T12:18:43.000Z</time><speed>27.5</speed><name>Weidenbach (Ansbach)</name><desc>B13</desc></trkpt><trkpt lon="10.65219" lat="49.2105"><ele>449.4</ele><time>2009-09-05T12:21:05.000Z</time><speed>30.0</speed><name>Merkendorf</name><desc>B13</desc></trkpt><trkpt lon="10.6996" lat="49.19981"><ele>431.7</ele><time>2009-09-05T12:24:03.000Z</time><speed>4.722222222222222</speed><name>Merkendorf</name><desc>B13 Gunzenhausener Straße; 2</desc></trkpt><trkpt lon="10.70194" lat="49.19819"><ele>436.1</ele><time>2009-09-05T12:30:11.000Z</time><speed>0.0</speed><name>1070194:4919819</name></trkpt><trkpt lon="10.72059" lat="49.17429"><ele>419.8</ele><time>2009-09-05T12:34:32.000Z</time><speed>32.5</speed><name>Muhr Am See</name><desc>B13</desc></trkpt><trkpt lon="10.73434" lat="49.14515"><ele>425.5</ele><time>2009-09-05T12:37:13.000Z</time><speed>18.88888888888889</speed><name>Gunzenhausen</name><desc>B13</desc></trkpt><trkpt lon="10.74274" lat="49.13288"><ele>416.1</ele><time>2009-09-05T12:38:26.000Z</time><speed>19.166666666666668</speed><name>Gunzenhausen</name><desc>B13 Ansbacher Straße</desc></trkpt><trkpt lon="10.74931" lat="49.124"><ele>421.8</ele><time>2009-09-05T12:39:50.000Z</time><speed>16.11111111111111</speed><name>Gunzenhausen</name><desc>B13</desc></trkpt><trkpt lon="10.7479" lat="49.123"><ele>422.1</ele><time>2009-09-05T12:40:05.000Z</time><speed>12.222222222222221</speed><name>Gunzenhausen</name><desc>B13/B466</desc></trkpt><trkpt lon="10.73809" lat="49.11995"><ele>418.0</ele><time>2009-09-05T12:41:01.000Z</time><speed>18.055555555555557</speed><name>Gunzenhausen</name><desc>B13</desc></trkpt><trkpt lon="10.74335" lat="49.11198"><ele>417.6</ele><time>2009-09-05T12:42:07.000Z</time><speed>15.555555555555555</speed><name>Gunzenhausen</name><desc>B13 Oettinger Straße; 14</desc></trkpt><trkpt lon="10.74348" lat="49.11067"><ele>417.9</ele><time>2009-09-05T12:42:23.000Z</time><speed>18.055555555555557</speed><name>Gunzenhausen</name><desc>B13</desc></trkpt><trkpt lon="10.78632" lat="49.09202"><ele>422.9</ele><time>2009-09-05T12:45:15.000Z</time><speed>14.722222222222221</speed><name>Gunzenhausen</name><desc>B13 Unterasbach; 21</desc></trkpt><trkpt lon="10.79164" lat="49.0891"><ele>418.2</ele><time>2009-09-05T12:45:49.000Z</time><speed>16.666666666666668</speed><name>Gunzenhausen</name><desc>B13</desc></trkpt><trkpt lon="10.81018" lat="49.08695"><ele>427.6</ele><time>2009-09-05T12:46:49.000Z</time><speed>24.444444444444443</speed><name>Ellingen</name><desc>B13</desc></trkpt><trkpt lon="10.81748" lat="49.0872"><ele>424.2</ele><time>2009-09-05T12:47:18.000Z</time><speed>13.333333333333334</speed><name>Theilenhofen</name><desc>B13 Kirchenstraße; 1</desc></trkpt><trkpt lon="10.82566" lat="49.08523"><ele>461.3</ele><time>2009-09-05T12:48:08.000Z</time><speed>21.38888888888889</speed><name>Ellingen</name><desc>B13</desc></trkpt><trkpt lon="10.84072" lat="49.0836"><ele>493.6</ele><time>2009-09-05T12:48:50.000Z</time><speed>33.611111111111114</speed><name>Theilenhofen</name><desc>B13 Hauptstraße; 45</desc></trkpt><trkpt lon="10.87181" lat="49.07458"><ele>471.2</ele><time>2009-09-05T12:50:43.000Z</time><speed>30.833333333333332</speed><name>Ellingen</name><desc>B13 Theilenhofener Straße</desc></trkpt><trkpt lon="10.88755" lat="49.07281"><ele>460.2</ele><time>2009-09-05T12:51:30.000Z</time><speed>16.38888888888889</speed><name>Ellingen</name><desc>B13 Zur Raumlach; 10</desc></trkpt><trkpt lon="10.88963" lat="49.0716"><ele>458.4</ele><time>2009-09-05T12:51:46.000Z</time><speed>13.61111111111111</speed><name>Ellingen</name><desc>B13 Ellingerstraße; 3</desc></trkpt><trkpt lon="10.89914" lat="49.07096"><ele>478.2</ele><time>2009-09-05T12:52:27.000Z</time><speed>28.333333333333332</speed><name>Ellingen</name><desc>B13 Ellinger Straße</desc></trkpt><trkpt lon="10.93327" lat="49.06305"><ele>458.9</ele><time>2009-09-05T12:53:56.000Z</time><speed>29.72222222222222</speed><name>Ellingen</name><desc>B13</desc></trkpt><trkpt lon="10.95907" lat="49.05905"><ele>402.9</ele><time>2009-09-05T12:55:19.000Z</time><speed>19.166666666666668</speed><name>Ellingen</name><desc>B13/B2</desc></trkpt><trkpt lon="10.97007" lat="49.04888"><ele>401.6</ele><time>2009-09-05T12:56:10.000Z</time><speed>26.944444444444443</speed><name>Bösmühle</name><desc>B13/B2</desc></trkpt><trkpt lon="10.986" lat="49.03734"><ele>434.4</ele><time>2009-09-05T12:57:19.000Z</time><speed>26.944444444444443</speed><name>Weißenburg In Bayern</name><desc>B13/B2</desc></trkpt><trkpt lon="10.9865" lat="49.02567"><ele>443.8</ele><time>2009-09-05T12:58:49.000Z</time><speed>13.61111111111111</speed><name>Weißenburg In Bayern</name><desc>B13 Eichstätter Straße; 64</desc></trkpt><trkpt lon="10.99181" lat="49.02307"><ele>462.7</ele><time>2009-09-05T12:59:15.000Z</time><speed>21.11111111111111</speed><name>Weißenburg In Bayern</name><desc>B13 Eichstätter Landstraße; 4</desc></trkpt><trkpt lon="10.99969" lat="49.01942"><ele>490.5</ele><time>2009-09-05T12:59:45.000Z</time><speed>23.055555555555557</speed><name>Ellingen</name><desc>B13</desc></trkpt><trkpt lon="11.00516" lat="49.017"><ele>517.9</ele><time>2009-09-05T13:00:15.000Z</time><speed>16.666666666666668</speed><name>Weißenburg In Bayern</name><desc>B13 Eichstätter Landstraße</desc></trkpt><trkpt lon="11.02687" lat="48.99469"><ele>552.1</ele><time>2009-09-05T13:02:50.000Z</time><speed>21.666666666666668</speed><name>Weißenburg In Bayern</name><desc>B13</desc></trkpt><trkpt lon="11.05758" lat="48.96631"><ele>511.0</ele><time>2009-09-05T13:06:57.000Z</time><speed>15.277777777777779</speed><name>Weißenburg In Bayern</name><desc>B13 Ingolstädter Straße; 1</desc></trkpt><trkpt lon="11.06473" lat="48.96384"><ele>522.0</ele><time>2009-09-05T13:07:41.000Z</time><speed>16.666666666666668</speed><name>Weißenburg In Bayern</name><desc>B13</desc></trkpt><trkpt lon="11.07167" lat="48.96328"><ele>527.5</ele><time>2009-09-05T13:08:10.000Z</time><speed>21.38888888888889</speed><name>Schernfeld</name><desc>B13</desc></trkpt><trkpt lon="11.13837" lat="48.92865"><ele>541.8</ele><time>2009-09-05T13:11:56.000Z</time><speed>27.22222222222222</speed><name>Rupertsbuch</name><desc>B13</desc></trkpt><trkpt lon="11.14056" lat="48.92629"><ele>552.9</ele><time>2009-09-05T13:12:15.000Z</time><speed>17.5</speed><name>Rupertsbuch</name><desc>B13 An Der Bundesstraße; 7</desc></trkpt><trkpt lon="11.14289" lat="48.92185"><ele>554.8</ele><time>2009-09-05T13:12:43.000Z</time><speed>22.5</speed><name>Rupertsbuch</name><desc>B13</desc></trkpt><trkpt lon="11.1447" lat="48.91416"><ele>549.5</ele><time>2009-09-05T13:13:17.000Z</time><speed>13.055555555555555</speed><name>Schernfeld</name><desc>B13</desc></trkpt><trkpt lon="11.14722" lat="48.90873"><ele>530.5</ele><time>2009-09-05T13:13:58.000Z</time><speed>23.333333333333332</speed><name>Schernfeld</name><desc>B13 Wegscheid; 6</desc></trkpt><trkpt lon="11.15124" lat="48.90822"><ele>516.3</ele><time>2009-09-05T13:14:13.000Z</time><speed>15.833333333333334</speed><name>Eichstätt</name><desc>B13 Wegscheid</desc></trkpt><trkpt lon="11.15313" lat="48.9069"><ele>504.8</ele><time>2009-09-05T13:14:27.000Z</time><speed>19.166666666666668</speed><name>Eichstätt</name><desc>B13 Hohes Kreuz; 11</desc></trkpt><trkpt lon="11.16023" lat="48.90049"><ele>462.4</ele><time>2009-09-05T13:15:23.000Z</time><speed>16.666666666666668</speed><name>Eichstätt</name><desc>B13</desc></trkpt><trkpt lon="11.17574" lat="48.89992"><ele>393.5</ele><time>2009-09-05T13:16:46.000Z</time><speed>16.11111111111111</speed><name>Eichstätt</name><desc>B13 Weißenburger Straße</desc></trkpt><trkpt lon="11.1816" lat="48.88991"><ele>394.6</ele><time>2009-09-05T13:18:35.000Z</time><speed>15.277777777777779</speed><name>Eichstätt</name><desc>B13 Ingolstädter Straße; 8</desc></trkpt><trkpt lon="11.21037" lat="48.87622"><ele>402.5</ele><time>2009-09-05T13:21:10.000Z</time><speed>21.11111111111111</speed><name>Adelschlag</name><desc>B13</desc></trkpt><trkpt lon="11.21712" lat="48.87429"><ele>400.4</ele><time>2009-09-05T13:21:49.000Z</time><speed>22.5</speed><name>Eichstätt</name><desc>B13</desc></trkpt><trkpt lon="11.22036" lat="48.87158"><ele>412.5</ele><time>2009-09-05T13:22:02.000Z</time><speed>27.77777777777778</speed><name>Adelschlag</name><desc>B13</desc></trkpt><trkpt lon="11.25283" lat="48.85824"><ele>447.6</ele><time>2009-09-05T13:24:19.000Z</time><speed>27.5</speed><name>Eitensheim</name><desc>B13</desc></trkpt><trkpt lon="11.27821" lat="48.84508"><ele>414.2</ele><time>2009-09-05T13:25:42.000Z</time><speed>27.77777777777778</speed><name>Eitensheim</name><desc>B13 Eichenstätter Straße</desc></trkpt><trkpt lon="11.30178" lat="48.83218"><ele>432.6</ele><time>2009-09-05T13:26:57.000Z</time><speed>31.666666666666668</speed><name>Eitensheim</name><desc>B13</desc></trkpt><trkpt lon="11.33139" lat="48.80663"><ele>392.9</ele><time>2009-09-05T13:29:42.000Z</time><speed>29.72222222222222</speed><name>Eitensheim</name><desc>B13 Ingolstädter Straße</desc></trkpt><trkpt lon="11.33731" lat="48.7929"><ele>385.6</ele><time>2009-09-05T13:30:37.000Z</time><speed>29.444444444444443</speed><name>Gaimersheim</name><desc>B13</desc></trkpt><trkpt lon="11.33882" lat="48.78739"><ele>386.0</ele><time>2009-09-05T13:32:17.000Z</time><speed>3.3333333333333335</speed><name>Gaimersheim</name><desc>Gabelstraße</desc></trkpt><trkpt lon="11.33944" lat="48.78726"><ele>384.0</ele><time>2009-09-05T13:32:48.000Z</time><speed>0.0</speed><name>1133944:4878726</name></trkpt><trkpt lon="11.33875" lat="48.78716"><ele>382.7</ele><time>2009-09-05T14:10:46.000Z</time><speed>6.666666666666667</speed><name>Gaimersheim</name><desc>B13</desc></trkpt><trkpt lon="11.34607" lat="48.78499"><ele>380.0</ele><time>2009-09-05T14:11:27.000Z</time><speed>26.11111111111111</speed><name>Friedrichshofen</name><desc>B13</desc></trkpt><trkpt lon="11.36875" lat="48.78064"><ele>380.3</ele><time>2009-09-05T14:12:45.000Z</time><speed>16.38888888888889</speed><name>Friedrichshofen</name><desc>B13 Friedrichshofener Straße; 71</desc></trkpt><trkpt lon="11.38657" lat="48.77225"><ele>378.4</ele><time>2009-09-05T14:16:03.000Z</time><speed>6.388888888888889</speed><name>Friedrichshofen</name><desc>B13 Audi-Ring</desc></trkpt><trkpt lon="11.39022" lat="48.771"><ele>378.8</ele><time>2009-09-05T14:16:31.000Z</time><speed>17.22222222222222</speed><name>Friedrichshofen</name><desc>B13 Neuburger Straße</desc></trkpt><trkpt lon="11.40822" lat="48.7687"><ele>377.7</ele><time>2009-09-05T14:17:43.000Z</time><speed>17.77777777777778</speed><name>Ingolstadt</name><desc>B13 Neuburger Straße; 14</desc></trkpt><trkpt lon="11.41133" lat="48.76668"><ele>375.4</ele><time>2009-09-05T14:18:12.000Z</time><speed>0.8333333333333334</speed><name>Ingolstadt</name><desc>IN2 Westliche Ringstraße; 10</desc></trkpt><trkpt lon="11.41139" lat="48.76598"><ele>372.7</ele><time>2009-09-05T14:18:54.000Z</time><speed>10.0</speed><name>Ingolstadt</name><desc>Westliche Ringstraße</desc></trkpt><trkpt lon="11.4233" lat="48.757"><ele>368.5</ele><time>2009-09-05T14:20:54.000Z</time><speed>8.88888888888889</speed><name>Ingolstadt</name><desc>Glacisbrücke</desc></trkpt><trkpt lon="11.43047" lat="48.75573"><ele>368.4</ele><time>2009-09-05T14:22:15.000Z</time><speed>7.5</speed><name>Ingolstadt</name><desc>IN15 Südliche Ringstraße</desc></trkpt><trkpt lon="11.43727" lat="48.75658"><ele>366.7</ele><time>2009-09-05T14:22:45.000Z</time><speed>16.666666666666668</speed><name>Ingolstadt</name><desc>B13 Südliche Ringstraße; 42</desc></trkpt><trkpt lon="11.44009" lat="48.75826"><ele>368.7</ele><time>2009-09-05T14:23:12.000Z</time><speed>12.777777777777779</speed><name>Ingolstadt</name><desc>IN12 Manchinger Straße; 8</desc></trkpt><trkpt lon="11.45527" lat="48.75192"><ele>369.6</ele><time>2009-09-05T14:24:53.000Z</time><speed>7.222222222222222</speed><name>Kothau</name><desc>62 As Ingolstadt-Süd</desc></trkpt><trkpt lon="11.45737" lat="48.75186"><ele>365.6</ele><time>2009-09-05T14:25:11.000Z</time><speed>20.833333333333332</speed><name>Ingolstadt</name><desc>A9/E45</desc></trkpt><trkpt lon="11.479" lat="48.7216"><ele>367.0</ele><time>2009-09-05T14:27:14.000Z</time><speed>33.888888888888886</speed><name>Manching</name><desc>A9/E45</desc></trkpt><trkpt lon="11.48433" lat="48.70849"><ele>370.1</ele><time>2009-09-05T14:28:12.000Z</time><speed>16.944444444444443</speed><name>Pichl</name><desc>63 As Manching</desc></trkpt><trkpt lon="11.48482" lat="48.71"><ele>376.3</ele><time>2009-09-05T14:28:28.000Z</time><speed>16.944444444444443</speed><name>Manching</name><desc>B16</desc></trkpt><trkpt lon="11.53979" lat="48.72459"><ele>362.6</ele><time>2009-09-05T14:31:31.000Z</time><speed>27.77777777777778</speed><name>Vohburg An Der Donau</name><desc>B16</desc></trkpt><trkpt lon="11.56603" lat="48.72739"><ele>360.6</ele><time>2009-09-05T14:32:45.000Z</time><speed>28.333333333333332</speed><name>Ernsgaden</name><desc>B16 Bundesstraße</desc></trkpt><trkpt lon="11.59361" lat="48.73132"><ele>366.4</ele><time>2009-09-05T14:34:12.000Z</time><speed>13.88888888888889</speed><name>Ernsgaden</name><desc>Straße ohne Namen</desc></trkpt><trkpt lon="11.59523" lat="48.73093"><ele>369.0</ele><time>2009-09-05T14:34:27.000Z</time><speed>18.055555555555557</speed><name>Vohburg An Der Donau</name><desc>ST2232</desc></trkpt><trkpt lon="11.59817" lat="48.72816"><ele>362.1</ele><time>2009-09-05T14:34:43.000Z</time><speed>28.333333333333332</speed><name>Geisenfeld</name><desc>ST2232</desc></trkpt><trkpt lon="11.60904" lat="48.70712"><ele>368.6</ele><time>2009-09-05T14:36:17.000Z</time><speed>21.11111111111111</speed><name>Geisenfeld</name><desc>ST2232 Vohburger Straße</desc></trkpt><trkpt lon="11.61121" lat="48.70007"><ele>372.6</ele><time>2009-09-05T14:37:01.000Z</time><speed>24.166666666666668</speed><name>Geisenfeld</name><desc>ST2232 Am Grobet</desc></trkpt><trkpt lon="11.61278" lat="48.6931"><ele>379.5</ele><time>2009-09-05T14:37:34.000Z</time><speed>18.333333333333332</speed><name>Geisenfeld</name><desc>ST2232 Nöttinger Straße; 60</desc></trkpt><trkpt lon="11.61182" lat="48.68326"><ele>386.4</ele><time>2009-09-05T14:39:04.000Z</time><speed>11.38888888888889</speed><name>Geisenfeld</name><desc>ST2232 Münchener Straße; 5</desc></trkpt><trkpt lon="11.62116" lat="48.67359"><ele>377.8</ele><time>2009-09-05T14:40:39.000Z</time><speed>16.11111111111111</speed><name>Zell (Geisenfeld)</name><desc>ST2232 Münchener Straße; 80</desc></trkpt><trkpt lon="11.62495" lat="48.66886"><ele>385.2</ele><time>2009-09-05T14:41:20.000Z</time><speed>17.5</speed><name>Ainau</name><desc>ST2335 Rottenegger Straße; 35</desc></trkpt><trkpt lon="11.64106" lat="48.66212"><ele>394.3</ele><time>2009-09-05T14:42:11.000Z</time><speed>29.444444444444443</speed><name>Geisenfeld</name><desc>ST2335 Rottenegger Straße; 14</desc></trkpt><trkpt lon="11.64781" lat="48.65949"><ele>400.1</ele><time>2009-09-05T14:42:30.000Z</time><speed>29.166666666666668</speed><name>Geisenfeld</name><desc>ST2335 Geisenfelder Straße</desc></trkpt><trkpt lon="11.66045" lat="48.65568"><ele>412.4</ele><time>2009-09-05T14:43:07.000Z</time><speed>28.88888888888889</speed><name>Geisenfeld</name><desc>ST2335</desc></trkpt><trkpt lon="11.66521" lat="48.65309"><ele>409.9</ele><time>2009-09-05T14:43:25.000Z</time><speed>20.555555555555557</speed><name>Geisenfeld</name><desc>ST2335 Geisenfelder Straße; 17</desc></trkpt><trkpt lon="11.66694" lat="48.65053"><ele>410.2</ele><time>2009-09-05T14:43:52.000Z</time><speed>11.666666666666666</speed><name>Geisenfeld</name><desc>ST2335 Dorfstraße; 4</desc></trkpt><trkpt lon="11.67467" lat="48.64562"><ele>418.5</ele><time>2009-09-05T14:44:54.000Z</time><speed>16.38888888888889</speed><name>Geisenfeld</name><desc>ST2335 Mainburger Straße; 7</desc></trkpt><trkpt lon="11.67803" lat="48.64628"><ele>419.4</ele><time>2009-09-05T14:45:10.000Z</time><speed>19.166666666666668</speed><name>Geisenfeld</name><desc>ST2335</desc></trkpt><trkpt lon="11.6924" lat="48.636"><ele>461.9</ele><time>2009-09-05T14:46:42.000Z</time><speed>15.277777777777779</speed><name>Geisenfeld</name><desc>ST2335 Brunn; 1</desc></trkpt><trkpt lon="11.69562" lat="48.63536"><ele>471.9</ele><time>2009-09-05T14:46:56.000Z</time><speed>22.22222222222222</speed><name>Geisenfeld</name><desc>ST2335</desc></trkpt><trkpt lon="11.70506" lat="48.63164"><ele>452.7</ele><time>2009-09-05T14:47:29.000Z</time><speed>21.666666666666668</speed><name>Mainburg</name><desc>ST2335</desc></trkpt><trkpt lon="11.70817" lat="48.62951"><ele>444.8</ele><time>2009-09-05T14:47:56.000Z</time><speed>13.61111111111111</speed><name>Mainburg</name><desc>ST2049</desc></trkpt><trkpt lon="11.71117" lat="48.62961"><ele>444.6</ele><time>2009-09-05T14:48:09.000Z</time><speed>16.11111111111111</speed><name>Mainburg</name><desc>ST2049 Wolnzacher Straße; 122</desc></trkpt><trkpt lon="11.71873" lat="48.62917"><ele>442.8</ele><time>2009-09-05T14:48:39.000Z</time><speed>28.88888888888889</speed><name>Mainburg</name><desc>ST2049</desc></trkpt><trkpt lon="11.73983" lat="48.62956"><ele>433.3</ele><time>2009-09-05T14:49:44.000Z</time><speed>17.22222222222222</speed><name>Mainburg</name><desc>ST2049 Wolnzacher Straße</desc></trkpt><trkpt lon="11.75094" lat="48.63038"><ele>432.2</ele><time>2009-09-05T14:50:47.000Z</time><speed>30.555555555555557</speed><name>Mainburg</name><desc>ST2049</desc></trkpt><trkpt lon="11.79197" lat="48.62706"><ele>433.2</ele><time>2009-09-05T14:52:48.000Z</time><speed>15.277777777777779</speed><name>Mainburg</name><desc>ST2049 Äußere Landshuter Straße; 30</desc></trkpt><trkpt lon="11.80169" lat="48.62531"><ele>436.5</ele><time>2009-09-05T14:53:32.000Z</time><speed>21.666666666666668</speed><name>Volkenschwand</name><desc>ST2049</desc></trkpt><trkpt lon="11.81471" lat="48.61827"><ele>443.1</ele><time>2009-09-05T14:54:23.000Z</time><speed>17.22222222222222</speed><name>Mainburg</name><desc>ST2049 Mittermühle</desc></trkpt><trkpt lon="11.81722" lat="48.61581"><ele>445.3</ele><time>2009-09-05T14:54:38.000Z</time><speed>28.055555555555557</speed><name>Mainburg</name><desc>ST2049 Obermühle</desc></trkpt><trkpt lon="11.82113" lat="48.61295"><ele>450.5</ele><time>2009-09-05T14:54:55.000Z</time><speed>22.77777777777778</speed><name>Volkenschwand</name><desc>ST2049</desc></trkpt><trkpt lon="11.89141" lat="48.59089"><ele>506.9</ele><time>2009-09-05T14:59:31.000Z</time><speed>25.555555555555557</speed><name>Volkenschwand</name><desc>ST2049 Obergolzaberg</desc></trkpt><trkpt lon="11.89536" lat="48.59039"><ele>501.8</ele><time>2009-09-05T14:59:44.000Z</time><speed>22.77777777777778</speed><name>Volkenschwand</name><desc>ST2049 Untergolzaberg</desc></trkpt><trkpt lon="11.90884" lat="48.58842"><ele>500.9</ele><time>2009-09-05T15:00:37.000Z</time><speed>21.944444444444443</speed><name>Obersüßbach</name><desc>ST2049 Untergolzaberg</desc></trkpt><trkpt lon="11.91688" lat="48.58781"><ele>481.6</ele><time>2009-09-05T15:01:06.000Z</time><speed>23.055555555555557</speed><name>Obersüßbach</name><desc>ST2049</desc></trkpt><trkpt lon="11.94163" lat="48.58338"><ele>449.2</ele><time>2009-09-05T15:02:42.000Z</time><speed>15.0</speed><name>Obersüßbach</name><desc>LA38</desc></trkpt><trkpt lon="11.94405" lat="48.57485"><ele>461.6</ele><time>2009-09-05T15:03:26.000Z</time><speed>28.333333333333332</speed><name>Obersüßbach</name><desc>LA38 Kothingried</desc></trkpt><trkpt lon="11.94583" lat="48.57055"><ele>462.6</ele><time>2009-09-05T15:03:44.000Z</time><speed>26.944444444444443</speed><name>Gammelsdorf</name><desc>FS19 Kothingried</desc></trkpt><trkpt lon="11.94778" lat="48.56189"><ele>478.8</ele><time>2009-09-05T15:04:20.000Z</time><speed>26.666666666666668</speed><name>Gammelsdorf</name><desc>FS19 Hauptstraße</desc></trkpt><trkpt lon="11.94624" lat="48.54855"><ele>500.5</ele><time>2009-09-05T15:06:12.000Z</time><speed>14.444444444444445</speed><name>Gammelsdorf</name><desc>FS21</desc></trkpt><trkpt lon="11.96103" lat="48.53843"><ele>467.9</ele><time>2009-09-05T15:07:32.000Z</time><speed>17.22222222222222</speed><name>Gammelsdorf</name><desc>FS21 Gelbersdorf</desc></trkpt><trkpt lon="11.96472" lat="48.50614"><ele>404.8</ele><time>2009-09-05T07:12:53.000Z</time><speed>26.11111111111111</speed><name>Wang</name><desc>ST2045 Untere Hauptstraße; 67</desc></trkpt><trkpt lon="11.95617" lat="48.50088"><ele>410.2</ele><time>2009-09-05T07:13:52.000Z</time><speed>14.166666666666666</speed><name>Wang</name><desc>FS17 Isarstraße</desc></trkpt><trkpt lon="11.96434" lat="48.47669"><ele>408.9</ele><time>2009-09-05T07:16:50.000Z</time><speed>17.22222222222222</speed><name>Moosburg An Der Isar</name><desc>FS17 Uppenbornstraße</desc></trkpt><trkpt lon="11.96318" lat="48.47146"><ele>408.7</ele><time>2009-09-05T07:17:42.000Z</time><speed>4.722222222222222</speed><name>Moosburg An Der Isar</name><desc>B11</desc></trkpt><trkpt lon="11.95735" lat="48.46738"><ele>410.2</ele><time>2009-09-05T07:18:50.000Z</time><speed>0.0</speed><name>1195735:4846738</name></trkpt><trkpt lon="11.95381" lat="48.46548"><ele>418.3</ele><time>2009-09-05T07:26:54.000Z</time><speed>8.88888888888889</speed><name>Moosburg An Der Isar</name><desc>ST2054/ST2085/ST2331 Holzlandstraße</desc></trkpt><trkpt lon="11.95435" lat="48.46515"><ele>417.1</ele><time>2009-09-05T07:27:07.000Z</time><speed>10.555555555555555</speed><name>Moosburg An Der Isar</name><desc>ST2054 Holzlandstraße; 7</desc></trkpt><trkpt lon="11.96903" lat="48.46336"><ele>415.3</ele><time>2009-09-05T07:28:04.000Z</time><speed>28.333333333333332</speed><name>Moosburg An Der Isar</name><desc>ST2054</desc></trkpt><trkpt lon="11.98065" lat="48.46172"><ele>416.2</ele><time>2009-09-05T07:28:37.000Z</time><speed>23.055555555555557</speed><name>Moosburg An Der Isar</name><desc>ST2054 Sankt-Georg-Straße</desc></trkpt><trkpt lon="11.99414" lat="48.45881"><ele>410.4</ele><time>2009-09-05T07:29:58.000Z</time><speed>16.944444444444443</speed><name>Buch Am Erlbach</name><desc>ST2054</desc></trkpt><trkpt lon="11.99797" lat="48.45869"><ele>410.4</ele><time>2009-09-05T07:30:13.000Z</time><speed>24.72222222222222</speed><name>Buch Am Erlbach</name><desc>ST2054 Aicher Straße</desc></trkpt><trkpt lon="12.00223" lat="48.45906"><ele>411.2</ele><time>2009-09-05T07:30:42.000Z</time><speed>23.333333333333332</speed><name>Buch Am Erlbach</name><desc>ST2054/ST2082 Aicher Straße; 2</desc></trkpt><trkpt lon="12.00717" lat="48.46126"><ele>412.5</ele><time>2009-09-05T07:31:12.000Z</time><speed>14.722222222222221</speed><name>Buch Am Erlbach</name><desc>ST2054</desc></trkpt><trkpt lon="12.00923" lat="48.45982"><ele>414.5</ele><time>2009-09-05T07:31:25.000Z</time><speed>15.833333333333334</speed><name>Buch Am Erlbach</name><desc>ST2054 Hauptstraße</desc></trkpt><trkpt lon="12.02385" lat="48.45358"><ele>428.6</ele><time>2009-09-05T07:32:55.000Z</time><speed>15.833333333333334</speed><name>Obererlbach (Buch Am Erlbach)</name><desc>ST2054 Erlbacher Straße; 35</desc></trkpt><trkpt lon="12.03185" lat="48.44964"><ele>435.6</ele><time>2009-09-05T07:33:50.000Z</time><speed>11.666666666666666</speed><name>Buch Am Erlbach</name><desc>ST2054 Erlbacher Straße; 8</desc></trkpt><trkpt lon="12.03475" lat="48.44803"><ele>437.2</ele><time>2009-09-05T07:34:16.000Z</time><speed>13.61111111111111</speed><name>Buch Am Erlbach</name><desc>ST2330 Hauptstraße; 44</desc></trkpt><trkpt lon="12.04334" lat="48.43182"><ele>494.2</ele><time>2009-09-05T07:36:33.000Z</time><speed>21.666666666666668</speed><name>Buch Am Erlbach</name><desc>ST2330</desc></trkpt><trkpt lon="12.04354" lat="48.4298"><ele>487.0</ele><time>2009-09-05T07:36:48.000Z</time><speed>15.0</speed><name>Buch Am Erlbach</name><desc>ST2330 Ziegeleistraße; 6</desc></trkpt><trkpt lon="12.04299" lat="48.42711"><ele>485.0</ele><time>2009-09-05T07:37:12.000Z</time><speed>15.0</speed><name>Vatersdorf</name><desc>ST2330 Ziegeleistraße</desc></trkpt><trkpt lon="12.04545" lat="48.42415"><ele>497.3</ele><time>2009-09-05T07:37:38.000Z</time><speed>21.11111111111111</speed><name>Buch Am Erlbach</name><desc>ST2330</desc></trkpt><trkpt lon="12.04676" lat="48.42071"><ele>506.2</ele><time>2009-09-05T07:37:53.000Z</time><speed>28.333333333333332</speed><name>Kirchberg (Erding)</name><desc>ST2330</desc></trkpt><trkpt lon="12.05043" lat="48.41568"><ele>482.1</ele><time>2009-09-05T07:38:25.000Z</time><speed>16.666666666666668</speed><name>Kirchberg (Erding)</name><desc>ST2330 Schleibing</desc></trkpt><trkpt lon="12.06129" lat="48.41166"><ele>518.5</ele><time>2009-09-05T07:39:09.000Z</time><speed>15.833333333333334</speed><name>Kirchberg (Erding)</name><desc>ST2330</desc></trkpt><trkpt lon="12.06182" lat="48.41076"><ele>515.4</ele><time>2009-09-05T07:39:26.000Z</time><speed>5.833333333333333</speed><name>Kirchberg (Erding)</name><desc>ST2330 Arndorf; 8</desc></trkpt><trkpt lon="12.0779" lat="48.40594"><ele>483.9</ele><time>2009-09-05T07:41:40.000Z</time><speed>23.333333333333332</speed><name>Kirchberg (Erding)</name><desc>ST2330</desc></trkpt><trkpt lon="12.08101" lat="48.40481"><ele>489.5</ele><time>2009-09-05T07:41:55.000Z</time><speed>15.555555555555555</speed><name>Kirchberg (Erding)</name><desc>ST2330 Schröding; 5</desc></trkpt><trkpt lon="12.08374" lat="48.39797"><ele>511.7</ele><time>2009-09-05T07:42:39.000Z</time><speed>27.5</speed><name>Steinkirchen (Erding)</name><desc>ST2330 Schröding</desc></trkpt><trkpt lon="12.08591" lat="48.39388"><ele>499.3</ele><time>2009-09-05T07:42:58.000Z</time><speed>17.77777777777778</speed><name>Steinkirchen (Erding)</name><desc>ST2330 Hauptstraße; 27</desc></trkpt><trkpt lon="12.08358" lat="48.3877"><ele>499.4</ele><time>2009-09-05T07:43:50.000Z</time><speed>20.555555555555557</speed><name>Steinkirchen (Erding)</name><desc>ST2330</desc></trkpt><trkpt lon="12.08936" lat="48.38136"><ele>491.0</ele><time>2009-09-05T07:44:23.000Z</time><speed>27.22222222222222</speed><name>Steinkirchen (Erding)</name><desc>ST2330 Hofstarring</desc></trkpt><trkpt lon="12.1064" lat="48.37787"><ele>508.1</ele><time>2009-09-05T07:45:52.000Z</time><speed>22.77777777777778</speed><name>Steinkirchen (Erding)</name><desc>ST2330</desc></trkpt><trkpt lon="12.11154" lat="48.37628"><ele>496.9</ele><time>2009-09-05T07:46:07.000Z</time><speed>26.11111111111111</speed><name>Hohenpolding</name><desc>ST2330 Erdmannsdorf; 15</desc></trkpt><trkpt lon="12.11672" lat="48.37172"><ele>510.4</ele><time>2009-09-05T07:46:47.000Z</time><speed>20.27777777777778</speed><name>Hohenpolding</name><desc>ST2330 Großstockach</desc></trkpt><trkpt lon="12.12232" lat="48.36912"><ele>500.8</ele><time>2009-09-05T07:47:19.000Z</time><speed>6.111111111111111</speed><name>Hohenpolding</name><desc>B15 Großstockach; 1</desc></trkpt><trkpt lon="12.12454" lat="48.36422"><ele>505.1</ele><time>2009-09-05T07:47:49.000Z</time><speed>22.22222222222222</speed><name>Taufkirchen (Vils)</name><desc>B15</desc></trkpt><trkpt lon="12.12484" lat="48.36092"><ele>504.8</ele><time>2009-09-05T07:48:04.000Z</time><speed>27.22222222222222</speed><name>Taufkirchen (Vils)</name><desc>B15 Emling; 3</desc></trkpt><trkpt lon="12.12635" lat="48.35637"><ele>508.4</ele><time>2009-09-05T07:48:23.000Z</time><speed>23.61111111111111</speed><name>Taufkirchen (Vils)</name><desc>B15 Landshuter Straße</desc></trkpt><trkpt lon="12.12974" lat="48.3526"><ele>495.3</ele><time>2009-09-05T07:48:49.000Z</time><speed>9.444444444444445</speed><name>Vötting (Taufkirchen)</name><desc>B15 Landshuter Straße</desc></trkpt><trkpt lon="12.13047" lat="48.34952"><ele>486.3</ele><time>2009-09-05T07:49:27.000Z</time><speed>12.777777777777779</speed><name>Taufkirchen (Vils)</name><desc>B15 Landshuter Straße; 40</desc></trkpt><trkpt lon="12.13653" lat="48.34639"><ele>465.9</ele><time>2009-09-05T07:50:31.000Z</time><speed>19.444444444444443</speed><name>Taufkirchen (Vils)</name><desc>B388 Veldener Straße</desc></trkpt><trkpt lon="12.14633" lat="48.34645"><ele>465.1</ele><time>2009-09-05T07:51:03.000Z</time><speed>26.38888888888889</speed><name>Taufkirchen (Vils)</name><desc>B388 Ratzing; 6</desc></trkpt><trkpt lon="12.15276" lat="48.34725"><ele>464.6</ele><time>2009-09-05T07:51:22.000Z</time><speed>21.666666666666668</speed><name>Taufkirchen (Vils)</name><desc>B388 Ahamstraße</desc></trkpt><trkpt lon="12.16584" lat="48.3483"><ele>466.6</ele><time>2009-09-05T07:52:20.000Z</time><speed>23.055555555555557</speed><name>Taufkirchen (Vils)</name><desc>B388 Osen; 1</desc></trkpt><trkpt lon="12.1723" lat="48.35027"><ele>471.8</ele><time>2009-09-05T07:52:50.000Z</time><speed>13.333333333333334</speed><name>Taufkirchen (Vils)</name><desc>B388 Granting; 4</desc></trkpt><trkpt lon="12.18407" lat="48.35128"><ele>473.5</ele><time>2009-09-05T07:53:33.000Z</time><speed>26.38888888888889</speed><name>Velden (Landshut)</name><desc>B388</desc></trkpt><trkpt lon="12.21495" lat="48.35279"><ele>460.3</ele><time>2009-09-05T07:55:02.000Z</time><speed>28.333333333333332</speed><name>Taufkirchen (Vils)</name><desc>B388 Jettenstetten; 23</desc></trkpt><trkpt lon="12.21969" lat="48.35552"><ele>464.0</ele><time>2009-09-05T07:55:21.000Z</time><speed>19.72222222222222</speed><name>Velden (Landshut)</name><desc>B388</desc></trkpt><trkpt lon="12.22559" lat="48.35632"><ele>455.8</ele><time>2009-09-05T07:55:54.000Z</time><speed>18.61111111111111</speed><name>Velden (Landshut)</name><desc>LA59</desc></trkpt><trkpt lon="12.22767" lat="48.35548"><ele>456.1</ele><time>2009-09-05T07:56:11.000Z</time><speed>10.277777777777779</speed><name>Velden (Landshut)</name><desc>LA59 Oberbabing; 7</desc></trkpt><trkpt lon="12.23377" lat="48.35499"><ele>455.7</ele><time>2009-09-05T07:56:40.000Z</time><speed>19.166666666666668</speed><name>Velden (Landshut)</name><desc>LA59</desc></trkpt><trkpt lon="12.23759" lat="48.35447"><ele>456.9</ele><time>2009-09-05T07:57:07.000Z</time><speed>21.666666666666668</speed><name>Velden (Landshut)</name><desc>LA16</desc></trkpt><trkpt lon="12.24386" lat="48.35126"><ele>458.8</ele><time>2009-09-05T07:57:34.000Z</time><speed>25.0</speed><name>Velden (Landshut)</name><desc>LA16 Spindlhäusl; 1</desc></trkpt><trkpt lon="12.24735" lat="48.34843"><ele>460.0</ele><time>2009-09-05T07:57:49.000Z</time><speed>28.055555555555557</speed><name>Velden (Landshut)</name><desc>LA16</desc></trkpt><trkpt lon="12.25107" lat="48.33491"><ele>467.7</ele><time>2009-09-05T07:58:43.000Z</time><speed>29.444444444444443</speed><name>Velden (Landshut)</name><desc>LA16 Neunehaid; 1</desc></trkpt><trkpt lon="12.25486" lat="48.3301"><ele>469.7</ele><time>2009-09-05T07:59:02.000Z</time><speed>31.38888888888889</speed><name>Velden (Landshut)</name><desc>LA16</desc></trkpt><trkpt lon="12.25768" lat="48.32577"><ele>485.1</ele><time>2009-09-05T07:59:20.000Z</time><speed>24.166666666666668</speed><name>Buchbach</name><desc>MÜ23</desc></trkpt><trkpt lon="12.26355" lat="48.31983"><ele>457.1</ele><time>2009-09-05T08:00:03.000Z</time><speed>15.555555555555555</speed><name>Buchbach</name><desc>MÜ23 Felizenzell; 18</desc></trkpt><trkpt lon="12.27159" lat="48.31272"><ele>455.3</ele><time>2009-09-05T08:01:12.000Z</time><speed>1.9444444444444444</speed><name>Buchbach</name><desc>MÜ23 Felizenzeller Straße; 1</desc></trkpt><trkpt lon="12.27301" lat="48.31273"><ele>450.5</ele><time>2009-09-05T08:01:39.000Z</time><speed>4.722222222222222</speed><name>Buchbach</name><desc>MÜ23 Markplatz; 4</desc></trkpt><trkpt lon="12.27413" lat="48.31233"><ele>452.2</ele><time>2009-09-05T08:01:54.000Z</time><speed>5.833333333333333</speed><name>Buchbach</name><desc>ST2087 Hauptstraße; 10</desc></trkpt><trkpt lon="12.27428" lat="48.31131"><ele>453.0</ele><time>2009-09-05T08:02:10.000Z</time><speed>10.0</speed><name>Buchbach</name><desc>ST2087 Dorfener Straße; 5</desc></trkpt><trkpt lon="12.26872" lat="48.30662"><ele>438.6</ele><time>2009-09-05T08:04:20.000Z</time><speed>13.61111111111111</speed><name>Buchbach</name><desc>ST2087 Steeg</desc></trkpt><trkpt lon="12.26725" lat="48.29893"><ele>435.3</ele><time>2009-09-05T08:05:21.000Z</time><speed>22.5</speed><name>Buchbach</name><desc>ST2087 Einstetting; 1</desc></trkpt><trkpt lon="12.27075" lat="48.29452"><ele>436.7</ele><time>2009-09-05T08:05:51.000Z</time><speed>25.833333333333332</speed><name>Buchbach</name><desc>ST2087</desc></trkpt><trkpt lon="12.27265" lat="48.29079"><ele>433.8</ele><time>2009-09-05T08:06:08.000Z</time><speed>27.5</speed><name>Schwindegg</name><desc>ST2087</desc></trkpt><trkpt lon="12.27524" lat="48.28225"><ele>429.7</ele><time>2009-09-05T08:06:47.000Z</time><speed>23.333333333333332</speed><name>Schwindegg</name><desc>MÜ22</desc></trkpt><trkpt lon="12.2846" lat="48.27935"><ele>428.4</ele><time>2009-09-05T08:07:22.000Z</time><speed>17.22222222222222</speed><name>Schwindegg</name><desc>MÜ24</desc></trkpt><trkpt lon="12.29581" lat="48.27841"><ele>425.4</ele><time>2009-09-05T08:08:09.000Z</time><speed>13.333333333333334</speed><name>Schwindegg</name><desc>Straße ohne Namen</desc></trkpt><trkpt lon="12.30092" lat="48.2777"><ele>428.7</ele><time>2009-09-05T08:09:01.000Z</time><speed>10.555555555555555</speed><name>Schwindegg</name><desc>Walkersaich; 1</desc></trkpt><trkpt lon="12.31221" lat="48.27638"><ele>435.4</ele><time>2009-09-05T08:10:18.000Z</time><speed>17.77777777777778</speed><name>Schwindegg</name><desc>Straße ohne Namen</desc></trkpt><trkpt lon="12.31938" lat="48.27479"><ele>425.7</ele><time>2009-09-05T08:10:47.000Z</time><speed>11.666666666666666</speed><name>Schwindegg</name><desc>Edmühle; 1</desc></trkpt><trkpt lon="12.32439" lat="48.27132"><ele>422.7</ele><time>2009-09-05T08:11:35.000Z</time><speed>19.166666666666668</speed><name>Schwindegg</name><desc>Straße ohne Namen</desc></trkpt><trkpt lon="12.32489" lat="48.26943"><ele>422.2</ele><time>2009-09-05T08:11:49.000Z</time><speed>17.5</speed><name>Heldenstein</name><desc>Straße ohne Namen</desc></trkpt><trkpt lon="12.32727" lat="48.26584"><ele>423.7</ele><time>2009-09-05T08:12:32.000Z</time><speed>20.555555555555557</speed><name>Heldenstein</name><desc>ST2084</desc></trkpt><trkpt lon="12.34834" lat="48.25574"><ele>423.1</ele><time>2009-09-05T08:13:42.000Z</time><speed>28.88888888888889</speed><name>Heldenstein</name><desc>ST2084 Isentalstraße</desc></trkpt><trkpt lon="12.35398" lat="48.25251"><ele>423.2</ele><time>2009-09-05T08:14:00.000Z</time><speed>27.5</speed><name>Heldenstein</name><desc>ST2084 Söllerstadt; 14</desc></trkpt><trkpt lon="12.36188" lat="48.24946"><ele>428.1</ele><time>2009-09-05T08:14:33.000Z</time><speed>20.27777777777778</speed><name>Heldenstein</name><desc>ST2084</desc></trkpt><trkpt lon="12.36051" lat="48.2466"><ele>430.1</ele><time>2009-09-05T08:15:00.000Z</time><speed>11.11111111111111</speed><name>Heldenstein</name><desc>Straße ohne Namen</desc></trkpt><trkpt lon="12.36079" lat="48.24742"><ele>426.5</ele><time>2009-09-05T08:15:13.000Z</time><speed>16.944444444444443</speed><name>Heldenstein</name><desc>B12/E552</desc></trkpt><trkpt lon="12.40155" lat="48.24932"><ele>422.1</ele><time>2009-09-05T08:17:16.000Z</time><speed>19.72222222222222</speed><name>Ampfing</name><desc>B12/E552</desc></trkpt><trkpt lon="12.41101" lat="48.24655"><ele>423.1</ele><time>2009-09-05T08:17:55.000Z</time><speed>11.944444444444445</speed><name>Ampfing</name><desc>Straße ohne Namen</desc></trkpt><trkpt lon="12.41237" lat="48.2426"><ele>422.4</ele><time>2009-09-05T08:18:32.000Z</time><speed>21.944444444444443</speed><name>Ampfing</name><desc>ST2091 Holzheim; 5</desc></trkpt><trkpt lon="12.41255" lat="48.23709"><ele>424.1</ele><time>2009-09-05T08:19:00.000Z</time><speed>25.0</speed><name>Ampfing</name><desc>ST2091</desc></trkpt><trkpt lon="12.41386" lat="48.23392"><ele>426.1</ele><time>2009-09-05T08:19:15.000Z</time><speed>22.22222222222222</speed><name>Ampfing</name><desc>ST2091 Rabein</desc></trkpt><trkpt lon="12.41388" lat="48.23127"><ele>427.1</ele><time>2009-09-05T08:19:29.000Z</time><speed>22.5</speed><name>Ampfing</name><desc>ST2091</desc></trkpt><trkpt lon="12.41168" lat="48.22695"><ele>432.6</ele><time>2009-09-05T08:20:29.000Z</time><speed>0.0</speed><name>1241168:4822695</name></trkpt><trkpt lon="12.41497" lat="48.22232"><ele>428.7</ele><time>2009-09-05T08:34:12.000Z</time><speed>26.666666666666668</speed><name>Waldkraiburg</name><desc>ST2091</desc></trkpt><trkpt lon="12.42326" lat="48.20322"><ele>412.5</ele><time>2009-09-05T08:36:48.000Z</time><speed>13.333333333333334</speed><name>Waldkraiburg</name><desc>ST2091 Pürten; 45</desc></trkpt><trkpt lon="12.42417" lat="48.19566"><ele>396.7</ele><time>2009-09-05T08:38:05.000Z</time><speed>13.88888888888889</speed><name>Waldkraiburg</name><desc>ST2091</desc></trkpt><trkpt lon="12.42516" lat="48.1939"><ele>396.9</ele><time>2009-09-05T08:39:56.000Z</time><speed>1.6666666666666667</speed><name>Waldkraiburg</name><desc>ST2091/MÜ18</desc></trkpt><trkpt lon="12.42583" lat="48.19399"><ele>396.3</ele><time>2009-09-05T08:40:25.000Z</time><speed>0.0</speed><name>Waldkraiburg</name><desc>MÜ18</desc></trkpt><trkpt lon="12.43822" lat="48.1916"><ele>408.4</ele><time>2009-09-05T08:46:57.000Z</time><speed>16.944444444444443</speed><name>Kraiburg Am Inn</name><desc>MÜ18</desc></trkpt><trkpt lon="12.44937" lat="48.18521"><ele>438.1</ele><time>2009-09-05T08:48:05.000Z</time><speed>18.333333333333332</speed><name>Kraiburg Am Inn</name><desc>ST2092</desc></trkpt><trkpt lon="12.46024" lat="48.17417"><ele>467.2</ele><time>2009-09-05T08:49:07.000Z</time><speed>27.5</speed><name>Kraiburg Am Inn</name><desc>ST2360</desc></trkpt><trkpt lon="12.45755" lat="48.1618"><ele>486.5</ele><time>2009-09-05T08:50:02.000Z</time><speed>20.27777777777778</speed><name>Taufkirchen (Mühldorf Am Inn)</name><desc>ST2360 Lanzing</desc></trkpt><trkpt lon="12.45594" lat="48.15656"><ele>484.9</ele><time>2009-09-05T08:50:33.000Z</time><speed>18.61111111111111</speed><name>Taufkirchen (Mühldorf Am Inn)</name><desc>ST2360</desc></trkpt><trkpt lon="12.4488" lat="48.15007"><ele>487.8</ele><time>2009-09-05T08:51:08.000Z</time><speed>26.11111111111111</speed><name>Taufkirchen (Mühldorf Am Inn)</name><desc>ST2091/ST2360</desc></trkpt><trkpt lon="12.45278" lat="48.14183"><ele>474.1</ele><time>2009-09-05T08:52:06.000Z</time><speed>26.944444444444443</speed><name>Taufkirchen (Mühldorf Am Inn)</name><desc>ST2091</desc></trkpt><trkpt lon="12.46176" lat="48.13122"><ele>501.9</ele><time>2009-09-05T08:53:09.000Z</time><speed>18.333333333333332</speed><name>Taufkirchen (Mühldorf Am Inn)</name><desc>ST2091 Weiß; 10</desc></trkpt><trkpt lon="12.46223" lat="48.12784"><ele>507.7</ele><time>2009-09-05T08:53:36.000Z</time><speed>13.61111111111111</speed><name>Taufkirchen (Mühldorf Am Inn)</name><desc>ST2091</desc></trkpt><trkpt lon="12.46384" lat="48.12584"><ele>497.5</ele><time>2009-09-05T08:53:48.000Z</time><speed>22.5</speed><name>Tacherting</name><desc>ST2091</desc></trkpt><trkpt lon="12.4639" lat="48.12238"><ele>510.8</ele><time>2009-09-05T08:54:04.000Z</time><speed>25.555555555555557</speed><name>Taufkirchen (Mühldorf Am Inn)</name><desc>ST2091 Höllhund; 4</desc></trkpt><trkpt lon="12.46731" lat="48.11921"><ele>507.1</ele><time>2009-09-05T08:54:20.000Z</time><speed>28.333333333333332</speed><name>Tacherting</name><desc>ST2091</desc></trkpt><trkpt lon="12.4697" lat="48.1115"><ele>504.1</ele><time>2009-09-05T08:55:01.000Z</time><speed>22.22222222222222</speed><name>Tacherting</name><desc>ST2091 Liebharten; 46</desc></trkpt><trkpt lon="12.47374" lat="48.10916"><ele>512.6</ele><time>2009-09-05T08:55:28.000Z</time><speed>12.777777777777779</speed><name>Tacherting</name><desc>ST2091</desc></trkpt><trkpt lon="12.47752" lat="48.09856"><ele>491.4</ele><time>2009-09-05T08:56:27.000Z</time><speed>23.333333333333332</speed><name>Tacherting</name><desc>ST2091 Kraiburger Straße</desc></trkpt><trkpt lon="12.47507" lat="48.09465"><ele>509.4</ele><time>2009-09-05T08:56:57.000Z</time><speed>6.388888888888889</speed><name>Tacherting</name><desc>ST2091 Dorfplatz; 13</desc></trkpt><trkpt lon="12.47915" lat="48.09468"><ele>505.1</ele><time>2009-09-05T08:57:29.000Z</time><speed>19.72222222222222</speed><name>Tacherting</name><desc>TS20 Wiesmühler Straße; 6</desc></trkpt><trkpt lon="12.4754" lat="48.09456"><ele>513.9</ele><time>2009-09-05T08:58:43.000Z</time><speed>8.055555555555555</speed><name>Tacherting</name><desc>ST2091 Dorfplatz; 13</desc></trkpt><trkpt lon="12.47514" lat="48.09368"><ele>513.4</ele><time>2009-09-05T08:58:58.000Z</time><speed>11.38888888888889</speed><name>Tacherting</name><desc>ST2091 Trostberger Straße; 3</desc></trkpt><trkpt lon="12.47579" lat="48.09043"><ele>513.5</ele><time>2009-09-05T08:59:33.000Z</time><speed>19.166666666666668</speed><name>Tacherting</name><desc>ST2091 Pfarrhofstraße</desc></trkpt><trkpt lon="12.47713" lat="48.08725"><ele>520.4</ele><time>2009-09-05T08:59:49.000Z</time><speed>26.11111111111111</speed><name>Tacherting</name><desc>ST2091</desc></trkpt><trkpt lon="12.47992" lat="48.08443"><ele>524.6</ele><time>2009-09-05T09:00:03.000Z</time><speed>26.944444444444443</speed><name>Tacherting</name><desc>ST2091 Buch; 11</desc></trkpt><trkpt lon="12.48645" lat="48.07686"><ele>525.7</ele><time>2009-09-05T09:00:39.000Z</time><speed>18.88888888888889</speed><name>Tacherting</name><desc>ST2091 Trostberger Straße</desc></trkpt><trkpt lon="12.48878" lat="48.06672"><ele>522.5</ele><time>2009-09-05T09:03:38.000Z</time><speed>11.944444444444445</speed><name>Tacherting</name><desc>ST2091</desc></trkpt><trkpt lon="12.49636" lat="48.05723"><ele>528.3</ele><time>2009-09-05T09:04:27.000Z</time><speed>23.333333333333332</speed><name>Kienberg</name><desc>ST2091</desc></trkpt><trkpt lon="12.51402" lat="48.04348"><ele>528.4</ele><time>2009-09-05T09:05:44.000Z</time><speed>24.444444444444443</speed><name>Trostberg</name><desc>ST2091</desc></trkpt><trkpt lon="12.52269" lat="48.03895"><ele>542.2</ele><time>2009-09-05T09:06:17.000Z</time><speed>18.88888888888889</speed><name>Trostberg</name><desc>ST2091 Deisenham; 31</desc></trkpt><trkpt lon="12.53486" lat="48.0305"><ele>541.9</ele><time>2009-09-05T09:07:19.000Z</time><speed>16.666666666666668</speed><name>Trostberg</name><desc>ST2091 Schwarzerberg</desc></trkpt><trkpt lon="12.53513" lat="48.02304"><ele>501.8</ele><time>2009-09-05T09:08:28.000Z</time><speed>13.88888888888889</speed><name>Trostberg</name><desc>B299 Oberfeldkirchner Straße</desc></trkpt><trkpt lon="12.53461" lat="48.0216"><ele>501.7</ele><time>2009-09-05T09:08:53.000Z</time><speed>3.0555555555555554</speed><name>Schwarzau</name><desc>Sonnenleitenstraße</desc></trkpt><trkpt lon="12.53518" lat="48.02104"><ele>494.8</ele><time>2009-09-05T09:10:02.000Z</time><speed>0.0</speed><name>1253518:4802104</name></trkpt><trkpt lon="12.53541" lat="48.02187"><ele>499.6</ele><time>2009-09-05T09:31:42.000Z</time><speed>10.0</speed><name>Schwarzau</name><desc>B299</desc></trkpt><trkpt lon="12.53117" lat="48.01193"><ele>494.5</ele><time>2009-09-05T09:32:52.000Z</time><speed>22.22222222222222</speed><name>Altenmarkt An Der Alz</name><desc>B299</desc></trkpt><trkpt lon="12.53251" lat="48.00692"><ele>494.7</ele><time>2009-09-05T09:33:21.000Z</time><speed>17.5</speed><name>Altenmarkt An Der Alz</name><desc>B299 Trostberger Straße; 14</desc></trkpt><trkpt lon="12.53522" lat="48.00371"><ele>498.1</ele><time>2009-09-05T09:34:00.000Z</time><speed>11.38888888888889</speed><name>Altenmarkt An Der Alz</name><desc>B304 Hauptstraße; 51</desc></trkpt><trkpt lon="12.53481" lat="47.99823"><ele>499.8</ele><time>2009-09-05T09:35:04.000Z</time><speed>12.5</speed><name>Altenmarkt An Der Alz</name><desc>B304 Traunsteiner Straße; 10</desc></trkpt><trkpt lon="12.54406" lat="47.98656"><ele>502.5</ele><time>2009-09-05T09:36:52.000Z</time><speed>13.88888888888889</speed><name>Traunreut</name><desc>B304</desc></trkpt><trkpt lon="12.54613" lat="47.98607"><ele>504.8</ele><time>2009-09-05T09:37:06.000Z</time><speed>12.5</speed><name>Altenmarkt An Der Alz</name><desc>B304 Hauptstraße</desc></trkpt><trkpt lon="12.55473" lat="47.98093"><ele>511.3</ele><time>2009-09-05T09:38:00.000Z</time><speed>20.833333333333332</speed><name>Traunreut</name><desc>B304 Katzwallner; 2</desc></trkpt><trkpt lon="12.55682" lat="47.97858"><ele>511.9</ele><time>2009-09-05T09:38:16.000Z</time><speed>16.666666666666668</speed><name>Traunreut</name><desc>B304 Hauptstraße</desc></trkpt><trkpt lon="12.5685" lat="47.96262"><ele>518.2</ele><time>2009-09-05T09:39:59.000Z</time><speed>18.61111111111111</speed><name>Traunreut</name><desc>B304 Unterdorf; 9</desc></trkpt><trkpt lon="12.56849" lat="47.96017"><ele>525.5</ele><time>2009-09-05T09:40:14.000Z</time><speed>18.61111111111111</speed><name>Traunreut</name><desc>B304 Oberdorf</desc></trkpt><trkpt lon="12.56812" lat="47.95606"><ele>537.5</ele><time>2009-09-05T09:40:42.000Z</time><speed>22.5</speed><name>Traunreut</name><desc>B304</desc></trkpt><trkpt lon="12.58242" lat="47.94476"><ele>546.5</ele><time>2009-09-05T09:42:00.000Z</time><speed>15.833333333333334</speed><name>Traunreut</name><desc>B304 Nunhausen; 2</desc></trkpt><trkpt lon="12.58573" lat="47.94333"><ele>545.2</ele><time>2009-09-05T09:42:14.000Z</time><speed>19.444444444444443</speed><name>Traunreut</name><desc>B304</desc></trkpt><trkpt lon="12.58844" lat="47.93911"><ele>562.1</ele><time>2009-09-05T09:42:40.000Z</time><speed>15.833333333333334</speed><name>Traunreut</name><desc>B304 Hauptstraße; 17</desc></trkpt><trkpt lon="12.59976" lat="47.92925"><ele>565.2</ele><time>2009-09-05T09:44:59.000Z</time><speed>20.833333333333332</speed><name>Traunreut</name><desc>B304</desc></trkpt><trkpt lon="12.60379" lat="47.92313"><ele>562.9</ele><time>2009-09-05T09:45:31.000Z</time><speed>20.0</speed><name>Traunreut</name><desc>B304</desc></trkpt><trkpt lon="12.60604" lat="47.9173"><ele>566.8</ele><time>2009-09-05T09:45:59.000Z</time><speed>24.166666666666668</speed><name>Nußdorf</name><desc>B304</desc></trkpt><trkpt lon="12.62645" lat="47.89315"><ele>589.2</ele><time>2009-09-05T09:48:18.000Z</time><speed>21.38888888888889</speed><name>Traunstein</name><desc>B304</desc></trkpt><trkpt lon="12.62928" lat="47.88818"><ele>601.5</ele><time>2009-09-05T09:48:48.000Z</time><speed>20.27777777777778</speed><name>Traunstein</name><desc>B304 Wasserburger Straße</desc></trkpt><trkpt lon="12.64135" lat="47.87044"><ele>588.2</ele><time>2009-09-05T09:52:14.000Z</time><speed>9.722222222222221</speed><name>Traunstein</name><desc>B304 Herzog-Friedrich-Straße; 1</desc></trkpt><trkpt lon="12.64171" lat="47.86718"><ele>595.6</ele><time>2009-09-05T09:54:02.000Z</time><speed>8.333333333333334</speed><name>Traunstein</name><desc>B304 Rosenheimer Straße; 5</desc></trkpt><trkpt lon="12.64497" lat="47.86677"><ele>585.3</ele><time>2009-09-05T09:54:30.000Z</time><speed>11.944444444444445</speed><name>Traunstein</name><desc>B304 Salinenstraße; 6</desc></trkpt><trkpt lon="12.65083" lat="47.86394"><ele>580.1</ele><time>2009-09-05T09:55:50.000Z</time><speed>11.944444444444445</speed><name>Traunstein</name><desc>B306</desc></trkpt><trkpt lon="12.63822" lat="47.8568"><ele>589.2</ele><time>2009-09-05T09:57:02.000Z</time><speed>15.555555555555555</speed><name>Traunstein</name><desc>B306 Deutsche Ferienstraße Alpen-Ostsee</desc></trkpt><trkpt lon="12.6426" lat="47.83787"><ele>593.1</ele><time>2009-09-05T09:58:54.000Z</time><speed>18.055555555555557</speed><name>Siegsdorf</name><desc>B306 Deutsche Alpenstraße</desc></trkpt><trkpt lon="12.6486" lat="47.82667"><ele>605.2</ele><time>2009-09-05T10:00:08.000Z</time><speed>18.88888888888889</speed><name>Siegsdorf</name><desc>B306 Deutsche Ferienstraße Alpen-Ostsee</desc></trkpt><trkpt lon="12.65454" lat="47.82067"><ele>630.5</ele><time>2009-09-05T10:00:52.000Z</time><speed>16.38888888888889</speed><name>Siegsdorf</name><desc>B306 Deutsche Alpenstraße</desc></trkpt><trkpt lon="12.65529" lat="47.81971"><ele>631.2</ele><time>2009-09-05T10:01:07.000Z</time><speed>8.333333333333334</speed><name>Siegsdorf</name><desc>B306</desc></trkpt><trkpt lon="12.67723" lat="47.81669"><ele>636.6</ele><time>2009-09-05T10:02:37.000Z</time><speed>16.38888888888889</speed><name>Siegsdorf</name><desc>B306</desc></trkpt><trkpt lon="12.68056" lat="47.81512"><ele>640.3</ele><time>2009-09-05T10:03:04.000Z</time><speed>10.277777777777779</speed><name>Siegsdorf</name><desc>B306 Deutsche Alpenstraße; 60</desc></trkpt><trkpt lon="12.68564" lat="47.8109"><ele>627.4</ele><time>2009-09-05T10:03:58.000Z</time><speed>9.722222222222221</speed><name>Siegsdorf</name><desc>B306</desc></trkpt><trkpt lon="12.69401" lat="47.80604"><ele>655.0</ele><time>2009-09-05T10:05:03.000Z</time><speed>20.833333333333332</speed><name>Siegsdorf</name><desc>B306 Inzeller Straße</desc></trkpt><trkpt lon="12.71342" lat="47.79844"><ele>677.4</ele><time>2009-09-05T10:06:31.000Z</time><speed>22.5</speed><name>Siegsdorf</name><desc>B306 Unterwagenau; 1</desc></trkpt><trkpt lon="12.71769" lat="47.79689"><ele>682.3</ele><time>2009-09-05T10:06:45.000Z</time><speed>25.555555555555557</speed><name>Siegsdorf</name><desc>B306</desc></trkpt><trkpt lon="12.72685" lat="47.7891"><ele>690.4</ele><time>2009-09-05T10:07:28.000Z</time><speed>25.555555555555557</speed><name>Inzell</name><desc>B306 Deutsche Ferienstraße Alpen-Ostsee</desc></trkpt><trkpt lon="12.72979" lat="47.78575"><ele>680.6</ele><time>2009-09-05T10:07:44.000Z</time><speed>25.0</speed><name>Inzell</name><desc>B306 Traunsteiner Straße; 158</desc></trkpt><trkpt lon="12.74827" lat="47.76395"><ele>691.4</ele><time>2009-09-05T10:10:03.000Z</time><speed>13.88888888888889</speed><name>Inzell</name><desc>B306 Reichenhaller Straße</desc></trkpt><trkpt lon="12.74962" lat="47.76044"><ele>687.4</ele><time>2009-09-05T10:10:31.000Z</time><speed>16.11111111111111</speed><name>Bichl (Inzell)</name><desc>B306 Reichenhaller Straße</desc></trkpt><trkpt lon="12.75041" lat="47.75339"><ele>693.5</ele><time>2009-09-05T10:11:17.000Z</time><speed>17.77777777777778</speed><name>Inzell</name><desc>B306 Reichenhaller Straße; 66</desc></trkpt><trkpt lon="12.74948" lat="47.748"><ele>707.8</ele><time>2009-09-05T10:11:47.000Z</time><speed>17.77777777777778</speed><name>Inzell</name><desc>B305 Reichenhaller Straße</desc></trkpt><trkpt lon="12.75602" lat="47.73666"><ele>690.2</ele><time>2009-09-05T10:12:45.000Z</time><speed>23.055555555555557</speed><name>Schneizlreuth</name><desc>B305 Inzeller Straße; 47</desc></trkpt><trkpt lon="12.75699" lat="47.72891"><ele>636.6</ele><time>2009-09-05T10:13:30.000Z</time><speed>23.88888888888889</speed><name>Schneizlreuth</name><desc>B305 Inzellerstraße; 45</desc></trkpt><trkpt lon="12.76043" lat="47.72703"><ele>629.0</ele><time>2009-09-05T10:13:44.000Z</time><speed>22.77777777777778</speed><name>Schneizlreuth</name><desc>B305 Inzeller Straße; 36</desc></trkpt><trkpt lon="12.76569" lat="47.7229"><ele>619.4</ele><time>2009-09-05T10:14:15.000Z</time><speed>22.5</speed><name>Schneizlreuth</name><desc>B305</desc></trkpt><trkpt lon="12.769" lat="47.72097"><ele>612.8</ele><time>2009-09-05T10:14:30.000Z</time><speed>19.166666666666668</speed><name>Schneizlreuth</name><desc>B305 Berchtesgadener Straße</desc></trkpt><trkpt lon="12.77718" lat="47.71485"><ele>617.2</ele><time>2009-09-05T10:15:28.000Z</time><speed>20.833333333333332</speed><name>Schneizlreuth</name><desc>B305</desc></trkpt><trkpt lon="12.78438" lat="47.71205"><ele>638.1</ele><time>2009-09-05T10:15:58.000Z</time><speed>19.166666666666668</speed><name>Schneizlreuth</name><desc>B305 Mauthäusl</desc></trkpt><trkpt lon="12.78842" lat="47.7118"><ele>636.2</ele><time>2009-09-05T10:16:14.000Z</time><speed>19.72222222222222</speed><name>Schneizlreuth</name><desc>B305</desc></trkpt><trkpt lon="12.79936" lat="47.70572"><ele>623.6</ele><time>2009-09-05T10:17:27.000Z</time><speed>14.444444444444445</speed><name>Schneizlreuth</name><desc>B305 Deutsche Ferienstraße Alpen-Ostsee</desc></trkpt><trkpt lon="12.80352" lat="47.68942"><ele>513.6</ele><time>2009-09-05T10:19:32.000Z</time><speed>18.88888888888889</speed><name>Ulrichsholz</name><desc>B21/B305 Schneizlreuth; 9</desc></trkpt><trkpt lon="12.81809" lat="47.68338"><ele>502.0</ele><time>2009-09-05T10:20:44.000Z</time><speed>20.27777777777778</speed><name>Schneizlreuth</name><desc>B21/B305 Schneizlreuth</desc></trkpt><trkpt lon="12.82085" lat="47.68236"><ele>503.9</ele><time>2009-09-05T10:21:01.000Z</time><speed>11.944444444444445</speed><name>Schneizlreuth</name><desc>B21/B305</desc></trkpt><trkpt lon="12.82105" lat="47.68053"><ele>513.7</ele><time>2009-09-05T10:21:15.000Z</time><speed>13.88888888888889</speed><name>Schneizlreuth</name><desc>B305 Alpenstraße</desc></trkpt><trkpt lon="12.84483" lat="47.66193"><ele>683.7</ele><time>2009-09-05T10:24:42.000Z</time><speed>0.0</speed><name>1284483:4766193</name></trkpt><trkpt lon="12.84834" lat="47.65786"><ele>716.9</ele><time>2009-09-05T10:49:49.000Z</time><speed>25.555555555555557</speed><name>Ramsau Bei Berchtesgaden</name><desc>B305 Alpenstraße</desc></trkpt><trkpt lon="12.89069" lat="47.61485"><ele>841.3</ele><time>2009-09-05T10:54:48.000Z</time><speed>14.166666666666666</speed><name>Ramsau Bei Berchtesgaden</name><desc>BGL17 Schwarzecker Straße</desc></trkpt><trkpt lon="12.90438" lat="47.62659"><ele>1038.0</ele><time>2009-09-05T10:57:16.000Z</time><speed>17.22222222222222</speed><name>Ramsau Bei Berchtesgaden</name><desc>BGL17</desc></trkpt><trkpt lon="12.90497" lat="47.62718"><ele>1031.2</ele><time>2009-09-05T10:57:58.000Z</time><speed>0.0</speed><name>1290497:4762718</name></trkpt><trkpt lon="12.9044" lat="47.62547"><ele>1036.2</ele><time>2009-09-05T11:08:31.000Z</time><speed>14.166666666666666</speed><name>Ramsau Bei Berchtesgaden</name><desc>BGL17 Schwarzecker Straße; 66</desc></trkpt><trkpt lon="12.89148" lat="47.61435"><ele>840.0</ele><time>2009-09-05T11:11:50.000Z</time><speed>19.166666666666668</speed><name>Ramsau Bei Berchtesgaden</name><desc>B305 Alpenstraße</desc></trkpt><trkpt lon="12.91552" lat="47.60466"><ele>637.8</ele><time>2009-09-05T11:15:06.000Z</time><speed>19.166666666666668</speed><name>Ramsau Bei Berchtesgaden</name><desc>B305 Berchtesgadener Straße; 11</desc></trkpt><trkpt lon="12.94231" lat="47.6103"><ele>599.0</ele><time>2009-09-05T11:17:02.000Z</time><speed>21.944444444444443</speed><name>Bischofswiesen</name><desc>B305 Berchtesgadener Straße; 93</desc></trkpt><trkpt lon="12.94483" lat="47.61193"><ele>592.4</ele><time>2009-09-05T11:17:18.000Z</time><speed>16.38888888888889</speed><name>Bischofswiesen</name><desc>B305 Ramsauer Straße; 158</desc></trkpt><trkpt lon="12.98322" lat="47.62305"><ele>556.9</ele><time>2009-09-05T11:20:34.000Z</time><speed>20.555555555555557</speed><name>Bischofswiesen</name><desc>B20/B305 Ramsauer Straße; 31</desc></trkpt><trkpt lon="12.99946" lat="47.62578"><ele>542.9</ele><time>2009-09-05T11:22:00.000Z</time><speed>0.0</speed><name>Berchtesgaden</name><desc>B20/B305 Bahnhofplatz</desc></trkpt><trkpt lon="13.0006" lat="47.62657"><ele>540.3</ele><time>2009-09-05T11:22:27.000Z</time><speed>12.777777777777779</speed><name>Berchtesgaden</name><desc>B305 Bahnhofstraße</desc></trkpt><trkpt lon="13.00354" lat="47.62885"><ele>536.3</ele><time>2009-09-05T11:23:04.000Z</time><speed>10.0</speed><name>Berchtesgaden</name><desc>B305 Bergwerkstraße; 4</desc></trkpt><trkpt lon="13.00954" lat="47.63586"><ele>533.4</ele><time>2009-09-05T11:24:27.000Z</time><speed>18.61111111111111</speed><name>Berchtesgaden</name><desc>B305</desc></trkpt><trkpt lon="13.01608" lat="47.63996"><ele>530.3</ele><time>2009-09-05T11:25:10.000Z</time><speed>19.72222222222222</speed><name>Berchtesgaden</name><desc>B305 Salzburger Straße</desc></trkpt><trkpt lon="13.04348" lat="47.6555"><ele>530.0</ele><time>2009-09-05T11:27:26.000Z</time><speed>14.166666666666666</speed><name>Berchtesgaden</name><desc>BGL6 Reckensbergstraße; 4</desc></trkpt><trkpt lon="13.0539" lat="47.6638"><ele>705.0</ele><time>2009-09-05T11:28:33.000Z</time><speed>21.38888888888889</speed><name>Berchtesgaden</name><desc>BGL6 Scheffauer Straße; 6</desc></trkpt><trkpt lon="13.05515" lat="47.66693"><ele>666.3</ele><time>2009-09-05T11:28:48.000Z</time><speed>20.833333333333332</speed><name>Marktschellenberg</name><desc>BGL6 Scheffauer Straße; 6</desc></trkpt><trkpt lon="13.07926" lat="47.67602"><ele>641.2</ele><time>2009-09-05T11:30:51.000Z</time><speed>12.777777777777779</speed><name>Hallein</name><desc>Zillstraße; 10</desc></trkpt><trkpt lon="13.08321" lat="47.67727"><ele>593.6</ele><time>2009-09-05T11:31:29.000Z</time><speed>15.0</speed><name>Hallein</name><desc>Dürrnberg Landesstraße; 39</desc></trkpt><trkpt lon="13.08697" lat="47.68673"><ele>460.6</ele><time>2009-09-05T11:33:57.000Z</time><speed>6.944444444444445</speed><name>Hallein</name><desc>B159 Salzburger Straße; 29</desc></trkpt><trkpt lon="13.09156" lat="47.68373"><ele>446.3</ele><time>2009-09-05T11:34:51.000Z</time><speed>7.777777777777778</speed><name>Hallein</name><desc>Josefine-Lindorfer-Platz; 2</desc></trkpt><trkpt lon="13.09271" lat="47.68348"><ele>448.5</ele><time>2009-09-05T11:35:05.000Z</time><speed>7.777777777777778</speed><name>Hallein</name><desc>Matthias-Schiemer-Straße; 2</desc></trkpt><trkpt lon="13.0936" lat="47.6831"><ele>450.8</ele><time>2009-09-05T11:35:17.000Z</time><speed>6.388888888888889</speed><name>Hallein</name><desc>Pflegerplatz; 3</desc></trkpt><trkpt lon="13.09489" lat="47.68294"><ele>450.6</ele><time>2009-09-05T11:35:30.000Z</time><speed>7.777777777777778</speed><name>Hallein</name><desc>Kuffergasse; 2</desc></trkpt><trkpt lon="13.09678" lat="47.68299"><ele>450.7</ele><time>2009-09-05T11:35:57.000Z</time><speed>5.277777777777778</speed><name>Hallein</name><desc>B159 Salzachtal Straße</desc></trkpt><trkpt lon="13.12374" lat="47.66437"><ele>459.9</ele><time>2009-09-05T11:40:03.000Z</time><speed>14.166666666666666</speed><name>Bad Vigaun</name><desc>B159 Langwies; 56</desc></trkpt><trkpt lon="13.12455" lat="47.66313"><ele>460.7</ele><time>2009-09-05T11:40:15.000Z</time><speed>16.666666666666668</speed><name>Bad Vigaun</name><desc>B159 Salzachtal-Bundesstraße</desc></trkpt><trkpt lon="13.12907" lat="47.65078"><ele>462.7</ele><time>2009-09-05T11:41:31.000Z</time><speed>16.666666666666668</speed><name>Kuchl</name><desc>B159 Garnei; 26</desc></trkpt><trkpt lon="13.13864" lat="47.63633"><ele>461.6</ele><time>2009-09-05T11:43:26.000Z</time><speed>10.0</speed><name>Kuchl</name><desc>B159 Moos; 24</desc></trkpt><trkpt lon="13.14275" lat="47.62875"><ele>462.1</ele><time>2009-09-05T11:44:29.000Z</time><speed>12.222222222222221</speed><name>Kuchl</name><desc>B159 Markt; 130</desc></trkpt><trkpt lon="13.1527" lat="47.62177"><ele>475.5</ele><time>2009-09-05T11:46:07.000Z</time><speed>19.444444444444443</speed><name>Kuchl</name><desc>B159 Georgenberg</desc></trkpt><trkpt lon="13.16578" lat="47.61381"><ele>481.4</ele><time>2009-09-05T11:47:12.000Z</time><speed>19.444444444444443</speed><name>Kuchl</name><desc>B159 Kellau</desc></trkpt><trkpt lon="13.16736" lat="47.61144"><ele>481.0</ele><time>2009-09-05T11:47:27.000Z</time><speed>19.166666666666668</speed><name>Golling An Der Salzach</name><desc>B159 Kellau; 11</desc></trkpt><trkpt lon="13.16833" lat="47.59933"><ele>484.4</ele><time>2009-09-05T11:48:52.000Z</time><speed>10.0</speed><name>Golling An Der Salzach</name><desc>B159 Hauptstraße; 5</desc></trkpt><trkpt lon="13.16685" lat="47.59612"><ele>472.0</ele><time>2009-09-05T11:49:54.000Z</time><speed>10.555555555555555</speed><name>Golling An Der Salzach</name><desc>B159 Markt</desc></trkpt><trkpt lon="13.17068" lat="47.59441"><ele>476.0</ele><time>2009-09-05T11:50:33.000Z</time><speed>13.333333333333334</speed><name>Golling An Der Salzach</name><desc>B159 Obergäu; 91</desc></trkpt><trkpt lon="13.17654" lat="47.59008"><ele>477.2</ele><time>2009-09-05T11:51:24.000Z</time><speed>15.555555555555555</speed><name>Golling An Der Salzach</name><desc>B159 Obergäu; 38</desc></trkpt><trkpt lon="13.1943" lat="47.57325"><ele>534.1</ele><time>2009-09-05T11:53:38.000Z</time><speed>17.5</speed><name>Golling An Der Salzach</name><desc>B159 Salzachtal Bundesstraße</desc></trkpt><trkpt lon="13.17046" lat="47.5458"><ele>512.3</ele><time>2009-09-05T11:57:01.000Z</time><speed>26.38888888888889</speed><name>Werfen</name><desc>B159 Paß-Lueg-Straße; 7</desc></trkpt><trkpt lon="13.16512" lat="47.51934"><ele>522.3</ele><time>2009-09-05T11:59:23.000Z</time><speed>25.27777777777778</speed><name>Werfen</name><desc>B159 Bundesstraße; 30</desc></trkpt><trkpt lon="13.16677" lat="47.51181"><ele>543.6</ele><time>2009-09-05T12:00:19.000Z</time><speed>0.0</speed><name>1316677:4751181</name></trkpt><trkpt lon="13.19848" lat="47.4614"><ele>530.4</ele><time>2009-09-05T12:20:17.000Z</time><speed>15.277777777777779</speed><name>Werfen</name><desc>B159 Reitsam; 52</desc></trkpt><trkpt lon="13.21034" lat="47.4443"><ele>548.9</ele><time>2009-09-05T12:22:01.000Z</time><speed>17.5</speed><name>Werfen</name><desc>B159 Salzachtal-Bundesstraße</desc></trkpt><trkpt lon="13.20867" lat="47.43654"><ele>555.2</ele><time>2009-09-05T12:22:57.000Z</time><speed>9.166666666666666</speed><name>Bischofshofen</name><desc>B99 Kreuzberg</desc></trkpt><trkpt lon="13.22091" lat="47.43677"><ele>559.3</ele><time>2009-09-05T12:23:43.000Z</time><speed>24.166666666666668</speed><name>Pfarrwerfen</name><desc>B99 Ellmauthal</desc></trkpt><trkpt lon="13.24336" lat="47.43075"><ele>593.6</ele><time>2009-09-05T12:25:03.000Z</time><speed>29.166666666666668</speed><name>Pfarrwerfen</name><desc>B99 Pöham</desc></trkpt><trkpt lon="13.25807" lat="47.43053"><ele>611.5</ele><time>2009-09-05T12:26:05.000Z</time><speed>14.166666666666666</speed><name>Bischofshofen</name><desc>B99 Alpfahrt; 41</desc></trkpt><trkpt lon="13.26051" lat="47.43024"><ele>614.2</ele><time>2009-09-05T12:26:18.000Z</time><speed>15.555555555555555</speed><name>Bischofshofen</name><desc>B99 Winkl; 32</desc></trkpt><trkpt lon="13.26426" lat="47.4305"><ele>619.4</ele><time>2009-09-05T12:26:32.000Z</time><speed>22.5</speed><name>Bischofshofen</name><desc>B99 Alpfahrt; 30</desc></trkpt><trkpt lon="13.28634" lat="47.42504"><ele>670.1</ele><time>2009-09-05T12:28:24.000Z</time><speed>26.38888888888889</speed><name>Hüttau</name><desc>B99 Sonnhalb; 40</desc></trkpt><trkpt lon="13.30401" lat="47.41823"><ele>693.7</ele><time>2009-09-05T12:30:08.000Z</time><speed>14.722222222222221</speed><name>Hüttau</name><desc>B99 Hüttau; 6</desc></trkpt><trkpt lon="13.31088" lat="47.41422"><ele>707.0</ele><time>2009-09-05T12:31:00.000Z</time><speed>12.5</speed><name>Hüttau</name><desc>B99 Sonnberg; 7</desc></trkpt><trkpt lon="13.34667" lat="47.42168"><ele>754.2</ele><time>2009-09-05T12:33:52.000Z</time><speed>16.38888888888889</speed><name>Eben Im Pongau</name><desc>B99 Niedernfritzer Straße</desc></trkpt><trkpt lon="13.38986" lat="47.41287"><ele>862.4</ele><time>2009-09-05T12:36:24.000Z</time><speed>16.11111111111111</speed><name>Eben Im Pongau</name><desc>B99 Hauptstraße</desc></trkpt><trkpt lon="13.40676" lat="47.39266"><ele>849.4</ele><time>2009-09-05T12:40:15.000Z</time><speed>24.72222222222222</speed><name>Altenmarkt Im Pongau</name><desc>B99 Sinnhub; 2</desc></trkpt><trkpt lon="13.41414" lat="47.3873"><ele>858.7</ele><time>2009-09-05T12:41:13.000Z</time><speed>21.11111111111111</speed><name>Altenmarkt Im Pongau</name><desc>B99/E651 Sinnhub</desc></trkpt><trkpt lon="13.43435" lat="47.38327"><ele>858.0</ele><time>2009-09-05T12:42:30.000Z</time><speed>22.22222222222222</speed><name>Radstadt</name><desc>B99/E651 Salzburger Straße; 53</desc></trkpt><trkpt lon="13.45085" lat="47.3867"><ele>864.6</ele><time>2009-09-05T12:50:20.000Z</time><speed>0.0</speed><name>1345085:4738670</name></trkpt><trkpt lon="13.45939" lat="47.38611"><ele>851.1</ele><time>2009-09-05T12:55:15.000Z</time><speed>20.27777777777778</speed><name>Radstadt</name><desc>B99/E651 Katschberg-Bundesstraße</desc></trkpt><trkpt lon="13.47207" lat="47.38584"><ele>836.2</ele><time>2009-09-05T12:56:04.000Z</time><speed>17.77777777777778</speed><name>Radstadt</name><desc>B99 Tauernstraße</desc></trkpt><trkpt lon="13.50351" lat="47.34323"><ele>940.4</ele><time>2009-09-05T13:00:06.000Z</time><speed>25.0</speed><name>Untertauern</name><desc>B99 Untertauern; 90</desc></trkpt><trkpt lon="13.5619" lat="47.24713"><ele>1734.9</ele><time>2009-09-05T13:13:19.000Z</time><speed>11.11111111111111</speed><name>Tweng</name><desc>B99 Obertauern</desc></trkpt><trkpt lon="13.57923" lat="47.2306"><ele>1554.1</ele><time>2009-09-05T13:15:11.000Z</time><speed>26.944444444444443</speed><name>Tweng</name><desc>B99 Katschberg-Bundesstraße</desc></trkpt><trkpt lon="13.59852" lat="47.19159"><ele>1243.8</ele><time>2009-09-05T13:18:36.000Z</time><speed>12.222222222222221</speed><name>Tweng</name><desc>B99 Tweng</desc></trkpt><trkpt lon="13.6524" lat="47.15723"><ele>1191.5</ele><time>2009-09-05T13:22:52.000Z</time><speed>28.88888888888889</speed><name>Mauterndorf</name><desc>B99 Hammer</desc></trkpt><trkpt lon="13.67903" lat="47.13837"><ele>1158.8</ele><time>2009-09-05T13:25:02.000Z</time><speed>21.666666666666668</speed><name>Mauterndorf</name><desc>B99 Katschberg-Bundesstraße</desc></trkpt><trkpt lon="13.68433" lat="47.13702"><ele>1139.7</ele><time>2009-09-05T13:25:20.000Z</time><speed>24.72222222222222</speed><name>Mauterndorf</name><desc>B95/B99 Turracher-Bundesstraße</desc></trkpt><trkpt lon="13.68853" lat="47.13655"><ele>1131.2</ele><time>2009-09-05T13:25:35.000Z</time><speed>25.555555555555557</speed><name>Mauterndorf</name><desc>B95 Turracher-Bundesstraße</desc></trkpt><trkpt lon="13.71842" lat="47.14094"><ele>1104.4</ele><time>2009-09-05T13:26:58.000Z</time><speed>29.166666666666668</speed><name>Mariapfarr</name><desc>B95 Turracher-Bundesstraße</desc></trkpt><trkpt lon="13.73864" lat="47.14088"><ele>1074.0</ele><time>2009-09-05T13:27:56.000Z</time><speed>20.27777777777778</speed><name>Mariapfarr</name><desc>B95 Stranach</desc></trkpt><trkpt lon="13.74576" lat="47.1407"><ele>1070.6</ele><time>2009-09-05T13:28:24.000Z</time><speed>20.555555555555557</speed><name>Mariapfarr</name><desc>B95 Turracher-Bundesstraße</desc></trkpt><trkpt lon="13.75801" lat="47.13917"><ele>1063.0</ele><time>2009-09-05T13:28:59.000Z</time><speed>30.555555555555557</speed><name>Sankt Andrä Im Lungau</name><desc>B95 Turracher-Bundesstraße</desc></trkpt><trkpt lon="13.77967" lat="47.13892"><ele>1086.6</ele><time>2009-09-05T13:30:14.000Z</time><speed>22.22222222222222</speed><name>Tamsweg</name><desc>B95 Turracher-Bundesstraße</desc></trkpt><trkpt lon="13.80682" lat="47.1232"><ele>1019.5</ele><time>2009-09-05T13:32:29.000Z</time><speed>16.11111111111111</speed><name>Tamsweg</name><desc>B95 Ramingsteiner Straße; 1</desc></trkpt><trkpt lon="13.81195" lat="47.1181"><ele>1019.6</ele><time>2009-09-05T13:32:58.000Z</time><speed>28.055555555555557</speed><name>Tamsweg</name><desc>B95 Turracher-Bundesstraße</desc></trkpt><trkpt lon="13.81617" lat="47.10896"><ele>1028.3</ele><time>2009-09-05T13:33:36.000Z</time><speed>26.11111111111111</speed><name>Ramingstein</name><desc>B95 Turracher-Bundesstraße</desc></trkpt><trkpt lon="13.81758" lat="47.10557"><ele>1033.9</ele><time>2009-09-05T13:33:54.000Z</time><speed>23.88888888888889</speed><name>Tamsweg</name><desc>B95 Einöd; 13</desc></trkpt><trkpt lon="13.8187" lat="47.09215"><ele>1023.8</ele><time>2009-09-05T13:34:57.000Z</time><speed>25.27777777777778</speed><name>Ramingstein</name><desc>B95 Turracher-Bundesstraße</desc></trkpt><trkpt lon="13.81182" lat="47.08303"><ele>994.8</ele><time>2009-09-05T13:35:43.000Z</time><speed>23.055555555555557</speed><name>Ramingstein</name><desc>B95 Mignitz</desc></trkpt><trkpt lon="13.81271" lat="47.07831"><ele>984.6</ele><time>2009-09-05T13:36:15.000Z</time><speed>14.444444444444445</speed><name>Ramingstein</name><desc>B95 Madling</desc></trkpt><trkpt lon="13.82094" lat="47.07547"><ele>977.0</ele><time>2009-09-05T13:36:56.000Z</time><speed>22.22222222222222</speed><name>Ramingstein</name><desc>B95 Turracher-Bundesstraße</desc></trkpt><trkpt lon="13.83349" lat="47.07495"><ele>974.0</ele><time>2009-09-05T13:37:44.000Z</time><speed>16.11111111111111</speed><name>Ramingstein</name><desc>B95 Ramingstein; 210</desc></trkpt><trkpt lon="13.84742" lat="47.07576"><ele>966.2</ele><time>2009-09-05T13:38:52.000Z</time><speed>22.5</speed><name>Ramingstein</name><desc>B95 Klausen; 180</desc></trkpt><trkpt lon="13.85765" lat="47.07324"><ele>958.6</ele><time>2009-09-05T13:39:26.000Z</time><speed>21.11111111111111</speed><name>Ramingstein</name><desc>B95 Turracher-Bundesstraße</desc></trkpt><trkpt lon="13.88271" lat="47.06847"><ele>947.2</ele><time>2009-09-05T13:41:06.000Z</time><speed>15.0</speed><name>Ramingstein</name><desc>B95 Kendlbruck</desc></trkpt><trkpt lon="13.90573" lat="47.0682"><ele>945.9</ele><time>2009-09-05T13:42:23.000Z</time><speed>19.444444444444443</speed><name>Ramingstein</name><desc>B95 Turracher-Bundesstraße</desc></trkpt><trkpt lon="13.91174" lat="47.06959"><ele>938.2</ele><time>2009-09-05T13:42:53.000Z</time><speed>12.5</speed><name>Predlitz-Turrach</name><desc>B95 Predlitz</desc></trkpt><trkpt lon="13.91436" lat="47.06844"><ele>938.4</ele><time>2009-09-05T13:43:19.000Z</time><speed>17.5</speed><name>Ramingstein</name><desc>B95 Turracher-Bundesstraße</desc></trkpt><trkpt lon="13.91447" lat="47.06633"><ele>942.8</ele><time>2009-09-05T13:43:33.000Z</time><speed>17.77777777777778</speed><name>Predlitz-Turrach</name><desc>B95 Pirning; 110</desc></trkpt><trkpt lon="13.91559" lat="47.06524"><ele>947.6</ele><time>2009-09-05T13:43:48.000Z</time><speed>18.88888888888889</speed><name>Ramingstein</name><desc>B95 Turracher-Bundesstraße</desc></trkpt><trkpt lon="13.91371" lat="47.06093"><ele>960.4</ele><time>2009-09-05T13:44:03.000Z</time><speed>23.88888888888889</speed><name>Predlitz-Turrach</name><desc>B95 Predlitzwinkel</desc></trkpt><trkpt lon="13.91199" lat="47.0556"><ele>974.7</ele><time>2009-09-05T13:44:34.000Z</time><speed>23.61111111111111</speed><name>Predlitz-Turrach</name><desc>B95 Predlitz; 43</desc></trkpt><trkpt lon="13.90268" lat="47.03019"><ele>1054.5</ele><time>2009-09-05T13:46:56.000Z</time><speed>18.88888888888889</speed><name>Predlitz-Turrach</name><desc>B95 Predlitzwinkel; 149</desc></trkpt><trkpt lon="13.90053" lat="47.02538"><ele>1073.0</ele><time>2009-09-05T13:47:25.000Z</time><speed>20.555555555555557</speed><name>Predlitz-Turrach</name><desc>B95 Tratten; 66</desc></trkpt><trkpt lon="13.90122" lat="46.97945"><ele>1214.8</ele><time>2009-09-05T13:51:02.000Z</time><speed>32.22222222222222</speed><name>Predlitz-Turrach</name><desc>B95 Turrach; 10</desc></trkpt><trkpt lon="13.8962" lat="46.97288"><ele>1238.2</ele><time>2009-09-05T13:51:38.000Z</time><speed>27.77777777777778</speed><name>Predlitz-Turrach</name><desc>B95 Turrach; 12</desc></trkpt><trkpt lon="13.88295" lat="46.95695"><ele>1322.9</ele><time>2009-09-05T13:53:43.000Z</time><speed>25.0</speed><name>Predlitz-Turrach</name><desc>B95 Turracher-Bundesstraße</desc></trkpt><trkpt lon="13.873" lat="46.93188"><ele>1665.8</ele><time>2009-09-05T13:55:54.000Z</time><speed>25.555555555555557</speed><name>Reichenau</name><desc>B95 Turracher-Bundesstraße</desc></trkpt><trkpt lon="13.87091" lat="46.93237"><ele>1698.5</ele><time>2009-09-05T13:56:21.000Z</time><speed>21.666666666666668</speed><name>Predlitz-Turrach</name><desc>B95 Turracherhöhe; 500</desc></trkpt><trkpt lon="13.8706" lat="46.93421"><ele>1719.3</ele><time>2009-09-05T13:56:34.000Z</time><speed>13.055555555555555</speed><name>Predlitz-Turrach</name><desc>B95 Steinturrach; 171</desc></trkpt><trkpt lon="13.86861" lat="46.93262"><ele>1737.8</ele><time>2009-09-05T13:56:47.000Z</time><speed>24.72222222222222</speed><name>Predlitz-Turrach</name><desc>B95 Turracherhöhe; 98</desc></trkpt><trkpt lon="13.86789" lat="46.92936"><ele>1764.6</ele><time>2009-09-05T13:57:01.000Z</time><speed>27.5</speed><name>Reichenau</name><desc>B95 Turracher-Bundesstraße</desc></trkpt><trkpt lon="13.86946" lat="46.92595"><ele>1788.6</ele><time>2009-09-05T13:57:21.000Z</time><speed>16.944444444444443</speed><name>Predlitz-Turrach</name><desc>B95 Turracherhöhe; 300</desc></trkpt><trkpt lon="13.87" lat="46.92453"><ele>1789.6</ele><time>2009-09-05T13:57:49.000Z</time><speed>0.0</speed><name>1387000:4692453</name></trkpt><trkpt lon="13.87355" lat="46.91958"><ele>1782.6</ele><time>2009-09-05T14:07:36.000Z</time><speed>15.277777777777779</speed><name>Reichenau</name><desc>B95 Turracherhöhe</desc></trkpt><trkpt lon="13.87657" lat="46.91224"><ele>1790.1</ele><time>2009-09-05T14:08:34.000Z</time><speed>21.11111111111111</speed><name>Reichenau</name><desc>B95 Turracher-Bundesstraße</desc></trkpt><trkpt lon="13.87644" lat="46.90032"><ele>1527.4</ele><time>2009-09-05T14:10:28.000Z</time><speed>22.77777777777778</speed><name>Reichenau</name><desc>B95 Winkl; 49</desc></trkpt><trkpt lon="13.87724" lat="46.89507"><ele>1477.6</ele><time>2009-09-05T14:10:57.000Z</time><speed>16.944444444444443</speed><name>Reichenau</name><desc>B95 Turracher-Bundesstraße</desc></trkpt><trkpt lon="13.88476" lat="46.86894"><ele>1103.3</ele><time>2009-09-05T14:13:43.000Z</time><speed>15.0</speed><name>Reichenau</name><desc>B95 Winkl; 28</desc></trkpt><trkpt lon="13.8904" lat="46.86283"><ele>1067.5</ele><time>2009-09-05T14:14:24.000Z</time><speed>21.38888888888889</speed><name>Reichenau</name><desc>B95 Ebene Reichenau</desc></trkpt><trkpt lon="13.89055" lat="46.85066"><ele>1051.9</ele><time>2009-09-05T14:16:08.000Z</time><speed>25.0</speed><name>Reichenau</name><desc>B95 Turracher-Bundesstraße</desc></trkpt><trkpt lon="13.88026" lat="46.84451"><ele>1052.0</ele><time>2009-09-05T14:18:11.000Z</time><speed>0.0</speed><name>Reichenau</name><desc>Hinterkoflach; 2</desc></trkpt><trkpt lon="13.88036" lat="46.84392"><ele>1044.3</ele><time>2009-09-05T14:19:36.000Z</time><speed>13.88888888888889</speed><name>Reichenau</name><desc>B95 Turracher-Bundesstraße</desc></trkpt><trkpt lon="13.86397" lat="46.83419"><ele>1033.9</ele><time>2009-09-05T14:20:58.000Z</time><speed>20.555555555555557</speed><name>Reichenau</name><desc>B95 Vorwald</desc></trkpt><trkpt lon="13.86228" lat="46.82101"><ele>1021.1</ele><time>2009-09-05T14:22:20.000Z</time><speed>20.27777777777778</speed><name>Reichenau</name><desc>B95 Turracher-Bundesstraße</desc></trkpt><trkpt lon="13.86636" lat="46.81715"><ele>1013.9</ele><time>2009-09-05T14:23:27.000Z</time><speed>8.055555555555555</speed><name>Reichenau</name><desc>Patergassen; 13</desc></trkpt><trkpt lon="13.87215" lat="46.81281"><ele>1008.2</ele><time>2009-09-05T14:26:07.000Z</time><speed>9.166666666666666</speed><name>Reichenau</name><desc>Straße ohne Namen</desc></trkpt><trkpt lon="13.88179" lat="46.80847"><ele>1009.7</ele><time>2009-09-05T14:27:22.000Z</time><speed>8.88888888888889</speed><name>Reichenau</name><desc>Bergl; 36</desc></trkpt><trkpt lon="13.88259" lat="46.80785"><ele>1011.1</ele><time>2009-09-05T14:27:34.000Z</time><speed>15.0</speed><name>Gnesau</name><desc>B95 Turracher-Bundesstraße</desc></trkpt><trkpt lon="13.90359" lat="46.79844"><ele>1010.5</ele><time>2009-09-05T14:28:48.000Z</time><speed>32.22222222222222</speed><name>Gnesau</name><desc>B95 Bergl; 4</desc></trkpt><trkpt lon="13.91132" lat="46.79673"><ele>1014.9</ele><time>2009-09-05T14:29:37.000Z</time><speed>0.0</speed><name>1391132:4679673</name></trkpt><trkpt lon="13.91172" lat="46.79696"><ele>1014.5</ele><time>2009-09-05T14:32:22.000Z</time><speed>0.0</speed><name>Gnesau</name><desc>Zedlitzdorf</desc></trkpt><trkpt lon="13.91313" lat="46.79612"><ele>1012.8</ele><time>2009-09-05T14:33:42.000Z</time><speed>15.277777777777779</speed><name>Gnesau</name><desc>B95 Turracher-Bundesstraße</desc></trkpt><trkpt lon="13.95475" lat="46.77727"><ele>975.7</ele><time>2009-09-05T14:36:28.000Z</time><speed>14.166666666666666</speed><name>Gnesau</name><desc>B95 Gnesau; 50</desc></trkpt><trkpt lon="13.97399" lat="46.77377"><ele>965.7</ele><time>2009-09-05T14:38:34.000Z</time><speed>22.5</speed><name>Gnesau</name><desc>B95 Weißenbach</desc></trkpt><trkpt lon="13.99489" lat="46.76948"><ele>965.3</ele><time>2009-09-05T14:39:58.000Z</time><speed>23.333333333333332</speed><name>Himmelberg</name><desc>B95 Turracher-Bundesstraße</desc></trkpt><trkpt lon="14.00256" lat="46.77133"><ele>957.6</ele><time>2009-09-05T14:40:29.000Z</time><speed>17.77777777777778</speed><name>Himmelberg</name><desc>B95 Tiebel; 18</desc></trkpt><trkpt lon="14.00725" lat="46.77165"><ele>941.8</ele><time>2009-09-05T14:41:09.000Z</time><speed>1.3888888888888888</speed><name>Himmelberg</name><desc>Straße ohne Namen</desc></trkpt><trkpt lon="14.00982" lat="46.77024"><ele>907.7</ele><time>2009-09-05T14:43:18.000Z</time><speed>17.5</speed><name>Himmelberg</name><desc>B95 Tiebel; 12</desc></trkpt><trkpt lon="14.02367" lat="46.76003"><ele>743.8</ele><time>2009-09-05T14:45:19.000Z</time><speed>18.88888888888889</speed><name>Himmelberg</name><desc>B95 Turracher-Bundesstraße</desc></trkpt><trkpt lon="14.0283" lat="46.7574"><ele>695.6</ele><time>2009-09-05T14:45:49.000Z</time><speed>17.22222222222222</speed><name>Himmelberg</name><desc>B95 Oberboden; 8</desc></trkpt><trkpt lon="14.03377" lat="46.75277"><ele>681.6</ele><time>2009-09-05T14:46:32.000Z</time><speed>14.444444444444445</speed><name>Himmelberg</name><desc>B95 Turracher Straße</desc></trkpt><trkpt lon="14.03738" lat="46.74884"><ele>674.4</ele><time>2009-09-05T14:47:39.000Z</time><speed>0.0</speed><name>1403738:4674884</name></trkpt><trkpt lon="14.05239" lat="46.74066"><ele>714.6</ele><time>2009-09-05T14:52:58.000Z</time><speed>26.944444444444443</speed><name>Himmelberg</name><desc>B95 Schleichenfeld; 1</desc></trkpt><trkpt lon="14.05981" lat="46.73717"><ele>701.9</ele><time>2009-09-05T14:53:32.000Z</time><speed>15.555555555555555</speed><name>Himmelberg</name><desc>B95 Pichlern; 17</desc></trkpt><trkpt lon="14.06285" lat="46.73673"><ele>693.6</ele><time>2009-09-05T14:54:04.000Z</time><speed>0.0</speed><name>1406285:4673673</name></trkpt><trkpt lon="14.06269" lat="46.73681"><name>15:15:27 - Himmelberg</name><desc>Pichlern; 8</desc></trkpt><trkpt lon="14.06267" lat="46.73674"><ele>698.0</ele><time>2009-09-05T06:43:27.000Z</time><speed>0.0</speed><name>1406267:4673674</name></trkpt><trkpt lon="14.06346" lat="46.73668"><ele>696.9</ele><time>2009-09-05T07:04:25.000Z</time><speed>10.555555555555555</speed><name>Himmelberg</name><desc>B95 Pichlern; 20</desc></trkpt><trkpt lon="14.07116" lat="46.73531"><ele>666.5</ele><time>2009-09-05T07:05:03.000Z</time><speed>17.77777777777778</speed><name>Himmelberg</name><desc>B95 Turracher-Bundesstraße</desc></trkpt><trkpt lon="14.07355" lat="46.73357"><ele>660.4</ele><time>2009-09-05T07:05:18.000Z</time><speed>18.055555555555557</speed><name>Himmelberg</name><desc>B95 Turracher Straße</desc></trkpt><trkpt lon="14.07981" lat="46.7318"><ele>613.6</ele><time>2009-09-05T07:05:58.000Z</time><speed>13.88888888888889</speed><name>Feldkirchen In Kärnten</name><desc>B95 Turracher Straße; 23</desc></trkpt><trkpt lon="14.08923" lat="46.7267"><ele>561.8</ele><time>2009-09-05T07:07:20.000Z</time><speed>0.0</speed><name>Feldkirchen In Kärnten</name><desc>B95 Schillerstraße; 4</desc></trkpt><trkpt lon="14.0907" lat="46.7282"><ele>561.9</ele><time>2009-09-05T07:08:08.000Z</time><speed>12.777777777777779</speed><name>Feldkirchen In Kärnten</name><desc>B94 Milesistraße; 3</desc></trkpt><trkpt lon="14.09645" lat="46.73203"><ele>563.0</ele><time>2009-09-05T07:09:15.000Z</time><speed>17.5</speed><name>Feldkirchen In Kärnten</name><desc>B94 Turracher-Bundesstraße</desc></trkpt><trkpt lon="14.10609" lat="46.71497"><ele>549.0</ele><time>2009-09-05T07:10:50.000Z</time><speed>24.72222222222222</speed><name>Feldkirchen In Kärnten</name><desc>B95 Turracher Straße</desc></trkpt><trkpt lon="14.12263" lat="46.69731"><ele>578.4</ele><time>2009-09-05T07:12:34.000Z</time><speed>23.333333333333332</speed><name>Feldkirchen In Kärnten</name><desc>B95 Turracher-Bundesstraße</desc></trkpt><trkpt lon="14.13808" lat="46.69034"><ele>610.7</ele><time>2009-09-05T07:13:46.000Z</time><speed>19.444444444444443</speed><name>Feldkirchen In Kärnten</name><desc>B95 Radweg</desc></trkpt><trkpt lon="14.14095" lat="46.68795"><ele>604.2</ele><time>2009-09-05T07:14:04.000Z</time><speed>20.833333333333332</speed><name>Feldkirchen In Kärnten</name><desc>B95 Turracher-Bundesstraße</desc></trkpt><trkpt lon="14.15086" lat="46.68215"><ele>567.3</ele><time>2009-09-05T07:14:46.000Z</time><speed>23.88888888888889</speed><name>Moosburg</name><desc>B95 Turracher-Bundesstraße</desc></trkpt><trkpt lon="14.17198" lat="46.66165"><ele>507.2</ele><time>2009-09-05T07:16:52.000Z</time><speed>17.22222222222222</speed><name>Moosburg</name><desc>B95 Klagenfurter Straße</desc></trkpt><trkpt lon="14.17506" lat="46.65809"><ele>499.6</ele><time>2009-09-05T07:17:53.000Z</time><speed>10.555555555555555</speed><name>Moosburg</name><desc>Klagenfurter Straße; 19</desc></trkpt><trkpt lon="14.17431" lat="46.65701"><ele>505.2</ele><time>2009-09-05T07:18:20.000Z</time><speed>10.277777777777779</speed><name>Moosburg</name><desc>Krumpendorfer Straße; 1</desc></trkpt><trkpt lon="14.20606" lat="46.63788"><ele>523.8</ele><time>2009-09-05T07:21:47.000Z</time><speed>17.22222222222222</speed><name>Krumpendorf Am Wörther See</name><desc>Moosburger Straße; 106</desc></trkpt><trkpt lon="14.20944" lat="46.62686"><ele>457.3</ele><time>2009-09-05T07:23:55.000Z</time><speed>8.88888888888889</speed><name>Krumpendorf Am Wörther See</name><desc>B83 Hauptstraße; 172</desc></trkpt><trkpt lon="14.24338" lat="46.6265"><ele>454.1</ele><time>2009-09-05T07:26:52.000Z</time><speed>18.61111111111111</speed><name>Klagenfurt Am Wörthersee</name><desc>B83 Villacher Straße; 354</desc></trkpt><trkpt lon="14.26245" lat="46.61991"><ele>446.3</ele><time>2009-09-05T07:29:06.000Z</time><speed>15.0</speed><name>Klagenfurt Am Wörthersee</name><desc>Wörthersee-Südufer-Straße</desc></trkpt><trkpt lon="14.26091" lat="46.61055"><ele>447.4</ele><time>2009-09-05T07:30:42.000Z</time><speed>12.5</speed><name>Klagenfurt Am Wörthersee</name><desc>Südring</desc></trkpt><trkpt lon="14.2905" lat="46.6058"><ele>445.0</ele><time>2009-09-05T07:33:34.000Z</time><speed>16.11111111111111</speed><name>Klagenfurt Am Wörthersee</name><desc>Waidmannsdorfer Straße; 166</desc></trkpt><trkpt lon="14.29093" lat="46.59788"><ele>451.2</ele><time>2009-09-05T07:34:50.000Z</time><speed>15.555555555555555</speed><name>Klagenfurt Am Wörthersee</name><desc>Keutschacher Straße; 24</desc></trkpt><trkpt lon="14.29259" lat="46.59518"><ele>458.3</ele><time>2009-09-05T07:35:50.000Z</time><speed>19.166666666666668</speed><name>Klagenfurt Am Wörthersee</name><desc>B91/E652 Rosentaler Straße; 230</desc></trkpt><trkpt lon="14.28277" lat="46.5822"><ele>500.8</ele><time>2009-09-05T07:37:18.000Z</time><speed>12.222222222222221</speed><name>Köttmannsdorf</name><desc>B91/E652 Bundesstraße</desc></trkpt><trkpt lon="14.28443" lat="46.56491"><ele>526.8</ele><time>2009-09-05T07:39:37.000Z</time><speed>21.38888888888889</speed><name>Maria Rain</name><desc>B91/E652 Loiblpaß-Bundesstraße</desc></trkpt><trkpt lon="14.2743" lat="46.55351"><ele>550.2</ele><time>2009-09-05T07:40:49.000Z</time><speed>20.27777777777778</speed><name>Köttmannsdorf</name><desc>B91/E652 Loiblpaß-Bundesstraße</desc></trkpt><trkpt lon="14.2555" lat="46.54608"><ele>519.6</ele><time>2009-09-05T07:42:07.000Z</time><speed>21.666666666666668</speed><name>Köttmannsdorf</name><desc>B91/E652 Unterschloßberg</desc></trkpt><trkpt lon="14.25293" lat="46.54451"><ele>477.0</ele><time>2009-09-05T07:42:50.000Z</time><speed>19.72222222222222</speed><name>Ferlach</name><desc>B91/E652 Loiblpaß-Bundesstraße</desc></trkpt><trkpt lon="14.26735" lat="46.53185"><ele>442.8</ele><time>2009-09-05T07:44:33.000Z</time><speed>9.722222222222221</speed><name>Ferlach</name><desc>B91/E652</desc></trkpt><trkpt lon="14.26884" lat="46.53036"><ele>447.4</ele><time>2009-09-05T07:44:46.000Z</time><speed>19.166666666666668</speed><name>Ferlach</name><desc>B91/E652 Loiblpaß-Bundesstraße</desc></trkpt><trkpt lon="14.27975" lat="46.52118"><ele>492.1</ele><time>2009-09-05T07:46:02.000Z</time><speed>16.38888888888889</speed><name>Ferlach</name><desc>B91/E652 Unterbergen; 40</desc></trkpt><trkpt lon="14.28465" lat="46.51584"><ele>544.2</ele><time>2009-09-05T07:46:44.000Z</time><speed>21.944444444444443</speed><name>Ferlach</name><desc>B91/E652 Loiblpaß-Bundesstraße</desc></trkpt><trkpt lon="14.28876" lat="46.50999"><ele>545.2</ele><time>2009-09-05T07:47:26.000Z</time><speed>15.555555555555555</speed><name>Ferlach</name><desc>B91/E652 Unterloibl; 50</desc></trkpt><trkpt lon="14.28701" lat="46.50213"><ele>578.1</ele><time>2009-09-05T07:48:34.000Z</time><speed>15.277777777777779</speed><name>Ferlach</name><desc>B91/E652 Loiblpaß-Bundesstraße</desc></trkpt><trkpt lon="14.26701" lat="46.48813"><ele>770.1</ele><time>2009-09-05T07:51:55.000Z</time><speed>13.055555555555555</speed><name>Ferlach</name><desc>B91/E652 Loibltal</desc></trkpt><trkpt lon="14.25626" lat="46.47929"><ele>711.6</ele><time>2009-09-05T07:53:57.000Z</time><speed>18.333333333333332</speed><name>Ferlach</name><desc>B91/E652 Loiblpaß-Bundesstraße</desc></trkpt><trkpt lon="14.25651" lat="46.47728"><ele>722.9</ele><time>2009-09-05T07:54:11.000Z</time><speed>18.333333333333332</speed><name>Ferlach</name><desc>B91/E652 Loibltal; 4</desc></trkpt><trkpt lon="14.25357" lat="46.44522"><ele>1053.4</ele><time>2009-09-05T07:59:45.000Z</time><speed>0.0</speed><name>1425357:4644522</name></trkpt><trkpt lon="14.26023" lat="46.43279"><ele>1053.4</ele><time>2009-09-05T08:01:27.000Z</time><speed>8.055555555555555</speed><name>Trzic</name><desc>101</desc></trkpt><trkpt lon="14.26159" lat="46.43285"><ele>1055.5</ele><time>2009-09-05T08:02:20.000Z</time><speed>0.0</speed><name>1426159:4643285</name></trkpt><trkpt lon="14.26159" lat="46.4327"><ele>1055.2</ele><time>2009-09-05T08:28:31.000Z</time><speed>0.0</speed><name>Trzic</name><desc>Straße ohne Namen</desc></trkpt><trkpt lon="14.26385" lat="46.43308"><ele>1047.2</ele><time>2009-09-05T08:29:26.000Z</time><speed>12.777777777777779</speed><name>Trzic</name><desc>101</desc></trkpt><trkpt lon="14.30398" lat="46.36222"><ele>538.4</ele><time>2009-09-05T08:37:24.000Z</time><speed>19.444444444444443</speed><name>Trzic</name><desc>Bistrica</desc></trkpt><trkpt lon="14.30117" lat="46.36113"><ele>524.6</ele><time>2009-09-05T08:37:37.000Z</time><speed>16.944444444444443</speed><name>Trzic</name><desc>101</desc></trkpt><trkpt lon="14.29233" lat="46.35461"><ele>520.1</ele><time>2009-09-05T08:38:37.000Z</time><speed>7.222222222222222</speed><name>Trzic</name><desc>Straße ohne Namen</desc></trkpt><trkpt lon="14.29329" lat="46.35475"><ele>521.7</ele><time>2009-09-05T08:39:23.000Z</time><speed>9.166666666666666</speed><name>Trzic</name><desc>638 Cesta Ste Marie Aux Mines</desc></trkpt><trkpt lon="14.29161" lat="46.35648"><ele>530.1</ele><time>2009-09-05T08:40:00.000Z</time><speed>10.555555555555555</speed><name>Trzic</name><desc>638 Begunjska Cesta</desc></trkpt><trkpt lon="14.28373" lat="46.36185"><ele>638.5</ele><time>2009-09-05T08:42:08.000Z</time><speed>14.722222222222221</speed><name>Trzic</name><desc>638</desc></trkpt><trkpt lon="14.24477" lat="46.36065"><ele>625.1</ele><time>2009-09-05T08:45:55.000Z</time><speed>15.277777777777779</speed><name>Radovljica</name><desc>638</desc></trkpt><trkpt lon="14.19819" lat="46.37446"><ele>569.5</ele><time>2009-09-05T08:53:00.000Z</time><speed>8.055555555555555</speed><name>Radovljica</name><desc>Straße ohne Namen</desc></trkpt><trkpt lon="14.16075" lat="46.36252"><ele>508.8</ele><time>2009-09-05T08:57:10.000Z</time><speed>7.222222222222222</speed><name>Radovljica</name><desc>Hraska Cesta</desc></trkpt><trkpt lon="14.16084" lat="46.36292"><ele>507.0</ele><time>2009-09-05T08:57:36.000Z</time><speed>8.055555555555555</speed><name>Radovljica</name><desc>Straße ohne Namen</desc></trkpt><trkpt lon="14.16181" lat="46.36415"><ele>507.9</ele><time>2009-09-05T08:57:52.000Z</time><speed>8.61111111111111</speed><name>Radovljica</name><desc>8</desc></trkpt><trkpt lon="14.16068" lat="46.36471"><ele>507.7</ele><time>2009-09-05T08:58:05.000Z</time><speed>8.055555555555555</speed><name>Radovljica</name><desc>8 Hraska Cesta</desc></trkpt><trkpt lon="14.16042" lat="46.36513"><ele>507.2</ele><time>2009-09-05T08:58:35.000Z</time><speed>0.0</speed><name>1416042:4636513</name></trkpt><trkpt lon="14.15901" lat="46.36537"><ele>509.2</ele><time>2009-09-05T09:12:51.000Z</time><speed>13.333333333333334</speed><name>Radovljica</name><desc>8 Hraska Cesta</desc></trkpt><trkpt lon="14.15713" lat="46.36653"><ele>510.4</ele><time>2009-09-05T09:13:15.000Z</time><speed>8.333333333333334</speed><name>Radovljica</name><desc>209/637 Hraska Cesta</desc></trkpt><trkpt lon="14.15502" lat="46.3656"><ele>508.2</ele><time>2009-09-05T09:13:42.000Z</time><speed>9.444444444444445</speed><name>Radovljica</name><desc>209</desc></trkpt><trkpt lon="14.1485" lat="46.3638"><ele>476.5</ele><time>2009-09-05T09:14:37.000Z</time><speed>16.11111111111111</speed><name>Radovljica</name><desc>209 Alpska Cesta</desc></trkpt><trkpt lon="14.13357" lat="46.36816"><ele>441.8</ele><time>2009-09-05T09:15:50.000Z</time><speed>16.38888888888889</speed><name>Bled</name><desc>209 Ljubljanska Cesta</desc></trkpt><trkpt lon="14.10801" lat="46.36623"><ele>486.3</ele><time>2009-09-05T09:20:01.000Z</time><speed>9.444444444444445</speed><name>Bled</name><desc>209 Cesta Svobode; 12</desc></trkpt><trkpt lon="14.08068" lat="46.35299"><ele>459.1</ele><time>2009-09-05T09:23:11.000Z</time><speed>25.27777777777778</speed><name>Radovljica</name><desc>209</desc></trkpt><trkpt lon="14.06211" lat="46.32997"><ele>495.5</ele><time>2009-09-05T09:25:49.000Z</time><speed>19.72222222222222</speed><name>Bled</name><desc>209</desc></trkpt><trkpt lon="14.05922" lat="46.32159"><ele>488.1</ele><time>2009-09-05T09:26:30.000Z</time><speed>24.166666666666668</speed><name>Bled</name><desc>209 Obrne; 14</desc></trkpt><trkpt lon="14.06105" lat="46.31867"><ele>480.3</ele><time>2009-09-05T09:26:44.000Z</time><speed>25.555555555555557</speed><name>Bled</name><desc>209</desc></trkpt><trkpt lon="14.04372" lat="46.30144"><ele>482.1</ele><time>2009-09-05T09:29:05.000Z</time><speed>21.666666666666668</speed><name>Bohinj</name><desc>209</desc></trkpt><trkpt lon="13.95292" lat="46.27975"><ele>507.4</ele><time>2009-09-05T09:35:32.000Z</time><speed>21.11111111111111</speed><name>Bohinj</name><desc>209 Savska Cesta</desc></trkpt><trkpt lon="13.95612" lat="46.27176"><ele>519.2</ele><time>2009-09-05T09:37:10.000Z</time><speed>3.3333333333333335</speed><name>Bohinj</name><desc>909 Triglavska Cesta; 13</desc></trkpt><trkpt lon="13.95667" lat="46.27082"><ele>525.6</ele><time>2009-09-05T09:38:45.000Z</time><speed>3.888888888888889</speed><name>Bohinj</name><desc>909 Jelovska Cesta; 4</desc></trkpt><trkpt lon="13.9731" lat="46.2724"><ele>630.4</ele><time>2009-09-05T09:42:35.000Z</time><speed>17.5</speed><name>Bohinj</name><desc>909</desc></trkpt><trkpt lon="14.00561" lat="46.24696"><ele>1268.2</ele><time>2009-09-05T09:52:10.000Z</time><speed>13.88888888888889</speed><name>Zelezniki</name><desc>909</desc></trkpt><trkpt lon="14.01109" lat="46.2406"><ele>1289.2</ele><time>2009-09-05T09:54:36.000Z</time><speed>0.0</speed><name>1401109:4624060</name></trkpt><trkpt lon="14.03042" lat="46.22765"><ele>921.4</ele><time>2009-09-05T10:34:32.000Z</time><speed>11.11111111111111</speed><name>Zelezniki</name><desc>910</desc></trkpt><trkpt lon="14.05923" lat="46.21125"><ele>574.6</ele><time>2009-09-05T10:40:31.000Z</time><speed>15.833333333333334</speed><name>Zelezniki</name><desc>403</desc></trkpt><trkpt lon="14.11093" lat="46.20602"><ele>512.3</ele><time>2009-09-05T10:45:02.000Z</time><speed>8.333333333333334</speed><name>Zelezniki</name><desc>912</desc></trkpt><trkpt lon="14.04532" lat="46.16626"><ele>970.9</ele><time>2009-09-05T10:59:18.000Z</time><speed>16.944444444444443</speed><name>Cerkno</name><desc>912</desc></trkpt><trkpt lon="14.01232" lat="46.14007"><ele>400.6</ele><time>2009-09-05T11:09:22.000Z</time><speed>15.0</speed><name>Cerkno</name><desc>Straße ohne Namen</desc></trkpt><trkpt lon="14.01073" lat="46.13927"><ele>394.1</ele><time>2009-09-05T11:09:34.000Z</time><speed>13.88888888888889</speed><name>Cerkno</name><desc>912</desc></trkpt><trkpt lon="13.99726" lat="46.13302"><ele>355.4</ele><time>2009-09-05T11:11:04.000Z</time><speed>15.277777777777779</speed><name>Cerkno</name><desc>912 Cvetkova Cesta</desc></trkpt><trkpt lon="13.99059" lat="46.12866"><ele>334.9</ele><time>2009-09-05T11:12:11.000Z</time><speed>7.777777777777778</speed><name>Cerkno</name><desc>Trg Prekomorskih Brigad; 2</desc></trkpt><trkpt lon="13.99099" lat="46.12817"><ele>338.1</ele><time>2009-09-05T11:12:23.000Z</time><speed>6.944444444444445</speed><name>Cerkno</name><desc>Mocnikova Ulica; 9</desc></trkpt><trkpt lon="13.99118" lat="46.12657"><ele>341.4</ele><time>2009-09-05T11:12:50.000Z</time><speed>10.0</speed><name>Cerkno</name><desc>210 Gorenjska Cesta; 16</desc></trkpt><trkpt lon="14.00191" lat="46.12256"><ele>423.2</ele><time>2009-09-05T11:13:46.000Z</time><speed>17.77777777777778</speed><name>Cerkno</name><desc>210</desc></trkpt><trkpt lon="14.03212" lat="46.09727"><ele>641.2</ele><time>2009-09-05T11:24:02.000Z</time><speed>23.333333333333332</speed><name>Gorenja Vas-Poljane</name><desc>210</desc></trkpt><trkpt lon="14.09545" lat="46.08694"><ele>456.4</ele><time>2009-09-05T11:31:22.000Z</time><speed>8.333333333333334</speed><name>Gorenja Vas-Poljane</name><desc>Straße ohne Namen</desc></trkpt><trkpt lon="14.09544" lat="46.0865"><ele>462.0</ele><time>2009-09-05T11:31:49.000Z</time><speed>12.777777777777779</speed><name>Gorenja Vas-Poljane</name><desc>408</desc></trkpt><trkpt lon="14.09146" lat="46.07205"><ele>465.3</ele><time>2009-09-05T11:33:24.000Z</time><speed>19.166666666666668</speed><name>Ziri</name><desc>408</desc></trkpt><trkpt lon="14.10563" lat="46.05984"><ele>496.9</ele><time>2009-09-05T11:36:07.000Z</time><speed>13.333333333333334</speed><name>Ziri</name><desc>408 Loska Cesta</desc></trkpt><trkpt lon="14.10959" lat="46.04738"><ele>477.9</ele><time>2009-09-05T11:38:50.000Z</time><speed>0.0</speed><name>1410959:4604738</name></trkpt><trkpt lon="14.10964" lat="46.04674"><ele>477.9</ele><time>2009-09-05T12:08:32.000Z</time><speed>7.5</speed><name>Ziri</name><desc>408 Jobstova Cesta</desc></trkpt><trkpt lon="14.10621" lat="46.04333"><ele>476.9</ele><time>2009-09-05T12:09:25.000Z</time><speed>8.88888888888889</speed><name>Ziri</name><desc>408 Starozirovska Cesta</desc></trkpt><trkpt lon="14.10427" lat="46.04161"><ele>479.4</ele><time>2009-09-05T12:09:50.000Z</time><speed>8.88888888888889</speed><name>Ziri</name><desc>408 Logaska Cesta</desc></trkpt><trkpt lon="14.11694" lat="46.0268"><ele>481.3</ele><time>2009-09-05T12:11:56.000Z</time><speed>23.61111111111111</speed><name>Ziri</name><desc>408</desc></trkpt><trkpt lon="14.14965" lat="46.00132"><ele>561.3</ele><time>2009-09-05T12:16:16.000Z</time><speed>10.555555555555555</speed><name>Logatec</name><desc>408</desc></trkpt><trkpt lon="14.14788" lat="45.9955"><ele>594.4</ele><time>2009-09-05T12:17:06.000Z</time><speed>19.444444444444443</speed><name>Ziri</name><desc>408</desc></trkpt><trkpt lon="14.14962" lat="45.9935"><ele>592.1</ele><time>2009-09-05T12:17:21.000Z</time><speed>13.88888888888889</speed><name>Logatec</name><desc>408</desc></trkpt><trkpt lon="14.19086" lat="45.95838"><ele>581.3</ele><time>2009-09-05T12:24:12.000Z</time><speed>8.61111111111111</speed><name>Logatec</name><desc>Straße ohne Namen</desc></trkpt><trkpt lon="14.19717" lat="45.92056"><ele>501.2</ele><time>2009-09-05T12:30:42.000Z</time><speed>15.555555555555555</speed><name>Logatec</name><desc>Gorenjska Cesta</desc></trkpt><trkpt lon="14.20253" lat="45.90807"><ele>484.5</ele><time>2009-09-05T12:34:32.000Z</time><speed>12.222222222222221</speed><name>Logatec</name><desc>102 Trzaska Cesta</desc></trkpt><trkpt lon="14.20092" lat="45.90197"><ele>491.6</ele><time>2009-09-05T12:35:14.000Z</time><speed>18.61111111111111</speed><name>Logatec</name><desc>102</desc></trkpt><trkpt lon="14.19072" lat="45.89377"><ele>493.5</ele><time>2009-09-05T12:36:39.000Z</time><speed>15.833333333333334</speed><name>Logatec</name><desc>409</desc></trkpt><trkpt lon="14.24159" lat="45.85318"><ele>468.9</ele><time>2009-09-05T12:41:12.000Z</time><speed>25.555555555555557</speed><name>Postojna</name><desc>409</desc></trkpt><trkpt lon="14.23649" lat="45.80481"><ele>592.6</ele><time>2009-09-05T12:49:32.000Z</time><speed>19.166666666666668</speed><name>Postojna</name><desc>409 Raubarkomanda</desc></trkpt><trkpt lon="14.22232" lat="45.78674"><ele>588.8</ele><time>2009-09-05T12:51:54.000Z</time><speed>14.722222222222221</speed><name>Postojna</name><desc>409 Ljubljanska Cesta</desc></trkpt><trkpt lon="14.21233" lat="45.77471"><ele>552.7</ele><time>2009-09-05T12:55:30.000Z</time><speed>5.555555555555555</speed><name>Postojna</name><desc>Trzaska Cesta</desc></trkpt><trkpt lon="14.21248" lat="45.77532"><ele>554.9</ele><time>2009-09-05T12:55:45.000Z</time><speed>7.222222222222222</speed><name>Postojna</name><desc>913</desc></trkpt><trkpt lon="14.21131" lat="45.77638"><ele>549.9</ele><time>2009-09-05T12:55:58.000Z</time><speed>11.38888888888889</speed><name>Postojna</name><desc>913 Jamska Cesta</desc></trkpt><trkpt lon="14.20523" lat="45.77984"><ele>523.6</ele><time>2009-09-05T12:56:50.000Z</time><speed>13.333333333333334</speed><name>Postojna</name><desc>913</desc></trkpt><trkpt lon="14.20584" lat="45.77978"><ele>524.0</ele><time>2009-09-05T12:58:58.000Z</time><speed>4.166666666666667</speed><name>Postojna</name><desc>Straße ohne Namen</desc></trkpt><trkpt lon="14.20552" lat="45.78107"><ele>524.3</ele><time>2009-09-05T12:59:28.000Z</time><speed>0.0</speed><name>1420552:4578107</name></trkpt><trkpt lon="14.20576" lat="45.7818"><name>13:11:17 - 1420576:4578180</name></trkpt><trkpt lon="14.2059" lat="45.78193"><ele>526.3</ele><time>2009-09-05T13:38:30.000Z</time><speed>0.0</speed><name>Postojna</name><desc>Jamska Cesta</desc></trkpt><trkpt lon="14.20574" lat="45.78187"><name>19:57:12 - Postojna</name><desc>Jamska Cesta</desc></trkpt><trkpt lon="14.20682" lat="45.78221"><ele>453.0</ele><time>2009-09-05T19:57:37.000Z</time><speed>0.0</speed><name>Postojna</name><desc>Cukovca</desc></trkpt><trkpt lon="14.20574" lat="45.78189"><ele>496.5</ele><time>2009-09-05T07:24:40.000Z</time><speed>0.0</speed><name>Postojna</name><desc>Jamska Cesta</desc></trkpt><trkpt lon="14.20636" lat="45.78237"><ele>413.3</ele><time>2009-09-05T07:25:30.000Z</time><speed>1.9444444444444444</speed><name>Postojna</name><desc>Cukovca</desc></trkpt><trkpt lon="14.20572" lat="45.78182"><ele>544.9</ele><time>2009-09-05T07:26:00.000Z</time><speed>0.0</speed><name>1420572:4578182</name></trkpt><trkpt lon="14.20546" lat="45.78125"><ele>524.9</ele><time>2009-09-05T07:33:54.000Z</time><speed>0.0</speed><name>1420546:4578125</name></trkpt><trkpt lon="14.20581" lat="45.77974"><ele>526.1</ele><time>2009-09-05T07:45:17.000Z</time><speed>0.0</speed><name>Postojna</name><desc>Straße ohne Namen</desc></trkpt><trkpt lon="14.21219" lat="45.77558"><ele>553.2</ele><time>2009-09-05T07:46:28.000Z</time><speed>8.88888888888889</speed><name>Postojna</name><desc>913</desc></trkpt><trkpt lon="14.21252" lat="45.77514"><ele>556.8</ele><time>2009-09-05T07:46:40.000Z</time><speed>7.222222222222222</speed><name>Postojna</name><desc>Trzaska Cesta</desc></trkpt><trkpt lon="14.21269" lat="45.77444"><ele>556.9</ele><time>2009-09-05T07:46:54.000Z</time><speed>4.722222222222222</speed><name>Postojna</name><desc>409 Titova Cesta</desc></trkpt><trkpt lon="14.19786" lat="45.76786"><ele>535.3</ele><time>2009-09-05T07:49:35.000Z</time><speed>13.61111111111111</speed><name>Postojna</name><desc>6 Reska Cesta</desc></trkpt><trkpt lon="14.19444" lat="45.75775"><ele>539.1</ele><time>2009-09-05T07:51:02.000Z</time><speed>19.444444444444443</speed><name>Postojna</name><desc>6</desc></trkpt><trkpt lon="14.18618" lat="45.73216"><ele>529.4</ele><time>2009-09-05T07:54:03.000Z</time><speed>14.722222222222221</speed><name>Postojna</name><desc>6 Reska Cesta</desc></trkpt><trkpt lon="14.18632" lat="45.73057"><ele>528.3</ele><time>2009-09-05T07:54:15.000Z</time><speed>12.777777777777779</speed><name>Postojna</name><desc>6</desc></trkpt><trkpt lon="14.18987" lat="45.72466"><ele>533.1</ele><time>2009-09-05T07:55:01.000Z</time><speed>21.38888888888889</speed><name>Postojna</name><desc>6 Reska Cesta</desc></trkpt><trkpt lon="14.19143" lat="45.71902"><ele>539.6</ele><time>2009-09-05T07:55:30.000Z</time><speed>23.61111111111111</speed><name>Postojna</name><desc>6</desc></trkpt><trkpt lon="14.1906" lat="45.70914"><ele>542.9</ele><time>2009-09-05T07:56:18.000Z</time><speed>24.166666666666668</speed><name>Pivka</name><desc>6</desc></trkpt><trkpt lon="14.19839" lat="45.68179"><ele>549.2</ele><time>2009-09-05T08:00:16.000Z</time><speed>15.277777777777779</speed><name>Pivka</name><desc>404 Snezniska Cesta</desc></trkpt><trkpt lon="14.21447" lat="45.66546"><ele>541.9</ele><time>2009-09-05T08:02:25.000Z</time><speed>18.61111111111111</speed><name>Pivka</name><desc>404</desc></trkpt><trkpt lon="14.23139" lat="45.62935"><ele>603.2</ele><time>2009-09-05T08:07:46.000Z</time><speed>15.555555555555555</speed><name>Ilirska Bistrica</name><desc>404</desc></trkpt><trkpt lon="14.23121" lat="45.58599"><ele>433.8</ele><time>2009-09-05T08:16:19.000Z</time><speed>19.72222222222222</speed><name>Ilirska Bistrica</name><desc>Straße ohne Namen</desc></trkpt><trkpt lon="14.23398" lat="45.58523"><ele>425.1</ele><time>2009-09-05T08:16:33.000Z</time><speed>18.055555555555557</speed><name>Ilirska Bistrica</name><desc>404</desc></trkpt><trkpt lon="14.23735" lat="45.57719"><ele>415.8</ele><time>2009-09-05T08:17:28.000Z</time><speed>21.666666666666668</speed><name>Ilirska Bistrica</name><desc>404 Sercerjeva Cesta</desc></trkpt><trkpt lon="14.24052" lat="45.57171"><ele>420.3</ele><time>2009-09-05T08:18:23.000Z</time><speed>4.166666666666667</speed><name>Ilirska Bistrica</name><desc>6 Vilharjeva Cesta</desc></trkpt><trkpt lon="14.23856" lat="45.57207"><ele>416.5</ele><time>2009-09-05T08:18:49.000Z</time><speed>3.0555555555555554</speed><name>Ilirska Bistrica</name><desc>404 Gubceva Ulica</desc></trkpt><trkpt lon="14.2391" lat="45.57208"><ele>418.8</ele><time>2009-09-05T08:19:02.000Z</time><speed>0.0</speed><name>Ilirska Bistrica</name><desc>6 Vilharjeva Cesta</desc></trkpt><trkpt lon="14.24132" lat="45.57074"><ele>420.7</ele><time>2009-09-05T08:19:30.000Z</time><speed>4.722222222222222</speed><name>Ilirska Bistrica</name><desc>6 Gregorciceva Cesta</desc></trkpt><trkpt lon="14.24434" lat="45.56429"><ele>407.9</ele><time>2009-09-05T08:20:34.000Z</time><speed>9.722222222222221</speed><name>Ilirska Bistrica</name><desc>6 Bazoviska Cesta</desc></trkpt><trkpt lon="14.241" lat="45.55477"><ele>406.0</ele><time>2009-09-05T08:22:16.000Z</time><speed>10.833333333333334</speed><name>Ilirska Bistrica</name><desc>6</desc></trkpt><trkpt lon="14.25043" lat="45.52839"><ele>432.3</ele><time>2009-09-05T08:25:30.000Z</time><speed>0.0</speed><name>1425043:4552839</name></trkpt><trkpt lon="14.27421" lat="45.49748"><ele>504.3</ele><time>2009-09-05T08:54:10.000Z</time><speed>6.388888888888889</speed><name>Ilirska Bistrica</name><desc>632</desc></trkpt><trkpt lon="14.27384" lat="45.49608"><ele>496.5</ele><time>2009-09-05T09:09:39.000Z</time><speed>14.166666666666666</speed><name>Ilirska Bistrica</name><desc>6</desc></trkpt><trkpt lon="14.27653" lat="45.49123"><ele>483.8</ele><time>2009-09-05T09:10:33.000Z</time><speed>8.61111111111111</speed><name>Ilirska Bistrica</name><desc>Straße ohne Namen</desc></trkpt><trkpt lon="14.27968" lat="45.48727"><ele>467.4</ele><time>2009-09-05T09:14:02.000Z</time><speed>0.0</speed><name>1427968:4548727</name></trkpt><trkpt lon="14.27703" lat="45.47656"><ele>440.1</ele><time>2009-09-05T09:28:01.000Z</time><speed>17.77777777777778</speed><name>Rupa</name><desc>1 Rupa</desc></trkpt><trkpt lon="14.27364" lat="45.47376"><ele>433.8</ele><time>2009-09-05T09:28:44.000Z</time><speed>13.333333333333334</speed><name>Rupa</name><desc>E61 1 Rupa</desc></trkpt><trkpt lon="14.27417" lat="45.47437"><ele>434.5</ele><time>2009-09-05T09:28:55.000Z</time><speed>5.833333333333333</speed><name>Matulji</name><desc>E61/8</desc></trkpt><trkpt lon="14.27934" lat="45.47298"><ele>437.2</ele><time>2009-09-05T09:29:24.000Z</time><speed>19.444444444444443</speed><name>Matulji</name><desc>8</desc></trkpt><trkpt lon="14.28384" lat="45.47211"><ele>440.7</ele><time>2009-09-05T09:29:51.000Z</time><speed>9.166666666666666</speed><name>Matulji</name><desc>5017</desc></trkpt><trkpt lon="14.28407" lat="45.47495"><ele>442.2</ele><time>2009-09-05T09:30:29.000Z</time><speed>5.555555555555555</speed><name>Matulji</name><desc>Straße ohne Namen</desc></trkpt><trkpt lon="14.28459" lat="45.47415"><ele>443.2</ele><time>2009-09-05T09:37:57.000Z</time><speed>0.0</speed><name>1428459:4547415</name></trkpt><trkpt lon="14.32006" lat="45.45172"><ele>552.5</ele><time>2009-09-05T09:44:16.000Z</time><speed>24.444444444444443</speed><name>Klana</name><desc>5017</desc></trkpt><trkpt lon="14.38381" lat="45.4121"><ele>471.5</ele><time>2009-09-05T09:50:26.000Z</time><speed>21.666666666666668</speed><name>Viskovo</name><desc>5017</desc></trkpt><trkpt lon="14.4102" lat="45.39"><ele>439.1</ele><time>2009-09-05T09:55:22.000Z</time><speed>8.055555555555555</speed><name>Viskovo</name><desc>5055</desc></trkpt><trkpt lon="14.41867" lat="45.39087"><ele>465.6</ele><time>2009-09-05T09:56:49.000Z</time><speed>16.944444444444443</speed><name>Jelenje</name><desc>5055</desc></trkpt><trkpt lon="14.47291" lat="45.37551"><ele>282.1</ele><time>2009-09-05T10:09:27.000Z</time><speed>25.555555555555557</speed><name>Rijeka</name><desc>5055</desc></trkpt><trkpt lon="14.4746" lat="45.37386"><ele>283.4</ele><time>2009-09-05T10:09:53.000Z</time><speed>11.944444444444445</speed><name>Rijeka</name><desc>Straße ohne Namen</desc></trkpt><trkpt lon="14.48306" lat="45.37653"><ele>284.5</ele><time>2009-09-05T10:10:34.000Z</time><speed>18.88888888888889</speed><name>Cavle</name><desc>Straße ohne Namen</desc></trkpt><trkpt lon="14.49685" lat="45.37444"><ele>293.9</ele><time>2009-09-05T10:11:44.000Z</time><speed>5.555555555555555</speed><name>Cavle</name><desc>40</desc></trkpt><trkpt lon="14.52625" lat="45.37683"><ele>321.7</ele><time>2009-09-05T10:14:31.000Z</time><speed>8.055555555555555</speed><name>Cavle</name><desc>Cesta Za Grobnik</desc></trkpt><trkpt lon="14.50833" lat="45.38308"><ele>308.1</ele><time>2009-09-05T10:19:53.000Z</time><speed>0.0</speed><name>1450833:4538308</name></trkpt><trkpt lon="14.52874" lat="45.37661"><ele>327.5</ele><time>2009-09-05T11:03:56.000Z</time><speed>18.055555555555557</speed><name>Cavle</name><desc>5029</desc></trkpt><trkpt lon="14.5419" lat="45.38018"><ele>483.2</ele><time>2009-09-05T11:06:16.000Z</time><speed>18.333333333333332</speed><name>Bakar</name><desc>5029</desc></trkpt><trkpt lon="14.6018" lat="45.37148"><ele>790.9</ele><time>2009-09-05T11:11:32.000Z</time><speed>18.333333333333332</speed><name>Lokve</name><desc>5029</desc></trkpt><trkpt lon="14.68607" lat="45.34101"><ele>847.6</ele><time>2009-09-05T11:18:35.000Z</time><speed>23.61111111111111</speed><name>Fuzine</name><desc>5029</desc></trkpt><trkpt lon="14.68982" lat="45.34457"><ele>869.9</ele><time>2009-09-05T11:19:17.000Z</time><speed>22.22222222222222</speed><name>Lokve</name><desc>5029</desc></trkpt><trkpt lon="14.76817" lat="45.36315"><ele>757.4</ele><time>2009-09-05T11:26:07.000Z</time><speed>12.777777777777779</speed><name>Delnice</name><desc>32</desc></trkpt><trkpt lon="14.78435" lat="45.33937"><ele>777.7</ele><time>2009-09-05T11:29:37.000Z</time><speed>23.61111111111111</speed><name>Mrkopalj</name><desc>32</desc></trkpt><trkpt lon="14.89012" lat="45.2966"><ele>937.9</ele><time>2009-09-05T11:41:22.000Z</time><speed>0.0</speed><name>1489012:4529660</name></trkpt><trkpt lon="14.85329" lat="45.31584"><ele>821.6</ele><time>2009-09-05T11:53:27.000Z</time><speed>5.555555555555555</speed><name>Mrkopalj</name><desc>5069</desc></trkpt><trkpt lon="14.85646" lat="45.33996"><ele>931.0</ele><time>2009-09-05T11:56:56.000Z</time><speed>19.72222222222222</speed><name>Ravna Gora</name><desc>5069</desc></trkpt><trkpt lon="14.91967" lat="45.37443"><ele>782.7</ele><time>2009-09-05T12:05:28.000Z</time><speed>13.333333333333334</speed><name>Ravna Gora</name><desc>5034</desc></trkpt><trkpt lon="15.01742" lat="45.3764"><ele>748.4</ele><time>2009-09-05T12:15:53.000Z</time><speed>16.944444444444443</speed><name>Vrbovsko</name><desc>5034</desc></trkpt><trkpt lon="15.06963" lat="45.37405"><ele>394.4</ele><time>2009-09-05T12:23:24.000Z</time><speed>5.0</speed><name>Vrbovsko</name><desc>Straße ohne Namen</desc></trkpt><trkpt lon="15.07018" lat="45.37447"><ele>399.6</ele><time>2009-09-05T12:23:37.000Z</time><speed>3.0555555555555554</speed><name>Vrbovsko</name><desc>5034</desc></trkpt><trkpt lon="15.07113" lat="45.37471"><ele>406.5</ele><time>2009-09-05T12:24:05.000Z</time><speed>0.0</speed><name>1507113:4537471</name></trkpt><trkpt lon="15.07611" lat="45.37379"><ele>462.9</ele><time>2009-09-05T13:00:58.000Z</time><speed>8.61111111111111</speed><name>Vrbovsko</name><desc>E71/42</desc></trkpt><trkpt lon="15.17723" lat="45.31167"><ele>345.6</ele><time>2009-09-05T13:14:49.000Z</time><speed>12.777777777777779</speed><name>Ogulin</name><desc>E71/42</desc></trkpt><trkpt lon="15.26482" lat="45.22847"><ele>319.7</ele><time>2009-09-05T13:29:42.000Z</time><speed>18.055555555555557</speed><name>Josipdol</name><desc>E71/42</desc></trkpt><trkpt lon="15.28477" lat="45.18858"><ele>341.1</ele><time>2009-09-05T13:34:49.000Z</time><speed>5.555555555555555</speed><name>Josipdol</name><desc>E71/23/42</desc></trkpt><trkpt lon="15.28878" lat="45.1785"><ele>353.5</ele><time>2009-09-05T13:36:00.000Z</time><speed>16.944444444444443</speed><name>Josipdol</name><desc>42</desc></trkpt><trkpt lon="15.35518" lat="45.13016"><ele>389.5</ele><time>2009-09-05T13:42:45.000Z</time><speed>20.833333333333332</speed><name>Plaski</name><desc>42</desc></trkpt><trkpt lon="15.36195" lat="45.11158"><ele>400.0</ele><time>2009-09-05T13:45:17.000Z</time><speed>0.0</speed><name>1536195:4511158</name></trkpt><trkpt lon="15.40869" lat="45.04925"><ele>415.8</ele><time>2009-09-05T14:09:47.000Z</time><speed>13.61111111111111</speed><name>Saborsko</name><desc>42</desc></trkpt><trkpt lon="15.52704" lat="44.95572"><ele>743.8</ele><time>2009-09-05T14:28:42.000Z</time><speed>19.166666666666668</speed><name>Plitvicka Jezera</name><desc>42</desc></trkpt><trkpt lon="15.61108" lat="44.92518"><ele>519.7</ele><time>2009-09-05T14:41:34.000Z</time><speed>11.666666666666666</speed><name>Rakovica</name><desc>42</desc></trkpt><trkpt lon="15.62895" lat="44.93915"><ele>412.8</ele><time>2009-09-05T14:44:17.000Z</time><speed>13.61111111111111</speed><name>Rakovica</name><desc>1</desc></trkpt><trkpt lon="15.6361" lat="44.94551"><name>14:46:49 - 1563610:4494551</name></trkpt><trkpt lon="15.63589" lat="44.94567"><name>07:16:57 - Rakovica</name><desc>1</desc></trkpt><trkpt lon="15.63223" lat="44.94269"><ele>422.2</ele><time>2009-09-05T07:21:29.000Z</time><speed>0.0</speed><name>1563223:4494269</name></trkpt><trkpt lon="15.61153" lat="44.91905"><ele>499.9</ele><time>2009-09-05T07:42:26.000Z</time><speed>15.277777777777779</speed><name>Plitvicka Jezera</name><desc>1</desc></trkpt><trkpt lon="15.61187" lat="44.90562"><ele>559.3</ele><time>2009-09-05T07:44:09.000Z</time><speed>0.0</speed><name>1561187:4490562</name></trkpt><trkpt lon="15.61109" lat="44.90478"><ele>556.6</ele><time>2009-09-05T07:54:57.000Z</time><speed>0.0</speed><name>1561109:4490478</name></trkpt><trkpt lon="15.61075" lat="44.90304"><ele>545.8</ele><time>2009-09-05T08:02:26.000Z</time><speed>0.0</speed><name>1561075:4490304</name></trkpt><trkpt lon="15.61082" lat="44.90226"><ele>514.1</ele><time>2009-09-05T08:08:00.000Z</time><speed>0.0</speed><name>1561082:4490226</name></trkpt><trkpt lon="15.61022" lat="44.90216"><ele>514.1</ele><time>2009-09-05T08:11:40.000Z</time><speed>0.0</speed><name>Plitvicka Jezera</name><desc>Straße ohne Namen</desc></trkpt><trkpt lon="15.60933" lat="44.90179"><ele>578.4</ele><time>2009-09-05T08:20:51.000Z</time><speed>0.0</speed><name>1560933:4490179</name></trkpt><trkpt lon="15.60938" lat="44.90172"><ele>541.4</ele><time>2009-09-05T08:34:53.000Z</time><speed>0.0</speed><name>1560938:4490172</name></trkpt><trkpt lon="15.60888" lat="44.90203"><ele>577.6</ele><time>2009-09-05T08:37:43.000Z</time><speed>0.0</speed><name>1560888:4490203</name></trkpt><trkpt lon="15.60882" lat="44.90249"><ele>577.6</ele><time>2009-09-05T08:41:07.000Z</time><speed>0.0</speed><name>1560882:4490249</name></trkpt><trkpt lon="15.61087" lat="44.90028"><ele>567.4</ele><time>2009-09-05T08:55:22.000Z</time><speed>0.0</speed><name>1561087:4490028</name></trkpt><trkpt lon="15.61107" lat="44.89993"><ele>627.1</ele><time>2009-09-05T08:57:35.000Z</time><speed>0.0</speed><name>1561107:4489993</name></trkpt><trkpt lon="15.61082" lat="44.89918"><ele>622.4</ele><time>2009-09-05T09:01:52.000Z</time><speed>0.0</speed><name>1561082:4489918</name></trkpt><trkpt lon="15.61128" lat="44.89704"><ele>549.8</ele><time>2009-09-05T09:10:03.000Z</time><speed>0.0</speed><name>Plitvicka Jezera</name><desc>1</desc></trkpt><trkpt lon="15.61101" lat="44.89616"><ele>532.8</ele><time>2009-09-05T09:16:02.000Z</time><speed>0.0</speed><name>1561101:4489616</name></trkpt><trkpt lon="15.61034" lat="44.89552"><ele>526.2</ele><time>2009-09-05T09:25:18.000Z</time><speed>0.0</speed><name>1561034:4489552</name></trkpt><trkpt lon="15.61014" lat="44.89516"><ele>526.2</ele><time>2009-09-05T09:27:17.000Z</time><speed>0.0</speed><name>Plitvicka Jezera</name><desc>Straße ohne Namen</desc></trkpt><trkpt lon="15.60364" lat="44.89391"><ele>521.0</ele><time>2009-09-05T09:38:48.000Z</time><speed>0.0</speed><name>1560364:4489391</name></trkpt><trkpt lon="15.60417" lat="44.89388"><ele>536.4</ele><time>2009-09-05T10:06:26.000Z</time><speed>0.0</speed><name>1560417:4489388</name></trkpt><trkpt lon="15.61536" lat="44.88027"><ele>570.6</ele><time>2009-09-05T10:24:12.000Z</time><speed>0.0</speed><name>1561536:4488027</name></trkpt><trkpt lon="15.61499" lat="44.88002"><ele>544.7</ele><time>2009-09-05T10:28:00.000Z</time><speed>0.0</speed><name>1561499:4488002</name></trkpt><trkpt lon="15.61376" lat="44.88009"><ele>576.0</ele><time>2009-09-05T10:32:45.000Z</time><speed>0.0</speed><name>1561376:4488009</name></trkpt><trkpt lon="15.6084" lat="44.87848"><ele>568.8</ele><time>2009-09-05T10:45:41.000Z</time><speed>0.0</speed><name>1560840:4487848</name></trkpt><trkpt lon="15.60957" lat="44.87734"><ele>582.8</ele><time>2009-09-05T10:50:47.000Z</time><speed>0.0</speed><name>1560957:4487734</name></trkpt><trkpt lon="15.60893" lat="44.87725"><ele>587.9</ele><time>2009-09-05T10:52:43.000Z</time><speed>0.0</speed><name>1560893:4487725</name></trkpt><trkpt lon="15.60942" lat="44.87638"><ele>581.2</ele><time>2009-09-05T10:56:07.000Z</time><speed>0.0</speed><name>1560942:4487638</name></trkpt><trkpt lon="15.60845" lat="44.8753"><ele>583.0</ele><time>2009-09-05T11:02:28.000Z</time><speed>0.0</speed><name>1560845:4487530</name></trkpt><trkpt lon="15.60519" lat="44.87484"><ele>617.6</ele><time>2009-09-05T11:19:42.000Z</time><speed>0.0</speed><name>1560519:4487484</name></trkpt><trkpt lon="15.60397" lat="44.87109"><ele>642.7</ele><time>2009-09-05T11:36:43.000Z</time><speed>0.0</speed><name>1560397:4487109</name></trkpt><trkpt lon="15.60412" lat="44.87119"><ele>644.2</ele><time>2009-09-05T11:44:23.000Z</time><speed>0.0</speed><name>1560412:4487119</name></trkpt><trkpt lon="15.60013" lat="44.87106"><ele>653.5</ele><time>2009-09-05T11:55:26.000Z</time><speed>0.0</speed><name>1560013:4487106</name></trkpt><trkpt lon="15.60015" lat="44.87096"><ele>652.8</ele><time>2009-09-05T11:59:17.000Z</time><speed>0.0</speed><name>1560015:4487096</name></trkpt><trkpt lon="15.59953" lat="44.87096"><ele>649.2</ele><time>2009-09-05T12:28:37.000Z</time><speed>0.0</speed><name>1559953:4487096</name></trkpt><trkpt lon="15.60802" lat="44.87471"><ele>632.1</ele><time>2009-09-05T12:34:52.000Z</time><speed>0.0</speed><name>1560802:4487471</name></trkpt><trkpt lon="15.61801" lat="44.88249"><ele>579.8</ele><time>2009-09-05T12:46:15.000Z</time><speed>0.0</speed><name>1561801:4488249</name></trkpt><trkpt lon="15.61143" lat="44.89541"><ele>575.4</ele><time>2009-09-05T12:52:48.000Z</time><speed>6.111111111111111</speed><name>Plitvicka Jezera</name><desc>1</desc></trkpt><trkpt lon="15.63558" lat="44.94515"><ele>566.6</ele><time>2009-09-05T14:54:12.000Z</time><speed>0.5555555555555556</speed><name>Rakovica</name><desc>1</desc></trkpt><trkpt lon="15.63554" lat="44.94572"><name>18:08:44 - Rakovica</name><desc>1</desc></trkpt><trkpt lon="15.63582" lat="44.94532"><ele>414.0</ele><time>2009-09-05T18:09:31.000Z</time><speed>0.0</speed><name>1563582:4494532</name></trkpt><trkpt lon="15.63568" lat="44.94545"><name>18:41:46 - Rakovica</name><desc>1</desc></trkpt><trkpt lon="15.63615" lat="44.94555"><ele>411.4</ele><time>2009-09-05T07:04:43.000Z</time><speed>0.0</speed><name>1563615:4494555</name></trkpt><trkpt lon="15.61232" lat="44.92023"><ele>502.0</ele><time>2009-09-05T07:23:43.000Z</time><speed>19.166666666666668</speed><name>Plitvicka Jezera</name><desc>1</desc></trkpt><trkpt lon="15.70197" lat="44.75205"><ele>661.0</ele><time>2009-09-05T07:41:22.000Z</time><speed>0.0</speed><name>1570197:4475205</name></trkpt><trkpt lon="15.74882" lat="44.70407"><ele>631.2</ele><time>2009-09-05T07:58:14.000Z</time><speed>0.0</speed><name>1574882:4470407</name></trkpt><trkpt lon="15.74968" lat="44.70475"><ele>632.4</ele><time>2009-09-05T08:01:37.000Z</time><speed>16.38888888888889</speed><name>Plitvicka Jezera</name><desc>506</desc></trkpt><trkpt lon="15.79033" lat="44.71143"><ele>614.2</ele><time>2009-09-05T08:04:11.000Z</time><speed>23.88888888888889</speed><name>Udbina</name><desc>506</desc></trkpt><trkpt lon="15.84713" lat="44.63363"><ele>1153.9</ele><time>2009-09-05T08:24:22.000Z</time><speed>5.277777777777778</speed><name>Udbina</name><desc>Straße ohne Namen</desc></trkpt><trkpt lon="15.84819" lat="44.63339"><ele>1146.1</ele><time>2009-09-05T08:24:35.000Z</time><speed>5.833333333333333</speed><name>Donji Lapac</name><desc>506</desc></trkpt><trkpt lon="15.85074" lat="44.63193"><ele>1142.5</ele><time>2009-09-05T08:27:28.000Z</time><speed>0.0</speed><name>1585074:4463193</name></trkpt><trkpt lon="15.92038" lat="44.58404"><ele>700.2</ele><time>2009-09-05T09:15:44.000Z</time><speed>0.0</speed><name>1592038:4458404</name></trkpt><trkpt lon="15.95992" lat="44.55104"><ele>581.7</ele><time>2009-09-05T09:31:06.000Z</time><speed>5.0</speed><name>Donji Lapac</name><desc>218</desc></trkpt><trkpt lon="16.10635" lat="44.47647"><ele>608.2</ele><time>2009-09-05T09:45:27.000Z</time><speed>0.0</speed><name>1610635:4447647</name></trkpt><trkpt lon="16.12284" lat="44.46014"><ele>518.1</ele><time>2009-09-05T10:19:42.000Z</time><speed>21.666666666666668</speed><name>Gracac</name><desc>218</desc></trkpt><trkpt lon="16.12367" lat="44.36243"><ele>450.3</ele><time>2009-09-05T10:31:16.000Z</time><speed>13.61111111111111</speed><name>Gracac</name><desc>Straße ohne Namen</desc></trkpt><trkpt lon="16.12344" lat="44.36118"><ele>453.3</ele><time>2009-09-05T10:31:27.000Z</time><speed>11.944444444444445</speed><name>Gracac</name><desc>218</desc></trkpt><trkpt lon="16.05877" lat="44.25445"><ele>656.4</ele><time>2009-09-05T10:44:49.000Z</time><speed>12.777777777777779</speed><name>Gracac</name><desc>E71/1</desc></trkpt><trkpt lon="16.05015" lat="44.20669"><ele>486.7</ele><time>2009-09-05T10:50:32.000Z</time><speed>0.0</speed><name>1605015:4420669</name></trkpt><trkpt lon="16.07251" lat="44.10482"><ele>297.4</ele><time>2009-09-05T11:13:16.000Z</time><speed>23.61111111111111</speed><name>Ervenik</name><desc>E71/1</desc></trkpt><trkpt lon="16.12038" lat="44.07653"><ele>362.1</ele><time>2009-09-05T11:18:07.000Z</time><speed>15.833333333333334</speed><name>Knin</name><desc>E71/1</desc></trkpt><trkpt lon="16.19731" lat="44.04234"><ele>235.4</ele><time>2009-09-05T11:27:58.000Z</time><speed>6.944444444444445</speed><name>Knin</name><desc>E71/1/33</desc></trkpt><trkpt lon="16.19806" lat="44.0423"><ele>235.0</ele><time>2009-09-05T11:28:24.000Z</time><speed>10.277777777777779</speed><name>Knin</name><desc>Bleiburska</desc></trkpt><trkpt lon="16.2002" lat="44.04104"><ele>223.4</ele><time>2009-09-05T11:29:17.000Z</time><speed>11.11111111111111</speed><name>Knin</name><desc>Rudera Boskovica</desc></trkpt><trkpt lon="16.19847" lat="44.04201"><ele>233.0</ele><time>2009-09-05T11:30:22.000Z</time><speed>11.11111111111111</speed><name>Knin</name><desc>Bleiburska</desc></trkpt><trkpt lon="16.19734" lat="44.04237"><ele>235.9</ele><time>2009-09-05T11:30:36.000Z</time><speed>10.0</speed><name>Knin</name><desc>E71/1/33</desc></trkpt><trkpt lon="16.19667" lat="44.0416"><ele>238.2</ele><time>2009-09-05T11:30:48.000Z</time><speed>5.833333333333333</speed><name>Knin</name><desc>33/6080</desc></trkpt><trkpt lon="16.19237" lat="44.03174"><ele>227.6</ele><time>2009-09-05T11:32:52.000Z</time><speed>11.38888888888889</speed><name>Knin</name><desc>33/6034</desc></trkpt><trkpt lon="16.19574" lat="44.02179"><ele>266.0</ele><time>2009-09-05T11:34:48.000Z</time><speed>20.27777777777778</speed><name>Biskupija</name><desc>33/6034</desc></trkpt><trkpt lon="16.20116" lat="44.00364"><ele>254.8</ele><time>2009-09-05T11:37:02.000Z</time><speed>21.666666666666668</speed><name>Biskupija</name><desc>33</desc></trkpt><trkpt lon="16.20716" lat="43.91722"><ele>284.0</ele><time>2009-09-05T11:45:08.000Z</time><speed>20.27777777777778</speed><name>Drnis</name><desc>33</desc></trkpt><trkpt lon="16.06059" lat="43.81851"><ele>247.6</ele><time>2009-09-05T12:04:03.000Z</time><speed>26.11111111111111</speed><name>Sibenik</name><desc>33</desc></trkpt><trkpt lon="15.96496" lat="43.7791"><ele>173.8</ele><time>2009-09-05T12:11:04.000Z</time><speed>0.0</speed><name>Drnis</name><desc>56</desc></trkpt><trkpt lon="15.96602" lat="43.78433"><ele>179.2</ele><time>2009-09-05T12:12:11.000Z</time><speed>0.0</speed><name>1596602:4378433</name></trkpt><trkpt lon="15.9564" lat="43.79125"><ele>173.1</ele><time>2009-09-05T12:27:04.000Z</time><speed>20.0</speed><name>Sibenik</name><desc>56</desc></trkpt><trkpt lon="15.93069" lat="43.81483"><ele>15.3</ele><time>2009-09-05T12:31:55.000Z</time><speed>15.0</speed><name>Skradin</name><desc>56</desc></trkpt><trkpt lon="15.93502" lat="43.81787"><ele>9.3</ele><time>2009-09-05T12:32:43.000Z</time><speed>11.11111111111111</speed><name>Sibenik</name><desc>56</desc></trkpt><trkpt lon="15.93453" lat="43.8189"><ele>11.2</ele><time>2009-09-05T12:32:55.000Z</time><speed>8.61111111111111</speed><name>Skradin</name><desc>56</desc></trkpt><trkpt lon="15.9239" lat="43.81958"><ele>8.9</ele><time>2009-09-05T12:37:24.000Z</time><speed>0.0</speed><name>1592390:4381958</name></trkpt><trkpt lon="15.92396" lat="43.81934"><name>12:49:31 - 1592396:4381934</name></trkpt><trkpt lon="15.92383" lat="43.81932"><name>08:01:52 - Skradin</name><desc>56</desc></trkpt><trkpt lon="15.92397" lat="43.81934"><ele>2.6</ele><time>2009-09-05T09:23:04.000Z</time><speed>0.0</speed><name>1592397:4381934</name></trkpt><trkpt lon="15.81436" lat="43.9272"><ele>118.1</ele><time>2009-09-05T09:39:13.000Z</time><speed>17.22222222222222</speed><name>Skradin</name><desc>59</desc></trkpt><trkpt lon="15.81286" lat="43.92902"><ele>117.5</ele><time>2009-09-05T09:39:38.000Z</time><speed>9.722222222222221</speed><name>Skradin</name><desc>56</desc></trkpt><trkpt lon="15.78709" lat="43.94328"><ele>104.6</ele><time>2009-09-05T09:42:18.000Z</time><speed>22.22222222222222</speed><name>Lisane Ostrovicke</name><desc>56</desc></trkpt><trkpt lon="15.73786" lat="43.96533"><ele>122.4</ele><time>2009-09-05T09:46:38.000Z</time><speed>21.944444444444443</speed><name>Benkovac</name><desc>56</desc></trkpt><trkpt lon="15.60949" lat="44.02978"><ele>167.8</ele><time>2009-09-05T09:57:04.000Z</time><speed>16.944444444444443</speed><name>Benkovac</name><desc>27/56</desc></trkpt><trkpt lon="15.60636" lat="44.03079"><ele>170.1</ele><time>2009-09-05T09:59:48.000Z</time><speed>0.0</speed><name>1560636:4403079</name></trkpt><trkpt lon="15.60763" lat="44.03079"><ele>168.2</ele><time>2009-09-05T10:11:19.000Z</time><speed>13.61111111111111</speed><name>Benkovac</name><desc>27/56</desc></trkpt><trkpt lon="15.61336" lat="44.02861"><ele>173.6</ele><time>2009-09-05T10:12:09.000Z</time><speed>13.61111111111111</speed><name>Benkovac</name><desc>27</desc></trkpt><trkpt lon="15.5999" lat="44.11845"><ele>136.3</ele><time>2009-09-05T10:20:45.000Z</time><speed>23.055555555555557</speed><name>Obrovac</name><desc>27</desc></trkpt><trkpt lon="15.68485" lat="44.20181"><ele>5.3</ele><time>2009-09-05T10:37:39.000Z</time><speed>10.555555555555555</speed><name>Obrovac</name><desc>5166</desc></trkpt><trkpt lon="15.64783" lat="44.2518"><ele>497.7</ele><time>2009-09-05T10:50:04.000Z</time><speed>9.444444444444445</speed><name>Jasenice</name><desc>5166</desc></trkpt><trkpt lon="15.64192" lat="44.25794"><ele>686.9</ele><time>2009-09-05T10:56:47.000Z</time><speed>0.0</speed><name>1564192:4425794</name></trkpt><trkpt lon="15.64115" lat="44.28762"><ele>1010.4</ele><time>2009-09-05T11:23:39.000Z</time><speed>9.444444444444445</speed><name>Lovinac</name><desc>5166</desc></trkpt><trkpt lon="15.64123" lat="44.33377"><ele>540.5</ele><time>2009-09-05T11:43:26.000Z</time><speed>0.0</speed><name>1564123:4433377</name></trkpt><trkpt lon="15.65371" lat="44.36142"><ele>572.8</ele><time>2009-09-05T12:07:28.000Z</time><speed>0.0</speed><name>1565371:4436142</name></trkpt><trkpt lon="15.66566" lat="44.37311"><ele>579.5</ele><time>2009-09-05T12:12:23.000Z</time><speed>0.0</speed><name>1566566:4437311</name></trkpt><trkpt lon="15.66589" lat="44.37303"><ele>579.5</ele><time>2009-09-05T12:45:22.000Z</time><speed>3.0555555555555554</speed><name>Lovinac</name><desc>E71/50</desc></trkpt><trkpt lon="15.66637" lat="44.37336"><ele>581.5</ele><time>2009-09-05T12:45:51.000Z</time><speed>5.833333333333333</speed><name>Lovinac</name><desc>522</desc></trkpt><trkpt lon="15.66557" lat="44.37313"><ele>581.8</ele><time>2009-09-05T12:48:12.000Z</time><speed>10.277777777777779</speed><name>Lovinac</name><desc>E71/50</desc></trkpt><trkpt lon="15.56995" lat="44.40862"><ele>621.7</ele><time>2009-09-05T12:54:48.000Z</time><speed>25.555555555555557</speed><name>Gospic</name><desc>E71/50</desc></trkpt><trkpt lon="15.37965" lat="44.54116"><ele>563.8</ele><time>2009-09-05T13:11:17.000Z</time><speed>13.88888888888889</speed><name>Gospic</name><desc>50</desc></trkpt><trkpt lon="15.37509" lat="44.54133"><ele>564.9</ele><time>2009-09-05T13:11:54.000Z</time><speed>10.277777777777779</speed><name>Gospic</name><desc>5163</desc></trkpt><trkpt lon="15.30257" lat="44.50906"><ele>568.5</ele><time>2009-09-05T13:20:58.000Z</time><speed>13.055555555555555</speed><name>Gospic</name><desc>25</desc></trkpt><trkpt lon="15.21637" lat="44.50972"><ele>755.8</ele><time>2009-09-05T13:27:48.000Z</time><speed>19.444444444444443</speed><name>Karlobag</name><desc>25</desc></trkpt><trkpt lon="15.14682" lat="44.52961"><ele>911.4</ele><time>2009-09-05T13:33:55.000Z</time><speed>11.11111111111111</speed><name>Karlobag</name><desc>Straße ohne Namen</desc></trkpt><trkpt lon="15.14366" lat="44.52891"><ele>925.4</ele><time>2009-09-05T13:34:33.000Z</time><speed>3.0555555555555554</speed><name>Karlobag</name><desc>25</desc></trkpt><trkpt lon="15.06703" lat="44.53095"><ele>37.8</ele><time>2009-09-05T14:14:54.000Z</time><speed>16.11111111111111</speed><name>Karlobag</name><desc>8</desc></trkpt><trkpt lon="14.99211" lat="44.59383"><ele>223.7</ele><time>2009-09-05T14:23:13.000Z</time><speed>20.555555555555557</speed><name>Senj</name><desc>8</desc></trkpt><trkpt lon="14.91511" lat="44.71552"><ele>223.6</ele><time>2009-09-05T14:35:53.000Z</time><speed>13.055555555555555</speed><name>Senj</name><desc>405</desc></trkpt><trkpt lon="14.89741" lat="44.70532"><ele>11.9</ele><time>2009-09-05T14:41:23.000Z</time><speed>0.0</speed><name>1489741:4470532</name></trkpt><trkpt lon="14.89597" lat="44.70595"><name>14:54:10 - 1489597:4470595</name></trkpt><trkpt lon="14.8959" lat="44.70591"><ele>1.6</ele><time>2009-09-05T06:33:12.000Z</time><speed>0.0</speed><name>1489590:4470591</name></trkpt><trkpt lon="14.896" lat="44.70556"><name>06:40:10 - Jablanac</name><desc>Jablanac-Misnjak</desc></trkpt><trkpt lon="14.89703" lat="44.70614"><name>06:40:24 - Senj</name><desc>405</desc></trkpt><trkpt lon="14.89735" lat="44.70534"><ele>-0.6</ele><time>2009-09-05T06:40:52.000Z</time><speed>6.388888888888889</speed><name>Senj</name><desc>Straße ohne Namen</desc></trkpt><trkpt lon="14.8973" lat="44.70497"><name>06:41:06 - Senj</name><desc>405</desc></trkpt><trkpt lon="14.89726" lat="44.70536"><ele>2.3</ele><time>2009-09-05T06:49:54.000Z</time><speed>3.3333333333333335</speed><name>Senj</name><desc>Straße ohne Namen</desc></trkpt><trkpt lon="14.89701" lat="44.70538"><name>06:50:10 - Jablanac</name><desc>Straße ohne Namen</desc></trkpt><trkpt lon="14.8965" lat="44.70496"><name>06:52:59 - Senj</name><desc>405</desc></trkpt><trkpt lon="14.89598" lat="44.70495"><ele>4.7</ele><time>2009-09-05T06:53:13.000Z</time><speed>3.3333333333333335</speed><name>Jablanac</name><desc>Jablanac-Misnjak</desc></trkpt><trkpt lon="14.86102" lat="44.70551"><ele>8.2</ele><time>2009-09-05T07:03:49.000Z</time><speed>0.0</speed><name>1486102:4470551</name></trkpt><trkpt lon="14.85971" lat="44.70563"><ele>6.0</ele><time>2009-09-05T07:07:01.000Z</time><speed>2.5</speed><name>Rab</name><desc>105</desc></trkpt><trkpt lon="14.85914" lat="44.70547"><ele>5.5</ele><time>2009-09-05T07:07:29.000Z</time><speed>0.0</speed><name>1485914:4470547</name></trkpt><trkpt lon="14.76864" lat="44.75941"><ele>26.2</ele><time>2009-09-05T07:36:14.000Z</time><speed>13.055555555555555</speed><name>Rab</name><desc>5139</desc></trkpt><trkpt lon="14.76098" lat="44.76064"><ele>5.9</ele><time>2009-09-05T07:37:24.000Z</time><speed>3.0555555555555554</speed><name>Rab</name><desc>Straße ohne Namen</desc></trkpt><trkpt lon="14.76184" lat="44.75992"><ele>2.8</ele><time>2009-09-05T07:38:06.000Z</time><speed>0.0</speed><name>1476184:4475992</name></trkpt><trkpt lon="14.76114" lat="44.76082"><ele>2.6</ele><time>2009-09-05T07:41:56.000Z</time><speed>4.722222222222222</speed><name>Rab</name><desc>5139</desc></trkpt><trkpt lon="14.76031" lat="44.76067"><ele>5.4</ele><time>2009-09-05T07:42:09.000Z</time><speed>6.111111111111111</speed><name>Rab</name><desc>Straße ohne Namen</desc></trkpt><trkpt lon="14.75898" lat="44.76236"><ele>9.8</ele><time>2009-09-05T07:42:35.000Z</time><speed>9.166666666666666</speed><name>Rab</name><desc>5139</desc></trkpt><trkpt lon="14.73241" lat="44.77158"><ele>8.3</ele><time>2009-09-05T07:46:11.000Z</time><speed>10.555555555555555</speed><name>Rab</name><desc>Straße ohne Namen</desc></trkpt><trkpt lon="14.72043" lat="44.77175"><ele>73.2</ele><time>2009-09-05T07:50:06.000Z</time><speed>0.0</speed><name>1472043:4477175</name></trkpt><trkpt lon="14.73232" lat="44.77228"><ele>14.2</ele><time>2009-09-05T07:54:53.000Z</time><speed>12.777777777777779</speed><name>Rab</name><desc>5139</desc></trkpt><trkpt lon="14.70827" lat="44.79097"><ele>7.0</ele><time>2009-09-05T08:00:05.000Z</time><speed>0.0</speed><name>1470827:4479097</name></trkpt><trkpt lon="14.75907" lat="44.76152"><ele>12.6</ele><time>2009-09-05T08:29:28.000Z</time><speed>8.333333333333334</speed><name>Rab</name><desc>Straße ohne Namen</desc></trkpt><trkpt lon="14.7625" lat="44.76117"><ele>18.7</ele><time>2009-09-05T08:30:18.000Z</time><speed>10.0</speed><name>Rab</name><desc>5139</desc></trkpt><trkpt lon="14.77058" lat="44.75864"><ele>38.5</ele><time>2009-09-05T08:31:19.000Z</time><speed>7.5</speed><name>Rab</name><desc>105</desc></trkpt><trkpt lon="14.73219" lat="44.82975"><ele>14.1</ele><time>2009-09-05T08:44:49.000Z</time><speed>10.0</speed><name>Rab</name><desc>Straße ohne Namen</desc></trkpt><trkpt lon="14.739" lat="44.82538"><ele>7.5</ele><time>2009-09-05T08:45:48.000Z</time><speed>11.944444444444445</speed><name>Lopar</name><desc>Straße ohne Namen</desc></trkpt><trkpt lon="14.74278" lat="44.82556"><name>08:50:21 - 1474278:4482556</name></trkpt><trkpt lon="14.73691" lat="44.82616"><name>08:57:33 - Rab</name><desc>Straße ohne Namen</desc></trkpt><trkpt lon="14.7307" lat="44.83088"><ele>4.8</ele><time>2009-09-05T09:08:16.000Z</time><speed>8.055555555555555</speed><name>Rab</name><desc>105</desc></trkpt><trkpt lon="14.72194" lat="44.83784"><name>09:10:34 - 1472194:4483784</name></trkpt><trkpt lon="14.85992" lat="44.70548"><ele>2.6</ele><time>2009-09-05T10:40:24.000Z</time><speed>1.9444444444444444</speed><name>Jablanac</name><desc>Jablanac-Misnjak</desc></trkpt><trkpt lon="14.86117" lat="44.70622"><ele>10.9</ele><time>2009-09-05T10:46:30.000Z</time><speed>0.0</speed><name>1486117:4470622</name></trkpt><trkpt lon="14.89695" lat="44.7054"><ele>-0.7</ele><time>2009-09-05T11:05:26.000Z</time><speed>0.0</speed><name>Jablanac</name><desc>Straße ohne Namen</desc></trkpt><trkpt lon="14.89736" lat="44.70535"><ele>6.6</ele><time>2009-09-05T11:07:39.000Z</time><speed>2.2222222222222223</speed><name>Senj</name><desc>Straße ohne Namen</desc></trkpt><trkpt lon="14.89741" lat="44.70511"><ele>6.0</ele><time>2009-09-05T11:07:54.000Z</time><speed>0.0</speed><name>Senj</name><desc>405</desc></trkpt><trkpt lon="14.91911" lat="44.71208"><ele>237.8</ele><time>2009-09-05T11:15:08.000Z</time><speed>0.0</speed><name>1491911:4471208</name></trkpt><trkpt lon="14.91899" lat="44.71227"><ele>240.1</ele><time>2009-09-05T11:20:41.000Z</time><speed>0.0</speed><name>1491899:4471227</name></trkpt><trkpt lon="14.9175" lat="44.92285"><ele>19.6</ele><time>2009-09-05T11:45:26.000Z</time><speed>17.5</speed><name>Senj</name><desc>5126</desc></trkpt><trkpt lon="14.92182" lat="44.92113"><ele>68.0</ele><time>2009-09-05T11:46:47.000Z</time><speed>1.3888888888888888</speed><name>Senj</name><desc>Straße ohne Namen</desc></trkpt><trkpt lon="14.92191" lat="44.92116"><ele>70.5</ele><time>2009-09-05T11:47:02.000Z</time><speed>0.0</speed><name>1492191:4492116</name></trkpt><trkpt lon="14.92637" lat="44.91805"><ele>172.2</ele><time>2009-09-05T11:58:05.000Z</time><speed>19.444444444444443</speed><name>Senj</name><desc>5126</desc></trkpt><trkpt lon="14.92659" lat="44.9127"><ele>205.4</ele><time>2009-09-05T11:58:44.000Z</time><speed>14.166666666666666</speed><name>Senj</name><desc>Straße ohne Namen</desc></trkpt><trkpt lon="14.92854" lat="44.91435"><ele>223.6</ele><time>2009-09-05T11:59:19.000Z</time><speed>12.777777777777779</speed><name>Senj</name><desc>5126</desc></trkpt><trkpt lon="14.93726" lat="44.91489"><ele>297.6</ele><time>2009-09-05T12:00:46.000Z</time><speed>19.444444444444443</speed><name>Senj</name><desc>Straße ohne Namen</desc></trkpt><trkpt lon="14.94557" lat="44.90881"><ele>403.7</ele><time>2009-09-05T12:03:09.000Z</time><speed>13.333333333333334</speed><name>Senj</name><desc>5126</desc></trkpt><trkpt lon="15.05054" lat="44.82336"><ele>793.9</ele><time>2009-09-05T12:19:05.000Z</time><speed>11.11111111111111</speed><name>Senj</name><desc>5140</desc></trkpt><trkpt lon="15.09845" lat="44.81897"><ele>800.6</ele><time>2009-09-05T12:26:29.000Z</time><speed>13.055555555555555</speed><name>Otocac</name><desc>5140</desc></trkpt><trkpt lon="15.22056" lat="44.87155"><ele>459.8</ele><time>2009-09-05T12:46:52.000Z</time><speed>0.0</speed><name>1522056:4487155</name></trkpt><trkpt lon="15.22043" lat="44.87165"><ele>455.1</ele><time>2009-09-05T13:00:39.000Z</time><speed>0.0</speed><name>1522043:4487165</name></trkpt><trkpt lon="15.24161" lat="44.87039"><ele>468.7</ele><time>2009-09-05T13:26:45.000Z</time><speed>10.277777777777779</speed><name>Otocac</name><desc>5128</desc></trkpt><trkpt lon="15.35774" lat="44.95774"><ele>749.9</ele><time>2009-09-05T13:55:36.000Z</time><speed>11.666666666666666</speed><name>Brinje</name><desc>5128</desc></trkpt><trkpt lon="15.38598" lat="44.96808"><ele>891.5</ele><time>2009-09-05T14:02:21.000Z</time><speed>0.0</speed><name>1538598:4496808</name></trkpt><trkpt lon="15.39246" lat="44.97098"><ele>833.7</ele><time>2009-09-05T14:06:54.000Z</time><speed>6.944444444444445</speed><name>Saborsko</name><desc>5128</desc></trkpt><trkpt lon="15.40262" lat="44.98212"><ele>805.0</ele><time>2009-09-05T14:17:19.000Z</time><speed>5.277777777777778</speed><name>Saborsko</name><desc>5113</desc></trkpt><trkpt lon="15.42141" lat="44.97954"><ele>726.4</ele><time>2009-09-05T14:21:11.000Z</time><speed>6.388888888888889</speed><name>Saborsko</name><desc>Straße ohne Namen</desc></trkpt><trkpt lon="15.421" lat="44.98044"><ele>720.3</ele><time>2009-09-05T14:21:26.000Z</time><speed>7.222222222222222</speed><name>Saborsko</name><desc>5113</desc></trkpt><trkpt lon="15.41696" lat="44.98451"><ele>688.0</ele><time>2009-09-05T14:23:08.000Z</time><speed>0.0</speed><name>1541696:4498451</name></trkpt><trkpt lon="15.42672" lat="45.00345"><ele>511.9</ele><time>2009-09-05T14:38:02.000Z</time><speed>13.055555555555555</speed><name>Saborsko</name><desc>42</desc></trkpt><trkpt lon="15.40863" lat="45.04951"><ele>417.4</ele><time>2009-09-05T14:45:03.000Z</time><speed>13.333333333333334</speed><name>Plaski</name><desc>42</desc></trkpt><trkpt lon="15.35518" lat="45.13262"><ele>402.4</ele><time>2009-09-05T14:58:08.000Z</time><speed>18.333333333333332</speed><name>Josipdol</name><desc>42</desc></trkpt><trkpt lon="15.28793" lat="45.17968"><ele>362.9</ele><time>2009-09-05T15:06:08.000Z</time><speed>13.055555555555555</speed><name>Josipdol</name><desc>E71/23/42</desc></trkpt><trkpt lon="15.28497" lat="45.18893"><ele>345.1</ele><time>2009-09-05T15:07:29.000Z</time><speed>3.0555555555555554</speed><name>Josipdol</name><desc>23</desc></trkpt><trkpt lon="15.28517" lat="45.18919"><ele>340.7</ele><time>2009-09-05T15:07:56.000Z</time><speed>0.0</speed><name>1528517:4518919</name></trkpt><trkpt lon="15.2851" lat="45.18911"><ele>355.7</ele><time>2009-09-05T15:14:33.000Z</time><speed>0.0</speed><name>1528510:4518911</name></trkpt><trkpt lon="15.28561" lat="45.18866"><name>15:18:06 - 1528561:4518866</name></trkpt><trkpt lon="15.28517" lat="45.18918"><ele>343.9</ele><time>2009-09-05T06:52:28.000Z</time><speed>0.0</speed><name>1528517:4518918</name></trkpt><trkpt lon="15.28557" lat="45.18971"><ele>345.7</ele><time>2009-09-05T06:55:37.000Z</time><speed>0.0</speed><name>1528557:4518971</name></trkpt><trkpt lon="15.28523" lat="45.18927"><ele>343.9</ele><time>2009-09-05T07:00:55.000Z</time><speed>0.0</speed><name>1528523:4518927</name></trkpt><trkpt lon="15.28535" lat="45.18751"><ele>341.4</ele><time>2009-09-05T08:27:23.000Z</time><speed>16.11111111111111</speed><name>Josipdol</name><desc>E71/23/42</desc></trkpt><trkpt lon="15.28799" lat="45.17903"><ele>359.4</ele><time>2009-09-05T08:28:19.000Z</time><speed>18.88888888888889</speed><name>Josipdol</name><desc>E71/23</desc></trkpt><trkpt lon="15.2118" lat="45.09321"><ele>887.9</ele><time>2009-09-05T08:40:20.000Z</time><speed>19.166666666666668</speed><name>Brinje</name><desc>E71/23</desc></trkpt><trkpt lon="15.0705" lat="44.98753"><ele>509.6</ele><time>2009-09-05T09:01:56.000Z</time><speed>17.77777777777778</speed><name>Brinje</name><desc>E71/23/50</desc></trkpt><trkpt lon="15.07479" lat="44.96502"><ele>490.4</ele><time>2009-09-05T09:04:29.000Z</time><speed>6.944444444444445</speed><name>Brinje</name><desc>E65/E71/23/50</desc></trkpt><trkpt lon="15.07416" lat="44.9643"><ele>483.0</ele><time>2009-09-05T09:29:21.000Z</time><speed>14.166666666666666</speed><name>Brinje</name><desc>E65/23</desc></trkpt><trkpt lon="15.04175" lat="44.96274"><ele>560.0</ele><time>2009-09-05T09:31:39.000Z</time><speed>25.833333333333332</speed><name>Senj</name><desc>E65/23</desc></trkpt><trkpt lon="14.91175" lat="44.98614"><ele>35.1</ele><time>2009-09-05T09:49:29.000Z</time><speed>14.444444444444445</speed><name>Senj</name><desc>Straße ohne Namen</desc></trkpt><trkpt lon="14.90713" lat="44.98285"><ele>49.5</ele><time>2009-09-05T09:50:22.000Z</time><speed>16.11111111111111</speed><name>Senj</name><desc>8</desc></trkpt><trkpt lon="14.9207" lat="44.93058"><ele>7.8</ele><time>2009-09-05T09:56:57.000Z</time><speed>0.0</speed><name>Senj</name><desc>Straße ohne Namen</desc></trkpt><trkpt lon="14.92126" lat="44.93098"><ele>12.0</ele><time>2009-09-05T10:16:36.000Z</time><speed>11.11111111111111</speed><name>Senj</name><desc>8</desc></trkpt><trkpt lon="14.90009" lat="44.99367"><ele>12.7</ele><time>2009-09-05T10:24:34.000Z</time><speed>13.61111111111111</speed><name>Senj</name><desc>E65/8</desc></trkpt><trkpt lon="14.882" lat="45.03537"><ele>29.9</ele><time>2009-09-05T10:29:44.000Z</time><speed>17.22222222222222</speed><name>Novi Vinodolski</name><desc>E65/8</desc></trkpt><trkpt lon="14.75111" lat="45.13954"><ele>66.7</ele><time>2009-09-05T10:48:08.000Z</time><speed>22.77777777777778</speed><name>Crikvenica</name><desc>E65/8</desc></trkpt><trkpt lon="14.70129" lat="45.17172"><ele>50.3</ele><time>2009-09-05T10:52:38.000Z</time><speed>21.944444444444443</speed><name>Crikvenica</name><desc>E65/8 Dubracina</desc></trkpt><trkpt lon="14.69003" lat="45.17773"><ele>57.0</ele><time>2009-09-05T10:53:33.000Z</time><speed>22.5</speed><name>Crikvenica</name><desc>E65/8</desc></trkpt><trkpt lon="14.62455" lat="45.23361"><ele>149.2</ele><time>2009-09-05T10:59:36.000Z</time><speed>20.833333333333332</speed><name>Bakar</name><desc>E65/8</desc></trkpt><trkpt lon="14.61986" lat="45.23671"><ele>154.3</ele><time>2009-09-05T11:00:04.000Z</time><speed>12.5</speed><name>Crikvenica</name><desc>501</desc></trkpt><trkpt lon="14.61298" lat="45.24404"><ele>187.0</ele><time>2009-09-05T11:01:00.000Z</time><speed>19.72222222222222</speed><name>Kraljevica</name><desc>501</desc></trkpt><trkpt lon="14.60414" lat="45.27084"><ele>234.5</ele><time>2009-09-05T11:04:26.000Z</time><speed>21.11111111111111</speed><name>Bakar</name><desc>501</desc></trkpt><trkpt lon="14.58438" lat="45.29388"><ele>236.1</ele><time>2009-09-05T11:09:20.000Z</time><speed>13.055555555555555</speed><name>Bakar</name><desc>5059</desc></trkpt><trkpt lon="14.56678" lat="45.30275"><ele>182.8</ele><time>2009-09-05T11:12:33.000Z</time><speed>0.0</speed><name>1456678:4530275</name></trkpt><trkpt lon="14.52782" lat="45.31691"><ele>239.8</ele><time>2009-09-05T11:48:08.000Z</time><speed>11.11111111111111</speed><name>Rijeka</name><desc>5059</desc></trkpt><trkpt lon="14.52688" lat="45.31687"><ele>238.5</ele><time>2009-09-05T11:48:19.000Z</time><speed>5.555555555555555</speed><name>Rijeka</name><desc>40 Bakar-Cavle</desc></trkpt><trkpt lon="14.52664" lat="45.32021"><ele>260.1</ele><time>2009-09-05T11:48:47.000Z</time><speed>14.444444444444445</speed><name>Bakar</name><desc>40</desc></trkpt><trkpt lon="14.51055" lat="45.33832"><ele>288.7</ele><time>2009-09-05T11:52:01.000Z</time><speed>11.38888888888889</speed><name>Cavle</name><desc>40</desc></trkpt><trkpt lon="14.49397" lat="45.35152"><ele>309.9</ele><time>2009-09-05T11:55:55.000Z</time><speed>8.88888888888889</speed><name>Cavle</name><desc>Straße ohne Namen</desc></trkpt><trkpt lon="14.4935" lat="45.35276"><ele>313.4</ele><time>2009-09-05T11:56:09.000Z</time><speed>10.0</speed><name>Cavle</name><desc>40</desc></trkpt><trkpt lon="14.48664" lat="45.36074"><ele>310.7</ele><time>2009-09-05T11:58:42.000Z</time><speed>12.222222222222221</speed><name>Rijeka</name><desc>5055</desc></trkpt><trkpt lon="14.47783" lat="45.3653"><ele>312.5</ele><time>2009-09-05T11:59:53.000Z</time><speed>12.777777777777779</speed><name>Cavle</name><desc>5056</desc></trkpt><trkpt lon="14.46532" lat="45.36888"><ele>407.6</ele><time>2009-09-05T12:02:02.000Z</time><speed>10.833333333333334</speed><name>Cavle</name><desc>Straße ohne Namen</desc></trkpt><trkpt lon="14.46581" lat="45.36874"><ele>398.2</ele><time>2009-09-05T12:02:42.000Z</time><speed>8.88888888888889</speed><name>Cavle</name><desc>5056</desc></trkpt><trkpt lon="14.46645" lat="45.36917"><ele>379.4</ele><time>2009-09-05T12:02:56.000Z</time><speed>6.666666666666667</speed><name>Cavle</name><desc>Straße ohne Namen</desc></trkpt><trkpt lon="14.47016" lat="45.37247"><ele>306.8</ele><time>2009-09-05T12:04:19.000Z</time><speed>3.0555555555555554</speed><name>Rijeka</name><desc>Straße ohne Namen</desc></trkpt><trkpt lon="14.47456" lat="45.37325"><ele>290.0</ele><time>2009-09-05T12:05:50.000Z</time><speed>6.111111111111111</speed><name>Rijeka</name><desc>5055</desc></trkpt><trkpt lon="14.48787" lat="45.36009"><ele>318.9</ele><time>2009-09-05T12:08:00.000Z</time><speed>6.388888888888889</speed><name>Cavle</name><desc>40</desc></trkpt><trkpt lon="14.48738" lat="45.35637"><ele>316.5</ele><time>2009-09-05T12:14:55.000Z</time><speed>0.0</speed><name>1448738:4535637</name></trkpt><trkpt lon="14.49531" lat="45.35019"><ele>305.9</ele><time>2009-09-05T12:20:22.000Z</time><speed>0.0</speed><name>1449531:4535019</name></trkpt><trkpt lon="14.48775" lat="45.36031"><ele>317.4</ele><time>2009-09-05T12:28:30.000Z</time><speed>10.833333333333334</speed><name>Rijeka</name><desc>5055</desc></trkpt><trkpt lon="14.47166" lat="45.37788"><ele>283.2</ele><time>2009-09-05T12:31:03.000Z</time><speed>25.0</speed><name>Cavle</name><desc>5055</desc></trkpt><trkpt lon="14.4703" lat="45.38052"><ele>283.3</ele><time>2009-09-05T12:31:17.000Z</time><speed>21.944444444444443</speed><name>Jelenje</name><desc>5055</desc></trkpt><trkpt lon="14.41771" lat="45.38971"><ele>479.7</ele><time>2009-09-05T12:42:02.000Z</time><speed>17.5</speed><name>Viskovo</name><desc>5055</desc></trkpt><trkpt lon="14.40939" lat="45.38904"><ele>430.2</ele><time>2009-09-05T12:43:29.000Z</time><speed>10.0</speed><name>Viskovo</name><desc>5017</desc></trkpt><trkpt lon="14.40805" lat="45.3877"><ele>422.1</ele><time>2009-09-05T12:45:10.000Z</time><speed>8.61111111111111</speed><name>Viskovo</name><desc>5055</desc></trkpt><trkpt lon="14.38253" lat="45.3828"><ele>331.9</ele><time>2009-09-05T12:49:12.000Z</time><speed>11.38888888888889</speed><name>Viskovo</name><desc>5021</desc></trkpt><trkpt lon="14.36663" lat="45.38255"><ele>291.5</ele><time>2009-09-05T12:51:28.000Z</time><speed>10.833333333333334</speed><name>Kastav</name><desc>5021</desc></trkpt><trkpt lon="14.35669" lat="45.37902"><ele>297.0</ele><time>2009-09-05T12:52:39.000Z</time><speed>8.88888888888889</speed><name>Kastav</name><desc>5020</desc></trkpt><trkpt lon="14.35618" lat="45.3729"><ele>316.9</ele><time>2009-09-05T12:53:57.000Z</time><speed>10.555555555555555</speed><name>Kastav</name><desc>Straße ohne Namen</desc></trkpt><trkpt lon="14.35004" lat="45.37154"><ele>337.7</ele><time>2009-09-05T13:00:00.000Z</time><speed>11.944444444444445</speed><name>Kastav</name><desc>304</desc></trkpt><trkpt lon="14.34331" lat="45.3711"><ele>290.8</ele><time>2009-09-05T13:01:05.000Z</time><speed>13.333333333333334</speed><name>Kastav</name><desc>5047</desc></trkpt><trkpt lon="14.33328" lat="45.36694"><ele>234.0</ele><time>2009-09-05T13:02:11.000Z</time><speed>14.444444444444445</speed><name>Matulji</name><desc>5047</desc></trkpt><trkpt lon="14.33144" lat="45.36581"><ele>220.3</ele><time>2009-09-05T13:02:24.000Z</time><speed>13.88888888888889</speed><name>Matulji</name><desc>Kastavska Cesta</desc></trkpt><trkpt lon="14.32847" lat="45.36269"><ele>181.9</ele><time>2009-09-05T13:03:49.000Z</time><speed>12.222222222222221</speed><name>Matulji</name><desc>8 Kvarnerska Cesta</desc></trkpt><trkpt lon="14.32918" lat="45.35817"><ele>135.6</ele><time>2009-09-05T13:05:19.000Z</time><speed>9.444444444444445</speed><name>Opatija</name><desc>66 Nova Cesta</desc></trkpt><trkpt lon="14.29684" lat="45.32059"><ele>28.0</ele><time>2009-09-05T13:12:43.000Z</time><speed>15.833333333333334</speed><name>Opatija</name><desc>66 Marsala Tita; 177</desc></trkpt><trkpt lon="14.29077" lat="45.31802"><ele>21.5</ele><time>2009-09-05T13:13:24.000Z</time><speed>15.0</speed><name>Opatija</name><desc>66 Liburnijska; 1</desc></trkpt><trkpt lon="14.2814" lat="45.30658"><ele>9.8</ele><time>2009-09-05T13:15:29.000Z</time><speed>3.888888888888889</speed><name>Opatija</name><desc>66 Primorska</desc></trkpt><trkpt lon="14.28121" lat="45.30709"><ele>13.1</ele><time>2009-09-05T13:15:42.000Z</time><speed>4.444444444444445</speed><name>Opatija</name><desc>Straße ohne Namen</desc></trkpt><trkpt lon="14.28108" lat="45.30641"><ele>11.6</ele><time>2009-09-05T13:18:19.000Z</time><speed>2.5</speed><name>Opatija</name><desc>66 Primorska</desc></trkpt><trkpt lon="14.28089" lat="45.3063"><ele>20.5</ele><time>2009-09-05T13:22:35.000Z</time><speed>0.0</speed><name>1428089:4530630</name></trkpt><trkpt lon="14.27896" lat="45.3"><ele>20.6</ele><time>2009-09-05T13:55:52.000Z</time><speed>14.722222222222221</speed><name>Opatija</name><desc>66 Setaliste Marsala Tita</desc></trkpt><trkpt lon="14.27603" lat="45.29745"><ele>25.1</ele><time>2009-09-05T13:56:32.000Z</time><speed>10.833333333333334</speed><name>Lovran</name><desc>66 Setaliste Marsala Tita</desc></trkpt><trkpt lon="14.27312" lat="45.28647"><ele>12.9</ele><time>2009-09-05T13:58:48.000Z</time><speed>13.333333333333334</speed><name>Lovran</name><desc>66</desc></trkpt><trkpt lon="14.26475" lat="45.26206"><ele>53.9</ele><time>2009-09-05T14:02:19.000Z</time><speed>15.555555555555555</speed><name>Moscenicka Draga</name><desc>66</desc></trkpt><trkpt lon="14.21554" lat="45.15636"><ele>232.3</ele><time>2009-09-05T14:19:04.000Z</time><speed>14.166666666666666</speed><name>Moscenicka Draga</name><desc>Straße ohne Namen</desc></trkpt><trkpt lon="14.21515" lat="45.15482"><ele>215.5</ele><time>2009-09-05T14:19:17.000Z</time><speed>15.0</speed><name>Krsan</name><desc>Straße ohne Namen</desc></trkpt><trkpt lon="14.22271" lat="45.1497"><ele>119.5</ele><time>2009-09-05T14:20:29.000Z</time><speed>13.333333333333334</speed><name>Zagorje</name><desc>Straße ohne Namen</desc></trkpt><trkpt lon="14.22324" lat="45.14472"><ele>5.1</ele><time>2009-09-05T14:22:57.000Z</time><speed>0.0</speed><name>1422324:4514472</name></trkpt><trkpt lon="14.2207" lat="45.15116"><ele>144.8</ele><time>2009-09-05T14:33:20.000Z</time><speed>15.0</speed><name>Krsan</name><desc>Straße ohne Namen</desc></trkpt><trkpt lon="14.2154" lat="45.15555"><ele>224.9</ele><time>2009-09-05T14:34:12.000Z</time><speed>8.055555555555555</speed><name>Moscenicka Draga</name><desc>Straße ohne Namen</desc></trkpt><trkpt lon="14.21329" lat="45.15443"><ele>255.6</ele><time>2009-09-05T14:35:01.000Z</time><speed>3.3333333333333335</speed><name>Krsan</name><desc>66</desc></trkpt><trkpt lon="14.2132" lat="45.14755"><ele>261.3</ele><time>2009-09-05T14:36:07.000Z</time><speed>0.0</speed><name>1421320:4514755</name></trkpt><trkpt lon="14.16459" lat="45.15719"><ele>83.5</ele><time>2009-09-05T14:46:30.000Z</time><speed>0.0</speed><name>1416459:4515719</name></trkpt><trkpt lon="14.1628" lat="45.15736"><ele>85.0</ele><time>2009-09-05T14:52:27.000Z</time><speed>0.0</speed><name>1416280:4515736</name></trkpt><trkpt lon="14.16266" lat="45.15718"><name>14:54:30 - 1416266:4515718</name></trkpt><trkpt lon="14.16288" lat="45.15678"><ele>88.9</ele><time>2009-09-05T06:49:09.000Z</time><speed>0.0</speed><name>1416288:4515678</name></trkpt><trkpt lon="14.16261" lat="45.15721"><ele>89.7</ele><time>2009-09-05T06:56:32.000Z</time><speed>0.0</speed><name>1416261:4515721</name></trkpt><trkpt lon="14.16069" lat="45.15652"><ele>97.6</ele><time>2009-09-05T07:02:28.000Z</time><speed>6.388888888888889</speed><name>Krsan</name><desc>64</desc></trkpt><trkpt lon="14.0771" lat="45.19062"><ele>24.3</ele><time>2009-09-05T07:11:26.000Z</time><speed>17.5</speed><name>Pican</name><desc>64</desc></trkpt><trkpt lon="14.02425" lat="45.21109"><ele>326.3</ele><time>2009-09-05T07:16:53.000Z</time><speed>25.27777777777778</speed><name>Gracisce</name><desc>64</desc></trkpt><trkpt lon="13.981" lat="45.21955"><ele>437.4</ele><time>2009-09-05T07:21:13.000Z</time><speed>18.333333333333332</speed><name>Pazin</name><desc>64</desc></trkpt><trkpt lon="13.9788" lat="45.21823"><ele>443.7</ele><time>2009-09-05T07:21:27.000Z</time><speed>15.0</speed><name>Gracisce</name><desc>64</desc></trkpt><trkpt lon="13.97286" lat="45.21702"><ele>430.4</ele><time>2009-09-05T07:21:55.000Z</time><speed>30.555555555555557</speed><name>Pazin</name><desc>64</desc></trkpt><trkpt lon="13.94221" lat="45.23705"><ele>286.9</ele><time>2009-09-05T07:26:20.000Z</time><speed>11.11111111111111</speed><name>Pazin</name><desc>64 Viktora Cara Emina</desc></trkpt><trkpt lon="13.9446" lat="45.24018"><ele>278.3</ele><time>2009-09-05T07:27:09.000Z</time><speed>9.444444444444445</speed><name>Pazin</name><desc>5013 Hrvatskog Narodnog Preporoda</desc></trkpt><trkpt lon="13.95232" lat="45.24455"><ele>286.0</ele><time>2009-09-05T07:28:20.000Z</time><speed>14.166666666666666</speed><name>Pazin</name><desc>5013</desc></trkpt><trkpt lon="13.97283" lat="45.24899"><ele>263.7</ele><time>2009-09-05T07:30:21.000Z</time><speed>13.88888888888889</speed><name>Pazin</name><desc>5046</desc></trkpt><trkpt lon="13.98067" lat="45.25463"><ele>268.4</ele><time>2009-09-05T07:31:22.000Z</time><speed>20.833333333333332</speed><name>Cerovlje</name><desc>5046</desc></trkpt><trkpt lon="14.01192" lat="45.27495"><ele>281.2</ele><time>2009-09-05T07:34:57.000Z</time><speed>7.777777777777778</speed><name>Pazin</name><desc>5013</desc></trkpt><trkpt lon="14.01559" lat="45.28234"><ele>285.5</ele><time>2009-09-05T07:36:46.000Z</time><speed>16.944444444444443</speed><name>Cerovlje</name><desc>5013</desc></trkpt><trkpt lon="14.00411" lat="45.35119"><ele>325.9</ele><time>2009-09-05T07:48:52.000Z</time><speed>14.444444444444445</speed><name>Buzet</name><desc>5013</desc></trkpt><trkpt lon="13.97401" lat="45.38679"><ele>246.6</ele><time>2009-09-05T08:03:34.000Z</time><speed>0.0</speed><name>1397401:4538679</name></trkpt><trkpt lon="13.97959" lat="45.39285"><ele>148.7</ele><time>2009-09-05T08:11:45.000Z</time><speed>8.88888888888889</speed><name>Buzet</name><desc>Straße ohne Namen</desc></trkpt><trkpt lon="13.9774" lat="45.392"><ele>139.5</ele><time>2009-09-05T08:11:59.000Z</time><speed>12.777777777777779</speed><name>Buzet</name><desc>5013</desc></trkpt><trkpt lon="13.97674" lat="45.39142"><ele>126.0</ele><time>2009-09-05T08:12:25.000Z</time><speed>0.0</speed><name>1397674:4539142</name></trkpt><trkpt lon="13.96568" lat="45.40231"><ele>42.3</ele><time>2009-09-05T08:17:02.000Z</time><speed>13.61111111111111</speed><name>Buzet</name><desc>Straße ohne Namen</desc></trkpt><trkpt lon="13.96607" lat="45.40758"><ele>78.6</ele><time>2009-09-05T08:18:05.000Z</time><speed>12.222222222222221</speed><name>Buzet</name><desc>44/5011</desc></trkpt><trkpt lon="13.96752" lat="45.4091"><ele>66.0</ele><time>2009-09-05T08:18:50.000Z</time><speed>0.0</speed><name>1396752:4540910</name></trkpt><trkpt lon="13.97035" lat="45.41175"><ele>74.5</ele><time>2009-09-05T08:27:25.000Z</time><speed>11.944444444444445</speed><name>Buzet</name><desc>201</desc></trkpt><trkpt lon="13.96696" lat="45.41365"><ele>83.3</ele><time>2009-09-05T08:27:53.000Z</time><speed>15.277777777777779</speed><name>Buzet</name><desc>201 Ulica Ii. Istarse Brigade</desc></trkpt><trkpt lon="13.95861" lat="45.4168"><ele>54.0</ele><time>2009-09-05T08:28:36.000Z</time><speed>17.5</speed><name>Buzet</name><desc>201</desc></trkpt><trkpt lon="13.9285" lat="45.44406"><ele>126.1</ele><time>2009-09-05T08:33:43.000Z</time><speed>0.0</speed><name>1392850:4544406</name></trkpt><trkpt lon="13.92617" lat="45.45309"><ele>166.1</ele><time>2009-09-05T08:50:12.000Z</time><speed>12.777777777777779</speed><name>Buzet</name><desc>Straße ohne Namen</desc></trkpt><trkpt lon="13.92411" lat="45.45355"><ele>172.4</ele><time>2009-09-05T08:50:24.000Z</time><speed>16.944444444444443</speed><name>Koper</name><desc>208</desc></trkpt><trkpt lon="13.9092" lat="45.45758"><ele>219.5</ele><time>2009-09-05T08:52:02.000Z</time><speed>0.0</speed><name>1390920:4545758</name></trkpt><trkpt lon="13.89639" lat="45.46308"><ele>292.8</ele><time>2009-09-05T09:05:05.000Z</time><speed>13.61111111111111</speed><name>Koper</name><desc>208 Socerga</desc></trkpt><trkpt lon="13.89893" lat="45.46682"><ele>319.9</ele><time>2009-09-05T09:06:25.000Z</time><speed>17.77777777777778</speed><name>Koper</name><desc>208</desc></trkpt><trkpt lon="13.89731" lat="45.46933"><ele>320.0</ele><time>2009-09-05T09:06:39.000Z</time><speed>23.055555555555557</speed><name>Koper</name><desc>208 Lukini</desc></trkpt><trkpt lon="13.89359" lat="45.47388"><ele>318.7</ele><time>2009-09-05T09:07:11.000Z</time><speed>18.055555555555557</speed><name>Koper</name><desc>208</desc></trkpt><trkpt lon="13.87348" lat="45.50109"><ele>297.0</ele><time>2009-09-05T09:09:49.000Z</time><speed>16.11111111111111</speed><name>Koper</name><desc>208 Gracisce</desc></trkpt><trkpt lon="13.87314" lat="45.50709"><ele>277.2</ele><time>2009-09-05T09:10:31.000Z</time><speed>18.61111111111111</speed><name>Koper</name><desc>208</desc></trkpt><trkpt lon="13.87016" lat="45.5162"><ele>240.6</ele><time>2009-09-05T09:11:28.000Z</time><speed>16.944444444444443</speed><name>Koper</name><desc>208 Kubed</desc></trkpt><trkpt lon="13.87232" lat="45.5245"><ele>193.0</ele><time>2009-09-05T09:12:50.000Z</time><speed>21.38888888888889</speed><name>Koper</name><desc>208</desc></trkpt><trkpt lon="13.86849" lat="45.54387"><ele>131.6</ele><time>2009-09-05T09:16:58.000Z</time><speed>18.333333333333332</speed><name>Koper</name><desc>208/409</desc></trkpt><trkpt lon="13.87266" lat="45.55203"><ele>175.0</ele><time>2009-09-05T09:18:01.000Z</time><speed>10.0</speed><name>Koper</name><desc>409</desc></trkpt><trkpt lon="13.9292" lat="45.5898"><ele>439.4</ele><time>2009-09-05T09:25:54.000Z</time><speed>23.61111111111111</speed><name>Hrpelje-Kozina</name><desc>409</desc></trkpt><trkpt lon="13.93515" lat="45.60891"><ele>493.8</ele><time>2009-09-05T09:27:45.000Z</time><speed>13.88888888888889</speed><name>Hrpelje-Kozina</name><desc>409/7</desc></trkpt><trkpt lon="13.93639" lat="45.61059"><ele>501.3</ele><time>2009-09-05T09:28:11.000Z</time><speed>10.0</speed><name>Hrpelje-Kozina</name><desc>409</desc></trkpt><trkpt lon="13.95858" lat="45.6306"><ele>536.2</ele><time>2009-09-05T09:30:23.000Z</time><speed>24.72222222222222</speed><name>Divaca</name><desc>409</desc></trkpt><trkpt lon="13.9753" lat="45.66377"><ele>450.8</ele><time>2009-09-05T09:33:38.000Z</time><speed>14.444444444444445</speed><name>Divaca</name><desc>405</desc></trkpt><trkpt lon="13.9888" lat="45.6625"><ele>412.4</ele><time>2009-09-05T09:35:22.000Z</time><speed>9.444444444444445</speed><name>Divaca</name><desc>Straße ohne Namen</desc></trkpt><trkpt lon="13.98849" lat="45.6628"><ele>418.8</ele><time>2009-09-05T09:35:55.000Z</time><speed>0.0</speed><name>1398849:4566280</name></trkpt><trkpt lon="13.98915" lat="45.66301"><ele>418.5</ele><time>2009-09-05T09:41:49.000Z</time><speed>0.0</speed><name>1398915:4566301</name></trkpt><trkpt lon="13.98851" lat="45.6628"><ele>420.4</ele><time>2009-09-05T10:13:16.000Z</time><speed>0.0</speed><name>1398851:4566280</name></trkpt><trkpt lon="13.98688" lat="45.66153"><ele>417.5</ele><time>2009-09-05T10:17:22.000Z</time><speed>12.222222222222221</speed><name>Divaca</name><desc>405</desc></trkpt><trkpt lon="13.9731" lat="45.66434"><ele>450.9</ele><time>2009-09-05T10:18:44.000Z</time><speed>15.277777777777779</speed><name>Divaca</name><desc>409</desc></trkpt><trkpt lon="14.06098" lat="45.7425"><ele>633.4</ele><time>2009-09-05T10:28:47.000Z</time><speed>23.61111111111111</speed><name>Postojna</name><desc>409</desc></trkpt><trkpt lon="14.18303" lat="45.77079"><ele>530.0</ele><time>2009-09-05T10:39:07.000Z</time><speed>22.22222222222222</speed><name>Postojna</name><desc>409 Trzaska Cesta</desc></trkpt><trkpt lon="14.19676" lat="45.76985"><ele>540.8</ele><time>2009-09-05T10:40:13.000Z</time><speed>11.38888888888889</speed><name>Postojna</name><desc>409 Titova Cesta</desc></trkpt><trkpt lon="14.21492" lat="45.77615"><ele>561.8</ele><time>2009-09-05T10:42:50.000Z</time><speed>13.055555555555555</speed><name>Postojna</name><desc>409 Ljubljanska Cesta</desc></trkpt><trkpt lon="14.22371" lat="45.78813"><ele>586.6</ele><time>2009-09-05T10:44:44.000Z</time><speed>12.777777777777779</speed><name>Postojna</name><desc>409 Raubarkomanda</desc></trkpt><trkpt lon="14.23381" lat="45.80737"><ele>621.3</ele><time>2009-09-05T10:47:11.000Z</time><speed>15.555555555555555</speed><name>Postojna</name><desc>409</desc></trkpt><trkpt lon="14.23684" lat="45.85686"><ele>474.8</ele><time>2009-09-05T10:55:53.000Z</time><speed>21.944444444444443</speed><name>Logatec</name><desc>409</desc></trkpt><trkpt lon="14.19142" lat="45.89488"><ele>495.8</ele><time>2009-09-05T11:00:07.000Z</time><speed>6.111111111111111</speed><name>Logatec</name><desc>Straße ohne Namen</desc></trkpt><trkpt lon="14.19051" lat="45.89495"><ele>497.0</ele><time>2009-09-05T11:00:35.000Z</time><speed>13.333333333333334</speed><name>Logatec</name><desc>102</desc></trkpt><trkpt lon="14.11501" lat="45.9461"><ele>585.4</ele><time>2009-09-05T11:08:14.000Z</time><speed>20.833333333333332</speed><name>Idrija</name><desc>102</desc></trkpt><trkpt lon="14.09199" lat="45.95793"><ele>602.8</ele><time>2009-09-05T11:10:23.000Z</time><speed>15.0</speed><name>Idrija</name><desc>102 Gregorciceva Ulica</desc></trkpt><trkpt lon="14.07624" lat="45.96609"><ele>565.3</ele><time>2009-09-05T11:12:00.000Z</time><speed>13.61111111111111</speed><name>Idrija</name><desc>102</desc></trkpt><trkpt lon="14.07448" lat="45.96709"><ele>557.5</ele><time>2009-09-05T11:12:13.000Z</time><speed>17.22222222222222</speed><name>Idrija</name><desc>102 Gregorciceva Ulica</desc></trkpt><trkpt lon="14.06627" lat="45.96991"><ele>495.9</ele><time>2009-09-05T11:13:47.000Z</time><speed>16.11111111111111</speed><name>Idrija</name><desc>102</desc></trkpt><trkpt lon="14.06511" lat="45.96961"><ele>489.2</ele><time>2009-09-05T11:14:02.000Z</time><speed>7.222222222222222</speed><name>Idrija</name><desc>102 Gregorciceva Ulica</desc></trkpt><trkpt lon="14.06745" lat="45.96924"><ele>471.4</ele><time>2009-09-05T11:14:39.000Z</time><speed>12.777777777777779</speed><name>Idrija</name><desc>102</desc></trkpt><trkpt lon="14.06293" lat="45.96946"><ele>462.1</ele><time>2009-09-05T11:15:07.000Z</time><speed>12.777777777777779</speed><name>Idrija</name><desc>102 Gregorciceva Ulica</desc></trkpt><trkpt lon="14.06088" lat="45.9689"><ele>460.6</ele><time>2009-09-05T11:15:19.000Z</time><speed>15.0</speed><name>Idrija</name><desc>102</desc></trkpt><trkpt lon="14.03494" lat="45.98524"><ele>352.2</ele><time>2009-09-05T11:19:49.000Z</time><speed>12.222222222222221</speed><name>Idrija</name><desc>102 Gregorciceva Ulica</desc></trkpt><trkpt lon="14.0333" lat="45.98636"><ele>342.8</ele><time>2009-09-05T11:20:26.000Z</time><speed>0.0</speed><name>1403330:4598636</name></trkpt><trkpt lon="14.028" lat="46.00311"><ele>323.1</ele><time>2009-09-05T11:49:25.000Z</time><speed>6.944444444444445</speed><name>Idrija</name><desc>102 Vojkova Ulica; 2</desc></trkpt><trkpt lon="14.02991" lat="46.0191"><ele>318.3</ele><time>2009-09-05T11:51:38.000Z</time><speed>19.444444444444443</speed><name>Idrija</name><desc>102</desc></trkpt><trkpt lon="14.01769" lat="46.05596"><ele>297.8</ele><time>2009-09-05T11:56:16.000Z</time><speed>17.22222222222222</speed><name>Cerkno</name><desc>102</desc></trkpt><trkpt lon="13.90084" lat="46.11413"><ele>234.6</ele><time>2009-09-05T12:08:56.000Z</time><speed>13.055555555555555</speed><name>Tolmin</name><desc>102</desc></trkpt><trkpt lon="13.77472" lat="46.14237"><ele>166.7</ele><time>2009-09-05T12:21:53.000Z</time><speed>19.72222222222222</speed><name>Tolmin</name><desc>102 Zalog</desc></trkpt><trkpt lon="13.74418" lat="46.1517"><ele>168.1</ele><time>2009-09-05T12:24:27.000Z</time><speed>13.88888888888889</speed><name>Tolmin</name><desc>102</desc></trkpt><trkpt lon="13.74123" lat="46.1527"><ele>165.3</ele><time>2009-09-05T12:24:50.000Z</time><speed>8.055555555555555</speed><name>Tolmin</name><desc>603</desc></trkpt><trkpt lon="13.72216" lat="46.16228"><ele>219.1</ele><time>2009-09-05T12:27:50.000Z</time><speed>6.944444444444445</speed><name>Tolmin</name><desc>Straße ohne Namen</desc></trkpt><trkpt lon="13.70846" lat="46.17113"><ele>215.4</ele><time>2009-09-05T12:29:34.000Z</time><speed>15.277777777777779</speed><name>Tolmin</name><desc>103 Kidriceva Cesta</desc></trkpt><trkpt lon="13.71274" lat="46.183"><ele>182.9</ele><time>2009-09-05T12:31:34.000Z</time><speed>7.222222222222222</speed><name>Tolmin</name><desc>102</desc></trkpt><trkpt lon="13.62159" lat="46.21158"><ele>196.7</ele><time>2009-09-05T12:37:38.000Z</time><speed>0.0</speed><name>1362159:4621158</name></trkpt><trkpt lon="13.61442" lat="46.2141"><ele>208.5</ele><time>2009-09-05T12:56:12.000Z</time><speed>17.22222222222222</speed><name>Kobarid</name><desc>102</desc></trkpt><trkpt lon="13.58354" lat="46.24107"><ele>222.4</ele><time>2009-09-05T12:59:25.000Z</time><speed>21.11111111111111</speed><name>Kobarid</name><desc>102 Goriska Cesta</desc></trkpt><trkpt lon="13.58279" lat="46.24349"><ele>231.8</ele><time>2009-09-05T12:59:54.000Z</time><speed>18.333333333333332</speed><name>Kobarid</name><desc>203</desc></trkpt><trkpt lon="13.5832" lat="46.2586"><ele>303.8</ele><time>2009-09-05T13:03:06.000Z</time><speed>0.0</speed><name>1358320:4625860</name></trkpt><trkpt lon="13.52567" lat="46.28683"><ele>404.3</ele><time>2009-09-05T13:09:47.000Z</time><speed>18.333333333333332</speed><name>Bovec</name><desc>203</desc></trkpt><trkpt lon="13.4937" lat="46.31781"><ele>363.0</ele><time>2009-09-05T13:16:52.000Z</time><speed>12.777777777777779</speed><name>Bovec</name><desc>203 Podklopca; 2</desc></trkpt><trkpt lon="13.52095" lat="46.32507"><ele>374.5</ele><time>2009-09-05T13:18:49.000Z</time><speed>18.61111111111111</speed><name>Bovec</name><desc>203</desc></trkpt><trkpt lon="13.54106" lat="46.3329"><ele>432.3</ele><time>2009-09-05T13:20:45.000Z</time><speed>2.2222222222222223</speed><name>Bovec</name><desc>Dvor</desc></trkpt><trkpt lon="13.54655" lat="46.33453"><ele>441.1</ele><time>2009-09-05T13:28:35.000Z</time><speed>13.055555555555555</speed><name>Bovec</name><desc>Brdo; 20</desc></trkpt><trkpt lon="13.55028" lat="46.33692"><ele>457.3</ele><time>2009-09-05T13:29:16.000Z</time><speed>8.333333333333334</speed><name>Bovec</name><desc>Kot; 56</desc></trkpt><trkpt lon="13.55136" lat="46.33698"><ele>457.3</ele><time>2009-09-05T13:29:29.000Z</time><speed>6.666666666666667</speed><name>Bovec</name><desc>Rupa; 2</desc></trkpt><trkpt lon="13.55623" lat="46.33359"><ele>447.1</ele><time>2009-09-05T13:30:24.000Z</time><speed>16.11111111111111</speed><name>Bovec</name><desc>203</desc></trkpt><trkpt lon="13.59776" lat="46.40174"><ele>618.6</ele><time>2009-09-05T13:50:03.000Z</time><speed>0.0</speed><name>1359776:4640174</name></trkpt><trkpt lon="13.60293" lat="46.40604"><ele>651.1</ele><time>2009-09-05T13:59:22.000Z</time><speed>0.0</speed><name>1360293:4640604</name></trkpt><trkpt lon="13.60301" lat="46.40599"><ele>651.1</ele><time>2009-09-05T14:05:07.000Z</time><speed>0.2777777777777778</speed><name>Bovec</name><desc>Straße ohne Namen</desc></trkpt><trkpt lon="13.6032" lat="46.40635"><name>15:43:54 - Bovec</name><desc>203</desc></trkpt><trkpt lon="13.60326" lat="46.4069"><name>06:12:05 - Bovec</name><desc>203</desc></trkpt><trkpt lon="13.60298" lat="46.40601"><ele>668.5</ele><time>2009-09-05T06:12:31.000Z</time><speed>0.0</speed><name>Bovec</name><desc>Straße ohne Namen</desc></trkpt><trkpt lon="13.60301" lat="46.40613"><ele>664.6</ele><time>2009-09-05T07:03:43.000Z</time><speed>1.6666666666666667</speed><name>Bovec</name><desc>203</desc></trkpt><trkpt lon="13.57763" lat="46.41863"><ele>1159.3</ele><time>2009-09-05T07:14:31.000Z</time><speed>10.0</speed><name>Tarvisio</name><desc>SS54</desc></trkpt><trkpt lon="13.57515" lat="46.41928"><ele>1143.7</ele><time>2009-09-05T07:14:43.000Z</time><speed>17.5</speed><name>Tarvisio</name><desc>SS54 Passo Predil</desc></trkpt><trkpt lon="13.56599" lat="46.42936"><ele>969.8</ele><time>2009-09-05T07:18:16.000Z</time><speed>12.5</speed><name>Tarvisio</name><desc>SS54</desc></trkpt><trkpt lon="13.569" lat="46.43895"><ele>905.3</ele><time>2009-09-05T07:19:33.000Z</time><speed>13.61111111111111</speed><name>Tarvisio</name><desc>SS54 Via Nevea</desc></trkpt><trkpt lon="13.57232" lat="46.44161"><ele>901.6</ele><time>2009-09-05T07:20:08.000Z</time><speed>15.555555555555555</speed><name>Tarvisio</name><desc>SS54 Via General Cantore</desc></trkpt><trkpt lon="13.57317" lat="46.44508"><ele>899.1</ele><time>2009-09-05T07:20:36.000Z</time><speed>17.22222222222222</speed><name>Tarvisio</name><desc>SS54</desc></trkpt><trkpt lon="13.57039" lat="46.4705"><ele>822.7</ele><time>2009-09-05T07:24:09.000Z</time><speed>6.111111111111111</speed><name>Tarvisio</name><desc>SS54 Località Riofreddo</desc></trkpt><trkpt lon="13.57274" lat="46.47376"><ele>804.3</ele><time>2009-09-05T07:24:45.000Z</time><speed>12.222222222222221</speed><name>Tarvisio</name><desc>SS54</desc></trkpt><trkpt lon="13.58458" lat="46.48881"><ele>749.8</ele><time>2009-09-05T07:27:12.000Z</time><speed>11.38888888888889</speed><name>Tarvisio</name><desc>SS54 Località Plezzut</desc></trkpt><trkpt lon="13.58697" lat="46.49104"><ele>761.0</ele><time>2009-09-05T07:27:37.000Z</time><speed>14.722222222222221</speed><name>Tarvisio</name><desc>SS54</desc></trkpt><trkpt lon="13.58843" lat="46.49663"><ele>741.4</ele><time>2009-09-05T07:28:42.000Z</time><speed>0.0</speed><name>1358843:4649663</name></trkpt><trkpt lon="13.58854" lat="46.49936"><ele>737.9</ele><time>2009-09-05T07:39:12.000Z</time><speed>16.944444444444443</speed><name>Tarvisio</name><desc>SS54 Via Gorizia</desc></trkpt><trkpt lon="13.58699" lat="46.504"><ele>716.5</ele><time>2009-09-05T07:40:13.000Z</time><speed>0.0</speed><name>Tarvisio</name><desc>Largo Piave</desc></trkpt><trkpt lon="13.58637" lat="46.50412"><ele>722.1</ele><time>2009-09-05T07:40:43.000Z</time><speed>5.833333333333333</speed><name>Tarvisio</name><desc>Via Vittorio Veneto</desc></trkpt><trkpt lon="13.57074" lat="46.50537"><ele>755.8</ele><time>2009-09-05T07:42:55.000Z</time><speed>11.11111111111111</speed><name>Tarvisio</name><desc>SS13 Via Armando Diaz</desc></trkpt><trkpt lon="13.55911" lat="46.50673"><ele>793.1</ele><time>2009-09-05T07:44:00.000Z</time><speed>14.166666666666666</speed><name>Tarvisio</name><desc>SS13 Via Alpi Giulie</desc></trkpt><trkpt lon="13.5432" lat="46.50796"><ele>824.1</ele><time>2009-09-05T07:45:22.000Z</time><speed>8.055555555555555</speed><name>Tarvisio</name><desc>SS13</desc></trkpt><trkpt lon="13.53705" lat="46.5073"><ele>822.2</ele><time>2009-09-05T07:45:50.000Z</time><speed>21.666666666666668</speed><name>Tarvisio</name><desc>SS13 Viadotto Lussari</desc></trkpt><trkpt lon="13.51875" lat="46.50651"><ele>817.6</ele><time>2009-09-05T07:46:53.000Z</time><speed>18.88888888888889</speed><name>Tarvisio</name><desc>SS13</desc></trkpt><trkpt lon="13.51592" lat="46.50606"><ele>811.3</ele><time>2009-09-05T07:47:08.000Z</time><speed>15.277777777777779</speed><name>Tarvisio</name><desc>Tarvisio</desc></trkpt><trkpt lon="13.51354" lat="46.50507"><ele>803.4</ele><time>2009-09-05T07:47:23.000Z</time><speed>22.22222222222222</speed><name>Tarvisio</name><desc>SS13 Strada Statale Pontebbana</desc></trkpt><trkpt lon="13.48981" lat="46.50762"><ele>781.1</ele><time>2009-09-05T07:48:50.000Z</time><speed>23.333333333333332</speed><name>Tarvisio</name><desc>SS13</desc></trkpt><trkpt lon="13.4775" lat="46.51014"><ele>779.1</ele><time>2009-09-05T07:49:34.000Z</time><speed>19.166666666666668</speed><name>Malborghetto-Valbruna</name><desc>SS13 Via Pontebbana; 36</desc></trkpt><trkpt lon="13.45666" lat="46.50988"><ele>768.0</ele><time>2009-09-05T07:50:59.000Z</time><speed>21.666666666666668</speed><name>Malborghetto-Valbruna</name><desc>SS13</desc></trkpt><trkpt lon="13.45473" lat="46.50873"><ele>765.6</ele><time>2009-09-05T07:51:13.000Z</time><speed>18.055555555555557</speed><name>Malborghetto-Valbruna</name><desc>SS13 Forte</desc></trkpt><trkpt lon="13.44962" lat="46.50723"><ele>751.2</ele><time>2009-09-05T07:51:30.000Z</time><speed>21.944444444444443</speed><name>Malborghetto-Valbruna</name><desc>SS13 Via Nazionale</desc></trkpt><trkpt lon="13.42819" lat="46.50619"><ele>709.5</ele><time>2009-09-05T07:52:45.000Z</time><speed>22.77777777777778</speed><name>Malborghetto-Valbruna</name><desc>SS13 Via Bamberga</desc></trkpt><trkpt lon="13.41726" lat="46.5049"><ele>704.8</ele><time>2009-09-05T07:53:27.000Z</time><speed>16.11111111111111</speed><name>Malborghetto-Valbruna</name><desc>SS13 Via Fella</desc></trkpt><trkpt lon="13.39098" lat="46.50151"><ele>656.4</ele><time>2009-09-05T07:55:24.000Z</time><speed>17.77777777777778</speed><name>Malborghetto-Valbruna</name><desc>SS13</desc></trkpt><trkpt lon="13.36393" lat="46.50579"><ele>633.8</ele><time>2009-09-05T07:57:19.000Z</time><speed>18.88888888888889</speed><name>Pontebba</name><desc>SS13 Frazione Laglesie San Leopoldo</desc></trkpt><trkpt lon="13.34509" lat="46.50815"><ele>611.5</ele><time>2009-09-05T07:58:22.000Z</time><speed>23.88888888888889</speed><name>Pontebba</name><desc>SS13 Località Pegle</desc></trkpt><trkpt lon="13.33395" lat="46.51085"><ele>600.8</ele><time>2009-09-05T07:59:03.000Z</time><speed>22.22222222222222</speed><name>Pontebba</name><desc>SS13</desc></trkpt><trkpt lon="13.32506" lat="46.50924"><ele>586.2</ele><time>2009-09-05T07:59:34.000Z</time><speed>25.0</speed><name>Pontebba</name><desc>SS13 Via 4 Novembre</desc></trkpt><trkpt lon="13.31105" lat="46.5079"><ele>570.9</ele><time>2009-09-05T08:00:35.000Z</time><speed>11.666666666666666</speed><name>Pontebba</name><desc>Via Mazzini</desc></trkpt><trkpt lon="13.30535" lat="46.50582"><ele>574.2</ele><time>2009-09-05T08:01:41.000Z</time><speed>6.666666666666667</speed><name>Pontebba</name><desc>Piazza Dante; 5</desc></trkpt><trkpt lon="13.30475" lat="46.50602"><ele>578.3</ele><time>2009-09-05T08:01:55.000Z</time><speed>6.388888888888889</speed><name>Pontebba</name><desc>SP110 Via Zardini; 7</desc></trkpt><trkpt lon="13.30074" lat="46.50855"><ele>591.8</ele><time>2009-09-05T08:02:49.000Z</time><speed>12.5</speed><name>Pontebba</name><desc>Via Paularo; 1</desc></trkpt><trkpt lon="13.2995" lat="46.50985"><ele>594.5</ele><time>2009-09-05T08:03:02.000Z</time><speed>11.944444444444445</speed><name>Pontebba</name><desc>SP110/SP112 Via Carducci; 24</desc></trkpt><trkpt lon="13.30295" lat="46.51188"><ele>615.1</ele><time>2009-09-05T08:03:52.000Z</time><speed>7.5</speed><name>Pontebba</name><desc>Via Pramollo</desc></trkpt><trkpt lon="13.30135" lat="46.51142"><ele>620.2</ele><time>2009-09-05T08:05:42.000Z</time><speed>9.444444444444445</speed><name>Pontebba</name><desc>SP110 Località Gamiscen</desc></trkpt><trkpt lon="13.29575" lat="46.51925"><ele>741.6</ele><time>2009-09-05T08:08:09.000Z</time><speed>8.88888888888889</speed><name>Pontebba</name><desc>SP110 Via Pramollo</desc></trkpt><trkpt lon="13.29705" lat="46.51867"><ele>738.2</ele><time>2009-09-05T08:12:31.000Z</time><speed>15.277777777777779</speed><name>Pontebba</name><desc>SP110 Località Gamiscen; 4</desc></trkpt><trkpt lon="13.30145" lat="46.51095"><ele>613.2</ele><time>2009-09-05T08:14:55.000Z</time><speed>10.277777777777779</speed><name>Pontebba</name><desc>SP110/SP112 Via Carducci</desc></trkpt><trkpt lon="13.30223" lat="46.50636"><ele>578.6</ele><time>2009-09-05T08:16:00.000Z</time><speed>14.166666666666666</speed><name>Pontebba</name><desc>SP112 Via Carducci; 53</desc></trkpt><trkpt lon="13.304" lat="46.50576"><ele>569.3</ele><time>2009-09-05T08:16:26.000Z</time><speed>7.5</speed><name>Pontebba</name><desc>Via Giovanni Grillo; 2</desc></trkpt><trkpt lon="13.30492" lat="46.50577"><ele>575.8</ele><time>2009-09-05T08:17:10.000Z</time><speed>0.0</speed><name>Pontebba</name><desc>SP110 Piazza Dante; 1</desc></trkpt><trkpt lon="13.30345" lat="46.50169"><ele>560.2</ele><time>2009-09-05T08:18:04.000Z</time><speed>11.666666666666666</speed><name>Pontebba</name><desc>SP110 Via Cavour; 5</desc></trkpt><trkpt lon="13.30172" lat="46.50036"><ele>554.5</ele><time>2009-09-05T08:18:46.000Z</time><speed>0.0</speed><name>1330172:4650036</name></trkpt><trkpt lon="13.29996" lat="46.49207"><ele>542.6</ele><time>2009-09-05T08:34:00.000Z</time><speed>21.11111111111111</speed><name>Pontebba</name><desc>SS13</desc></trkpt><trkpt lon="13.29867" lat="46.48944"><ele>534.0</ele><time>2009-09-05T08:34:15.000Z</time><speed>19.444444444444443</speed><name>Pontebba</name><desc>SS13 Località Fusinatis</desc></trkpt><trkpt lon="13.29977" lat="46.48433"><ele>524.6</ele><time>2009-09-05T08:34:46.000Z</time><speed>19.72222222222222</speed><name>Pontebba</name><desc>SS13 Frazione Pietratagliata</desc></trkpt><trkpt lon="13.29303" lat="46.47097"><ele>505.0</ele><time>2009-09-05T08:36:57.000Z</time><speed>5.555555555555555</speed><name>Dogna</name><desc>SS13</desc></trkpt><trkpt lon="13.29537" lat="46.46165"><ele>475.7</ele><time>2009-09-05T08:38:13.000Z</time><speed>20.0</speed><name>Dogna</name><desc>SS13 Frazione Saletto; 9</desc></trkpt><trkpt lon="13.30394" lat="46.457"><ele>446.7</ele><time>2009-09-05T08:38:56.000Z</time><speed>23.333333333333332</speed><name>Dogna</name><desc>SS13</desc></trkpt><trkpt lon="13.31587" lat="46.44677"><ele>435.6</ele><time>2009-09-05T08:40:11.000Z</time><speed>21.11111111111111</speed><name>Dogna</name><desc>SS13 Via Stazione</desc></trkpt><trkpt lon="13.31412" lat="46.44453"><ele>435.2</ele><time>2009-09-05T08:40:26.000Z</time><speed>18.055555555555557</speed><name>Dogna</name><desc>SS13 Frazione Porto; 9</desc></trkpt><trkpt lon="13.3115" lat="46.44252"><ele>430.6</ele><time>2009-09-05T08:40:41.000Z</time><speed>20.0</speed><name>Dogna</name><desc>SS13</desc></trkpt><trkpt lon="13.30968" lat="46.44043"><ele>421.3</ele><time>2009-09-05T08:40:56.000Z</time><speed>18.333333333333332</speed><name>Dogna</name><desc>SS13 Frazione Vidali; 2</desc></trkpt><trkpt lon="13.30865" lat="46.4352"><ele>421.0</ele><time>2009-09-05T08:41:25.000Z</time><speed>20.0</speed><name>Dogna</name><desc>SS13</desc></trkpt><trkpt lon="13.31712" lat="46.42371"><ele>407.0</ele><time>2009-09-05T08:42:37.000Z</time><speed>19.166666666666668</speed><name>Chiusaforte</name><desc>SS13</desc></trkpt><trkpt lon="13.31768" lat="46.41895"><ele>403.2</ele><time>2009-09-05T08:43:06.000Z</time><speed>19.72222222222222</speed><name>Chiusaforte</name><desc>SS13 Via Chiusavecchia</desc></trkpt><trkpt lon="13.31178" lat="46.40908"><ele>390.9</ele><time>2009-09-05T08:43:53.000Z</time><speed>21.11111111111111</speed><name>Chiusaforte</name><desc>SS13</desc></trkpt><trkpt lon="13.30939" lat="46.40721"><ele>381.3</ele><time>2009-09-05T08:44:08.000Z</time><speed>21.38888888888889</speed><name>Chiusaforte</name><desc>SS13 Strada Statale Pontebbana</desc></trkpt><trkpt lon="13.30156" lat="46.40627"><ele>378.9</ele><time>2009-09-05T08:44:37.000Z</time><speed>17.22222222222222</speed><name>Chiusaforte</name><desc>SS13 Via Ruffi</desc></trkpt><trkpt lon="13.2987" lat="46.40583"><ele>376.4</ele><time>2009-09-05T08:44:51.000Z</time><speed>16.11111111111111</speed><name>Chiusaforte</name><desc>SS13 Località Casasola</desc></trkpt><trkpt lon="13.29544" lat="46.4052"><ele>372.0</ele><time>2009-09-05T08:45:06.000Z</time><speed>16.944444444444443</speed><name>Chiusaforte</name><desc>SS13 Frazione Villanova</desc></trkpt><trkpt lon="13.26849" lat="46.39576"><ele>352.6</ele><time>2009-09-05T08:47:14.000Z</time><speed>22.77777777777778</speed><name>Chiusaforte</name><desc>SS13 Peraria</desc></trkpt><trkpt lon="13.25925" lat="46.39389"><ele>350.4</ele><time>2009-09-05T08:47:45.000Z</time><speed>21.38888888888889</speed><name>Resiutta</name><desc>SS13</desc></trkpt><trkpt lon="13.22512" lat="46.39382"><ele>319.4</ele><time>2009-09-05T08:49:50.000Z</time><speed>15.833333333333334</speed><name>Resiutta</name><desc>SS13 Frazione Povici</desc></trkpt><trkpt lon="13.21947" lat="46.39405"><ele>318.3</ele><time>2009-09-05T08:50:19.000Z</time><speed>16.38888888888889</speed><name>Resiutta</name><desc>SS13 Viale Udine; 17</desc></trkpt><trkpt lon="13.20388" lat="46.39584"><ele>310.9</ele><time>2009-09-05T08:51:17.000Z</time><speed>21.38888888888889</speed><name>Resiutta</name><desc>SS13</desc></trkpt><trkpt lon="13.20012" lat="46.39658"><ele>318.6</ele><time>2009-09-05T08:51:33.000Z</time><speed>19.166666666666668</speed><name>Moggio Udinese</name><desc>SS13</desc></trkpt><trkpt lon="13.18067" lat="46.39866"><ele>297.8</ele><time>2009-09-05T08:53:01.000Z</time><speed>19.166666666666668</speed><name>Moggio Udinese</name><desc>SS13 Strada Statale 13 Pontebbana</desc></trkpt><trkpt lon="13.15646" lat="46.38702"><ele>283.4</ele><time>2009-09-05T08:54:37.000Z</time><speed>18.61111111111111</speed><name>Venzone</name><desc>SS13</desc></trkpt><trkpt lon="13.13998" lat="46.38697"><ele>273.7</ele><time>2009-09-05T08:55:47.000Z</time><speed>17.22222222222222</speed><name>Venzone</name><desc>SS13 Via Canal Del Ferro; 32</desc></trkpt><trkpt lon="13.13332" lat="46.38137"><ele>267.3</ele><time>2009-09-05T08:56:31.000Z</time><speed>15.833333333333334</speed><name>Venzone</name><desc>SS13 Via Pontebbana</desc></trkpt><trkpt lon="13.13142" lat="46.38015"><ele>263.1</ele><time>2009-09-05T08:56:46.000Z</time><speed>13.333333333333334</speed><name>Venzone</name><desc>Straße ohne Namen</desc></trkpt><trkpt lon="13.12836" lat="46.37975"><ele>262.9</ele><time>2009-09-05T08:57:00.000Z</time><speed>18.055555555555557</speed><name>Venzone</name><desc>SS52</desc></trkpt><trkpt lon="13.11443" lat="46.37982"><ele>269.3</ele><time>2009-09-05T08:57:57.000Z</time><speed>23.333333333333332</speed><name>Amaro</name><desc>SS52</desc></trkpt><trkpt lon="13.07034" lat="46.37256"><ele>272.5</ele><time>2009-09-05T09:01:07.000Z</time><speed>21.38888888888889</speed><name>Cavazzo Carnico</name><desc>SS52</desc></trkpt><trkpt lon="13.02606" lat="46.38835"><ele>300.8</ele><time>2009-09-05T09:04:36.000Z</time><speed>22.5</speed><name>Tolmezzo</name><desc>SS52</desc></trkpt><trkpt lon="13.00339" lat="46.39999"><ele>317.5</ele><time>2009-09-05T09:06:11.000Z</time><speed>21.11111111111111</speed><name>Tolmezzo</name><desc>SS52/Ss52bis</desc></trkpt><trkpt lon="13.00429" lat="46.40537"><ele>324.0</ele><time>2009-09-05T09:06:37.000Z</time><speed>23.333333333333332</speed><name>Tolmezzo</name><desc>Ss52bis</desc></trkpt><trkpt lon="13.01514" lat="46.4151"><ele>337.8</ele><time>2009-09-05T09:07:47.000Z</time><speed>14.722222222222221</speed><name>Tolmezzo</name><desc>SS52BIS Via Paluzza</desc></trkpt><trkpt lon="13.02608" lat="46.42417"><ele>357.9</ele><time>2009-09-05T09:08:58.000Z</time><speed>21.38888888888889</speed><name>Tolmezzo</name><desc>Ss52bis</desc></trkpt><trkpt lon="13.03788" lat="46.44603"><ele>387.9</ele><time>2009-09-05T09:11:12.000Z</time><speed>15.277777777777779</speed><name>Tolmezzo</name><desc>SS52BIS Via Montello</desc></trkpt><trkpt lon="13.03769" lat="46.44796"><ele>390.3</ele><time>2009-09-05T09:11:25.000Z</time><speed>15.277777777777779</speed><name>Tolmezzo</name><desc>Ss52bis</desc></trkpt><trkpt lon="13.03711" lat="46.44997"><ele>389.2</ele><time>2009-09-05T09:11:40.000Z</time><speed>16.666666666666668</speed><name>Tolmezzo</name><desc>SS52BIS Via Passo Monte Croce</desc></trkpt><trkpt lon="13.03626" lat="46.45396"><ele>395.3</ele><time>2009-09-05T09:12:10.000Z</time><speed>13.055555555555555</speed><name>Tolmezzo</name><desc>Ss52bis</desc></trkpt><trkpt lon="13.03498" lat="46.45725"><ele>400.9</ele><time>2009-09-05T09:12:37.000Z</time><speed>12.777777777777779</speed><name>Arta Terme</name><desc>SS52BIS Frazione Cedarchis</desc></trkpt><trkpt lon="13.03038" lat="46.46149"><ele>414.7</ele><time>2009-09-05T09:13:18.000Z</time><speed>13.055555555555555</speed><name>Arta Terme</name><desc>SS52BIS Via Nazionale</desc></trkpt><trkpt lon="13.02217" lat="46.47478"><ele>446.2</ele><time>2009-09-05T09:15:00.000Z</time><speed>16.944444444444443</speed><name>Arta Terme</name><desc>SS52BIS Via Avosacco</desc></trkpt><trkpt lon="13.01819" lat="46.47885"><ele>463.1</ele><time>2009-09-05T09:15:40.000Z</time><speed>14.444444444444445</speed><name>Arta Terme</name><desc>SS52BIS Via Nazionale</desc></trkpt><trkpt lon="13.00206" lat="46.49152"><ele>481.9</ele><time>2009-09-05T09:18:39.000Z</time><speed>16.944444444444443</speed><name>Arta Terme</name><desc>Ss52bis</desc></trkpt><trkpt lon="12.99893" lat="46.49307"><ele>487.0</ele><time>2009-09-05T09:18:52.000Z</time><speed>22.22222222222222</speed><name>Sutrio</name><desc>Ss52bis</desc></trkpt><trkpt lon="13.00209" lat="46.50509"><ele>513.2</ele><time>2009-09-05T09:19:53.000Z</time><speed>22.77777777777778</speed><name>Arta Terme</name><desc>SS52BIS Via Nazionale</desc></trkpt><trkpt lon="13.00518" lat="46.51917"><ele>551.0</ele><time>2009-09-05T09:21:32.000Z</time><speed>15.555555555555555</speed><name>Paluzza</name><desc>SS52BIS Via Nazionale; 13</desc></trkpt><trkpt lon="13.01512" lat="46.53199"><ele>592.7</ele><time>2009-09-05T09:23:13.000Z</time><speed>11.944444444444445</speed><name>Paluzza</name><desc>SS52BIS Via Enfretors; 1</desc></trkpt><trkpt lon="13.0124" lat="46.53844"><ele>621.5</ele><time>2009-09-05T09:23:55.000Z</time><speed>19.166666666666668</speed><name>Paluzza</name><desc>SS52BIS Via Nazionale</desc></trkpt><trkpt lon="12.94469" lat="46.60297"><ele>1379.7</ele><time>2009-09-05T09:40:39.000Z</time><speed>0.0</speed><name>1294469:4660297</name></trkpt><trkpt lon="12.94545" lat="46.60308"><ele>1358.2</ele><time>2009-09-05T10:05:14.000Z</time><speed>0.0</speed><name>1294545:4660308</name></trkpt><trkpt lon="12.94527" lat="46.60426"><ele>1361.0</ele><time>2009-09-05T10:10:34.000Z</time><speed>10.555555555555555</speed><name>Kötschach-Mauthen</name><desc>B110 Plöckenpaß-Bundesstraße</desc></trkpt><trkpt lon="12.96277" lat="46.64135"><ele>965.6</ele><time>2009-09-05T10:18:47.000Z</time><speed>18.055555555555557</speed><name>Kötschach-Mauthen</name><desc>B110 Kreuzberg</desc></trkpt><trkpt lon="12.9995" lat="46.6628"><ele>712.1</ele><time>2009-09-05T10:23:57.000Z</time><speed>5.833333333333333</speed><name>Kötschach-Mauthen</name><desc>B110 Mauthen; 1</desc></trkpt><trkpt lon="12.99887" lat="46.66888"><ele>705.4</ele><time>2009-09-05T10:24:49.000Z</time><speed>15.833333333333334</speed><name>Kötschach-Mauthen</name><desc>B110 Kötschach</desc></trkpt><trkpt lon="13.00154" lat="46.67294"><ele>703.6</ele><time>2009-09-05T10:25:29.000Z</time><speed>10.833333333333334</speed><name>Kötschach-Mauthen</name><desc>B110/B111 Kötschach; 209</desc></trkpt><trkpt lon="13.0032" lat="46.67629"><ele>707.0</ele><time>2009-09-05T10:25:58.000Z</time><speed>12.222222222222221</speed><name>Kötschach-Mauthen</name><desc>B110 Kötschach</desc></trkpt><trkpt lon="12.99573" lat="46.68938"><ele>810.7</ele><time>2009-09-05T10:28:32.000Z</time><speed>20.555555555555557</speed><name>Kötschach-Mauthen</name><desc>B110 Laas; 77</desc></trkpt><trkpt lon="12.98783" lat="46.6939"><ele>836.8</ele><time>2009-09-05T10:29:17.000Z</time><speed>11.666666666666666</speed><name>Oberdrauburg</name><desc>B110 Plöckenpaß-Bundesstraße</desc></trkpt><trkpt lon="12.98307" lat="46.69465"><ele>861.6</ele><time>2009-09-05T10:29:42.000Z</time><speed>17.77777777777778</speed><name>Oberdrauburg</name><desc>B110 Plöckenpaß-Bundesstraße</desc></trkpt><trkpt lon="12.97781" lat="46.69839"><ele>884.3</ele><time>2009-09-05T10:30:11.000Z</time><speed>17.77777777777778</speed><name>Kötschach-Mauthen</name><desc>B110 Laas; 20</desc></trkpt><trkpt lon="12.97482" lat="46.69971"><ele>906.1</ele><time>2009-09-05T10:30:26.000Z</time><speed>16.944444444444443</speed><name>Oberdrauburg</name><desc>B110 Plöckenpaß-Bundesstraße</desc></trkpt><trkpt lon="12.96783" lat="46.71501"><ele>973.5</ele><time>2009-09-05T10:32:31.000Z</time><speed>20.555555555555557</speed><name>Kötschach-Mauthen</name><desc>B110 Gailberg; 2</desc></trkpt><trkpt lon="12.96703" lat="46.71761"><ele>988.6</ele><time>2009-09-05T10:32:45.000Z</time><speed>21.944444444444443</speed><name>Oberdrauburg</name><desc>B110 Plöckenpaß-Bundesstraße</desc></trkpt><trkpt lon="12.96627" lat="46.72065"><ele>981.1</ele><time>2009-09-05T10:32:59.000Z</time><speed>21.11111111111111</speed><name>Kötschach-Mauthen</name><desc>B110 Gailberg</desc></trkpt><trkpt lon="12.96645" lat="46.72453"><ele>963.2</ele><time>2009-09-05T10:33:28.000Z</time><speed>14.444444444444445</speed><name>Oberdrauburg</name><desc>B110 Plöckenpaß-Bundesstraße</desc></trkpt><trkpt lon="12.96962" lat="46.74189"><ele>649.7</ele><time>2009-09-05T10:40:23.000Z</time><speed>11.11111111111111</speed><name>Oberdrauburg</name><desc>B110 Gailbergstraße; 20</desc></trkpt><trkpt lon="12.96784" lat="46.74771"><ele>625.7</ele><time>2009-09-05T10:42:00.000Z</time><speed>8.055555555555555</speed><name>Oberdrauburg</name><desc>B100/E66 Drautal-Bundesstraße</desc></trkpt><trkpt lon="12.96577" lat="46.74843"><ele>631.1</ele><time>2009-09-05T10:42:13.000Z</time><speed>17.77777777777778</speed><name>Oberdrauburg</name><desc>B100/E66 Tiroler Straße; 2</desc></trkpt><trkpt lon="12.93414" lat="46.76429"><ele>636.5</ele><time>2009-09-05T10:44:29.000Z</time><speed>20.27777777777778</speed><name>Oberdrauburg</name><desc>B100/E66 Drautal-Bundesstraße</desc></trkpt><trkpt lon="12.92211" lat="46.76778"><ele>639.0</ele><time>2009-09-05T10:45:10.000Z</time><speed>26.11111111111111</speed><name>Nikolsdorf</name><desc>B100/E66 Drautal-Bundesstraße</desc></trkpt><trkpt lon="12.87371" lat="46.79892"><ele>648.7</ele><time>2009-09-05T10:48:35.000Z</time><speed>25.833333333333332</speed><name>Nußdorf-Debant</name><desc>B100/E66 Drautal-Bundesstraße</desc></trkpt><trkpt lon="12.85715" lat="46.80774"><ele>654.1</ele><time>2009-09-05T10:49:49.000Z</time><speed>13.055555555555555</speed><name>Dölsach</name><desc>B100/E66 Görtschach</desc></trkpt><trkpt lon="12.81561" lat="46.82712"><ele>667.8</ele><time>2009-09-05T10:53:52.000Z</time><speed>17.22222222222222</speed><name>Nußdorf-Debant</name><desc>B100/E66 Drautal Bundesstraße; 14</desc></trkpt><trkpt lon="12.80273" lat="46.82925"><ele>669.2</ele><time>2009-09-05T10:54:53.000Z</time><speed>13.61111111111111</speed><name>Lienz</name><desc>B100/E66 Drautal Bundesstraße</desc></trkpt><trkpt lon="12.79867" lat="46.83008"><ele>671.3</ele><time>2009-09-05T10:55:33.000Z</time><speed>12.222222222222221</speed><name>Lienz</name><desc>B100/E66 Drautal-Bundesstraße</desc></trkpt><trkpt lon="12.79473" lat="46.83048"><ele>670.9</ele><time>2009-09-05T10:56:15.000Z</time><speed>5.555555555555555</speed><name>Lienz</name><desc>B100/E66 Kärntner Straße; 101</desc></trkpt><trkpt lon="12.77793" lat="46.83158"><ele>679.3</ele><time>2009-09-05T10:58:41.000Z</time><speed>10.0</speed><name>Lienz</name><desc>B100/E66 Tiroler Straße</desc></trkpt><trkpt lon="12.76041" lat="46.82813"><ele>686.3</ele><time>2009-09-05T11:01:56.000Z</time><speed>11.11111111111111</speed><name>Lienz</name><desc>B100/E66 Albin-Egger-Straße; 3</desc></trkpt><trkpt lon="12.75646" lat="46.82909"><ele>686.5</ele><time>2009-09-05T11:02:41.000Z</time><speed>10.833333333333334</speed><name>Lienz</name><desc>B108 Iseltalerstraße; 9</desc></trkpt><trkpt lon="12.74956" lat="46.83366"><ele>687.1</ele><time>2009-09-05T11:03:35.000Z</time><speed>14.166666666666666</speed><name>Lienz</name><desc>B108 Felbertauern-Bundesstraße</desc></trkpt><trkpt lon="12.7472" lat="46.83452"><ele>687.2</ele><time>2009-09-05T11:03:48.000Z</time><speed>17.22222222222222</speed><name>Oberlienz</name><desc>B108 Oberlienz; 72</desc></trkpt><trkpt lon="12.74022" lat="46.83608"><ele>692.1</ele><time>2009-09-05T11:04:15.000Z</time><speed>19.444444444444443</speed><name>Oberlienz</name><desc>B108 Felbertauern-Bundesstraße</desc></trkpt><trkpt lon="12.7057" lat="46.85282"><ele>704.3</ele><time>2009-09-05T11:06:40.000Z</time><speed>23.333333333333332</speed><name>Ainet</name><desc>B108 Felbertauern-Bundesstraße</desc></trkpt><trkpt lon="12.64359" lat="46.8975"><ele>747.6</ele><time>2009-09-05T11:11:08.000Z</time><speed>28.055555555555557</speed><name>Sankt Johann Im Walde</name><desc>B108 Sankt Johann Im Walde; 23</desc></trkpt><trkpt lon="12.61281" lat="46.91471"><ele>773.8</ele><time>2009-09-05T11:13:20.000Z</time><speed>26.38888888888889</speed><name>Sankt Johann Im Walde</name><desc>B108 Oblaßberg</desc></trkpt><trkpt lon="12.60839" lat="46.91831"><ele>779.4</ele><time>2009-09-05T11:13:39.000Z</time><speed>26.11111111111111</speed><name>Kals Am Großglockner</name><desc>B108 Oblaßberg</desc></trkpt><trkpt lon="12.60475" lat="46.92078"><ele>783.4</ele><time>2009-09-05T11:13:54.000Z</time><speed>25.0</speed><name>Sankt Johann Im Walde</name><desc>B108 Felbertauern-Bundesstraße</desc></trkpt><trkpt lon="12.59233" lat="46.92684"><ele>801.3</ele><time>2009-09-05T11:14:52.000Z</time><speed>12.5</speed><name>Kals Am Großglockner</name><desc>B108 Felbertauern-Bundesstraße</desc></trkpt><trkpt lon="12.58143" lat="46.93112"><ele>812.5</ele><time>2009-09-05T11:15:47.000Z</time><speed>20.555555555555557</speed><name>Matrei In Osttirol</name><desc>B108 Felbertauern-Bundesstraße</desc></trkpt><trkpt lon="12.57476" lat="46.93543"><ele>824.3</ele><time>2009-09-05T11:16:30.000Z</time><speed>14.166666666666666</speed><name>Matrei In Osttirol</name><desc>B108 Huben</desc></trkpt><trkpt lon="12.57159" lat="46.93885"><ele>830.1</ele><time>2009-09-05T11:16:56.000Z</time><speed>21.11111111111111</speed><name>Matrei In Osttirol</name><desc>B108 Felbertauern-Bundesstraße</desc></trkpt><trkpt lon="12.5665" lat="46.94544"><ele>853.8</ele><time>2009-09-05T11:17:37.000Z</time><speed>14.166666666666666</speed><name>Matrei In Osttirol</name><desc>B108 Moos; 28</desc></trkpt><trkpt lon="12.55706" lat="46.95723"><ele>902.7</ele><time>2009-09-05T11:19:00.000Z</time><speed>13.333333333333334</speed><name>Matrei In Osttirol</name><desc>B108 Felbertauern-Bundesstraße</desc></trkpt><trkpt lon="12.55033" lat="46.97889"><ele>934.8</ele><time>2009-09-05T11:21:19.000Z</time><speed>18.055555555555557</speed><name>Matrei In Osttirol</name><desc>B108 Seblas; 25</desc></trkpt><trkpt lon="12.54383" lat="46.99117"><ele>938.0</ele><time>2009-09-05T11:23:01.000Z</time><speed>16.11111111111111</speed><name>Matrei In Osttirol</name><desc>B108 Felbertauern-Bundesstraße</desc></trkpt><trkpt lon="12.53974" lat="47.01055"><ele>1073.4</ele><time>2009-09-05T11:25:27.000Z</time><speed>0.0</speed><name>1253974:4701055</name></trkpt><trkpt lon="12.53525" lat="47.0201"><ele>1117.3</ele><time>2009-09-05T11:37:15.000Z</time><speed>17.5</speed><name>Matrei In Osttirol</name><desc>B108 Felbertauern-Bundesstraße</desc></trkpt><trkpt lon="12.51982" lat="47.03384"><ele>1155.5</ele><time>2009-09-05T11:38:53.000Z</time><speed>23.333333333333332</speed><name>Matrei In Osttirol</name><desc>B108 Felbertauern-Bundesstraße</desc></trkpt><trkpt lon="12.52132" lat="47.05351"><ele>1209.1</ele><time>2009-09-05T11:40:31.000Z</time><speed>26.666666666666668</speed><name>Matrei In Osttirol</name><desc>B108 Raneburg</desc></trkpt><trkpt lon="12.53043" lat="47.06498"><ele>1292.1</ele><time>2009-09-05T11:41:31.000Z</time><speed>24.72222222222222</speed><name>Matrei In Osttirol</name><desc>B108 Felbertauern-Bundesstraße</desc></trkpt><trkpt lon="12.50667" lat="47.11445"><ele>1620.2</ele><time>2009-09-05T11:47:27.000Z</time><speed>21.11111111111111</speed><name>Matrei In Osttirol</name><desc>B108 Tauer</desc></trkpt><trkpt lon="12.50542" lat="47.11724"><ele>1632.7</ele><time>2009-09-05T11:47:51.000Z</time><speed>0.5555555555555556</speed><name>Matrei In Osttirol</name><desc>B108</desc></trkpt><trkpt lon="12.50498" lat="47.11747"><ele>1634.2</ele><time>2009-09-05T11:48:17.000Z</time><speed>8.055555555555555</speed><name>Matrei In Osttirol</name><desc>B108 Felbertauern-Bundesstraße</desc></trkpt><trkpt lon="12.50442" lat="47.11805"><ele>1604.4</ele><time>2009-09-05T11:49:56.000Z</time><speed>0.0</speed><name>1250442:4711805</name></trkpt><trkpt lon="12.53689" lat="47.1603"><ele>1604.4</ele><time>2009-09-05T11:53:58.000Z</time><speed>13.88888888888889</speed><name>Mittersill</name><desc>B108 Felbertauernstraße</desc></trkpt><trkpt lon="12.48433" lat="47.26605"><ele>836.3</ele><time>2009-09-05T12:04:13.000Z</time><speed>20.0</speed><name>Mittersill</name><desc>B108 Feldstein; 23</desc></trkpt><trkpt lon="12.48569" lat="47.26885"><ele>825.7</ele><time>2009-09-05T12:04:28.000Z</time><speed>20.27777777777778</speed><name>Mittersill</name><desc>B108 Felbertauernstraße</desc></trkpt><trkpt lon="12.49187" lat="47.28523"><ele>796.8</ele><time>2009-09-05T12:06:38.000Z</time><speed>0.0</speed><name>Mittersill</name><desc>Straße ohne Namen</desc></trkpt><trkpt lon="12.49152" lat="47.28532"><ele>789.1</ele><time>2009-09-05T12:07:32.000Z</time><speed>0.0</speed><name>1249152:4728532</name></trkpt><trkpt lon="12.49173" lat="47.2853"><ele>798.6</ele><time>2009-09-05T12:14:29.000Z</time><speed>0.0</speed><name>1249173:4728530</name></trkpt><trkpt lon="12.49186" lat="47.28515"><ele>797.9</ele><time>2009-09-05T12:22:14.000Z</time><speed>1.3888888888888888</speed><name>Mittersill</name><desc>Straße ohne Namen</desc></trkpt><trkpt lon="12.48931" lat="47.28559"><ele>803.6</ele><time>2009-09-05T12:22:44.000Z</time><speed>14.166666666666666</speed><name>Mittersill</name><desc>B161 Paß Thurn Bundesstraße</desc></trkpt><trkpt lon="12.48285" lat="47.28495"><ele>826.2</ele><time>2009-09-05T12:23:12.000Z</time><speed>17.5</speed><name>Mittersill</name><desc>B161 Thalbach; 3</desc></trkpt><trkpt lon="12.47858" lat="47.28489"><ele>843.7</ele><time>2009-09-05T12:23:27.000Z</time><speed>23.88888888888889</speed><name>Mittersill</name><desc>B161 Paß Thurn Bundesstraße</desc></trkpt><trkpt lon="12.47648" lat="47.28511"><ele>853.9</ele><time>2009-09-05T12:23:42.000Z</time><speed>6.944444444444445</speed><name>Mittersill</name><desc>B161 Rettenbach; 14</desc></trkpt><trkpt lon="12.47941" lat="47.28518"><ele>865.8</ele><time>2009-09-05T12:23:56.000Z</time><speed>17.5</speed><name>Mittersill</name><desc>B161 Paß Thurn Bundesstraße</desc></trkpt><trkpt lon="12.48529" lat="47.28668"><ele>894.6</ele><time>2009-09-05T12:24:24.000Z</time><speed>19.72222222222222</speed><name>Mittersill</name><desc>B161 Thalbach; 18</desc></trkpt><trkpt lon="12.4811" lat="47.28827"><ele>938.6</ele><time>2009-09-05T12:24:54.000Z</time><speed>24.72222222222222</speed><name>Mittersill</name><desc>B161 Paß Thurn Bundesstraße</desc></trkpt><trkpt lon="12.45098" lat="47.29031"><ele>1038.3</ele><time>2009-09-05T12:26:25.000Z</time><speed>22.22222222222222</speed><name>Mittersill</name><desc>B161 Spielbichl; 10</desc></trkpt><trkpt lon="12.44336" lat="47.29312"><ele>1076.4</ele><time>2009-09-05T12:27:21.000Z</time><speed>11.666666666666666</speed><name>Mittersill</name><desc>Paßthurn</desc></trkpt><trkpt lon="12.44019" lat="47.29347"><ele>1087.6</ele><time>2009-09-05T12:27:34.000Z</time><speed>15.0</speed><name>Mittersill</name><desc>B161 Paß Thurn Bundesstraße</desc></trkpt><trkpt lon="12.41864" lat="47.29936"><ele>1184.7</ele><time>2009-09-05T12:28:56.000Z</time><speed>20.833333333333332</speed><name>Mittersill</name><desc>B161 Paßthurn</desc></trkpt><trkpt lon="12.41111" lat="47.29991"><ele>1219.6</ele><time>2009-09-05T12:29:25.000Z</time><speed>18.88888888888889</speed><name>Mittersill</name><desc>B161 Jochberg</desc></trkpt><trkpt lon="12.41133" lat="47.30433"><ele>1254.5</ele><time>2009-09-05T12:29:54.000Z</time><speed>24.444444444444443</speed><name>Mittersill</name><desc>B161 Paßthurn</desc></trkpt><trkpt lon="12.40625" lat="47.31401"><ele>1264.4</ele><time>2009-09-05T12:30:50.000Z</time><speed>22.5</speed><name>Jochberg</name><desc>B161 Paß-Thurn-Straße</desc></trkpt><trkpt lon="12.41473" lat="47.35463"><ele>998.2</ele><time>2009-09-05T12:35:32.000Z</time><speed>1.9444444444444444</speed><name>Jochberg</name><desc>Römerweg; 7</desc></trkpt><trkpt lon="12.41435" lat="47.3543"><ele>999.2</ele><time>2009-09-05T12:41:34.000Z</time><speed>5.0</speed><name>Jochberg</name><desc>Straße ohne Namen</desc></trkpt><trkpt lon="12.41468" lat="47.35402"><ele>988.6</ele><time>2009-09-05T12:42:02.000Z</time><speed>0.0</speed><name>Jochberg</name><desc>Römerweg; 7</desc></trkpt><trkpt lon="12.41471" lat="47.35454"><ele>1010.7</ele><time>2009-09-05T13:00:17.000Z</time><speed>0.0</speed><name>1241471:4735454</name></trkpt><trkpt lon="12.41471" lat="47.35444"><name>15:06:38 - Jochberg</name><desc>Römerweg; 7</desc></trkpt><trkpt lon="12.41421" lat="47.35465"><ele>1014.9</ele><time>2009-09-05T15:18:17.000Z</time><speed>0.0</speed><name>Jochberg</name><desc>B161 Paß-Thurn-Straße; 14</desc></trkpt><trkpt lon="12.41472" lat="47.35452"><ele>1015.2</ele><time>2009-09-05T15:25:21.000Z</time><speed>1.3888888888888888</speed><name>Jochberg</name><desc>Römerweg; 7</desc></trkpt><trkpt lon="12.41417" lat="47.35453"><ele>1014.1</ele><time>2009-09-05T15:25:33.000Z</time><speed>0.2777777777777778</speed><name>Jochberg</name><desc>B161 Paß-Thurn-Straße; 14</desc></trkpt><trkpt lon="12.41472" lat="47.35455"><ele>1013.7</ele><time>2009-09-05T15:25:45.000Z</time><speed>1.9444444444444444</speed><name>Jochberg</name><desc>Römerweg; 7</desc></trkpt><trkpt lon="12.41423" lat="47.35458"><ele>1014.4</ele><time>2009-09-05T15:25:57.000Z</time><speed>0.0</speed><name>Jochberg</name><desc>B161 Paß-Thurn-Straße; 14</desc></trkpt><trkpt lon="12.41459" lat="47.35461"><name>06:09:54 - Jochberg</name><desc>Römerweg; 7</desc></trkpt><trkpt lon="12.41469" lat="47.35405"><ele>999.6</ele><time>2009-09-05T06:56:26.000Z</time><speed>0.0</speed><name>1241469:4735405</name></trkpt><trkpt lon="12.4147" lat="47.3542"><ele>989.1</ele><time>2009-09-05T06:59:39.000Z</time><speed>0.0</speed><name>1241470:4735420</name></trkpt><trkpt lon="12.4143" lat="47.35444"><ele>997.7</ele><time>2009-09-05T07:15:30.000Z</time><speed>2.2222222222222223</speed><name>Jochberg</name><desc>Straße ohne Namen</desc></trkpt><trkpt lon="12.4142" lat="47.35469"><ele>995.0</ele><time>2009-09-05T07:15:46.000Z</time><speed>6.388888888888889</speed><name>Jochberg</name><desc>B161 Paß-Thurn-Straße; 14</desc></trkpt><trkpt lon="12.41813" lat="47.37168"><ele>945.5</ele><time>2009-09-05T07:17:30.000Z</time><speed>15.0</speed><name>Jochberg</name><desc>B161 Dorf; 53</desc></trkpt><trkpt lon="12.41758" lat="47.38526"><ele>892.4</ele><time>2009-09-05T07:19:22.000Z</time><speed>12.777777777777779</speed><name>Jochberg</name><desc>B161 Kitzbüheler Straße; 46</desc></trkpt><trkpt lon="12.42296" lat="47.40129"><ele>827.7</ele><time>2009-09-05T07:21:31.000Z</time><speed>16.11111111111111</speed><name>Aurach Bei Kitzbühel</name><desc>B161 Paß-Thurn-Straße</desc></trkpt><trkpt lon="12.41281" lat="47.42426"><ele>785.4</ele><time>2009-09-05T07:24:23.000Z</time><speed>25.555555555555557</speed><name>Kitzbühel</name><desc>B161 Jochberger Straße; 476</desc></trkpt><trkpt lon="12.40067" lat="47.4385"><ele>765.9</ele><time>2009-09-05T07:27:06.000Z</time><speed>0.0</speed><name>1240067:4743850</name></trkpt><trkpt lon="12.39857" lat="47.44442"><ele>753.6</ele><time>2009-09-05T07:39:21.000Z</time><speed>12.777777777777779</speed><name>Kitzbühel</name><desc>B161 Sportfeld; 2</desc></trkpt><trkpt lon="12.39771" lat="47.44613"><ele>754.6</ele><time>2009-09-05T07:39:35.000Z</time><speed>16.38888888888889</speed><name>Kitzbühel</name><desc>B161 Paß-Thurn-Straße</desc></trkpt><trkpt lon="12.38673" lat="47.45586"><ele>738.3</ele><time>2009-09-05T07:41:32.000Z</time><speed>10.833333333333334</speed><name>Kitzbühel</name><desc>B161 Sankt Johanner Straße; 14</desc></trkpt><trkpt lon="12.38436" lat="47.4759"><ele>710.4</ele><time>2009-09-05T07:44:54.000Z</time><speed>9.444444444444445</speed><name>Oberndorf In Tirol</name><desc>B161 Paß-Thurn-Straße</desc></trkpt><trkpt lon="12.38441" lat="47.49784"><ele>689.1</ele><time>2009-09-05T07:48:13.000Z</time><speed>13.61111111111111</speed><name>Oberndorf In Tirol</name><desc>Josef-Hager-Straße; 30</desc></trkpt><trkpt lon="12.38479" lat="47.49965"><ele>691.5</ele><time>2009-09-05T07:48:39.000Z</time><speed>6.666666666666667</speed><name>Oberndorf In Tirol</name><desc>Rerobichlstraße; 1</desc></trkpt><trkpt lon="12.35783" lat="47.50858"><ele>709.1</ele><time>2009-09-05T07:52:11.000Z</time><speed>23.61111111111111</speed><name>Going Am Wilden Kaiser</name><desc>Reither Straße; 22</desc></trkpt><trkpt lon="12.34679" lat="47.5149"><ele>726.0</ele><time>2009-09-05T07:53:21.000Z</time><speed>5.833333333333333</speed><name>Going Am Wilden Kaiser</name><desc>Straße ohne Namen</desc></trkpt><trkpt lon="12.31462" lat="47.51561"><ele>793.3</ele><time>2009-09-05T07:56:02.000Z</time><speed>18.88888888888889</speed><name>Ellmau</name><desc>B178 Hausbach</desc></trkpt><trkpt lon="12.31134" lat="47.51544"><ele>792.4</ele><time>2009-09-05T07:56:17.000Z</time><speed>18.333333333333332</speed><name>Ellmau</name><desc>B178 Loferer-Bundesstraße</desc></trkpt><trkpt lon="12.28987" lat="47.51905"><ele>769.2</ele><time>2009-09-05T07:57:56.000Z</time><speed>17.22222222222222</speed><name>Ellmau</name><desc>B178 Steinerner Tisch</desc></trkpt><trkpt lon="12.28144" lat="47.52208"><ele>743.1</ele><time>2009-09-05T07:58:40.000Z</time><speed>18.88888888888889</speed><name>Ellmau</name><desc>B178 Loferer-Bundesstraße</desc></trkpt><trkpt lon="12.27385" lat="47.52119"><ele>727.1</ele><time>2009-09-05T07:59:10.000Z</time><speed>20.555555555555557</speed><name>Ellmau</name><desc>B178 Oberachen</desc></trkpt><trkpt lon="12.2636" lat="47.52199"><ele>706.9</ele><time>2009-09-05T07:59:53.000Z</time><speed>20.27777777777778</speed><name>Ellmau</name><desc>B178 Loferer-Bundesstraße</desc></trkpt><trkpt lon="12.25989" lat="47.52278"><ele>700.6</ele><time>2009-09-05T08:00:07.000Z</time><speed>21.944444444444443</speed><name>Scheffau Am Wilden Kaiser</name><desc>B178 Loferer-Bundesstraße</desc></trkpt><trkpt lon="12.25296" lat="47.52168"><ele>690.4</ele><time>2009-09-05T08:00:36.000Z</time><speed>15.555555555555555</speed><name>Scheffau Am Wilden Kaiser</name><desc>B178 Am Trattenbach; 1</desc></trkpt><trkpt lon="12.24978" lat="47.52103"><ele>685.4</ele><time>2009-09-05T08:00:51.000Z</time><speed>16.944444444444443</speed><name>Scheffau Am Wilden Kaiser</name><desc>B178 Loferer-Bundesstraße</desc></trkpt><trkpt lon="12.23587" lat="47.51941"><ele>687.2</ele><time>2009-09-05T08:01:51.000Z</time><speed>18.61111111111111</speed><name>Söll</name><desc>B178 Bocking; 22</desc></trkpt><trkpt lon="12.2199" lat="47.51423"><ele>669.4</ele><time>2009-09-05T08:03:02.000Z</time><speed>17.77777777777778</speed><name>Scheffau Am Wilden Kaiser</name><desc>B178 Loferer-Bundesstraße</desc></trkpt><trkpt lon="12.21662" lat="47.51356"><ele>672.6</ele><time>2009-09-05T08:03:17.000Z</time><speed>18.333333333333332</speed><name>Söll</name><desc>Straße ohne Namen</desc></trkpt><trkpt lon="12.20985" lat="47.51358"><ele>642.6</ele><time>2009-09-05T08:03:47.000Z</time><speed>20.27777777777778</speed><name>Söll</name><desc>B173 Stockach; 17</desc></trkpt><trkpt lon="12.19196" lat="47.5221"><ele>604.3</ele><time>2009-09-05T08:05:14.000Z</time><speed>17.5</speed><name>Söll</name><desc>B173 Eiberg-Bundesstraße</desc></trkpt><trkpt lon="12.18083" lat="47.53405"><ele>608.2</ele><time>2009-09-05T08:07:04.000Z</time><speed>14.722222222222221</speed><name>Söll</name><desc>B173 Eiberg; 1</desc></trkpt><trkpt lon="12.18138" lat="47.53607"><ele>623.9</ele><time>2009-09-05T08:08:00.000Z</time><speed>8.61111111111111</speed><name>Söll</name><desc>Eibergbauer</desc></trkpt><trkpt lon="12.1806" lat="47.53769"><ele>616.2</ele><time>2009-09-05T08:09:58.000Z</time><speed>0.0</speed><name>1218060:4753769</name></trkpt><trkpt lon="12.18038" lat="47.53797"><ele>616.2</ele><time>2009-09-05T08:15:08.000Z</time><speed>8.61111111111111</speed><name>Söll</name><desc>B173 Eiberg</desc></trkpt><trkpt lon="12.17148" lat="47.54455"><ele>579.5</ele><time>2009-09-05T08:16:19.000Z</time><speed>11.666666666666666</speed><name>Schwoich</name><desc>B173 Eiberg-Bundesstraße</desc></trkpt><trkpt lon="12.1634" lat="47.55285"><ele>530.0</ele><time>2009-09-05T08:17:26.000Z</time><speed>18.88888888888889</speed><name>Schwoich</name><desc>B173 Egerbach</desc></trkpt><trkpt lon="12.15225" lat="47.558"><ele>514.1</ele><time>2009-09-05T08:18:37.000Z</time><speed>16.11111111111111</speed><name>Kufstein</name><desc>B173 Eibergstraße</desc></trkpt><trkpt lon="12.15895" lat="47.56829"><ele>497.0</ele><time>2009-09-05T08:20:02.000Z</time><speed>13.88888888888889</speed><name>Kufstein</name><desc>Eibergstraße</desc></trkpt><trkpt lon="12.15679" lat="47.57232"><ele>486.3</ele><time>2009-09-05T08:20:55.000Z</time><speed>7.777777777777778</speed><name>Kufstein</name><desc>B171 Salurner Straße</desc></trkpt><trkpt lon="12.16238" lat="47.57839"><ele>491.6</ele><time>2009-09-05T08:23:03.000Z</time><speed>10.277777777777779</speed><name>Kufstein</name><desc>B171 Schubertstraße</desc></trkpt><trkpt lon="12.16171" lat="47.58841"><ele>492.5</ele><time>2009-09-05T08:25:16.000Z</time><speed>7.777777777777778</speed><name>Kufstein</name><desc>Thiersee Straße</desc></trkpt><trkpt lon="12.14505" lat="47.5993"><ele>677.1</ele><time>2009-09-05T08:28:41.000Z</time><speed>13.61111111111111</speed><name>Kufstein</name><desc>Straße ohne Namen</desc></trkpt><trkpt lon="12.14412" lat="47.60081"><ele>664.9</ele><time>2009-09-05T08:28:53.000Z</time><speed>13.055555555555555</speed><name>Thiersee</name><desc>Straße ohne Namen</desc></trkpt><trkpt lon="12.13426" lat="47.59197"><ele>645.9</ele><time>2009-09-05T08:30:10.000Z</time><speed>11.11111111111111</speed><name>Thiersee</name><desc>Krückl; 18</desc></trkpt><trkpt lon="12.13214" lat="47.59206"><ele>650.1</ele><time>2009-09-05T08:30:22.000Z</time><speed>15.833333333333334</speed><name>Thiersee</name><desc>Breiten; 1</desc></trkpt><trkpt lon="12.12449" lat="47.59398"><ele>637.9</ele><time>2009-09-05T08:31:16.000Z</time><speed>12.222222222222221</speed><name>Thiersee</name><desc>Lechen; 6</desc></trkpt><trkpt lon="12.12244" lat="47.59406"><ele>632.2</ele><time>2009-09-05T08:31:28.000Z</time><speed>12.5</speed><name>Thiersee</name><desc>Vorderthiersee; 9</desc></trkpt><trkpt lon="12.11415" lat="47.59622"><ele>635.0</ele><time>2009-09-05T08:32:39.000Z</time><speed>16.11111111111111</speed><name>Thiersee</name><desc>Straße ohne Namen</desc></trkpt><trkpt lon="12.10438" lat="47.59558"><ele>614.1</ele><time>2009-09-05T08:33:20.000Z</time><speed>23.88888888888889</speed><name>Thiersee</name><desc>Wieshäusl; 4</desc></trkpt><trkpt lon="12.10005" lat="47.59498"><ele>610.9</ele><time>2009-09-05T08:33:34.000Z</time><speed>22.5</speed><name>Thiersee</name><desc>Straße ohne Namen</desc></trkpt><trkpt lon="12.0937" lat="47.59377"><ele>612.9</ele><time>2009-09-05T08:34:00.000Z</time><speed>18.61111111111111</speed><name>Thiersee</name><desc>Tal; 1</desc></trkpt><trkpt lon="12.08635" lat="47.59479"><ele>605.3</ele><time>2009-09-05T08:34:30.000Z</time><speed>14.722222222222221</speed><name>Thiersee</name><desc>Straße ohne Namen</desc></trkpt><trkpt lon="12.07801" lat="47.59486"><ele>618.0</ele><time>2009-09-05T08:36:00.000Z</time><speed>14.444444444444445</speed><name>Thiersee</name><desc>Schmiedtal; 2</desc></trkpt><trkpt lon="12.06164" lat="47.59299"><ele>635.1</ele><time>2009-09-05T08:37:10.000Z</time><speed>22.77777777777778</speed><name>Thiersee</name><desc>Ascherdorf; 1</desc></trkpt><trkpt lon="12.04434" lat="47.59048"><ele>670.3</ele><time>2009-09-05T08:38:21.000Z</time><speed>14.444444444444445</speed><name>Thiersee</name><desc>Straße ohne Namen</desc></trkpt><trkpt lon="12.0394" lat="47.58946"><ele>681.6</ele><time>2009-09-05T08:38:48.000Z</time><speed>17.5</speed><name>Thiersee</name><desc>Landl; 20</desc></trkpt><trkpt lon="12.02242" lat="47.59013"><ele>709.8</ele><time>2009-09-05T08:40:09.000Z</time><speed>23.88888888888889</speed><name>Thiersee</name><desc>Wacht</desc></trkpt><trkpt lon="12.01893" lat="47.60404"><ele>835.5</ele><time>2009-09-05T08:42:01.000Z</time><speed>22.77777777777778</speed><name>Thiersee</name><desc>Straße ohne Namen</desc></trkpt><trkpt lon="12.01869" lat="47.61016"><ele>842.9</ele><time>2009-09-05T08:42:30.000Z</time><speed>23.333333333333332</speed><name>Thiersee</name><desc>Ursprung</desc></trkpt><trkpt lon="12.02047" lat="47.61313"><ele>846.5</ele><time>2009-09-05T08:42:44.000Z</time><speed>23.61111111111111</speed><name>Bayrischzell</name><desc>ST2075 Tiroler Straße; 97</desc></trkpt><trkpt lon="12.01439" lat="47.67148"><ele>792.4</ele><time>2009-09-05T08:48:11.000Z</time><speed>11.11111111111111</speed><name>Bayrischzell</name><desc>B307 Alpenstraße; 70</desc></trkpt><trkpt lon="11.98179" lat="47.68688"><ele>783.9</ele><time>2009-09-05T08:50:36.000Z</time><speed>21.944444444444443</speed><name>Bayrischzell</name><desc>B307 Osterhofen; 88</desc></trkpt><trkpt lon="11.97379" lat="47.68969"><ele>772.0</ele><time>2009-09-05T08:51:05.000Z</time><speed>26.38888888888889</speed><name>Bayrischzell</name><desc>B307 Dorfstraße</desc></trkpt><trkpt lon="11.96464" lat="47.69117"><ele>767.5</ele><time>2009-09-05T08:51:36.000Z</time><speed>21.11111111111111</speed><name>Bayrischzell</name><desc>B307</desc></trkpt><trkpt lon="11.9565" lat="47.6933"><ele>764.0</ele><time>2009-09-05T08:52:06.000Z</time><speed>23.055555555555557</speed><name>Bayrischzell</name><desc>B307 Geitau</desc></trkpt><trkpt lon="11.9485" lat="47.69636"><ele>757.1</ele><time>2009-09-05T08:52:36.000Z</time><speed>22.77777777777778</speed><name>Fischbachau</name><desc>B307 Geitau</desc></trkpt><trkpt lon="11.93671" lat="47.70026"><ele>759.6</ele><time>2009-09-05T08:53:21.000Z</time><speed>22.22222222222222</speed><name>Bayrischzell</name><desc>B307</desc></trkpt><trkpt lon="11.92526" lat="47.70293"><ele>773.0</ele><time>2009-09-05T08:54:06.000Z</time><speed>8.88888888888889</speed><name>Fischbachau</name><desc>B307 Alpenstraße; 8</desc></trkpt><trkpt lon="11.9249" lat="47.70426"><ele>765.0</ele><time>2009-09-05T08:55:01.000Z</time><speed>0.0</speed><name>1192490:4770426</name></trkpt><trkpt lon="11.92638" lat="47.70602"><ele>761.3</ele><time>2009-09-05T09:03:02.000Z</time><speed>13.61111111111111</speed><name>Fischbachau</name><desc>ST2077 Auracher Straße</desc></trkpt><trkpt lon="11.9287" lat="47.70677"><ele>758.1</ele><time>2009-09-05T09:03:14.000Z</time><speed>13.055555555555555</speed><name>Fischbachau</name><desc>ST2077 Stauden</desc></trkpt><trkpt lon="11.93565" lat="47.70985"><ele>749.5</ele><time>2009-09-05T09:03:54.000Z</time><speed>18.333333333333332</speed><name>Fischbachau</name><desc>ST2077 Hauptstraße</desc></trkpt><trkpt lon="11.94066" lat="47.71428"><ele>770.0</ele><time>2009-09-05T09:04:36.000Z</time><speed>14.444444444444445</speed><name>Fischbachau</name><desc>ST2077 Sandbichl; 17</desc></trkpt><trkpt lon="11.94836" lat="47.71883"><ele>763.5</ele><time>2009-09-05T09:05:41.000Z</time><speed>12.5</speed><name>Fischbachau</name><desc>ST2077 Hauptstraße; 13</desc></trkpt><trkpt lon="11.95106" lat="47.71993"><ele>772.4</ele><time>2009-09-05T09:08:41.000Z</time><speed>6.944444444444445</speed><name>Fischbachau</name><desc>ST2077 Kirchplatz; 3</desc></trkpt><trkpt lon="11.95146" lat="47.72073"><ele>771.2</ele><time>2009-09-05T09:08:53.000Z</time><speed>10.0</speed><name>Fischbachau</name><desc>ST2077 Leitzachtalstraße; 3</desc></trkpt><trkpt lon="11.93216" lat="47.76116"><ele>759.4</ele><time>2009-09-05T09:13:46.000Z</time><speed>18.88888888888889</speed><name>Fischbachau</name><desc>ST2077 Miesbacher Straße</desc></trkpt><trkpt lon="11.90135" lat="47.77484"><ele>683.8</ele><time>2009-09-05T09:16:38.000Z</time><speed>19.166666666666668</speed><name>Irschenberg</name><desc>ST2077</desc></trkpt><trkpt lon="11.88793" lat="47.77566"><ele>680.6</ele><time>2009-09-05T09:17:46.000Z</time><speed>16.11111111111111</speed><name>Miesbach</name><desc>ST2077</desc></trkpt><trkpt lon="11.88551" lat="47.77622"><ele>677.3</ele><time>2009-09-05T09:18:00.000Z</time><speed>15.555555555555555</speed><name>Miesbach</name><desc>ST2077 Leitzachtalstraße</desc></trkpt><trkpt lon="11.8756" lat="47.78524"><ele>715.8</ele><time>2009-09-05T09:19:44.000Z</time><speed>10.0</speed><name>Miesbach</name><desc>ST2010</desc></trkpt><trkpt lon="11.86609" lat="47.78492"><ele>728.1</ele><time>2009-09-05T09:20:40.000Z</time><speed>13.333333333333334</speed><name>Miesbach</name><desc>ST2010 Leitzachstraße; 2</desc></trkpt><trkpt lon="11.86302" lat="47.78489"><ele>721.8</ele><time>2009-09-05T09:21:04.000Z</time><speed>13.61111111111111</speed><name>Miesbach</name><desc>ST2010 Miesbacher Straße; 10</desc></trkpt><trkpt lon="11.85132" lat="47.78827"><ele>715.0</ele><time>2009-09-05T09:22:00.000Z</time><speed>22.22222222222222</speed><name>Miesbach</name><desc>ST2010</desc></trkpt><trkpt lon="11.84674" lat="47.78837"><ele>712.1</ele><time>2009-09-05T09:22:14.000Z</time><speed>19.166666666666668</speed><name>Miesbach</name><desc>ST2010 Rosenheimer Straße; 76</desc></trkpt><trkpt lon="11.83889" lat="47.78903"><ele>709.0</ele><time>2009-09-05T09:22:59.000Z</time><speed>9.444444444444445</speed><name>Miesbach</name><desc>B472 Bayrischzeller Straße</desc></trkpt><trkpt lon="11.83991" lat="47.79536"><ele>707.0</ele><time>2009-09-05T09:23:41.000Z</time><speed>21.944444444444443</speed><name>Miesbach</name><desc>ST2073</desc></trkpt><trkpt lon="11.83795" lat="47.81508"><ele>711.1</ele><time>2009-09-05T09:25:28.000Z</time><speed>22.5</speed><name>Weyarn</name><desc>ST2073</desc></trkpt><trkpt lon="11.83372" lat="47.82227"><ele>707.9</ele><time>2009-09-05T09:26:10.000Z</time><speed>11.11111111111111</speed><name>Weyarn</name><desc>MB17 Dorfstraße</desc></trkpt><trkpt lon="11.83459" lat="47.82509"><ele>712.5</ele><time>2009-09-05T09:26:38.000Z</time><speed>20.555555555555557</speed><name>Weyarn</name><desc>MB17 Am Waldeck</desc></trkpt><trkpt lon="11.8297" lat="47.83479"><ele>716.4</ele><time>2009-09-05T09:27:36.000Z</time><speed>21.11111111111111</speed><name>Weyarn</name><desc>MB17</desc></trkpt><trkpt lon="11.82556" lat="47.84691"><ele>693.1</ele><time>2009-09-05T09:28:48.000Z</time><speed>11.666666666666666</speed><name>Weyarn</name><desc>MB17 Pienzenauer Straße; 9</desc></trkpt><trkpt lon="11.82956" lat="47.85099"><ele>664.2</ele><time>2009-09-05T09:29:25.000Z</time><speed>21.944444444444443</speed><name>Weyarn</name><desc>MB17 Holzollinger Straße</desc></trkpt><trkpt lon="11.8342" lat="47.85672"><ele>648.7</ele><time>2009-09-05T09:30:06.000Z</time><speed>11.38888888888889</speed><name>Weyarn</name><desc>MB18 Seehamer Straße</desc></trkpt><trkpt lon="11.8352" lat="47.85816"><ele>649.9</ele><time>2009-09-05T09:30:18.000Z</time><speed>14.722222222222221</speed><name>Weyarn</name><desc>MB17 Holzollinger Straße</desc></trkpt><trkpt lon="11.83171" lat="47.86136"><ele>652.2</ele><time>2009-09-05T09:30:44.000Z</time><speed>22.22222222222222</speed><name>Weyarn</name><desc>MB17</desc></trkpt><trkpt lon="11.82735" lat="47.87091"><ele>589.7</ele><time>2009-09-05T09:32:01.000Z</time><speed>14.166666666666666</speed><name>Weyarn</name><desc>MB17 Westerhamer Straße; 7</desc></trkpt><trkpt lon="11.82167" lat="47.87336"><ele>586.4</ele><time>2009-09-05T09:32:38.000Z</time><speed>18.61111111111111</speed><name>Weyarn</name><desc>MB17</desc></trkpt><trkpt lon="11.81911" lat="47.8779"><ele>576.0</ele><time>2009-09-05T09:33:05.000Z</time><speed>20.833333333333332</speed><name>Weyarn</name><desc>MB17 Westerhamer Straße</desc></trkpt><trkpt lon="11.81895" lat="47.88063"><ele>573.2</ele><time>2009-09-05T09:33:21.000Z</time><speed>21.944444444444443</speed><name>Weyarn</name><desc>MB17 Haus</desc></trkpt><trkpt lon="11.81908" lat="47.88329"><ele>569.3</ele><time>2009-09-05T09:33:35.000Z</time><speed>20.555555555555557</speed><name>Weyarn</name><desc>MB17 Westerhamer Straße</desc></trkpt><trkpt lon="11.81776" lat="47.88569"><ele>574.9</ele><time>2009-09-05T09:33:49.000Z</time><speed>20.0</speed><name>Weyarn</name><desc>MB17 Arnhofen; 116</desc></trkpt><trkpt lon="11.81881" lat="47.88836"><ele>574.5</ele><time>2009-09-05T09:34:04.000Z</time><speed>20.833333333333332</speed><name>Weyarn</name><desc>MB17</desc></trkpt><trkpt lon="11.82391" lat="47.89485"><ele>560.1</ele><time>2009-09-05T09:34:46.000Z</time><speed>19.166666666666668</speed><name>Feldkirchen-Westerham</name><desc>RO2</desc></trkpt><trkpt lon="11.8273" lat="47.89783"><ele>542.8</ele><time>2009-09-05T09:35:14.000Z</time><speed>15.555555555555555</speed><name>Feldkirchen-Westerham</name><desc>RO2 Miesbacher Straße</desc></trkpt><trkpt lon="11.83259" lat="47.90311"><ele>553.6</ele><time>2009-09-05T09:36:21.000Z</time><speed>15.833333333333334</speed><name>Feldkirchen-Westerham</name><desc>RO2 Westerhamer Straße</desc></trkpt><trkpt lon="11.84484" lat="47.90955"><ele>553.6</ele><time>2009-09-05T09:38:11.000Z</time><speed>8.055555555555555</speed><name>Feldkirchen-Westerham</name><desc>RO2 Glonner Straße</desc></trkpt><trkpt lon="11.84254" lat="47.91477"><ele>565.2</ele><time>2009-09-05T09:38:51.000Z</time><speed>21.11111111111111</speed><name>Feldkirchen-Westerham</name><desc>RO2</desc></trkpt><trkpt lon="11.84362" lat="47.9204"><ele>593.3</ele><time>2009-09-05T09:39:19.000Z</time><speed>24.444444444444443</speed><name>Feldkirchen-Westerham</name><desc>RO2 Percha</desc></trkpt><trkpt lon="11.84465" lat="47.92839"><ele>572.0</ele><time>2009-09-05T09:40:14.000Z</time><speed>21.944444444444443</speed><name>Feldkirchen-Westerham</name><desc>RO2</desc></trkpt><trkpt lon="11.84188" lat="47.93071"><ele>570.4</ele><time>2009-09-05T09:40:30.000Z</time><speed>22.22222222222222</speed><name>Feldkirchen-Westerham</name><desc>RO2 Unterlaus; 9</desc></trkpt><trkpt lon="11.85129" lat="47.93409"><ele>564.8</ele><time>2009-09-05T09:41:46.000Z</time><speed>0.0</speed><name>1185129:4793409</name></trkpt><trkpt lon="11.8635" lat="47.94491"><ele>577.6</ele><time>2009-09-05T09:52:44.000Z</time><speed>23.61111111111111</speed><name>Feldkirchen-Westerham</name><desc>RO2</desc></trkpt><trkpt lon="11.86206" lat="47.95673"><ele>565.1</ele><time>2009-09-05T09:53:43.000Z</time><speed>18.055555555555557</speed><name>Glonn</name><desc>EBE13</desc></trkpt><trkpt lon="11.86589" lat="47.98119"><ele>551.8</ele><time>2009-09-05T09:55:51.000Z</time><speed>14.166666666666666</speed><name>Glonn</name><desc>EBE13 Feldkirchner Straße</desc></trkpt><trkpt lon="11.86603" lat="47.98776"><ele>534.6</ele><time>2009-09-05T09:57:12.000Z</time><speed>8.055555555555555</speed><name>Glonn</name><desc>ST2079 Professor-Lebsche-Straße</desc></trkpt><trkpt lon="11.86464" lat="47.98853"><ele>536.8</ele><time>2009-09-05T09:57:26.000Z</time><speed>10.833333333333334</speed><name>Glonn</name><desc>ST2079 Münchener Straße; 5</desc></trkpt><trkpt lon="11.84537" lat="48.00421"><ele>606.2</ele><time>2009-09-05T09:59:46.000Z</time><speed>14.722222222222221</speed><name>Glonn</name><desc>ST2079 Schlacht; 21</desc></trkpt><trkpt lon="11.84259" lat="48.0084"><ele>600.0</ele><time>2009-09-05T10:00:23.000Z</time><speed>22.22222222222222</speed><name>Glonn</name><desc>ST2079</desc></trkpt><trkpt lon="11.83005" lat="48.01517"><ele>623.2</ele><time>2009-09-05T10:01:18.000Z</time><speed>23.88888888888889</speed><name>Oberpframmern</name><desc>ST2079</desc></trkpt><trkpt lon="11.81295" lat="48.02189"><ele>608.3</ele><time>2009-09-05T10:02:54.000Z</time><speed>8.61111111111111</speed><name>Oberpframmern</name><desc>ST2079/ST2081 Münchner Straße; 2</desc></trkpt><trkpt lon="11.80972" lat="48.02331"><ele>596.1</ele><time>2009-09-05T10:03:19.000Z</time><speed>13.88888888888889</speed><name>Oberpframmern</name><desc>ST2079 Münchener Straße; 14</desc></trkpt><trkpt lon="11.78477" lat="48.03577"><ele>574.3</ele><time>2009-09-05T10:04:53.000Z</time><speed>24.72222222222222</speed><name>Oberpframmern</name><desc>ST2079 Schlag</desc></trkpt><trkpt lon="11.76813" lat="48.04629"><ele>567.0</ele><time>2009-09-05T10:05:58.000Z</time><speed>26.11111111111111</speed><name>Grasbrunn</name><desc>ST2079</desc></trkpt><trkpt lon="11.7641" lat="48.04953"><ele>564.1</ele><time>2009-09-05T10:06:25.000Z</time><speed>10.555555555555555</speed><name>Grasbrunn</name><desc>M25</desc></trkpt><trkpt lon="11.77208" lat="48.05689"><ele>566.4</ele><time>2009-09-05T10:07:18.000Z</time><speed>12.777777777777779</speed><name>Grasbrunn</name><desc>M25 Hauptstraße; 16</desc></trkpt><trkpt lon="11.77211" lat="48.06007"><ele>563.1</ele><time>2009-09-05T10:07:54.000Z</time><speed>4.166666666666667</speed><name>Grasbrunn</name><desc>Zornedinger Straße; 1</desc></trkpt><trkpt lon="11.77957" lat="48.06123"><ele>565.7</ele><time>2009-09-05T10:08:39.000Z</time><speed>16.11111111111111</speed><name>Grasbrunn</name><desc>Straße ohne Namen</desc></trkpt><trkpt lon="11.78287" lat="48.0661"><ele>562.8</ele><time>2009-09-05T10:09:07.000Z</time><speed>23.333333333333332</speed><name>Zorneding</name><desc>Straße ohne Namen</desc></trkpt><trkpt lon="11.7869" lat="48.06981"><ele>562.8</ele><time>2009-09-05T10:09:35.000Z</time><speed>17.77777777777778</speed><name>Zorneding</name><desc>Harthauser Straße</desc></trkpt><trkpt lon="11.80862" lat="48.07967"><ele>561.4</ele><time>2009-09-05T10:11:00.000Z</time><speed>19.166666666666668</speed><name>Zorneding</name><desc>Straße ohne Namen</desc></trkpt><trkpt lon="11.81244" lat="48.0807"><ele>559.0</ele><time>2009-09-05T10:11:16.000Z</time><speed>21.11111111111111</speed><name>Zorneding</name><desc>ST2081</desc></trkpt><trkpt lon="11.8299" lat="48.10938"><ele>537.3</ele><time>2009-09-05T10:13:59.000Z</time><speed>15.833333333333334</speed><name>Zorneding</name><desc>ST2081 Wolfesing; 10</desc></trkpt><trkpt lon="11.83286" lat="48.11707"><ele>533.9</ele><time>2009-09-05T10:14:58.000Z</time><speed>21.11111111111111</speed><name>Zorneding</name><desc>ST2081</desc></trkpt><trkpt lon="11.8331" lat="48.12124"><ele>531.7</ele><time>2009-09-05T10:15:25.000Z</time><speed>17.22222222222222</speed><name>Vaterstetten</name><desc>ST2081</desc></trkpt><trkpt lon="11.8324" lat="48.12627"><ele>529.8</ele><time>2009-09-05T10:15:53.000Z</time><speed>17.5</speed><name>Vaterstetten</name><desc>ST2081 Wolfesinger Straße</desc></trkpt><trkpt lon="11.83406" lat="48.12857"><ele>528.6</ele><time>2009-09-05T10:16:18.000Z</time><speed>12.5</speed><name>Vaterstetten</name><desc>ST2081 Neufarner Straße; 7</desc></trkpt><trkpt lon="11.83358" lat="48.13128"><ele>531.9</ele><time>2009-09-05T10:17:00.000Z</time><speed>0.5555555555555556</speed><name>Vaterstetten</name><desc>EBE2 Neufarner Straße</desc></trkpt><trkpt lon="11.83093" lat="48.13418"><ele>543.3</ele><time>2009-09-05T10:18:08.000Z</time><speed>21.944444444444443</speed><name>Vaterstetten</name><desc>EBE2</desc></trkpt><trkpt lon="11.82014" lat="48.1455"><ele>523.3</ele><time>2009-09-05T10:19:18.000Z</time><speed>11.666666666666666</speed><name>Vaterstetten</name><desc>EBE2 Purfinger Straße; 19</desc></trkpt><trkpt lon="11.81894" lat="48.14889"><ele>520.7</ele><time>2009-09-05T10:20:23.000Z</time><speed>12.5</speed><name>Vaterstetten</name><desc>EBE2 Poinger Straße; 5</desc></trkpt><trkpt lon="11.81762" lat="48.15605"><ele>519.2</ele><time>2009-09-05T10:21:05.000Z</time><speed>20.833333333333332</speed><name>Vaterstetten</name><desc>EBE2</desc></trkpt><trkpt lon="11.81136" lat="48.17318"><ele>512.8</ele><time>2009-09-05T10:23:18.000Z</time><speed>14.166666666666666</speed><name>Poing</name><desc>EBE2 Plieninger Straße; 18</desc></trkpt><trkpt lon="11.80811" lat="48.18244"><ele>508.4</ele><time>2009-09-05T10:24:56.000Z</time><speed>16.11111111111111</speed><name>Pliening</name><desc>EBE2 Melchior-Huber-Straße; 28</desc></trkpt><trkpt lon="11.80533" lat="48.19326"><ele>503.6</ele><time>2009-09-05T10:26:03.000Z</time><speed>16.666666666666668</speed><name>Pliening</name><desc>EBE2 Poinger Straße</desc></trkpt><trkpt lon="11.80148" lat="48.19548"><ele>500.5</ele><time>2009-09-05T10:26:47.000Z</time><speed>13.055555555555555</speed><name>Pliening</name><desc>ST2332 Geltinger Straße; 22</desc></trkpt><trkpt lon="11.7995" lat="48.20189"><ele>498.6</ele><time>2009-09-05T10:27:54.000Z</time><speed>16.944444444444443</speed><name>Pliening</name><desc>ST2082 Landshuter Straße; 16</desc></trkpt><trkpt lon="11.80005" lat="48.21816"><ele>493.0</ele><time>2009-09-05T10:29:14.000Z</time><speed>15.555555555555555</speed><name>Finsing</name><desc>ST2082 Münchner Straße; 18</desc></trkpt><trkpt lon="11.80305" lat="48.22189"><ele>494.2</ele><time>2009-09-05T10:30:14.000Z</time><speed>9.444444444444445</speed><name>Finsing</name><desc>ST2082 Erdinger Straße; 5</desc></trkpt><trkpt lon="11.80365" lat="48.22229"><ele>495.3</ele><time>2009-09-05T10:30:40.000Z</time><speed>0.0</speed><name>1180365:4822229</name></trkpt><trkpt lon="11.81495" lat="48.23162"><ele>488.9</ele><time>2009-09-05T10:50:51.000Z</time><speed>22.5</speed><name>Finsing</name><desc>ST2082 Münchner Straße</desc></trkpt><trkpt lon="11.81727" lat="48.23702"><ele>487.1</ele><time>2009-09-05T10:51:18.000Z</time><speed>24.72222222222222</speed><name>Neuching</name><desc>ST2082 Münchner Straße; 62</desc></trkpt><trkpt lon="11.83043" lat="48.24694"><ele>482.2</ele><time>2009-09-05T10:52:27.000Z</time><speed>25.0</speed><name>Wolfsleben</name><desc>ST2082 Münchner Straße</desc></trkpt><trkpt lon="11.84852" lat="48.25311"><ele>494.6</ele><time>2009-09-05T10:53:51.000Z</time><speed>16.666666666666668</speed><name>Neuching</name><desc>ST2082 Münchner Straße; 1</desc></trkpt><trkpt lon="11.86383" lat="48.25788"><ele>515.4</ele><time>2009-09-05T10:54:51.000Z</time><speed>22.22222222222222</speed><name>Moosinning</name><desc>ST2082</desc></trkpt><trkpt lon="11.86615" lat="48.25849"><ele>507.7</ele><time>2009-09-05T10:55:28.000Z</time><speed>18.61111111111111</speed><name>Moosinning</name><desc>ST2580</desc></trkpt><trkpt lon="11.86724" lat="48.28543"><ele>487.5</ele><time>2009-09-05T10:57:47.000Z</time><speed>12.222222222222221</speed><name>Moosinning</name><desc>Straße ohne Namen</desc></trkpt><trkpt lon="11.86902" lat="48.2876"><ele>486.2</ele><time>2009-09-05T10:58:31.000Z</time><speed>11.944444444444445</speed><name>Erding</name><desc>Straße ohne Namen</desc></trkpt><trkpt lon="11.89054" lat="48.29397"><ele>470.2</ele><time>2009-09-05T11:00:02.000Z</time><speed>8.055555555555555</speed><name>Klettham</name><desc>Straße ohne Namen</desc></trkpt><trkpt lon="11.89387" lat="48.29367"><ele>468.0</ele><time>2009-09-05T11:00:26.000Z</time><speed>16.666666666666668</speed><name>Altenerding</name><desc>Am Wasserwerk</desc></trkpt><trkpt lon="11.90005" lat="48.29325"><ele>467.3</ele><time>2009-09-05T11:01:20.000Z</time><speed>8.88888888888889</speed><name>Altenerding</name><desc>Münchener Straße; 105</desc></trkpt><trkpt lon="11.90007" lat="48.29959"><ele>464.8</ele><time>2009-09-05T11:02:17.000Z</time><speed>13.055555555555555</speed><name>Klettham</name><desc>Münchener Straße; 126</desc></trkpt><trkpt lon="11.90359" lat="48.30435"><ele>462.9</ele><time>2009-09-05T11:03:39.000Z</time><speed>5.833333333333333</speed><name>Erding</name><desc>Münchener Straße; 22</desc></trkpt><trkpt lon="11.90514" lat="48.3061"><ele>461.8</ele><time>2009-09-05T11:04:05.000Z</time><speed>9.166666666666666</speed><name>Erding</name><desc>Krankenhausstraße; 19</desc></trkpt><trkpt lon="11.90638" lat="48.31038"><ele>457.9</ele><time>2009-09-05T11:05:09.000Z</time><speed>11.38888888888889</speed><name>Erding</name><desc>Freisinger Straße; 20</desc></trkpt><trkpt lon="11.90522" lat="48.31256"><ele>455.1</ele><time>2009-09-05T11:05:33.000Z</time><speed>10.555555555555555</speed><name>Erding</name><desc>Melkstattstraße; 8</desc></trkpt><trkpt lon="11.90565" lat="48.31297"><ele>459.5</ele><time>2009-09-05T11:06:09.000Z</time><speed>8.055555555555555</speed><name>Sankt Paul</name><desc>ST2084 Anton-Bruckner-Straße; 6</desc></trkpt><trkpt lon="11.91694" lat="48.31085"><ele>457.9</ele><time>2009-09-05T11:07:27.000Z</time><speed>7.222222222222222</speed><name>Kehr (Erding)</name><desc>ST2084 Anton-Bruckner-Straße</desc></trkpt><trkpt lon="11.91953" lat="48.31098"><ele>457.0</ele><time>2009-09-05T11:09:26.000Z</time><speed>12.5</speed><name>Kehr (Erding)</name><desc>ST2331 Alte Römerstraße; 13</desc></trkpt><trkpt lon="11.92395" lat="48.32139"><ele>455.1</ele><time>2009-09-05T11:10:56.000Z</time><speed>17.5</speed><name>Langengeisling</name><desc>ST2331 Alte Römerstraße; 85</desc></trkpt><trkpt lon="11.92623" lat="48.3388"><ele>449.5</ele><time>2009-09-05T11:12:49.000Z</time><speed>26.11111111111111</speed><name>Erding</name><desc>ST2331 Alte Römerstraße</desc></trkpt><trkpt lon="11.92718" lat="48.34223"><ele>449.0</ele><time>2009-09-05T11:13:03.000Z</time><speed>26.944444444444443</speed><name>Erding</name><desc>ST2331</desc></trkpt><trkpt lon="11.93001" lat="48.3676"><ele>438.2</ele><time>2009-09-05T11:15:05.000Z</time><speed>24.444444444444443</speed><name>Glaslern</name><desc>ST2331 Erdinger Straße</desc></trkpt><trkpt lon="11.93081" lat="48.38083"><ele>435.7</ele><time>2009-09-05T11:16:34.000Z</time><speed>14.722222222222221</speed><name>Berglern</name><desc>ST2331 Erdinger Straße; 21</desc></trkpt><trkpt lon="11.92692" lat="48.38745"><ele>437.9</ele><time>2009-09-05T11:17:28.000Z</time><speed>16.38888888888889</speed><name>Berglern</name><desc>ST2331</desc></trkpt><trkpt lon="11.92496" lat="48.38921"><ele>434.6</ele><time>2009-09-05T11:17:43.000Z</time><speed>17.5</speed><name>Berglern</name><desc>ST2331 Moosburger Straße</desc></trkpt><trkpt lon="11.91837" lat="48.40458"><ele>423.9</ele><time>2009-09-05T11:19:38.000Z</time><speed>28.61111111111111</speed><name>Berglern</name><desc>ST2331</desc></trkpt><trkpt lon="11.92363" lat="48.41055"><ele>423.2</ele><time>2009-09-05T11:20:10.000Z</time><speed>26.11111111111111</speed><name>Langenpreising</name><desc>ST2331</desc></trkpt><trkpt lon="11.9334" lat="48.41677"><ele>421.6</ele><time>2009-09-05T11:20:55.000Z</time><speed>27.22222222222222</speed><name>Langenpreising</name><desc>ST2331 Am Semptablaß; 7</desc></trkpt><trkpt lon="11.93499" lat="48.4212"><ele>420.4</ele><time>2009-09-05T11:21:13.000Z</time><speed>27.77777777777778</speed><name>Langenpreising</name><desc>ST2331</desc></trkpt><trkpt lon="11.94067" lat="48.44236"><ele>416.8</ele><time>2009-09-05T11:22:45.000Z</time><speed>26.38888888888889</speed><name>Moosburg An Der Isar</name><desc>ST2331</desc></trkpt><trkpt lon="11.9465" lat="48.44991"><ele>416.7</ele><time>2009-09-05T11:23:19.000Z</time><speed>26.944444444444443</speed><name>Moosburg An Der Isar</name><desc>ST2331 Von Erding</desc></trkpt><trkpt lon="11.95377" lat="48.46553"><ele>414.4</ele><time>2009-09-05T11:24:53.000Z</time><speed>0.0</speed><name>Moosburg An Der Isar</name><desc>ST2054/ST2085/ST2331 Holzlandstraße</desc></trkpt><trkpt lon="11.95548" lat="48.46646"><ele>414.4</ele><time>2009-09-05T11:25:31.000Z</time><speed>17.77777777777778</speed><name>Moosburg An Der Isar</name><desc>B11</desc></trkpt><trkpt lon="11.96491" lat="48.47409"><ele>411.5</ele><time>2009-09-05T11:26:40.000Z</time><speed>13.055555555555555</speed><name>Moosburg An Der Isar</name><desc>FS17 Uppenbornstraße; 7</desc></trkpt><trkpt lon="11.96395" lat="48.47755"><ele>411.7</ele><time>2009-09-05T11:27:05.000Z</time><speed>20.27777777777778</speed><name>Wang</name><desc>FS17</desc></trkpt><trkpt lon="11.9624" lat="48.47992"><ele>408.2</ele><time>2009-09-05T11:27:19.000Z</time><speed>21.666666666666668</speed><name>Wang</name><desc>FS17 Isarstraße; 73</desc></trkpt><trkpt lon="11.95629" lat="48.50185"><ele>404.9</ele><time>2009-09-05T11:30:17.000Z</time><speed>11.666666666666666</speed><name>Wang</name><desc>ST2045 Untere Hauptstraße; 43</desc></trkpt><trkpt lon="11.96535" lat="48.53758"><ele>466.0</ele><time>2009-09-05T07:09:32.000Z</time><speed>24.166666666666668</speed><name>Gammelsdorf</name><desc>FS21 Gelbersdorf</desc></trkpt><trkpt lon="11.95879" lat="48.54038"><ele>466.2</ele><time>2009-09-05T07:10:02.000Z</time><speed>22.22222222222222</speed><name>Gammelsdorf</name><desc>FS21</desc></trkpt><trkpt lon="11.94526" lat="48.5497"><ele>500.3</ele><time>2009-09-05T07:11:19.000Z</time><speed>15.277777777777779</speed><name>Gammelsdorf</name><desc>FS19 Hauptstraße</desc></trkpt><trkpt lon="11.9474" lat="48.56548"><ele>465.9</ele><time>2009-09-05T07:13:06.000Z</time><speed>27.5</speed><name>Gammelsdorf</name><desc>FS19 Kothingried</desc></trkpt><trkpt lon="11.94513" lat="48.57442"><ele>459.8</ele><time>2009-09-05T07:13:44.000Z</time><speed>22.22222222222222</speed><name>Obersüßbach</name><desc>FS19 Kothingried</desc></trkpt><trkpt lon="11.94193" lat="48.57542"><ele>459.3</ele><time>2009-09-05T07:13:57.000Z</time><speed>20.0</speed><name>Obersüßbach</name><desc>LA38</desc></trkpt><trkpt lon="11.94193" lat="48.5839"><ele>449.5</ele><time>2009-09-05T07:14:45.000Z</time><speed>0.5555555555555556</speed><name>Obersüßbach</name><desc>LA38 Obermünchen; 8</desc></trkpt><trkpt lon="11.9422" lat="48.58545"><ele>450.5</ele><time>2009-09-05T07:15:01.000Z</time><speed>19.166666666666668</speed><name>Obersüßbach</name><desc>LA38</desc></trkpt><trkpt lon="11.94336" lat="48.60196"><ele>489.2</ele><time>2009-09-05T07:16:16.000Z</time><speed>25.833333333333332</speed><name>Obersüßbach</name><desc>LA38 Freyung</desc></trkpt><trkpt lon="11.94484" lat="48.60537"><ele>474.4</ele><time>2009-09-05T07:16:32.000Z</time><speed>29.72222222222222</speed><name>Obersüßbach</name><desc>LA38</desc></trkpt><trkpt lon="11.94543" lat="48.60981"><ele>459.4</ele><time>2009-09-05T07:17:03.000Z</time><speed>11.11111111111111</speed><name>Obersüßbach</name><desc>LA38 Hauptstraße; 9</desc></trkpt><trkpt lon="11.94665" lat="48.61506"><ele>478.9</ele><time>2009-09-05T07:18:08.000Z</time><speed>18.333333333333332</speed><name>Obersüßbach</name><desc>LA38</desc></trkpt><trkpt lon="11.94725" lat="48.6226"><ele>489.1</ele><time>2009-09-05T07:18:51.000Z</time><speed>16.38888888888889</speed><name>Pfeffenhausen</name><desc>LA38</desc></trkpt><trkpt lon="11.94691" lat="48.633"><ele>490.7</ele><time>2009-09-05T07:20:11.000Z</time><speed>20.555555555555557</speed><name>Pfeffenhausen</name><desc>LA38 Oberspiegelreuth</desc></trkpt><trkpt lon="11.94758" lat="48.63743"><ele>469.0</ele><time>2009-09-05T07:20:41.000Z</time><speed>17.5</speed><name>Pfeffenhausen</name><desc>LA38 Unterspiegelreuth; 1</desc></trkpt><trkpt lon="11.94656" lat="48.63911"><ele>458.8</ele><time>2009-09-05T07:20:56.000Z</time><speed>10.277777777777779</speed><name>Pfeffenhausen</name><desc>LA38</desc></trkpt><trkpt lon="11.95513" lat="48.65073"><ele>450.9</ele><time>2009-09-05T07:22:21.000Z</time><speed>12.222222222222221</speed><name>Pfeffenhausen</name><desc>LA38 Moosburger Straße; 106</desc></trkpt><trkpt lon="11.95748" lat="48.65323"><ele>451.3</ele><time>2009-09-05T07:23:02.000Z</time><speed>5.833333333333333</speed><name>Pfeffenhausen</name><desc>Straße ohne Namen</desc></trkpt><trkpt lon="11.95537" lat="48.65448"><ele>458.0</ele><time>2009-09-05T07:23:30.000Z</time><speed>10.833333333333334</speed><name>Pfeffenhausen</name><desc>B299</desc></trkpt><trkpt lon="11.89314" lat="48.7055"><ele>454.7</ele><time>2009-09-05T07:28:09.000Z</time><speed>31.38888888888889</speed><name>Wildenberg</name><desc>B299</desc></trkpt><trkpt lon="11.87779" lat="48.73555"><ele>404.4</ele><time>2009-09-05T07:30:29.000Z</time><speed>27.77777777777778</speed><name>Siegenburg</name><desc>B299</desc></trkpt><trkpt lon="11.81769" lat="48.77018"><ele>404.8</ele><time>2009-09-05T07:34:00.000Z</time><speed>30.555555555555557</speed><name>Neustadt An Der Donau</name><desc>B299</desc></trkpt><trkpt lon="11.80345" lat="48.78529"><ele>377.6</ele><time>2009-09-05T07:35:40.000Z</time><speed>23.61111111111111</speed><name>Neustadt An Der Donau</name><desc>B16</desc></trkpt><trkpt lon="11.76659" lat="48.78268"><ele>359.1</ele><time>2009-09-05T07:37:44.000Z</time><speed>18.61111111111111</speed><name>Neustadt An Der Donau</name><desc>B299 Raffineriestraße</desc></trkpt><trkpt lon="11.75947" lat="48.79698"><ele>355.5</ele><time>2009-09-05T07:38:50.000Z</time><speed>25.555555555555557</speed><name>Neustadt An Der Donau</name><desc>B299</desc></trkpt><trkpt lon="11.69832" lat="48.81777"><ele>358.2</ele><time>2009-09-05T07:42:50.000Z</time><speed>29.72222222222222</speed><name>Pförring</name><desc>B299</desc></trkpt><trkpt lon="11.66388" lat="48.83156"><ele>394.0</ele><time>2009-09-05T07:44:45.000Z</time><speed>22.77777777777778</speed><name>Mindelstetten</name><desc>B299</desc></trkpt><trkpt lon="11.64419" lat="48.84836"><ele>402.0</ele><time>2009-09-05T07:46:14.000Z</time><speed>14.444444444444445</speed><name>Mindelstetten</name><desc>B299 Hauptstraße; 1</desc></trkpt><trkpt lon="11.63844" lat="48.85632"><ele>398.3</ele><time>2009-09-05T07:47:06.000Z</time><speed>27.77777777777778</speed><name>Mindelstetten</name><desc>B299</desc></trkpt><trkpt lon="11.6314" lat="48.87042"><ele>436.0</ele><time>2009-09-05T07:48:05.000Z</time><speed>28.88888888888889</speed><name>Mindelstetten</name><desc>B299 Am Wald; 1</desc></trkpt><trkpt lon="11.62991" lat="48.87534"><ele>427.7</ele><time>2009-09-05T07:48:23.000Z</time><speed>31.11111111111111</speed><name>Mindelstetten</name><desc>B299</desc></trkpt><trkpt lon="11.62761" lat="48.8801"><ele>413.9</ele><time>2009-09-05T07:48:41.000Z</time><speed>30.0</speed><name>Altmannstein</name><desc>B299</desc></trkpt><trkpt lon="11.61581" lat="48.89634"><ele>418.1</ele><time>2009-09-05T07:50:07.000Z</time><speed>30.27777777777778</speed><name>Altmannstein</name><desc>B299 Landshuter Straße</desc></trkpt><trkpt lon="11.60916" lat="48.90229"><ele>399.3</ele><time>2009-09-05T07:50:55.000Z</time><speed>13.88888888888889</speed><name>Altmannstein</name><desc>B299 Marienplatz</desc></trkpt><trkpt lon="11.60666" lat="48.90355"><ele>402.8</ele><time>2009-09-05T07:51:08.000Z</time><speed>17.5</speed><name>Altmannstein</name><desc>B299 Nürnberger Straße; 13</desc></trkpt><trkpt lon="11.60477" lat="48.90643"><ele>407.2</ele><time>2009-09-05T07:51:27.000Z</time><speed>26.11111111111111</speed><name>Altmannstein</name><desc>B299</desc></trkpt><trkpt lon="11.59899" lat="48.91476"><ele>408.6</ele><time>2009-09-05T07:52:23.000Z</time><speed>15.833333333333334</speed><name>Altmannstein</name><desc>B299 Neustädter Straße; 4</desc></trkpt><trkpt lon="11.59516" lat="48.91791"><ele>415.6</ele><time>2009-09-05T07:52:52.000Z</time><speed>17.5</speed><name>Altmannstein</name><desc>B299 Beilngrieser Straße; 21</desc></trkpt><trkpt lon="11.59357" lat="48.92052"><ele>425.9</ele><time>2009-09-05T07:53:07.000Z</time><speed>24.166666666666668</speed><name>Altmannstein</name><desc>B299</desc></trkpt><trkpt lon="11.56793" lat="48.94114"><ele>521.2</ele><time>2009-09-05T07:55:07.000Z</time><speed>15.0</speed><name>Altmannstein</name><desc>B299 Neustädter Straße; 18</desc></trkpt><trkpt lon="11.56607" lat="48.94433"><ele>525.5</ele><time>2009-09-05T07:55:34.000Z</time><speed>15.555555555555555</speed><name>Altmannstein</name><desc>B299 Beilngrieser Straße; 1</desc></trkpt><trkpt lon="11.56449" lat="48.94927"><ele>522.4</ele><time>2009-09-05T07:56:05.000Z</time><speed>26.666666666666668</speed><name>Altmannstein</name><desc>B299</desc></trkpt><trkpt lon="11.54854" lat="48.97097"><ele>499.2</ele><time>2009-09-05T07:57:42.000Z</time><speed>30.833333333333332</speed><name>Beilngries</name><desc>B299</desc></trkpt><trkpt lon="11.53174" lat="48.98779"><ele>504.0</ele><time>2009-09-05T07:59:01.000Z</time><speed>23.88888888888889</speed><name>Beilngries</name><desc>B299 Eglofsdorf; 32</desc></trkpt><trkpt lon="11.52991" lat="48.99794"><ele>506.6</ele><time>2009-09-05T07:59:53.000Z</time><speed>14.166666666666666</speed><name>Beilngries</name><desc>B299 Amtmannsdorf; 20</desc></trkpt><trkpt lon="11.52514" lat="49.00093"><ele>505.2</ele><time>2009-09-05T08:00:21.000Z</time><speed>27.22222222222222</speed><name>Beilngries</name><desc>B299</desc></trkpt><trkpt lon="11.47815" lat="49.02959"><ele>366.5</ele><time>2009-09-05T08:04:10.000Z</time><speed>9.444444444444445</speed><name>Beilngries</name><desc>B299 Ingolstädter Straße; 25</desc></trkpt><trkpt lon="11.47614" lat="49.03364"><ele>363.7</ele><time>2009-09-05T08:06:23.000Z</time><speed>8.055555555555555</speed><name>Beilngries</name><desc>B299 Kelheimer Straße; 8</desc></trkpt><trkpt lon="11.47746" lat="49.03474"><ele>365.9</ele><time>2009-09-05T08:06:48.000Z</time><speed>9.722222222222221</speed><name>Beilngries</name><desc>B299 Maria-Hilf-Straße; 8</desc></trkpt><trkpt lon="11.47485" lat="49.03945"><ele>371.0</ele><time>2009-09-05T08:07:41.000Z</time><speed>16.11111111111111</speed><name>Beilngries</name><desc>B299</desc></trkpt><trkpt lon="11.4723" lat="49.04093"><ele>377.2</ele><time>2009-09-05T08:07:57.000Z</time><speed>14.166666666666666</speed><name>Beilngries</name><desc>B299 Am Ludwigskanal</desc></trkpt><trkpt lon="11.46806" lat="49.05086"><ele>386.1</ele><time>2009-09-05T08:09:40.000Z</time><speed>17.77777777777778</speed><name>Beilngries</name><desc>B299</desc></trkpt><trkpt lon="11.46669" lat="49.05372"><ele>385.5</ele><time>2009-09-05T08:09:55.000Z</time><speed>22.22222222222222</speed><name>Beilngries</name><desc>B299 Gösselthal; 29</desc></trkpt><trkpt lon="11.46605" lat="49.05675"><ele>386.3</ele><time>2009-09-05T08:10:11.000Z</time><speed>25.555555555555557</speed><name>Beilngries</name><desc>B299</desc></trkpt><trkpt lon="11.46156" lat="49.06223"><ele>387.5</ele><time>2009-09-05T08:10:40.000Z</time><speed>22.5</speed><name>Berching</name><desc>B299</desc></trkpt><trkpt lon="11.446" lat="49.10512"><ele>394.2</ele><time>2009-09-05T08:14:53.000Z</time><speed>9.166666666666666</speed><name>Berching</name><desc>B299 Obere Kanalstraße; 9</desc></trkpt><trkpt lon="11.44604" lat="49.13037"><ele>392.5</ele><time>2009-09-05T08:17:10.000Z</time><speed>30.27777777777778</speed><name>Mühlhausen (Neumarkt In Der Oberpfalz)</name><desc>B299</desc></trkpt><trkpt lon="11.45185" lat="49.15104"><ele>394.0</ele><time>2009-09-05T08:18:37.000Z</time><speed>28.333333333333332</speed><name>Berching</name><desc>B299 Reismühle</desc></trkpt><trkpt lon="11.44801" lat="49.1549"><ele>394.4</ele><time>2009-09-05T08:18:56.000Z</time><speed>28.61111111111111</speed><name>Mühlhausen (Neumarkt In Der Oberpfalz)</name><desc>B299</desc></trkpt><trkpt lon="11.44675" lat="49.15876"><ele>393.8</ele><time>2009-09-05T08:20:17.000Z</time><speed>0.0</speed><name>Mühlhausen (Neumarkt In Der Oberpfalz)</name><desc>Im Dürrloh; 4</desc></trkpt><trkpt lon="11.44641" lat="49.16387"><ele>395.5</ele><time>2009-09-05T08:24:53.000Z</time><speed>16.11111111111111</speed><name>Mühlhausen (Neumarkt In Der Oberpfalz)</name><desc>B299 Hauptstraße</desc></trkpt><trkpt lon="11.44864" lat="49.18824"><ele>407.6</ele><time>2009-09-05T08:28:00.000Z</time><speed>28.61111111111111</speed><name>Mühlhausen (Neumarkt In Der Oberpfalz)</name><desc>B299</desc></trkpt><trkpt lon="11.45286" lat="49.20827"><ele>413.1</ele><time>2009-09-05T08:29:25.000Z</time><speed>21.11111111111111</speed><name>Sengenthal</name><desc>B299 Greißelbach; 3</desc></trkpt><trkpt lon="11.4537" lat="49.21146"><ele>414.8</ele><time>2009-09-05T08:29:44.000Z</time><speed>22.5</speed><name>Mühlhausen (Neumarkt In Der Oberpfalz)</name><desc>B299</desc></trkpt><trkpt lon="11.44833" lat="49.25654"><ele>421.6</ele><time>2009-09-05T08:33:14.000Z</time><speed>22.22222222222222</speed><name>Neumarkt In Der Oberpfalz</name><desc>B299</desc></trkpt><trkpt lon="11.44836" lat="49.25992"><ele>420.4</ele><time>2009-09-05T08:33:31.000Z</time><speed>23.333333333333332</speed><name>Neumarkt In Der Oberpfalz</name><desc>B299/B8 Münchener Ring</desc></trkpt><trkpt lon="11.44883" lat="49.26465"><ele>421.9</ele><time>2009-09-05T08:34:01.000Z</time><speed>15.555555555555555</speed><name>Neumarkt In Der Oberpfalz</name><desc>Straße ohne Namen</desc></trkpt><trkpt lon="11.44952" lat="49.27761"><ele>415.3</ele><time>2009-09-05T08:35:16.000Z</time><speed>19.72222222222222</speed><name>Neumarkt In Der Oberpfalz</name><desc>ST2240</desc></trkpt><trkpt lon="11.45294" lat="49.28079"><ele>419.3</ele><time>2009-09-05T08:35:58.000Z</time><speed>11.38888888888889</speed><name>Neumarkt In Der Oberpfalz</name><desc>ST2240 Ringstraße</desc></trkpt><trkpt lon="11.45829" lat="49.28272"><ele>417.3</ele><time>2009-09-05T08:36:28.000Z</time><speed>13.88888888888889</speed><name>Neumarkt In Der Oberpfalz</name><desc>ST2240 Dammstraße</desc></trkpt><trkpt lon="11.4603" lat="49.28393"><ele>419.1</ele><time>2009-09-05T08:36:56.000Z</time><speed>13.055555555555555</speed><name>Neumarkt In Der Oberpfalz</name><desc>ST2240 Altdorfer Straße; 1</desc></trkpt><trkpt lon="11.46091" lat="49.28814"><ele>414.1</ele><time>2009-09-05T08:37:34.000Z</time><speed>13.88888888888889</speed><name>Holzheim (Neumarkt In Der Oberpfalz)</name><desc>ST2240 Altdorfer Straße; 34</desc></trkpt><trkpt lon="11.4588" lat="49.29823"><ele>412.7</ele><time>2009-09-05T08:40:09.000Z</time><speed>13.88888888888889</speed><name>Neumarkt In Der Oberpfalz</name><desc>ST2240</desc></trkpt><trkpt lon="11.45516" lat="49.31161"><ele>407.8</ele><time>2009-09-05T08:41:25.000Z</time><speed>23.88888888888889</speed><name>Berg Bei Neumarkt In Der Oberpfalz</name><desc>ST2240</desc></trkpt><trkpt lon="11.44348" lat="49.32588"><ele>403.8</ele><time>2009-09-05T08:42:53.000Z</time><speed>13.055555555555555</speed><name>Berg Bei Neumarkt In Der Oberpfalz</name><desc>ST2240 Neumarkter Straße; 38</desc></trkpt><trkpt lon="11.43955" lat="49.33193"><ele>401.2</ele><time>2009-09-05T08:43:48.000Z</time><speed>14.444444444444445</speed><name>Berg Bei Neumarkt In Der Oberpfalz</name><desc>ST2240 Rosenbergstraße; 5</desc></trkpt><trkpt lon="11.43866" lat="49.33955"><ele>398.9</ele><time>2009-09-05T08:44:30.000Z</time><speed>32.5</speed><name>Berg Bei Neumarkt In Der Oberpfalz</name><desc>ST2240</desc></trkpt><trkpt lon="11.42654" lat="49.35783"><ele>390.2</ele><time>2009-09-05T08:46:00.000Z</time><speed>18.333333333333332</speed><name>Berg Bei Neumarkt In Der Oberpfalz</name><desc>ST2240 Oberölsbacher Straße; 6</desc></trkpt><trkpt lon="11.42499" lat="49.36076"><ele>389.0</ele><time>2009-09-05T08:46:16.000Z</time><speed>20.0</speed><name>Berg Bei Neumarkt In Der Oberpfalz</name><desc>ST2240</desc></trkpt><trkpt lon="11.41654" lat="49.36744"><ele>419.5</ele><time>2009-09-05T08:47:20.000Z</time><speed>15.0</speed><name>Berg Bei Neumarkt In Der Oberpfalz</name><desc>ST2240 Gnadenberger Straße; 2</desc></trkpt><trkpt lon="11.40275" lat="49.37007"><ele>390.7</ele><time>2009-09-05T08:49:06.000Z</time><speed>18.88888888888889</speed><name>Berg Bei Neumarkt In Der Oberpfalz</name><desc>ST2240</desc></trkpt><trkpt lon="11.39768" lat="49.37079"><ele>378.3</ele><time>2009-09-05T08:49:21.000Z</time><speed>20.555555555555557</speed><name>Altdorf Bei Nürnberg</name><desc>ST2240</desc></trkpt><trkpt lon="11.3951" lat="49.37154"><ele>381.0</ele><time>2009-09-05T08:49:33.000Z</time><speed>16.666666666666668</speed><name>Altdorf Bei Nürnberg</name><desc>ST2240 Gnadenberger Straße</desc></trkpt><trkpt lon="11.3752" lat="49.38086"><ele>416.2</ele><time>2009-09-05T08:50:43.000Z</time><speed>29.166666666666668</speed><name>Altdorf Bei Nürnberg</name><desc>ST2240 Neumarkter Straße</desc></trkpt><trkpt lon="11.36981" lat="49.38117"><ele>418.5</ele><time>2009-09-05T08:51:04.000Z</time><speed>11.944444444444445</speed><name>Altdorf Bei Nürnberg</name><desc>Straße ohne Namen</desc></trkpt><trkpt lon="11.36639" lat="49.38019"><ele>426.3</ele><time>2009-09-05T08:51:22.000Z</time><speed>7.777777777777778</speed><name>Altdorf Bei Nürnberg</name><desc>ST2401 Rascher Straße</desc></trkpt><trkpt lon="11.36082" lat="49.38572"><ele>429.6</ele><time>2009-09-05T08:52:31.000Z</time><speed>11.38888888888889</speed><name>Altdorf Bei Nürnberg</name><desc>LAU23 Schießhausstraße; 3</desc></trkpt><trkpt lon="11.35916" lat="49.38945"><ele>426.2</ele><time>2009-09-05T08:53:08.000Z</time><speed>13.88888888888889</speed><name>Altdorf Bei Nürnberg</name><desc>LAU23 Riedener Straße; 22</desc></trkpt><trkpt lon="11.3614" lat="49.39152"><ele>424.9</ele><time>2009-09-05T08:53:40.000Z</time><speed>9.444444444444445</speed><name>Altdorf Bei Nürnberg</name><desc>Wellitzleither Weg; 2</desc></trkpt><trkpt lon="11.36009" lat="49.39859"><ele>415.9</ele><time>2009-09-05T08:54:38.000Z</time><speed>13.88888888888889</speed><name>Altdorf Bei Nürnberg</name><desc>Wellitzleithener Weg</desc></trkpt><trkpt lon="11.35193" lat="49.39977"><ele>412.6</ele><time>2009-09-05T08:55:22.000Z</time><speed>15.0</speed><name>Altdorf Bei Nürnberg</name><desc>Ziegelhütter Hauptstraße; 22</desc></trkpt><trkpt lon="11.3434" lat="49.41074"><ele>423.1</ele><time>2009-09-05T08:56:47.000Z</time><speed>26.666666666666668</speed><name>Altdorf Bei Nürnberg</name><desc>ST2240</desc></trkpt><trkpt lon="11.34377" lat="49.41589"><ele>418.5</ele><time>2009-09-05T08:57:05.000Z</time><speed>26.944444444444443</speed><name>Leinburg</name><desc>ST2240</desc></trkpt><trkpt lon="11.34218" lat="49.44011"><ele>394.8</ele><time>2009-09-05T08:58:47.000Z</time><speed>20.0</speed><name>Leinburg</name><desc>ST2240 Winner Hauptstraße</desc></trkpt><trkpt lon="11.33918" lat="49.44222"><ele>387.4</ele><time>2009-09-05T08:59:03.000Z</time><speed>26.38888888888889</speed><name>Leinburg</name><desc>ST2240</desc></trkpt><trkpt lon="11.31051" lat="49.45064"><ele>386.8</ele><time>2009-09-05T09:00:44.000Z</time><speed>15.0</speed><name>Leinburg</name><desc>ST2240 Altdorfer Straße; 5</desc></trkpt><trkpt lon="11.30866" lat="49.4501"><ele>385.1</ele><time>2009-09-05T09:00:58.000Z</time><speed>9.166666666666666</speed><name>Leinburg</name><desc>ST2240 Marktplatz; 5</desc></trkpt><trkpt lon="11.29841" lat="49.45504"><ele>383.0</ele><time>2009-09-05T09:02:26.000Z</time><speed>16.38888888888889</speed><name>Leinburg</name><desc>ST2240</desc></trkpt><trkpt lon="11.29641" lat="49.45673"><ele>386.0</ele><time>2009-09-05T09:02:40.000Z</time><speed>16.944444444444443</speed><name>Röthenbach An Der Pegnitz</name><desc>ST2240</desc></trkpt><trkpt lon="11.29521" lat="49.4585"><ele>396.7</ele><time>2009-09-05T09:02:54.000Z</time><speed>12.5</speed><name>Leinburg</name><desc>ST2240 Diepersdorfer Hauptstraße; 45</desc></trkpt><trkpt lon="11.28646" lat="49.46156"><ele>374.4</ele><time>2009-09-05T09:05:15.000Z</time><speed>8.333333333333334</speed><name>Leinburg</name><desc>Laufer Weg; 5</desc></trkpt><trkpt lon="11.28628" lat="49.4645"><ele>377.3</ele><time>2009-09-05T09:06:10.000Z</time><speed>15.555555555555555</speed><name>Leinburg</name><desc>ST2240 Laufer Straße</desc></trkpt><trkpt lon="11.28096" lat="49.46888"><ele>392.4</ele><time>2009-09-05T09:06:39.000Z</time><speed>20.833333333333332</speed><name>Röthenbach An Der Pegnitz</name><desc>ST2240 Laufer Straße</desc></trkpt><trkpt lon="11.27621" lat="49.4724"><ele>383.2</ele><time>2009-09-05T09:07:08.000Z</time><speed>18.333333333333332</speed><name>Röthenbach An Der Pegnitz</name><desc>ST2240</desc></trkpt><trkpt lon="11.28411" lat="49.49242"><ele>339.5</ele><time>2009-09-05T09:09:05.000Z</time><speed>31.666666666666668</speed><name>Lauf An Der Pegnitz</name><desc>ST2240 Altdorfer Straße</desc></trkpt><trkpt lon="11.28757" lat="49.49785"><ele>331.9</ele><time>2009-09-05T09:09:40.000Z</time><speed>13.88888888888889</speed><name>Lauf An Der Pegnitz</name><desc>Straße ohne Namen</desc></trkpt><trkpt lon="11.28481" lat="49.49932"><ele>335.1</ele><time>2009-09-05T09:10:04.000Z</time><speed>17.22222222222222</speed><name>Lauf An Der Pegnitz</name><desc>B14</desc></trkpt><trkpt lon="11.26833" lat="49.5047"><ele>316.4</ele><time>2009-09-05T09:11:43.000Z</time><speed>13.88888888888889</speed><name>Lauf An Der Pegnitz</name><desc>B14 Nürnberger Straße</desc></trkpt><trkpt lon="11.27198" lat="49.50844"><ele>326.1</ele><time>2009-09-05T09:13:30.000Z</time><speed>9.722222222222221</speed><name>Lauf An Der Pegnitz</name><desc>B14/ST2240 Nürnberger Straße; 75</desc></trkpt><trkpt lon="11.2658" lat="49.51289"><ele>323.4</ele><time>2009-09-05T09:14:25.000Z</time><speed>16.666666666666668</speed><name>Kotzenhof (Lauf An Der Pegnitz)</name><desc>ST2240 Eschenauer Straße; 27</desc></trkpt><trkpt lon="11.25662" lat="49.52006"><ele>334.9</ele><time>2009-09-05T09:15:28.000Z</time><speed>19.444444444444443</speed><name>Rudolfshof</name><desc>ST2240 Eschenauer Straße; 59</desc></trkpt><trkpt lon="11.25567" lat="49.52509"><ele>329.6</ele><time>2009-09-05T09:15:56.000Z</time><speed>19.444444444444443</speed><name>Rudolfshof</name><desc>ST2240</desc></trkpt><trkpt lon="11.25654" lat="49.52999"><ele>340.6</ele><time>2009-09-05T09:16:27.000Z</time><speed>19.166666666666668</speed><name>Lauf An Der Pegnitz</name><desc>ST2240 Alt Vogelhof; 16</desc></trkpt><trkpt lon="11.25794" lat="49.53249"><ele>343.2</ele><time>2009-09-05T09:16:42.000Z</time><speed>20.27777777777778</speed><name>Lauf An Der Pegnitz</name><desc>ST2240</desc></trkpt><trkpt lon="11.23469" lat="49.55179"><ele>385.4</ele><time>2009-09-05T09:18:50.000Z</time><speed>16.666666666666668</speed><name>Lauf An Der Pegnitz</name><desc>ST2240 Welserstraße; 19</desc></trkpt><trkpt lon="11.23036" lat="49.55444"><ele>357.4</ele><time>2009-09-05T09:19:20.000Z</time><speed>13.61111111111111</speed><name>Lauf An Der Pegnitz</name><desc>ST2240 Neunhofer Hauptstraße; 5</desc></trkpt><trkpt lon="11.2232" lat="49.55653"><ele>352.2</ele><time>2009-09-05T09:20:01.000Z</time><speed>22.22222222222222</speed><name>Lauf An Der Pegnitz</name><desc>ST2240</desc></trkpt><trkpt lon="11.21076" lat="49.56222"><ele>337.1</ele><time>2009-09-05T09:20:49.000Z</time><speed>22.5</speed><name>Igensdorf</name><desc>ST2240</desc></trkpt><trkpt lon="11.20657" lat="49.56807"><ele>344.3</ele><time>2009-09-05T09:21:19.000Z</time><speed>23.333333333333332</speed><name>Eckental</name><desc>ST2240 Laufer Straße</desc></trkpt><trkpt lon="11.19945" lat="49.57431"><ele>341.7</ele><time>2009-09-05T09:23:21.000Z</time><speed>12.222222222222221</speed><name>Eckental</name><desc>ERH11 Eschenauer Hauptstraße; 28</desc></trkpt><trkpt lon="11.18983" lat="49.57619"><ele>321.6</ele><time>2009-09-05T09:24:45.000Z</time><speed>10.555555555555555</speed><name>Eckental</name><desc>B2 Brander Hauptstraße</desc></trkpt><trkpt lon="11.18809" lat="49.57716"><ele>320.4</ele><time>2009-09-05T09:25:26.000Z</time><speed>13.333333333333334</speed><name>Eckental</name><desc>ST2240 Brander Hauptstraße; 58</desc></trkpt><trkpt lon="11.18267" lat="49.58118"><ele>318.0</ele><time>2009-09-05T09:26:19.000Z</time><speed>7.222222222222222</speed><name>Eckental</name><desc>Fliederstraße; 2</desc></trkpt><trkpt lon="11.17713" lat="49.58147"><ele>315.4</ele><time>2009-09-05T09:26:45.000Z</time><speed>22.77777777777778</speed><name>Eckental</name><desc>ERH6</desc></trkpt><trkpt lon="11.16001" lat="49.58506"><ele>308.6</ele><time>2009-09-05T09:27:36.000Z</time><speed>8.055555555555555</speed><name>Eckental</name><desc>ERH6/ERH8</desc></trkpt><trkpt lon="11.15831" lat="49.58659"><ele>305.5</ele><time>2009-09-05T09:27:53.000Z</time><speed>17.77777777777778</speed><name>Eckental</name><desc>ERH8</desc></trkpt><trkpt lon="11.15846" lat="49.59035"><ele>304.6</ele><time>2009-09-05T09:28:23.000Z</time><speed>12.222222222222221</speed><name>Kleinsendelbach</name><desc>FO29 Sendelmühlstraße; 44</desc></trkpt><trkpt lon="11.15933" lat="49.59164"><ele>305.2</ele><time>2009-09-05T09:28:37.000Z</time><speed>13.055555555555555</speed><name>Kleinsendelbach</name><desc>FO29 Hauptstraße; 25</desc></trkpt><trkpt lon="11.15464" lat="49.5985"><ele>312.1</ele><time>2009-09-05T09:29:49.000Z</time><speed>18.88888888888889</speed><name>Kleinsendelbach</name><desc>ST2240</desc></trkpt><trkpt lon="11.13897" lat="49.60367"><ele>308.7</ele><time>2009-09-05T09:30:41.000Z</time><speed>17.22222222222222</speed><name>Neunkirchen Am Brand</name><desc>ST2240</desc></trkpt><trkpt lon="11.13842" lat="49.60462"><ele>310.8</ele><time>2009-09-05T09:30:56.000Z</time><speed>14.166666666666666</speed><name>Neunkirchen Am Brand</name><desc>FO28</desc></trkpt><trkpt lon="11.13919" lat="49.60625"><ele>314.9</ele><time>2009-09-05T09:31:08.000Z</time><speed>16.38888888888889</speed><name>Neunkirchen Am Brand</name><desc>FO28 Kleinsendelbacher Straße; 4</desc></trkpt><trkpt lon="11.13752" lat="49.60765"><ele>316.2</ele><time>2009-09-05T09:31:22.000Z</time><speed>18.333333333333332</speed><name>Neunkirchen Am Brand</name><desc>FO28 Gräfenberger Straße; 36</desc></trkpt><trkpt lon="11.13189" lat="49.61299"><ele>316.1</ele><time>2009-09-05T09:32:06.000Z</time><speed>8.61111111111111</speed><name>Neunkirchen Am Brand</name><desc>Gräfenberger Straße; 9</desc></trkpt><trkpt lon="11.12865" lat="49.61388"><ele>317.7</ele><time>2009-09-05T09:32:40.000Z</time><speed>8.88888888888889</speed><name>Neunkirchen Am Brand</name><desc>ST2243 Äußere Markt; 2</desc></trkpt><trkpt lon="11.12739" lat="49.61555"><ele>320.0</ele><time>2009-09-05T09:33:07.000Z</time><speed>9.722222222222221</speed><name>Neunkirchen Am Brand</name><desc>ST2243 Forchheimer Straße; 11</desc></trkpt><trkpt lon="11.11459" lat="49.62837"><ele>351.8</ele><time>2009-09-05T09:34:25.000Z</time><speed>27.5</speed><name>Neunkirchen Am Brand</name><desc>ST2243</desc></trkpt><trkpt lon="11.10467" lat="49.6347"><ele>360.4</ele><time>2009-09-05T09:35:06.000Z</time><speed>19.444444444444443</speed><name>Hetzles</name><desc>ST2243 Honings</desc></trkpt><trkpt lon="11.09964" lat="49.64067"><ele>351.9</ele><time>2009-09-05T09:35:49.000Z</time><speed>18.61111111111111</speed><name>Hetzles</name><desc>ST2243</desc></trkpt><trkpt lon="11.09364" lat="49.64802"><ele>343.6</ele><time>2009-09-05T09:36:33.000Z</time><speed>21.666666666666668</speed><name>Effeltrich</name><desc>ST2243 Neunkirchener Straße</desc></trkpt><trkpt lon="11.09323" lat="49.65754"><ele>300.7</ele><time>2009-09-05T09:37:34.000Z</time><speed>15.833333333333334</speed><name>Effeltrich</name><desc>ST2243 Neunkirchener Straße; 13</desc></trkpt><trkpt lon="11.09111" lat="49.66152"><ele>293.6</ele><time>2009-09-05T09:38:15.000Z</time><speed>14.166666666666666</speed><name>Effeltrich</name><desc>ST2243 Forchheimer Straße; 16</desc></trkpt><trkpt lon="11.08888" lat="49.66964"><ele>306.1</ele><time>2009-09-05T09:39:10.000Z</time><speed>21.944444444444443</speed><name>Effeltrich</name><desc>ST2243</desc></trkpt><trkpt lon="11.08464" lat="49.67144"><ele>310.2</ele><time>2009-09-05T09:39:28.000Z</time><speed>20.0</speed><name>Poxdorf</name><desc>ST2243</desc></trkpt><trkpt lon="11.07841" lat="49.67473"><ele>291.6</ele><time>2009-09-05T09:39:57.000Z</time><speed>23.055555555555557</speed><name>Forchheim</name><desc>ST2243 Kersbacher Straße</desc></trkpt><trkpt lon="11.06794" lat="49.68716"><ele>267.1</ele><time>2009-09-05T09:41:38.000Z</time><speed>24.72222222222222</speed><name>Forchheim</name><desc>ST2243</desc></trkpt><trkpt lon="11.06631" lat="49.70043"><ele>261.0</ele><time>2009-09-05T09:43:26.000Z</time><speed>16.11111111111111</speed><name>Forchheim</name><desc>B470</desc></trkpt><trkpt lon="11.06691" lat="49.70278"><ele>260.3</ele><time>2009-09-05T09:43:43.000Z</time><speed>18.333333333333332</speed><name>Forchheim</name><desc>B470 Willy-Brandt-Allee</desc></trkpt><trkpt lon="11.06767" lat="49.71106"><ele>261.9</ele><time>2009-09-05T09:44:50.000Z</time><speed>14.444444444444445</speed><name>Forchheim</name><desc>B470 Theodor-Heuss-Allee</desc></trkpt><trkpt lon="11.06748" lat="49.71961"><ele>264.1</ele><time>2009-09-05T09:47:34.000Z</time><speed>12.5</speed><name>Forchheim</name><desc>B470 Adenauerallee</desc></trkpt><trkpt lon="11.05806" lat="49.72668"><ele>257.6</ele><time>2009-09-05T09:49:50.000Z</time><speed>13.055555555555555</speed><name>Forchheim</name><desc>Bamberger Straße; 59</desc></trkpt><trkpt lon="11.05664" lat="49.73433"><ele>259.6</ele><time>2009-09-05T09:50:55.000Z</time><speed>15.555555555555555</speed><name>Forchheim</name><desc>Straße ohne Namen</desc></trkpt><trkpt lon="11.05422" lat="49.73665"><ele>261.8</ele><time>2009-09-05T09:51:12.000Z</time><speed>21.666666666666668</speed><name>Forchheim</name><desc>ST2244</desc></trkpt><trkpt lon="11.05484" lat="49.74199"><ele>255.9</ele><time>2009-09-05T09:52:22.000Z</time><speed>23.333333333333332</speed><name>Eggolsheim</name><desc>ST2244</desc></trkpt><trkpt lon="11.01742" lat="49.78724"><ele>250.6</ele><time>2009-09-05T09:56:38.000Z</time><speed>31.38888888888889</speed><name>Altendorf (Bamberg)</name><desc>ST2244</desc></trkpt><trkpt lon="11.01031" lat="49.79799"><ele>250.3</ele><time>2009-09-05T09:57:35.000Z</time><speed>16.11111111111111</speed><name>Altendorf (Bamberg)</name><desc>ST2244 Bamberger Straße; 8</desc></trkpt><trkpt lon="11.00571" lat="49.80588"><ele>249.4</ele><time>2009-09-05T09:58:19.000Z</time><speed>31.11111111111111</speed><name>Altendorf (Bamberg)</name><desc>ST2244</desc></trkpt><trkpt lon="11.0006" lat="49.8091"><ele>247.6</ele><time>2009-09-05T09:58:38.000Z</time><speed>24.72222222222222</speed><name>Hirschaid</name><desc>ST2244</desc></trkpt><trkpt lon="10.99807" lat="49.81097"><ele>246.8</ele><time>2009-09-05T09:58:55.000Z</time><speed>14.166666666666666</speed><name>Hirschaid</name><desc>ST2244 Nürnberger Straße</desc></trkpt><trkpt lon="10.98933" lat="49.81672"><ele>248.7</ele><time>2009-09-05T10:00:17.000Z</time><speed>0.0</speed><name>Hirschaid</name><desc>ST2244 Kirchplatz; 9</desc></trkpt><trkpt lon="10.98881" lat="49.81718"><ele>246.6</ele><time>2009-09-05T10:00:42.000Z</time><speed>10.0</speed><name>Hirschaid</name><desc>ST2244 Bamberger Straße; 1</desc></trkpt><trkpt lon="10.99132" lat="49.81795"><ele>249.6</ele><time>2009-09-05T10:03:38.000Z</time><speed>2.7777777777777777</speed><name>Hirschaid</name><desc>BA27 Maximilianstraße</desc></trkpt><trkpt lon="10.99822" lat="49.82224"><ele>255.1</ele><time>2009-09-05T10:05:10.000Z</time><speed>16.38888888888889</speed><name>Hirschaid</name><desc>Straße ohne Namen</desc></trkpt><trkpt lon="10.99002" lat="49.82886"><ele>250.8</ele><time>2009-09-05T10:06:21.000Z</time><speed>16.38888888888889</speed><name>Hirschaid</name><desc>BA25 Amlingstadter Straße; 47</desc></trkpt><trkpt lon="10.9868" lat="49.83021"><ele>249.9</ele><time>2009-09-05T10:06:34.000Z</time><speed>18.333333333333332</speed><name>Hirschaid</name><desc>BA25</desc></trkpt><trkpt lon="10.9836" lat="49.83083"><ele>248.6</ele><time>2009-09-05T10:06:48.000Z</time><speed>17.77777777777778</speed><name>Hirschaid</name><desc>BA25 Jägerstraße; 8</desc></trkpt><trkpt lon="10.97768" lat="49.83362"><ele>245.8</ele><time>2009-09-05T10:07:42.000Z</time><speed>16.38888888888889</speed><name>Strullendorf</name><desc>ST2244</desc></trkpt><trkpt lon="10.9724" lat="49.84117"><ele>248.1</ele><time>2009-09-05T10:08:30.000Z</time><speed>12.5</speed><name>Strullendorf</name><desc>ST2244 Forchheimer Straße; 6</desc></trkpt><trkpt lon="10.96774" lat="49.8453"><ele>247.5</ele><time>2009-09-05T10:09:12.000Z</time><speed>5.277777777777778</speed><name>Strullendorf</name><desc>ST2244 Bamberger Straße; 4</desc></trkpt><trkpt lon="10.96229" lat="49.84841"><ele>251.2</ele><time>2009-09-05T10:09:56.000Z</time><speed>18.333333333333332</speed><name>Strullendorf</name><desc>ST2244</desc></trkpt><trkpt lon="10.94687" lat="49.86634"><ele>255.0</ele><time>2009-09-05T10:11:20.000Z</time><speed>24.72222222222222</speed><name>Bug (Bamberg)</name><desc>B22</desc></trkpt><trkpt lon="10.92844" lat="49.87833"><ele>245.9</ele><time>2009-09-05T10:13:13.000Z</time><speed>11.11111111111111</speed><name>Bamberg</name><desc>B22 Nürnberger Straße</desc></trkpt><trkpt lon="10.92243" lat="49.88362"><ele>245.3</ele><time>2009-09-05T10:13:59.000Z</time><speed>18.333333333333332</speed><name>Bamberg</name><desc>B22 Berliner Ring</desc></trkpt><trkpt lon="10.92208" lat="49.88904"><ele>252.0</ele><time>2009-09-05T10:14:39.000Z</time><speed>1.6666666666666667</speed><name>Bamberg</name><desc>ST2244 Berliner Ring</desc></trkpt><trkpt lon="10.90528" lat="49.91532"><ele>251.2</ele><time>2009-09-05T10:19:23.000Z</time><speed>19.444444444444443</speed><name>Hallstadt</name><desc>ST2244 Berliner Ring</desc></trkpt><trkpt lon="10.89881" lat="49.92399"><ele>255.4</ele><time>2009-09-05T10:20:38.000Z</time><speed>0.0</speed><name>Hallstadt</name><desc>ST2244</desc></trkpt><trkpt lon="10.89859" lat="49.92612"><ele>250.3</ele><time>2009-09-05T10:21:18.000Z</time><speed>18.61111111111111</speed><name>Hallstadt</name><desc>Straße ohne Namen</desc></trkpt><trkpt lon="10.88556" lat="49.93579"><ele>248.6</ele><time>2009-09-05T10:22:23.000Z</time><speed>22.77777777777778</speed><name>Hallstadt</name><desc>BA5</desc></trkpt><trkpt lon="10.8844" lat="49.93834"><ele>240.4</ele><time>2009-09-05T10:22:36.000Z</time><speed>24.166666666666668</speed><name>Hallstadt</name><desc>B4</desc></trkpt><trkpt lon="10.88607" lat="49.95863"><ele>246.4</ele><time>2009-09-05T10:24:03.000Z</time><speed>22.77777777777778</speed><name>Kemmern</name><desc>B4</desc></trkpt><trkpt lon="10.88464" lat="49.96262"><ele>243.5</ele><time>2009-09-05T10:24:33.000Z</time><speed>6.944444444444445</speed><name>Breitengüßbach</name><desc>B4</desc></trkpt><trkpt lon="10.88387" lat="49.9643"><ele>243.3</ele><time>2009-09-05T10:24:55.000Z</time><speed>15.0</speed><name>Breitengüßbach</name><desc>B4 Bamberger Straße; 73</desc></trkpt><trkpt lon="10.88696" lat="49.97268"><ele>246.1</ele><time>2009-09-05T10:26:34.000Z</time><speed>14.722222222222221</speed><name>Breitengüßbach</name><desc>B4 Lichtenfelser Straße; 16</desc></trkpt><trkpt lon="10.88763" lat="49.97796"><ele>239.3</ele><time>2009-09-05T10:27:16.000Z</time><speed>20.833333333333332</speed><name>Breitengüßbach</name><desc>B4</desc></trkpt><trkpt lon="10.88387" lat="49.98696"><ele>238.2</ele><time>2009-09-05T10:28:12.000Z</time><speed>18.055555555555557</speed><name>Breitengüßbach</name><desc>B4 Bamberger Straße; 181</desc></trkpt><trkpt lon="10.88355" lat="49.98964"><ele>237.5</ele><time>2009-09-05T10:28:28.000Z</time><speed>19.166666666666668</speed><name>Breitengüßbach</name><desc>B4</desc></trkpt><trkpt lon="10.88191" lat="50.0283"><ele>247.3</ele><time>2009-09-05T10:31:28.000Z</time><speed>30.555555555555557</speed><name>Rattelsdorf</name><desc>B4</desc></trkpt><trkpt lon="10.86988" lat="50.0658"><ele>253.9</ele><time>2009-09-05T10:34:15.000Z</time><speed>18.61111111111111</speed><name>Rattelsdorf</name><desc>B4 Hilkersdorf; 8</desc></trkpt><trkpt lon="10.86788" lat="50.06758"><ele>254.3</ele><time>2009-09-05T10:34:29.000Z</time><speed>15.833333333333334</speed><name>Rattelsdorf</name><desc>B4</desc></trkpt><trkpt lon="10.86609" lat="50.09459"><ele>261.3</ele><time>2009-09-05T10:36:40.000Z</time><speed>29.72222222222222</speed><name>Lahm (Itzgrund)</name><desc>B4</desc></trkpt><trkpt lon="10.86926" lat="50.10881"><ele>258.6</ele><time>2009-09-05T10:37:36.000Z</time><speed>30.833333333333332</speed><name>Itzgrund</name><desc>B4</desc></trkpt><trkpt lon="10.93174" lat="50.15919"><ele>267.6</ele><time>2009-09-05T10:42:10.000Z</time><speed>30.555555555555557</speed><name>Großheirath</name><desc>B4</desc></trkpt><trkpt lon="10.95475" lat="50.18845"><ele>277.6</ele><time>2009-09-05T10:44:19.000Z</time><speed>15.277777777777779</speed><name>Coburg</name><desc>B4</desc></trkpt><trkpt lon="10.9577" lat="50.18538"><ele>278.1</ele><time>2009-09-05T10:45:00.000Z</time><speed>13.333333333333334</speed><name>Untersiemau</name><desc>B289</desc></trkpt><trkpt lon="10.96064" lat="50.19192"><ele>280.3</ele><time>2009-09-05T10:45:38.000Z</time><speed>16.666666666666668</speed><name>Untersiemau</name><desc>CO12 Großheirather Straße</desc></trkpt><trkpt lon="10.96638" lat="50.19687"><ele>293.4</ele><time>2009-09-05T10:46:41.000Z</time><speed>15.0</speed><name>Untersiemau</name><desc>B289</desc></trkpt><trkpt lon="10.97344" lat="50.20654"><ele>280.6</ele><time>2009-09-05T10:47:34.000Z</time><speed>27.22222222222222</speed><name>Coburg</name><desc>B4</desc></trkpt><trkpt lon="10.9807" lat="50.22464"><ele>280.5</ele><time>2009-09-05T10:48:56.000Z</time><speed>29.166666666666668</speed><name>Coburg</name><desc>B303/B4 Weichengereuth</desc></trkpt><trkpt lon="10.9758" lat="50.2343"><ele>284.7</ele><time>2009-09-05T10:49:34.000Z</time><speed>31.38888888888889</speed><name>Coburg</name><desc>B4 Weichengereuth</desc></trkpt><trkpt lon="10.96455" lat="50.24407"><ele>290.2</ele><time>2009-09-05T10:50:37.000Z</time><speed>15.555555555555555</speed><name>Wüstenahorn</name><desc>B4 Weichengereuth</desc></trkpt><trkpt lon="10.95906" lat="50.25021"><ele>290.3</ele><time>2009-09-05T10:51:32.000Z</time><speed>14.722222222222221</speed><name>Coburg</name><desc>B4 Weichengereuth; 13</desc></trkpt><trkpt lon="10.9582" lat="50.25687"><ele>294.2</ele><time>2009-09-05T10:52:18.000Z</time><speed>19.166666666666668</speed><name>Coburg</name><desc>B4 Neuer Weg</desc></trkpt><trkpt lon="10.95562" lat="50.27042"><ele>302.6</ele><time>2009-09-05T10:53:32.000Z</time><speed>21.11111111111111</speed><name>Coburg</name><desc>B4 Adarnistraße</desc></trkpt><trkpt lon="10.95636" lat="50.2756"><ele>305.1</ele><time>2009-09-05T10:54:00.000Z</time><speed>21.11111111111111</speed><name>Coburg</name><desc>B4</desc></trkpt><trkpt lon="10.97619" lat="50.28604"><ele>317.4</ele><time>2009-09-05T10:55:09.000Z</time><speed>20.27777777777778</speed><name>Lautertal</name><desc>B4</desc></trkpt><trkpt lon="10.97688" lat="50.29063"><ele>323.7</ele><time>2009-09-05T10:56:05.000Z</time><speed>16.944444444444443</speed><name>Lautertal</name><desc>B4</desc></trkpt><trkpt lon="10.9782" lat="50.2947"><ele>320.7</ele><time>2009-09-05T10:56:36.000Z</time><speed>16.11111111111111</speed><name>Unterlauter</name><desc>B4 Coburger Straße</desc></trkpt><trkpt lon="10.97852" lat="50.30186"><ele>325.4</ele><time>2009-09-05T10:57:58.000Z</time><speed>14.444444444444445</speed><name>Lautertal</name><desc>B4 Coburger Straße; 1</desc></trkpt><trkpt lon="10.97947" lat="50.30863"><ele>324.1</ele><time>2009-09-05T10:58:53.000Z</time><speed>14.166666666666666</speed><name>Oberlauter</name><desc>B4 Frankenstraße; 24</desc></trkpt><trkpt lon="10.97213" lat="50.32083"><ele>340.8</ele><time>2009-09-05T11:00:37.000Z</time><speed>23.055555555555557</speed><name>Lautertal</name><desc>B4 Thüringer Straße</desc></trkpt><trkpt lon="10.96497" lat="50.34254"><ele>375.1</ele><time>2009-09-05T11:02:32.000Z</time><speed>28.88888888888889</speed><name>Lautertal</name><desc>B4</desc></trkpt><trkpt lon="10.96654" lat="50.34744"><ele>362.5</ele><time>2009-09-05T11:03:03.000Z</time><speed>16.944444444444443</speed><name>Lautertal</name><desc>B4 Eisfelder Straße; 12</desc></trkpt><trkpt lon="10.95862" lat="50.35341"><ele>377.9</ele><time>2009-09-05T11:04:01.000Z</time><speed>15.0</speed><name>Lautertal</name><desc>B4 Tremersdorf</desc></trkpt><trkpt lon="10.9469" lat="50.36065"><ele>393.6</ele><time>2009-09-05T11:05:31.000Z</time><speed>0.0</speed><name>1094690:5036065</name></trkpt><trkpt lon="10.93241" lat="50.37895"><ele>462.1</ele><time>2009-09-05T11:14:02.000Z</time><speed>28.61111111111111</speed><name>Lautertal</name><desc>B4</desc></trkpt><trkpt lon="10.92165" lat="50.39539"><ele>473.1</ele><time>2009-09-05T11:15:41.000Z</time><speed>20.555555555555557</speed><name>Eisfeld</name><desc>B4</desc></trkpt><trkpt lon="10.92066" lat="50.40905"><ele>440.4</ele><time>2009-09-05T11:17:10.000Z</time><speed>20.27777777777778</speed><name>Eisfeld</name><desc>B4 Coburger Straße</desc></trkpt><trkpt lon="10.90761" lat="50.42326"><ele>444.1</ele><time>2009-09-05T11:19:43.000Z</time><speed>6.666666666666667</speed><name>Eisfeld</name><desc>B89 Georgstraße; 27</desc></trkpt><trkpt lon="10.90524" lat="50.42627"><ele>445.9</ele><time>2009-09-05T11:20:29.000Z</time><speed>9.166666666666666</speed><name>Eisfeld</name><desc>Justus-Jonas-Straße; 1</desc></trkpt><trkpt lon="10.90022" lat="50.43127"><ele>463.1</ele><time>2009-09-05T11:21:23.000Z</time><speed>17.22222222222222</speed><name>Eisfeld</name><desc>Schleusinger Straße</desc></trkpt><trkpt lon="10.89756" lat="50.43217"><ele>457.7</ele><time>2009-09-05T11:21:37.000Z</time><speed>13.055555555555555</speed><name>Eisfeld</name><desc>Straße ohne Namen</desc></trkpt><trkpt lon="10.88932" lat="50.43419"><ele>458.9</ele><time>2009-09-05T11:22:17.000Z</time><speed>21.666666666666668</speed><name>Eisfeld</name><desc>B4</desc></trkpt><trkpt lon="10.88558" lat="50.43528"><ele>451.6</ele><time>2009-09-05T11:22:32.000Z</time><speed>16.944444444444443</speed><name>Auengrund</name><desc>B4</desc></trkpt><trkpt lon="10.8697" lat="50.44214"><ele>436.0</ele><time>2009-09-05T11:23:45.000Z</time><speed>21.11111111111111</speed><name>Brünn/Thüringen</name><desc>B4</desc></trkpt><trkpt lon="10.85818" lat="50.44781"><ele>426.9</ele><time>2009-09-05T11:24:35.000Z</time><speed>14.722222222222221</speed><name>Brünn/Thüringen</name><desc>B4 Eisfelder Straße; 13</desc></trkpt><trkpt lon="10.85691" lat="50.45074"><ele>417.5</ele><time>2009-09-05T11:25:00.000Z</time><speed>16.666666666666668</speed><name>Brünn/Thüringen</name><desc>B4 Schleusinger Straße; 3</desc></trkpt><trkpt lon="10.85654" lat="50.45297"><ele>420.5</ele><time>2009-09-05T11:25:15.000Z</time><speed>16.944444444444443</speed><name>Brünn/Thüringen</name><desc>B4</desc></trkpt><trkpt lon="10.85601" lat="50.45861"><ele>431.6</ele><time>2009-09-05T11:25:45.000Z</time><speed>26.944444444444443</speed><name>Auengrund</name><desc>B4</desc></trkpt><trkpt lon="10.85375" lat="50.4633"><ele>440.7</ele><time>2009-09-05T11:26:03.000Z</time><speed>28.055555555555557</speed><name>Auengrund</name><desc>B4 Schleusinger Straße</desc></trkpt><trkpt lon="10.8409" lat="50.4795"><ele>469.4</ele><time>2009-09-05T11:28:30.000Z</time><speed>15.277777777777779</speed><name>Auengrund</name><desc>K523</desc></trkpt><trkpt lon="10.83464" lat="50.4895"><ele>497.0</ele><time>2009-09-05T11:29:16.000Z</time><speed>29.72222222222222</speed><name>Auengrund</name><desc>K523 Lichtenauer Straße</desc></trkpt><trkpt lon="10.83107" lat="50.49286"><ele>487.7</ele><time>2009-09-05T11:29:34.000Z</time><speed>31.38888888888889</speed><name>Auengrund</name><desc>K523</desc></trkpt><trkpt lon="10.83526" lat="50.50527"><ele>420.2</ele><time>2009-09-05T11:31:28.000Z</time><speed>10.0</speed><name>Nahetal-Waldau</name><desc>L2637 Am Hammerstein; 4</desc></trkpt><trkpt lon="10.83487" lat="50.50666"><ele>431.4</ele><time>2009-09-05T11:31:39.000Z</time><speed>17.77777777777778</speed><name>Nahetal-Waldau</name><desc>K519 Hohe Straße</desc></trkpt><trkpt lon="10.83738" lat="50.51833"><ele>541.9</ele><time>2009-09-05T11:33:06.000Z</time><speed>22.77777777777778</speed><name>Schleusegrund</name><desc>K519</desc></trkpt><trkpt lon="10.84434" lat="50.52282"><ele>586.1</ele><time>2009-09-05T11:33:47.000Z</time><speed>12.5</speed><name>Schleusegrund</name><desc>K519 Neue Hauptstraße; 9</desc></trkpt><trkpt lon="10.84733" lat="50.5259"><ele>626.4</ele><time>2009-09-05T11:34:24.000Z</time><speed>15.0</speed><name>Schleusegrund</name><desc>Neue Hauptstraße; 39</desc></trkpt><trkpt lon="10.84821" lat="50.52745"><ele>645.2</ele><time>2009-09-05T11:34:35.000Z</time><speed>20.27777777777778</speed><name>Schleusegrund</name><desc>Straße ohne Namen</desc></trkpt><trkpt lon="10.85826" lat="50.53201"><ele>726.9</ele><time>2009-09-05T11:35:21.000Z</time><speed>14.444444444444445</speed><name>Nahetal-Waldau</name><desc>Straße ohne Namen</desc></trkpt><trkpt lon="10.85966" lat="50.54107"><ele>738.0</ele><time>2009-09-05T11:36:16.000Z</time><speed>13.88888888888889</speed><name>Nahetal-Waldau</name><desc>Hohe Straße</desc></trkpt><trkpt lon="10.86547" lat="50.55694"><ele>761.5</ele><time>2009-09-05T11:37:56.000Z</time><speed>18.333333333333332</speed><name>Frauenwald</name><desc>Hohe Straße</desc></trkpt><trkpt lon="10.85839" lat="50.57652"><ele>755.4</ele><time>2009-09-05T11:40:05.000Z</time><speed>13.055555555555555</speed><name>Frauenwald</name><desc>Südstraße; 53</desc></trkpt><trkpt lon="10.85985" lat="50.58198"><ele>740.0</ele><time>2009-09-05T11:40:47.000Z</time><speed>16.11111111111111</speed><name>Frauenwald</name><desc>K57 Südstraße; 5</desc></trkpt><trkpt lon="10.85949" lat="50.58418"><ele>751.4</ele><time>2009-09-05T11:41:03.000Z</time><speed>15.0</speed><name>Frauenwald</name><desc>K57 Nordstraße; 24</desc></trkpt><trkpt lon="10.8567" lat="50.59552"><ele>764.9</ele><time>2009-09-05T11:42:30.000Z</time><speed>16.11111111111111</speed><name>Frauenwald</name><desc>L2649 Nordstraße</desc></trkpt><trkpt lon="10.84288" lat="50.60344"><ele>768.6</ele><time>2009-09-05T11:43:33.000Z</time><speed>26.38888888888889</speed><name>Schmiedefeld Am Rennsteig</name><desc>L2649 Nordstraße</desc></trkpt><trkpt lon="10.84231" lat="50.60713"><ele>763.1</ele><time>2009-09-05T11:43:52.000Z</time><speed>22.77777777777778</speed><name>Schmiedefeld Am Rennsteig</name><desc>L1141</desc></trkpt><trkpt lon="10.84296" lat="50.61057"><ele>757.3</ele><time>2009-09-05T11:44:09.000Z</time><speed>15.277777777777779</speed><name>Schmiedefeld Am Rennsteig</name><desc>L1141 Rennsteig; 4</desc></trkpt><trkpt lon="10.82934" lat="50.61905"><ele>760.4</ele><time>2009-09-05T11:45:36.000Z</time><speed>15.0</speed><name>Schmiedefeld Am Rennsteig</name><desc>L2632</desc></trkpt><trkpt lon="10.78809" lat="50.62803"><ele>825.3</ele><time>2009-09-05T11:49:01.000Z</time><speed>21.11111111111111</speed><name>Schmiedefeld Am Rennsteig</name><desc>L2632 Schmückestraße</desc></trkpt><trkpt lon="10.77566" lat="50.63768"><ele>828.9</ele><time>2009-09-05T11:50:11.000Z</time><speed>20.0</speed><name>Gehlberg</name><desc>L2632</desc></trkpt><trkpt lon="10.77283" lat="50.65436"><ele>925.1</ele><time>2009-09-05T11:51:50.000Z</time><speed>19.166666666666668</speed><name>Gehlberg</name><desc>L1129</desc></trkpt><trkpt lon="10.76785" lat="50.65545"><ele>946.0</ele><time>2009-09-05T11:52:19.000Z</time><speed>19.72222222222222</speed><name>Gehlberg</name><desc>L1129 Schmücker Straße; 8</desc></trkpt><trkpt lon="10.76275" lat="50.65582"><ele>938.5</ele><time>2009-09-05T11:52:37.000Z</time><speed>22.5</speed><name>Gehlberg</name><desc>L1129</desc></trkpt><trkpt lon="10.73693" lat="50.66686"><ele>922.7</ele><time>2009-09-05T11:54:46.000Z</time><speed>22.5</speed><name>Zella-Mehlis</name><desc>L1129</desc></trkpt><trkpt lon="10.73189" lat="50.68794"><ele>843.5</ele><time>2009-09-05T11:56:38.000Z</time><speed>20.555555555555557</speed><name>Oberhof (Schmalkalden-Meiningen)</name><desc>L1129</desc></trkpt><trkpt lon="10.72203" lat="50.69716"><ele>822.0</ele><time>2009-09-05T11:58:33.000Z</time><speed>15.277777777777779</speed><name>Oberhof (Schmalkalden-Meiningen)</name><desc>L3247</desc></trkpt><trkpt lon="10.72364" lat="50.71916"><ele>765.9</ele><time>2009-09-05T12:01:06.000Z</time><speed>19.72222222222222</speed><name>Oberhof (Schmalkalden-Meiningen)</name><desc>L3247 Wegscheide</desc></trkpt><trkpt lon="10.74165" lat="50.74329"><ele>702.4</ele><time>2009-09-05T12:03:17.000Z</time><speed>22.5</speed><name>Crawinkel</name><desc>L3247</desc></trkpt><trkpt lon="10.74152" lat="50.75624"><ele>620.1</ele><time>2009-09-05T12:04:10.000Z</time><speed>28.333333333333332</speed><name>Schwarzwald (Luisenthal)</name><desc>L3247 Friedrich-Engels-Straße</desc></trkpt><trkpt lon="10.73073" lat="50.76781"><ele>470.0</ele><time>2009-09-05T12:05:52.000Z</time><speed>16.944444444444443</speed><name>Schwarzwald (Luisenthal)</name><desc>L3247 Siegelbachstraße</desc></trkpt><trkpt lon="10.72881" lat="50.76936"><ele>464.6</ele><time>2009-09-05T12:06:09.000Z</time><speed>11.666666666666666</speed><name>Schwarzwald (Luisenthal)</name><desc>L3247 Friedrich-Engels-Straße; 67</desc></trkpt><trkpt lon="10.72649" lat="50.77664"><ele>449.9</ele><time>2009-09-05T12:07:16.000Z</time><speed>16.38888888888889</speed><name>Luisenthal</name><desc>L3247 Friedrich-Engels-Straße; 14</desc></trkpt><trkpt lon="10.72452" lat="50.77849"><ele>448.3</ele><time>2009-09-05T12:07:31.000Z</time><speed>16.666666666666668</speed><name>Luisenthal</name><desc>L3247 Karl-Marx-Straße</desc></trkpt><trkpt lon="10.72797" lat="50.79537"><ele>420.5</ele><time>2009-09-05T12:09:42.000Z</time><speed>0.0</speed><name>Ohrdruf</name><desc>L3247 Suhler Straße</desc></trkpt><trkpt lon="10.73078" lat="50.81469"><ele>390.2</ele><time>2009-09-05T12:13:01.000Z</time><speed>16.944444444444443</speed><name>Ohrdruf</name><desc>B247/B88</desc></trkpt><trkpt lon="10.72266" lat="50.8284"><ele>371.6</ele><time>2009-09-05T12:14:18.000Z</time><speed>17.77777777777778</speed><name>Ohrdruf</name><desc>B247</desc></trkpt><trkpt lon="10.71869" lat="50.84035"><ele>356.0</ele><time>2009-09-05T12:15:33.000Z</time><speed>19.444444444444443</speed><name>Hohenkirchen (Gotha)</name><desc>B247</desc></trkpt><trkpt lon="10.72317" lat="50.86791"><ele>371.2</ele><time>2009-09-05T12:18:55.000Z</time><speed>16.38888888888889</speed><name>Schwabhausen (Gotha)</name><desc>B247</desc></trkpt><trkpt lon="10.72818" lat="50.88687"><ele>333.0</ele><time>2009-09-05T12:20:49.000Z</time><speed>11.666666666666666</speed><name>Schwabhausen (Gotha)</name><desc>B247 Gothaer Straße; 23</desc></trkpt><trkpt lon="10.72793" lat="50.8909"><ele>333.2</ele><time>2009-09-05T12:22:41.000Z</time><speed>10.555555555555555</speed><name>Schwabhausen (Gotha)</name><desc>An Der B247</desc></trkpt><trkpt lon="10.72834" lat="50.90017"><ele>343.8</ele><time>2009-09-05T12:25:00.000Z</time><speed>11.11111111111111</speed><name>Schwabhausen (Gotha)</name><desc>B247</desc></trkpt><trkpt lon="10.7272" lat="50.90922"><ele>331.0</ele><time>2009-09-05T12:26:47.000Z</time><speed>26.944444444444443</speed><name>Gotha</name><desc>B247</desc></trkpt><trkpt lon="10.72289" lat="50.92131"><ele>315.9</ele><time>2009-09-05T12:30:40.000Z</time><speed>16.11111111111111</speed><name>Gotha</name><desc>B247 Ohrdrufer Straße</desc></trkpt><trkpt lon="10.71657" lat="50.9406"><ele>293.1</ele><time>2009-09-05T12:33:09.000Z</time><speed>14.722222222222221</speed><name>Gotha</name><desc>B247 Enckestraße</desc></trkpt><trkpt lon="10.71721" lat="50.9425"><ele>293.5</ele><time>2009-09-05T12:33:24.000Z</time><speed>12.222222222222221</speed><name>Gotha</name><desc>B7 Enckestraße</desc></trkpt><trkpt lon="10.71554" lat="50.94318"><ele>299.7</ele><time>2009-09-05T12:33:53.000Z</time><speed>3.888888888888889</speed><name>Gotha</name><desc>Reyherstraße; 11</desc></trkpt><trkpt lon="10.71194" lat="50.94395"><ele>309.2</ele><time>2009-09-05T12:34:38.000Z</time><speed>11.38888888888889</speed><name>Gotha</name><desc>Mozartstraße; 4</desc></trkpt><trkpt lon="10.71076" lat="50.94503"><ele>309.9</ele><time>2009-09-05T12:34:52.000Z</time><speed>10.555555555555555</speed><name>Gotha</name><desc>Friedrichstraße; 19</desc></trkpt><trkpt lon="10.70782" lat="50.95136"><ele>292.9</ele><time>2009-09-05T12:37:09.000Z</time><speed>11.944444444444445</speed><name>Gotha</name><desc>B7 Huttenstraße; 4</desc></trkpt><trkpt lon="10.70881" lat="50.95361"><ele>283.6</ele><time>2009-09-05T12:37:36.000Z</time><speed>10.0</speed><name>Gotha</name><desc>Hersdorfstraße; 7</desc></trkpt><trkpt lon="10.70864" lat="50.95826"><ele>288.1</ele><time>2009-09-05T12:38:57.000Z</time><speed>9.444444444444445</speed><name>Gotha</name><desc>B247 Langensalzaer Straße; 25</desc></trkpt><trkpt lon="10.69667" lat="50.97604"><ele>282.7</ele><time>2009-09-05T12:41:14.000Z</time><speed>24.72222222222222</speed><name>Remstädt</name><desc>B247</desc></trkpt><trkpt lon="10.69233" lat="50.98676"><ele>294.7</ele><time>2009-09-05T12:42:12.000Z</time><speed>22.5</speed><name>Warza</name><desc>B247</desc></trkpt><trkpt lon="10.68758" lat="50.99609"><ele>274.9</ele><time>2009-09-05T12:43:27.000Z</time><speed>10.833333333333334</speed><name>Warza</name><desc>B247/L2123 Langensalzaer Straße; 11</desc></trkpt><trkpt lon="10.68724" lat="50.99882"><ele>276.5</ele><time>2009-09-05T12:43:52.000Z</time><speed>15.555555555555555</speed><name>Warza</name><desc>B247 Langensalzaer Straße</desc></trkpt><trkpt lon="10.68505" lat="51.00976"><ele>273.9</ele><time>2009-09-05T12:44:49.000Z</time><speed>23.88888888888889</speed><name>Westhausen (Gotha)</name><desc>B247 Langensalzaer Straße</desc></trkpt><trkpt lon="10.68261" lat="51.01813"><ele>288.0</ele><time>2009-09-05T12:45:45.000Z</time><speed>19.72222222222222</speed><name>Warza</name><desc>B247</desc></trkpt><trkpt lon="10.65213" lat="51.05522"><ele>299.7</ele><time>2009-09-05T12:48:49.000Z</time><speed>21.944444444444443</speed><name>Bad Langensalza</name><desc>B247</desc></trkpt><trkpt lon="10.64307" lat="51.0916"><ele>239.1</ele><time>2009-09-05T12:52:13.000Z</time><speed>7.777777777777778</speed><name>Bad Langensalza</name><desc>B247/B84</desc></trkpt><trkpt lon="10.64381" lat="51.09626"><ele>215.8</ele><time>2009-09-05T12:52:52.000Z</time><speed>22.22222222222222</speed><name>Bad Langensalza</name><desc>B84</desc></trkpt><trkpt lon="10.64492" lat="51.09876"><ele>210.8</ele><time>2009-09-05T12:53:06.000Z</time><speed>16.38888888888889</speed><name>Bad Langensalza</name><desc>B84 Gothaer Landstraße</desc></trkpt><trkpt lon="10.64761" lat="51.10553"><ele>188.7</ele><time>2009-09-05T12:57:18.000Z</time><speed>11.944444444444445</speed><name>Bad Langensalza</name><desc>B84 Gothaer Straße</desc></trkpt><trkpt lon="10.64946" lat="51.10671"><ele>185.0</ele><time>2009-09-05T12:57:32.000Z</time><speed>12.5</speed><name>Bad Langensalza</name><desc>B84 Erfurter Straße; 21</desc></trkpt><trkpt lon="10.65274" lat="51.10813"><ele>186.3</ele><time>2009-09-05T12:58:11.000Z</time><speed>12.5</speed><name>Bad Langensalza</name><desc>B84 Tennstedter Straße</desc></trkpt><trkpt lon="10.65585" lat="51.11262"><ele>182.9</ele><time>2009-09-05T12:58:51.000Z</time><speed>15.0</speed><name>Bad Langensalza</name><desc>B84 Sondershäuser Straße</desc></trkpt><trkpt lon="10.65768" lat="51.11331"><ele>182.1</ele><time>2009-09-05T12:59:04.000Z</time><speed>13.88888888888889</speed><name>Bad Langensalza</name><desc>B176/B84 Sondershäuser Straße; 3</desc></trkpt><trkpt lon="10.67106" lat="51.12128"><ele>173.9</ele><time>2009-09-05T13:00:12.000Z</time><speed>15.555555555555555</speed><name>Bad Langensalza</name><desc>B176/B84 Hauptstraße</desc></trkpt><trkpt lon="10.67226" lat="51.12422"><ele>181.1</ele><time>2009-09-05T13:00:41.000Z</time><speed>14.444444444444445</speed><name>Bad Langensalza</name><desc>B176/B84 Am Anger; 21</desc></trkpt><trkpt lon="10.67434" lat="51.1249"><ele>179.5</ele><time>2009-09-05T13:00:54.000Z</time><speed>15.0</speed><name>Bad Langensalza</name><desc>B84 Kirchheilinger Straße; 5</desc></trkpt><trkpt lon="10.67834" lat="51.13055"><ele>194.1</ele><time>2009-09-05T13:01:36.000Z</time><speed>21.11111111111111</speed><name>Bad Langensalza</name><desc>B84</desc></trkpt><trkpt lon="10.68504" lat="51.15686"><ele>282.2</ele><time>2009-09-05T13:03:33.000Z</time><speed>18.055555555555557</speed><name>Kirchheilingen</name><desc>B84</desc></trkpt><trkpt lon="10.70901" lat="51.18174"><ele>254.4</ele><time>2009-09-05T13:06:42.000Z</time><speed>15.833333333333334</speed><name>Kirchheilingen</name><desc>B84 Langensalzaer Straße</desc></trkpt><trkpt lon="10.71021" lat="51.18906"><ele>286.6</ele><time>2009-09-05T13:07:28.000Z</time><speed>27.77777777777778</speed><name>Kirchheilingen</name><desc>B84</desc></trkpt><trkpt lon="10.71585" lat="51.21315"><ele>310.5</ele><time>2009-09-05T13:09:13.000Z</time><speed>29.72222222222222</speed><name>Ebeleben</name><desc>B84</desc></trkpt><trkpt lon="10.72842" lat="51.22617"><ele>348.4</ele><time>2009-09-05T13:10:35.000Z</time><speed>28.61111111111111</speed><name>Ebeleben</name><desc>B84 Angerweg</desc></trkpt><trkpt lon="10.73577" lat="51.23548"><ele>316.3</ele><time>2009-09-05T13:11:28.000Z</time><speed>15.277777777777779</speed><name>Ebeleben</name><desc>B84 Neues Tor; 6</desc></trkpt><trkpt lon="10.73701" lat="51.24038"><ele>291.5</ele><time>2009-09-05T13:11:57.000Z</time><speed>29.166666666666668</speed><name>Ebeleben</name><desc>B84</desc></trkpt><trkpt lon="10.73805" lat="51.25349"><ele>273.5</ele><time>2009-09-05T13:12:49.000Z</time><speed>28.61111111111111</speed><name>Abtsbessingen</name><desc>B84</desc></trkpt><trkpt lon="10.73902" lat="51.26175"><ele>258.6</ele><time>2009-09-05T13:13:25.000Z</time><speed>14.166666666666666</speed><name>Abtsbessingen</name><desc>B84 Billeber Hauptstraße; 1</desc></trkpt><trkpt lon="10.73853" lat="51.26904"><ele>262.2</ele><time>2009-09-05T13:14:09.000Z</time><speed>29.166666666666668</speed><name>Abtsbessingen</name><desc>B84</desc></trkpt><trkpt lon="10.73926" lat="51.27997"><ele>259.9</ele><time>2009-09-05T13:15:03.000Z</time><speed>11.11111111111111</speed><name>Ebeleben</name><desc>B249 Sondershäuser Straße</desc></trkpt><trkpt lon="10.73918" lat="51.28367"><ele>236.0</ele><time>2009-09-05T13:15:32.000Z</time><speed>16.666666666666668</speed><name>Marksußra</name><desc>B249 Sondershäuser Straße</desc></trkpt><trkpt lon="10.74534" lat="51.29073"><ele>231.4</ele><time>2009-09-05T13:16:52.000Z</time><speed>17.77777777777778</speed><name>Marksußra</name><desc>B249</desc></trkpt><trkpt lon="10.75506" lat="51.29461"><ele>262.7</ele><time>2009-09-05T13:17:34.000Z</time><speed>28.88888888888889</speed><name>Ebeleben</name><desc>B249</desc></trkpt><trkpt lon="10.77194" lat="51.30042"><ele>279.4</ele><time>2009-09-05T13:18:49.000Z</time><speed>12.222222222222221</speed><name>Ebeleben</name><desc>B249 Sondershäuser Landstraße; 49</desc></trkpt><trkpt lon="10.7748" lat="51.3032"><ele>267.9</ele><time>2009-09-05T13:19:14.000Z</time><speed>23.055555555555557</speed><name>Ebeleben</name><desc>B249</desc></trkpt><trkpt lon="10.78185" lat="51.30724"><ele>263.1</ele><time>2009-09-05T13:19:43.000Z</time><speed>21.38888888888889</speed><name>Sondershausen</name><desc>B249</desc></trkpt><trkpt lon="10.82571" lat="51.33821"><ele>288.8</ele><time>2009-09-05T13:23:47.000Z</time><speed>4.722222222222222</speed><name>Sondershausen</name><desc>B4</desc></trkpt><trkpt lon="10.80186" lat="51.42662"><ele>314.8</ele><time>2009-09-05T13:32:20.000Z</time><speed>30.833333333333332</speed><name>Kleinfurra</name><desc>B4</desc></trkpt><trkpt lon="10.78294" lat="51.44799"><ele>262.9</ele><time>2009-09-05T13:34:38.000Z</time><speed>13.333333333333334</speed><name>Nordhausen</name><desc>B4</desc></trkpt><trkpt lon="10.80866" lat="51.4717"><ele>175.6</ele><time>2009-09-05T13:39:04.000Z</time><speed>16.11111111111111</speed><name>Nordhausen</name><desc>B4 Sondershäuser Straße</desc></trkpt><trkpt lon="10.80979" lat="51.47389"><ele>174.1</ele><time>2009-09-05T13:39:34.000Z</time><speed>11.38888888888889</speed><name>Nordhausen</name><desc>B4 Helmestraße</desc></trkpt><trkpt lon="10.80128" lat="51.49193"><ele>187.5</ele><time>2009-09-05T13:43:25.000Z</time><speed>11.944444444444445</speed><name>Nordhausen</name><desc>B4 Sondershäuser Straße</desc></trkpt><trkpt lon="10.80161" lat="51.49432"><ele>198.4</ele><time>2009-09-05T13:44:06.000Z</time><speed>8.055555555555555</speed><name>Nordhausen</name><desc>B4 Hallesche Straße</desc></trkpt><trkpt lon="10.8006" lat="51.49563"><ele>187.0</ele><time>2009-09-05T13:44:50.000Z</time><speed>9.444444444444445</speed><name>Nordhausen</name><desc>B4/L3080 Hallesche Straße; 22</desc></trkpt><trkpt lon="10.79495" lat="51.49585"><ele>184.0</ele><time>2009-09-05T13:46:05.000Z</time><speed>13.055555555555555</speed><name>Nordhausen</name><desc>B4/L3080 Arnoldstraße; 14</desc></trkpt><trkpt lon="10.7883" lat="51.49931"><ele>184.3</ele><time>2009-09-05T13:47:48.000Z</time><speed>13.61111111111111</speed><name>Nordhausen</name><desc>B4 Grimmelallee; 1</desc></trkpt><trkpt lon="10.78291" lat="51.50197"><ele>188.8</ele><time>2009-09-05T13:48:44.000Z</time><speed>12.5</speed><name>Nordhausen</name><desc>Hesseröder Straße; 15</desc></trkpt><trkpt lon="10.78136" lat="51.50332"><ele>203.1</ele><time>2009-09-05T13:49:51.000Z</time><speed>12.5</speed><name>Nordhausen</name><desc>Bochumer Straße; 43</desc></trkpt><trkpt lon="10.78134" lat="51.50846"><ele>197.5</ele><time>2009-09-05T13:50:47.000Z</time><speed>13.333333333333334</speed><name>Nordhausen</name><desc>L2071 Gerhart-Hauptmann-Straße</desc></trkpt><trkpt lon="10.78521" lat="51.51206"><ele>189.2</ele><time>2009-09-05T13:53:18.000Z</time><speed>0.2777777777777778</speed><name>Nordhausen</name><desc>B4 Parkallee</desc></trkpt><trkpt lon="10.78035" lat="51.5216"><ele>190.7</ele><time>2009-09-05T13:54:45.000Z</time><speed>13.055555555555555</speed><name>Nordhausen</name><desc>B4 Harzstraße; 3</desc></trkpt><trkpt lon="10.77138" lat="51.53566"><ele>200.0</ele><time>2009-09-05T13:57:47.000Z</time><speed>9.444444444444445</speed><name>Niedersachswerfen</name><desc>B4 Nordhäuser Straße; 13</desc></trkpt><trkpt lon="10.76746" lat="51.5509"><ele>219.2</ele><time>2009-09-05T14:02:14.000Z</time><speed>10.833333333333334</speed><name>Niedersachswerfen</name><desc>B4 Rudolf-Breitscheid-Straße; 14</desc></trkpt><trkpt lon="10.76654" lat="51.55391"><ele>223.2</ele><time>2009-09-05T14:02:45.000Z</time><speed>10.833333333333334</speed><name>Niedersachswerfen</name><desc>B4 Harzstraße; 71</desc></trkpt><trkpt lon="10.77" lat="51.56184"><ele>231.1</ele><time>2009-09-05T14:03:54.000Z</time><speed>16.944444444444443</speed><name>Niedersachswerfen</name><desc>B4 Ilfelder Straße; 2</desc></trkpt><trkpt lon="10.78371" lat="51.57134"><ele>247.9</ele><time>2009-09-05T14:05:17.000Z</time><speed>18.88888888888889</speed><name>Ilfeld</name><desc>B4 Lindenallee; 46</desc></trkpt><trkpt lon="10.78742" lat="51.57779"><ele>258.9</ele><time>2009-09-05T14:06:12.000Z</time><speed>13.88888888888889</speed><name>Ilfeld</name><desc>B4 Ilgerstraße; 4</desc></trkpt><trkpt lon="10.78592" lat="51.58476"><ele>275.4</ele><time>2009-09-05T14:07:10.000Z</time><speed>12.777777777777779</speed><name>Ilfeld</name><desc>B4 Johannes-Kleinspehn-Schanze; 3</desc></trkpt><trkpt lon="10.78333" lat="51.58825"><ele>277.2</ele><time>2009-09-05T14:07:38.000Z</time><speed>18.61111111111111</speed><name>Ilfeld</name><desc>B4 Ilfelder Tal</desc></trkpt><trkpt lon="10.78637" lat="51.59537"><ele>299.6</ele><time>2009-09-05T14:08:24.000Z</time><speed>18.055555555555557</speed><name>Ilfeld</name><desc>B4</desc></trkpt><trkpt lon="10.78578" lat="51.60165"><ele>307.0</ele><time>2009-09-05T14:09:10.000Z</time><speed>19.166666666666668</speed><name>Ilfeld</name><desc>B4 Netzkater; 1</desc></trkpt><trkpt lon="10.77818" lat="51.6062"><ele>326.2</ele><time>2009-09-05T14:10:04.000Z</time><speed>16.944444444444443</speed><name>Ilfeld</name><desc>B4</desc></trkpt><trkpt lon="10.75518" lat="51.62399"><ele>448.6</ele><time>2009-09-05T14:12:45.000Z</time><speed>18.333333333333332</speed><name>Ellrich</name><desc>B4</desc></trkpt><trkpt lon="10.72271" lat="51.6318"><ele>567.2</ele><time>2009-09-05T14:15:08.000Z</time><speed>12.222222222222221</speed><name>Ellrich</name><desc>B4 Alte-Nordhäuser-Straße; 12</desc></trkpt><trkpt lon="10.72137" lat="51.63489"><ele>575.3</ele><time>2009-09-05T14:15:33.000Z</time><speed>15.833333333333334</speed><name>Ellrich</name><desc>B4</desc></trkpt><trkpt lon="10.6892" lat="51.64656"><ele>597.7</ele><time>2009-09-05T14:17:53.000Z</time><speed>19.444444444444443</speed><name>Braunlage</name><desc>B4</desc></trkpt><trkpt lon="10.67203" lat="51.66297"><ele>622.3</ele><time>2009-09-05T14:20:11.000Z</time><speed>12.222222222222221</speed><name>Braunlage</name><desc>B4 Kirchstraße; 3</desc></trkpt><trkpt lon="10.66747" lat="51.67213"><ele>593.6</ele><time>2009-09-05T14:21:54.000Z</time><speed>20.0</speed><name>Braunlage</name><desc>B4</desc></trkpt><trkpt lon="10.66394" lat="51.67877"><ele>578.4</ele><time>2009-09-05T14:22:37.000Z</time><speed>19.72222222222222</speed><name>Braunlage</name><desc>B4 Kirchstraße</desc></trkpt><trkpt lon="10.66139" lat="51.68033"><ele>587.9</ele><time>2009-09-05T14:22:52.000Z</time><speed>15.833333333333334</speed><name>Braunlage</name><desc>B4</desc></trkpt><trkpt lon="10.66116" lat="51.69692"><ele>495.5</ele><time>2009-09-05T14:26:57.000Z</time><speed>11.11111111111111</speed><name>Braunlage</name><desc>B242/B4</desc></trkpt><trkpt lon="10.61813" lat="51.71622"><ele>573.4</ele><time>2009-09-05T14:30:28.000Z</time><speed>15.833333333333334</speed><name>Braunlage</name><desc>Tanner Straße; 23</desc></trkpt><trkpt lon="10.61218" lat="51.72032"><ele>552.5</ele><time>2009-09-05T14:31:13.000Z</time><speed>5.833333333333333</speed><name>Braunlage</name><desc>Bahnhofstraße; 1</desc></trkpt><trkpt lon="10.61197" lat="51.72455"><ele>559.1</ele><time>2009-09-05T14:36:26.000Z</time><speed>10.833333333333334</speed><name>Braunlage</name><desc>B27 Herzog-Wilhelm-Straße; 5</desc></trkpt><trkpt lon="10.61114" lat="51.72912"><ele>569.0</ele><time>2009-09-05T14:37:23.000Z</time><speed>12.222222222222221</speed><name>Braunlage</name><desc>K68 Harzburger Straße; 6</desc></trkpt><trkpt lon="10.60639" lat="51.73387"><ele>586.1</ele><time>2009-09-05T14:38:18.000Z</time><speed>11.944444444444445</speed><name>Braunlage</name><desc>K68</desc></trkpt><trkpt lon="10.58333" lat="51.74405"><ele>732.8</ele><time>2009-09-05T14:40:03.000Z</time><speed>28.61111111111111</speed><name>Braunlage</name><desc>B242/B4</desc></trkpt><trkpt lon="10.54835" lat="51.76253"><ele>751.6</ele><time>2009-09-05T14:42:41.000Z</time><speed>23.61111111111111</speed><name>Sankt Andreasberg</name><desc>B4</desc></trkpt><trkpt lon="10.55135" lat="51.77479"><ele>780.1</ele><time>2009-09-05T14:43:36.000Z</time><speed>18.333333333333332</speed><name>Sankt Andreasberg</name><desc>B4 Oderbrück Süd</desc></trkpt><trkpt lon="10.55208" lat="51.77708"><ele>784.9</ele><time>2009-09-05T14:43:49.000Z</time><speed>24.444444444444443</speed><name>Sankt Andreasberg</name><desc>B4</desc></trkpt><trkpt lon="10.54723" lat="51.78975"><ele>813.0</ele><time>2009-09-05T14:44:42.000Z</time><speed>27.22222222222222</speed><name>Altenau</name><desc>B4</desc></trkpt><trkpt lon="10.53683" lat="51.80205"><ele>799.9</ele><time>2009-09-05T14:45:49.000Z</time><speed>9.444444444444445</speed><name>Altenau</name><desc>B4 Torfhaus; 32</desc></trkpt><trkpt lon="10.53659" lat="51.80245"><ele>800.3</ele><time>2009-09-05T14:46:03.000Z</time><speed>3.0555555555555554</speed><name>Altenau</name><desc>B4</desc></trkpt><trkpt lon="10.53681" lat="51.80274"><ele>799.8</ele><time>2009-09-05T14:46:16.000Z</time><speed>2.5</speed><name>Altenau</name><desc>Torfhaus; 38</desc></trkpt><trkpt lon="10.53695" lat="51.80271"><ele>802.4</ele><time>2009-09-05T14:46:44.000Z</time><speed>0.0</speed><name>1053695:5180271</name></trkpt><trkpt lon="10.5317" lat="51.80662"><ele>777.0</ele><time>2009-09-05T14:55:24.000Z</time><speed>32.5</speed><name>Altenau</name><desc>B4</desc></trkpt><trkpt lon="10.52475" lat="51.8323"><ele>617.8</ele><time>2009-09-05T14:57:16.000Z</time><speed>30.27777777777778</speed><name>Bad Harzburg</name><desc>B4</desc></trkpt><trkpt lon="10.54683" lat="51.85291"><ele>404.2</ele><time>2009-09-05T14:59:23.000Z</time><speed>22.77777777777778</speed><name>Bad Harzburg</name><desc>B4 Nordhäuser Straße</desc></trkpt><trkpt lon="10.56253" lat="51.87539"><ele>275.2</ele><time>2009-09-05T15:02:09.000Z</time><speed>14.722222222222221</speed><name>Bad Harzburg</name><desc>B4 Herzog-Julius-Straße</desc></trkpt><trkpt lon="10.56001" lat="51.88679"><ele>248.6</ele><time>2009-09-05T15:03:34.000Z</time><speed>13.333333333333334</speed><name>Bad Harzburg</name><desc>B4</desc></trkpt><trkpt lon="10.55797" lat="51.89189"><ele>251.7</ele><time>2009-09-05T15:04:04.000Z</time><speed>28.88888888888889</speed><name>Westerode (Bad Harzburg)</name><desc>B4</desc></trkpt><trkpt lon="10.55385" lat="51.90791"><ele>196.6</ele><time>2009-09-05T15:05:03.000Z</time><speed>27.5</speed><name>Bad Harzburg</name><desc>B4</desc></trkpt><trkpt lon="10.55408" lat="51.91296"><ele>194.3</ele><time>2009-09-05T15:05:26.000Z</time><speed>28.333333333333332</speed><name>Bad Harzburg</name><desc>B6</desc></trkpt><trkpt lon="10.56493" lat="51.92986"><ele>176.1</ele><time>2009-09-05T15:06:39.000Z</time><speed>21.944444444444443</speed><name>Gut Radau</name><desc>K34 Vienenburg-Süd</desc></trkpt><trkpt lon="10.56361" lat="51.93284"><ele>172.7</ele><time>2009-09-05T15:06:54.000Z</time><speed>26.11111111111111</speed><name>Vienenburg</name><desc>K34</desc></trkpt><trkpt lon="10.56732" lat="51.94567"><ele>160.0</ele><time>2009-09-05T15:07:48.000Z</time><speed>18.61111111111111</speed><name>Vienenburg</name><desc>K34 Harzburger Straße</desc></trkpt><trkpt lon="10.56385" lat="51.94946"><ele>141.0</ele><time>2009-09-05T15:08:21.000Z</time><speed>13.88888888888889</speed><name>Vienenburg</name><desc>K34 Bismarckstraße; 5</desc></trkpt><trkpt lon="10.56383" lat="51.95279"><ele>131.8</ele><time>2009-09-05T15:08:47.000Z</time><speed>11.666666666666666</speed><name>Vienenburg</name><desc>K34 Kaiserstraße; 11</desc></trkpt><trkpt lon="10.56469" lat="51.95437"><ele>131.3</ele><time>2009-09-05T15:09:16.000Z</time><speed>13.61111111111111</speed><name>Vienenburg</name><desc>B241 Wiedelaher Straße; 4</desc></trkpt><trkpt lon="10.57686" lat="51.95844"><ele>122.6</ele><time>2009-09-05T15:10:02.000Z</time><speed>26.38888888888889</speed><name>Vienenburg</name><desc>B241</desc></trkpt><trkpt lon="10.58067" lat="51.95991"><ele>121.3</ele><time>2009-09-05T15:10:19.000Z</time><speed>11.944444444444445</speed><name>Vienenburg</name><desc>L511 Wülperoder Straße; 3</desc></trkpt><trkpt lon="10.58296" lat="51.96515"><ele>119.5</ele><time>2009-09-05T15:11:11.000Z</time><speed>18.88888888888889</speed><name>Vienenburg</name><desc>L511</desc></trkpt><trkpt lon="10.58676" lat="51.97434"><ele>114.2</ele><time>2009-09-05T15:11:55.000Z</time><speed>21.38888888888889</speed><name>Wülperode</name><desc>L90</desc></trkpt><trkpt lon="10.57375" lat="52.00443"><ele>99.2</ele><time>2009-09-05T15:13:58.000Z</time><speed>31.11111111111111</speed><name>Schladen</name><desc>Straße ohne Namen</desc></trkpt><trkpt lon="10.57117" lat="52.0089"><ele>97.0</ele><time>2009-09-05T15:14:18.000Z</time><speed>26.38888888888889</speed><name>Schladen</name><desc>Steinfelder Zolln; 1</desc></trkpt><trkpt lon="10.56925" lat="52.01261"><ele>94.6</ele><time>2009-09-05T15:14:37.000Z</time><speed>23.88888888888889</speed><name>Schladen</name><desc>Straße ohne Namen</desc></trkpt><trkpt lon="10.56729" lat="52.02224"><ele>90.1</ele><time>2009-09-05T15:15:27.000Z</time><speed>3.0555555555555554</speed><name>Achim (Wolfenbüttel)</name><desc>Straße ohne Namen</desc></trkpt><trkpt lon="10.56612" lat="52.02224"><ele>90.0</ele><time>2009-09-05T15:15:42.000Z</time><speed>13.88888888888889</speed><name>Achim (Wolfenbüttel)</name><desc>B82</desc></trkpt><trkpt lon="10.5368" lat="52.02918"><ele>114.8</ele><time>2009-09-05T15:17:19.000Z</time><speed>15.833333333333334</speed><name>Schladen</name><desc>Straße ohne Namen</desc></trkpt><trkpt lon="10.54025" lat="52.03365"><ele>120.5</ele><time>2009-09-05T15:18:00.000Z</time><speed>22.77777777777778</speed><name>Werlaburgdorf</name><desc>Straße ohne Namen</desc></trkpt><trkpt lon="10.54035" lat="52.03661"><ele>114.9</ele><time>2009-09-05T15:18:13.000Z</time><speed>29.166666666666668</speed><name>Werlaburgdorf</name><desc>L615</desc></trkpt><trkpt lon="10.54346" lat="52.05441"><ele>92.7</ele><time>2009-09-05T15:19:24.000Z</time><speed>23.88888888888889</speed><name>Werlaburgdorf</name><desc>L512/L615 Hauptstraße</desc></trkpt><trkpt lon="10.54804" lat="52.05968"><ele>83.0</ele><time>2009-09-05T15:19:54.000Z</time><speed>24.72222222222222</speed><name>Heiningen (Wolfenbüttel)</name><desc>L512/L615</desc></trkpt><trkpt lon="10.55486" lat="52.06835"><ele>81.0</ele><time>2009-09-05T15:20:44.000Z</time><speed>15.277777777777779</speed><name>Heiningen (Wolfenbüttel)</name><desc>L512/L615 Hauptstraße; 1</desc></trkpt><trkpt lon="10.55438" lat="52.07706"><ele>76.7</ele><time>2009-09-05T15:22:07.000Z</time><speed>22.77777777777778</speed><name>Heiningen (Wolfenbüttel)</name><desc>L615</desc></trkpt><trkpt lon="10.55637" lat="52.08587"><ele>77.2</ele><time>2009-09-05T15:22:41.000Z</time><speed>28.88888888888889</speed><name>Dorstadt</name><desc>L615</desc></trkpt><trkpt lon="10.56091" lat="52.0925"><ele>74.5</ele><time>2009-09-05T15:23:14.000Z</time><speed>16.666666666666668</speed><name>Dorstadt</name><desc>L615 Harzstraße</desc></trkpt><trkpt lon="10.5648" lat="52.10964"><ele>74.7</ele><time>2009-09-05T15:24:56.000Z</time><speed>28.61111111111111</speed><name>Ohrum</name><desc>L615 Harzstraße</desc></trkpt><trkpt lon="10.56115" lat="52.12358"><ele>72.0</ele><time>2009-09-05T15:26:22.000Z</time><speed>25.0</speed><name>Ohrum</name><desc>L615</desc></trkpt><trkpt lon="10.55227" lat="52.13241"><ele>72.7</ele><time>2009-09-05T15:27:06.000Z</time><speed>25.555555555555557</speed><name>Wolfenbüttel</name><desc>L615</desc></trkpt><trkpt lon="10.55009" lat="52.13838"><ele>72.1</ele><time>2009-09-05T15:27:34.000Z</time><speed>20.27777777777778</speed><name>Wolfenbüttel</name><desc>L615 Harzburger Straße</desc></trkpt><trkpt lon="10.54564" lat="52.14677"><ele>73.5</ele><time>2009-09-05T15:28:57.000Z</time><speed>11.11111111111111</speed><name>Wolfenbüttel</name><desc>L615/L630 Harzburger Straße</desc></trkpt><trkpt lon="10.54377" lat="52.14756"><ele>72.6</ele><time>2009-09-05T15:29:11.000Z</time><speed>13.055555555555555</speed><name>Wolfenbüttel</name><desc>L615 Halchtersche Straße</desc></trkpt><trkpt lon="10.53212" lat="52.15759"><ele>75.5</ele><time>2009-09-05T15:31:26.000Z</time><speed>13.61111111111111</speed><name>Wolfenbüttel</name><desc>L615 Goslarsche Straße; 54</desc></trkpt><trkpt lon="10.52099" lat="52.16373"><ele>76.8</ele><time>2009-09-05T15:33:30.000Z</time><speed>14.166666666666666</speed><name>Wolfenbüttel</name><desc>L615 Gebrüder-Welger-Straße; 3</desc></trkpt><trkpt lon="10.52058" lat="52.16545"><ele>77.7</ele><time>2009-09-05T15:33:57.000Z</time><speed>8.055555555555555</speed><name>Wolfenbüttel</name><desc>L615 Frankfurter Straße; 2</desc></trkpt><trkpt lon="10.51975" lat="52.1663"><ele>77.4</ele><time>2009-09-05T15:34:11.000Z</time><speed>12.222222222222221</speed><name>Groß Stöckheim</name><desc>L615 Doktor-Heinrich-Jasper-Straße; 78</desc></trkpt><trkpt lon="10.51834" lat="52.1694"><ele>75.4</ele><time>2009-09-05T15:34:39.000Z</time><speed>14.444444444444445</speed><name>Groß Stöckheim</name><desc>L615 Hauptstraße; 5</desc></trkpt><trkpt lon="10.5167" lat="52.17409"><ele>69.5</ele><time>2009-09-05T15:35:33.000Z</time><speed>9.722222222222221</speed><name>Groß Stöckheim</name><desc>K66 Leiferder Weg; 3</desc></trkpt><trkpt lon="10.51814" lat="52.17881"><ele>68.3</ele><time>2009-09-05T15:36:14.000Z</time><speed>26.11111111111111</speed><name>Wolfenbüttel</name><desc>K66 Burgplatz</desc></trkpt><trkpt lon="10.51076" lat="52.19394"><ele>66.3</ele><time>2009-09-05T15:37:08.000Z</time><speed>33.05555555555556</speed><name>Stöckheim-Leiferde</name><desc>K77</desc></trkpt><trkpt lon="10.5075" lat="52.20219"><ele>64.5</ele><time>2009-09-05T15:37:44.000Z</time><speed>13.88888888888889</speed><name>Stöckheim-Leiferde</name><desc>K77 Burg; 6</desc></trkpt><trkpt lon="10.50758" lat="52.20729"><ele>68.9</ele><time>2009-09-05T15:38:26.000Z</time><speed>17.22222222222222</speed><name>Stöckheim-Leiferde</name><desc>K77 Schenkendamm</desc></trkpt><trkpt lon="10.4983" lat="52.20902"><ele>69.1</ele><time>2009-09-05T15:39:12.000Z</time><speed>13.055555555555555</speed><name>Rüningen</name><desc>B248 Thiedestraße</desc></trkpt><trkpt lon="10.50394" lat="52.22531"><ele>70.9</ele><time>2009-09-05T15:41:51.000Z</time><speed>13.055555555555555</speed><name>Rüningen</name><desc>B248/L616 Thiedestraße; 7</desc></trkpt><trkpt lon="10.50334" lat="52.22706"><ele>70.7</ele><time>2009-09-05T15:42:37.000Z</time><speed>10.277777777777779</speed><name>Rüningen</name><desc>K24 Westerbergstraße; 91</desc></trkpt><trkpt lon="10.5028" lat="52.22802"><ele>71.3</ele><time>2009-09-05T15:42:52.000Z</time><speed>15.277777777777779</speed><name>Rüningen</name><desc>K75 Alte Frankfurter Straße; 149</desc></trkpt><trkpt lon="10.50479" lat="52.2295"><ele>70.4</ele><time>2009-09-05T15:43:08.000Z</time><speed>11.666666666666666</speed><name>Westliches Ringgebiet</name><desc>K75 Alte Frankfurter Straße</desc></trkpt><trkpt lon="10.50801" lat="52.24592"><ele>70.9</ele><time>2009-09-05T15:45:32.000Z</time><speed>10.0</speed><name>Westliches Ringgebiet</name><desc>Theodor-Heuss-Straße</desc></trkpt><trkpt lon="10.51131" lat="52.24871"><ele>69.8</ele><time>2009-09-05T15:47:01.000Z</time><speed>11.11111111111111</speed><name>Westliches Ringgebiet</name><desc>Frankfurter Straße; 39</desc></trkpt><trkpt lon="10.51058" lat="52.2517"><ele>71.5</ele><time>2009-09-05T15:47:29.000Z</time><speed>11.666666666666666</speed><name>Braunschweig</name><desc>Frankfurter Straße; 34</desc></trkpt><trkpt lon="10.50339" lat="52.25895"><ele>82.0</ele><time>2009-09-05T15:49:36.000Z</time><speed>13.61111111111111</speed><name>Braunschweig</name><desc>Altstadtring; 4</desc></trkpt><trkpt lon="10.50223" lat="52.26223"><ele>85.8</ele><time>2009-09-05T15:50:03.000Z</time><speed>12.777777777777779</speed><name>Braunschweig</name><desc>Sackring</desc></trkpt><trkpt lon="10.50073" lat="52.26972"><ele>68.9</ele><time>2009-09-05T15:51:51.000Z</time><speed>0.0</speed><name>Braunschweig</name><desc>Rudolfplatz</desc></trkpt><trkpt lon="10.50192" lat="52.27091"><ele>67.6</ele><time>2009-09-05T15:52:20.000Z</time><speed>11.666666666666666</speed><name>Braunschweig</name><desc>B1 Neustadtring; 1</desc></trkpt><trkpt lon="10.5045" lat="52.27184"><ele>73.7</ele><time>2009-09-05T15:52:33.000Z</time><speed>13.61111111111111</speed><name>Nordstadt (Braunschweig)</name><desc>B1 Neustadtring; 48</desc></trkpt><trkpt lon="10.51394" lat="52.27398"><ele>70.5</ele><time>2009-09-05T15:53:35.000Z</time><speed>10.833333333333334</speed><name>Nordstadt (Braunschweig)</name><desc>B1 Wendenring; 23</desc></trkpt><trkpt lon="10.52119" lat="52.27598"><ele>69.8</ele><time>2009-09-05T15:54:59.000Z</time><speed>13.88888888888889</speed><name>Nordstadt (Braunschweig)</name><desc>Hamburger Straße; 282</desc></trkpt><trkpt lon="10.5187" lat="52.28269"><ele>63.9</ele><time>2009-09-05T15:56:25.000Z</time><speed>6.388888888888889</speed><name>Nordstadt (Braunschweig)</name><desc>K2 Hamburger Straße</desc></trkpt><trkpt lon="10.51857" lat="52.29338"><ele>69.6</ele><time>2009-09-05T15:58:41.000Z</time><speed>17.22222222222222</speed><name>Veltenhof-Rühme</name><desc>K2 Gifhorner Straße</desc></trkpt><trkpt lon="10.5135" lat="52.31654"><ele>72.1</ele><time>2009-09-05T16:01:35.000Z</time><speed>17.22222222222222</speed><name>Wenden-Thune-Harxbüttel</name><desc>K2 Gifhorner Straße</desc></trkpt><trkpt lon="10.51896" lat="52.31932"><ele>67.0</ele><time>2009-09-05T16:02:04.000Z</time><speed>16.944444444444443</speed><name>Bienrode-Waggum-Bevenrode</name><desc>K2 Gifhorner Straße</desc></trkpt><trkpt lon="10.52408" lat="52.32107"><ele>72.8</ele><time>2009-09-05T16:02:37.000Z</time><speed>0.0</speed><name>Bienrode-Waggum-Bevenrode</name><desc>L625</desc></trkpt><trkpt lon="10.52212" lat="52.32796"><ele>67.5</ele><time>2009-09-05T16:03:25.000Z</time><speed>16.11111111111111</speed><name>Wenden-Thune-Harxbüttel</name><desc>L625</desc></trkpt><trkpt lon="10.5213" lat="52.33048"><ele>66.5</ele><time>2009-09-05T16:03:54.000Z</time><speed>9.722222222222221</speed><name>Wenden-Thune-Harxbüttel</name><desc>Am Bockelsberg</desc></trkpt><trkpt lon="10.52134" lat="52.33458"><ele>68.6</ele><time>2009-09-05T16:04:22.000Z</time><speed>21.666666666666668</speed><name>Wenden-Thune-Harxbüttel</name><desc>Straße ohne Namen</desc></trkpt><trkpt lon="10.52485" lat="52.34074"><ele>71.5</ele><time>2009-09-05T16:04:55.000Z</time><speed>21.38888888888889</speed><name>Meine</name><desc>Straße ohne Namen</desc></trkpt><trkpt lon="10.53067" lat="52.345"><ele>83.0</ele><time>2009-09-05T16:05:23.000Z</time><speed>24.166666666666668</speed><name>Meine</name><desc>B4</desc></trkpt><trkpt lon="10.53563" lat="52.34981"><ele>83.2</ele><time>2009-09-05T16:05:52.000Z</time><speed>18.333333333333332</speed><name>Meine</name><desc>B4 Meinholz</desc></trkpt><trkpt lon="10.53863" lat="52.35812"><ele>83.1</ele><time>2009-09-05T16:06:36.000Z</time><speed>23.88888888888889</speed><name>Vordorf</name><desc>B4</desc></trkpt><trkpt lon="10.53541" lat="52.37688"><ele>77.4</ele><time>2009-09-05T16:09:47.000Z</time><speed>7.222222222222222</speed><name>Meine</name><desc>B4 Braunschweiger Straße; 10</desc></trkpt><trkpt lon="10.53421" lat="52.38002"><ele>76.6</ele><time>2009-09-05T16:11:21.000Z</time><speed>8.61111111111111</speed><name>Meine</name><desc>L321 Peiner Straße; 1</desc></trkpt><trkpt lon="10.52372" lat="52.37855"><ele>78.0</ele><time>2009-09-05T16:12:01.000Z</time><speed>29.72222222222222</speed><name>Vordorf</name><desc>L321</desc></trkpt><trkpt lon="10.48391" lat="52.37452"><ele>76.7</ele><time>2009-09-05T16:13:35.000Z</time><speed>16.666666666666668</speed><name>Vordorf</name><desc>L321 Fallerslebener Straße; 1</desc></trkpt><trkpt lon="10.48323" lat="52.37566"><ele>75.2</ele><time>2009-09-05T16:13:51.000Z</time><speed>12.777777777777779</speed><name>Vordorf</name><desc>Torstraße; 1</desc></trkpt><trkpt lon="10.48331" lat="52.3794"><ele>68.4</ele><time>2009-09-05T16:14:33.000Z</time><speed>18.333333333333332</speed><name>Vordorf</name><desc>Jägerstraße; 13</desc></trkpt><trkpt lon="10.48539" lat="52.38458"><ele>67.6</ele><time>2009-09-05T16:15:04.000Z</time><speed>10.0</speed><name>Vordorf</name><desc>Straße ohne Namen</desc></trkpt><trkpt lon="10.4645" lat="52.38341"><ele>70.5</ele><time>2009-09-05T16:16:49.000Z</time><speed>22.22222222222222</speed><name>Adenbüttel</name><desc>Straße ohne Namen</desc></trkpt><trkpt lon="10.46043" lat="52.38242"><ele>71.6</ele><time>2009-09-05T16:17:07.000Z</time><speed>20.0</speed><name>Adenbüttel</name><desc>Auf Der Heide; 20</desc></trkpt><trkpt lon="10.45457" lat="52.38121"><ele>70.5</ele><time>2009-09-05T16:17:38.000Z</time><speed>7.222222222222222</speed><name>Adenbüttel</name><desc>K56 Gifhorner Straße; 1</desc></trkpt><trkpt lon="10.45316" lat="52.38863"><ele>67.3</ele><time>2009-09-05T16:18:21.000Z</time><speed>28.333333333333332</speed><name>Adenbüttel</name><desc>K56</desc></trkpt><trkpt lon="10.45528" lat="52.3987"><ele>63.4</ele><time>2009-09-05T16:18:59.000Z</time><speed>24.72222222222222</speed><name>Ribbesbüttel</name><desc>K48</desc></trkpt><trkpt lon="10.45102" lat="52.40076"><ele>63.3</ele><time>2009-09-05T16:19:31.000Z</time><speed>25.0</speed><name>Adenbüttel</name><desc>K850</desc></trkpt><trkpt lon="10.42761" lat="52.39657"><ele>63.9</ele><time>2009-09-05T16:20:48.000Z</time><speed>16.944444444444443</speed><name>Adenbüttel</name><desc>K850 Katzhagen; 6</desc></trkpt><trkpt lon="10.42422" lat="52.39563"><ele>64.0</ele><time>2009-09-05T16:21:04.000Z</time><speed>15.0</speed><name>Adenbüttel</name><desc>K47 Hillerser Straße; 12</desc></trkpt><trkpt lon="10.42076" lat="52.40521"><ele>65.6</ele><time>2009-09-05T16:21:51.000Z</time><speed>31.38888888888889</speed><name>Adenbüttel</name><desc>K47</desc></trkpt><trkpt lon="10.41971" lat="52.40974"><ele>63.5</ele><time>2009-09-05T16:22:09.000Z</time><speed>26.666666666666668</speed><name>Hillerse</name><desc>K47</desc></trkpt><trkpt lon="10.41156" lat="52.41029"><ele>60.8</ele><time>2009-09-05T16:22:43.000Z</time><speed>13.61111111111111</speed><name>Hillerse</name><desc>K47 Rolfsbütteler Straße; 35</desc></trkpt><trkpt lon="10.40844" lat="52.41137"><ele>61.4</ele><time>2009-09-05T16:23:09.000Z</time><speed>17.22222222222222</speed><name>Hillerse</name><desc>Ackernstraße; 6</desc></trkpt><trkpt lon="10.40725" lat="52.41459"><ele>58.0</ele><time>2009-09-05T16:23:52.000Z</time><speed>0.0</speed><name>Hillerse</name><desc>L320 Hauptstraße; 18</desc></trkpt><trkpt lon="10.41133" lat="52.41668"><ele>57.4</ele><time>2009-09-05T16:24:21.000Z</time><speed>2.7777777777777777</speed><name>Hillerse</name><desc>L320</desc></trkpt><trkpt lon="10.41004" lat="52.41688"><ele>57.6</ele><time>2009-09-05T16:24:37.000Z</time><speed>12.5</speed><name>Hillerse</name><desc>Schierrahmenweg; 1</desc></trkpt><trkpt lon="10.40792" lat="52.41494"><ele>57.7</ele><time>2009-09-05T16:26:18.000Z</time><speed>17.5</speed><name>Hillerse</name><desc>L320 Hauptstraße; 19</desc></trkpt><trkpt lon="10.40074" lat="52.42009"><ele>55.2</ele><time>2009-09-05T16:27:21.000Z</time><speed>34.166666666666664</speed><name>Hillerse</name><desc>K46</desc></trkpt><trkpt lon="10.38946" lat="52.43892"><ele>54.1</ele><time>2009-09-05T16:28:46.000Z</time><speed>29.166666666666668</speed><name>Leiferde</name><desc>K46</desc></trkpt><trkpt lon="10.38665" lat="52.44485"><ele>56.4</ele><time>2009-09-05T16:29:19.000Z</time><speed>15.555555555555555</speed><name>Leiferde</name><desc>K46 Hillerser Straße; 1</desc></trkpt><trkpt lon="10.38431" lat="52.44492"><ele>58.0</ele><time>2009-09-05T16:29:34.000Z</time><speed>10.277777777777779</speed><name>Leiferde</name><desc>K46 Okerstraße; 10</desc></trkpt><trkpt lon="10.38406" lat="52.44627"><ele>53.1</ele><time>2009-09-05T16:29:47.000Z</time><speed>17.5</speed><name>Leiferde</name><desc>K46 Meinerser Straße; 4</desc></trkpt><trkpt lon="10.38023" lat="52.44929"><ele>52.1</ele><time>2009-09-05T16:30:17.000Z</time><speed>25.0</speed><name>Leiferde</name><desc>K46</desc></trkpt><trkpt lon="10.37176" lat="52.45992"><ele>53.6</ele><time>2009-09-05T16:31:08.000Z</time><speed>31.38888888888889</speed><name>Meinersen</name><desc>K46</desc></trkpt><trkpt lon="10.3669" lat="52.46769"><ele>51.0</ele><time>2009-09-05T16:31:45.000Z</time><speed>15.0</speed><name>Meinersen</name><desc>K46 Dalldorfer Straße; 35</desc></trkpt><trkpt lon="10.36235" lat="52.47563"><ele>49.5</ele><time>2009-09-05T16:33:02.000Z</time><speed>9.722222222222221</speed><name>Meinersen</name><desc>K46 Dieckhorster Straße; 2</desc></trkpt><trkpt lon="10.36384" lat="52.4841"><ele>49.6</ele><time>2009-09-05T16:34:30.000Z</time><speed>27.22222222222222</speed><name>Meinersen</name><desc>K46</desc></trkpt><trkpt lon="10.36522" lat="52.49295"><ele>48.5</ele><time>2009-09-05T16:35:03.000Z</time><speed>30.833333333333332</speed><name>Müden (Aller)</name><desc>K46</desc></trkpt><trkpt lon="10.36826" lat="52.51422"><ele>45.7</ele><time>2009-09-05T16:37:07.000Z</time><speed>23.61111111111111</speed><name>Müden (Aller)</name><desc>L283</desc></trkpt><trkpt lon="10.36768" lat="52.51881"><ele>47.6</ele><time>2009-09-05T16:37:44.000Z</time><speed>7.777777777777778</speed><name>Dieckhorst</name><desc>L283 Auf Der Dyckhorst; 4</desc></trkpt><trkpt lon="10.36947" lat="52.52088"><ele>44.6</ele><time>2009-09-05T16:38:15.000Z</time><speed>8.333333333333334</speed><name>Dieckhorst</name><desc>L283 Gifhorner Straße; 9</desc></trkpt><trkpt lon="10.36564" lat="52.52448"><ele>45.6</ele><time>2009-09-05T16:38:49.000Z</time><speed>15.0</speed><name>Dieckhorst</name><desc>L283 Hauptstraße; 38</desc></trkpt><trkpt lon="10.36119" lat="52.52612"><ele>47.0</ele><time>2009-09-05T16:39:12.000Z</time><speed>15.555555555555555</speed><name>Müden (Aller)</name><desc>L283 Hauptstraße; 20</desc></trkpt><trkpt lon="10.35547" lat="52.52874"><ele>46.9</ele><time>2009-09-05T16:39:55.000Z</time><speed>8.333333333333334</speed><name>Müden (Aller)</name><desc>K39 Flettmarer Straße; 2</desc></trkpt><trkpt lon="10.3405" lat="52.53329"><ele>46.9</ele><time>2009-09-05T16:41:05.000Z</time><speed>15.555555555555555</speed><name>Müden (Aller)</name><desc>K39 Am Bahnhof; 3</desc></trkpt><trkpt lon="10.33558" lat="52.53423"><ele>47.0</ele><time>2009-09-05T16:41:28.000Z</time><speed>23.055555555555557</speed><name>Müden (Aller)</name><desc>K40</desc></trkpt><trkpt lon="10.32015" lat="52.5278"><ele>44.6</ele><time>2009-09-05T16:42:41.000Z</time><speed>10.0</speed><name>Müden (Aller)</name><desc>K40 Allerstraße; 5</desc></trkpt><trkpt lon="10.31668" lat="52.52952"><ele>46.5</ele><time>2009-09-05T16:43:06.000Z</time><speed>16.11111111111111</speed><name>Müden (Aller)</name><desc>K41 Dorfstraße; 50</desc></trkpt><trkpt lon="10.31392" lat="52.5336"><ele>45.1</ele><time>2009-09-05T16:43:34.000Z</time><speed>21.944444444444443</speed><name>Müden (Aller)</name><desc>K41</desc></trkpt><trkpt lon="10.31376" lat="52.53665"><ele>44.3</ele><time>2009-09-05T16:43:47.000Z</time><speed>28.88888888888889</speed><name>Langlingen</name><desc>K50</desc></trkpt><trkpt lon="10.29356" lat="52.55281"><ele>46.1</ele><time>2009-09-05T16:45:09.000Z</time><speed>18.055555555555557</speed><name>Langlingen</name><desc>K50 Hauptstraße; 79</desc></trkpt><trkpt lon="10.27204" lat="52.55896"><ele>43.3</ele><time>2009-09-05T16:46:47.000Z</time><speed>22.5</speed><name>Langlingen</name><desc>K50</desc></trkpt><trkpt lon="10.25307" lat="52.56106"><ele>42.2</ele><time>2009-09-05T16:47:33.000Z</time><speed>27.77777777777778</speed><name>Wienhausen</name><desc>K50 Hauptstraße</desc></trkpt><trkpt lon="10.2417" lat="52.56419"><ele>42.4</ele><time>2009-09-05T16:48:05.000Z</time><speed>28.61111111111111</speed><name>Wienhausen</name><desc>K50 Langlinger Straße</desc></trkpt><trkpt lon="10.24051" lat="52.56853"><ele>42.8</ele><time>2009-09-05T16:48:22.000Z</time><speed>30.0</speed><name>Langlingen</name><desc>K50</desc></trkpt><trkpt lon="10.23878" lat="52.57247"><ele>42.0</ele><time>2009-09-05T16:48:39.000Z</time><speed>25.555555555555557</speed><name>Wienhausen</name><desc>K50 Langlinger Straße</desc></trkpt><trkpt lon="10.23076" lat="52.57857"><ele>42.3</ele><time>2009-09-05T16:49:35.000Z</time><speed>19.444444444444443</speed><name>Wienhausen</name><desc>K49 Schwachhäuser Straße; 3</desc></trkpt><trkpt lon="10.2615" lat="52.5772"><ele>42.3</ele><time>2009-09-05T16:51:00.000Z</time><speed>33.333333333333336</speed><name>Wienhausen</name><desc>K49 Offensener Straße</desc></trkpt><trkpt lon="10.27494" lat="52.57643"><ele>42.7</ele><time>2009-09-05T16:51:35.000Z</time><speed>15.0</speed><name>Wienhausen</name><desc>K49 Burgstraße; 1</desc></trkpt><trkpt lon="10.27885" lat="52.57875"><ele>42.5</ele><time>2009-09-05T16:52:08.000Z</time><speed>13.61111111111111</speed><name>Wienhausen</name><desc>Wiesenweg; 3</desc></trkpt><trkpt lon="10.27806" lat="52.58491"><ele>42.0</ele><time>2009-09-05T16:53:12.000Z</time><speed>0.0</speed><name>1027806:5258491</name></trkpt><trkpt lon="10.28579" lat="52.59413"><ele>42.7</ele><time>2009-09-05T16:57:48.000Z</time><speed>9.722222222222221</speed><name>Ahnsbeck</name><desc>Straße ohne Namen</desc></trkpt><trkpt lon="10.28942" lat="52.60671"><ele>52.4</ele><time>2009-09-05T17:00:05.000Z</time><speed>16.666666666666668</speed><name>Ahnsbeck</name><desc>Nordburger Straße; 2</desc></trkpt><trkpt lon="10.28749" lat="52.60855"><ele>53.7</ele><time>2009-09-05T17:00:32.000Z</time><speed>14.444444444444445</speed><name>Ahnsbeck</name><desc>L284 Hauptstraße; 27</desc></trkpt><trkpt lon="10.27431" lat="52.614"><ele>53.8</ele><time>2009-09-05T17:01:32.000Z</time><speed>27.5</speed><name>Ahnsbeck</name><desc>L284</desc></trkpt><trkpt lon="10.26142" lat="52.61895"><ele>49.4</ele><time>2009-09-05T17:02:07.000Z</time><speed>27.22222222222222</speed><name>Lachendorf</name><desc>L284 Ahnsbecker Straße</desc></trkpt><trkpt lon="10.2442" lat="52.62384"><ele>49.6</ele><time>2009-09-05T17:04:00.000Z</time><speed>16.944444444444443</speed><name>Lachendorf</name><desc>L284 Bahnhofstraße; 7</desc></trkpt><trkpt lon="10.24294" lat="52.62733"><ele>51.6</ele><time>2009-09-05T17:04:27.000Z</time><speed>16.666666666666668</speed><name>Lachendorf</name><desc>Gockenholzer Weg; 1</desc></trkpt><trkpt lon="10.24128" lat="52.62842"><ele>49.4</ele><time>2009-09-05T17:04:40.000Z</time><speed>16.666666666666668</speed><name>Lachendorf</name><desc>Im Bulloh; 6</desc></trkpt><trkpt lon="10.23236" lat="52.62987"><ele>44.2</ele><time>2009-09-05T17:05:28.000Z</time><speed>7.5</speed><name>Lachendorf</name><desc>L284 Celler Straße</desc></trkpt><trkpt lon="10.22628" lat="52.63172"><ele>45.5</ele><time>2009-09-05T17:05:50.000Z</time><speed>20.555555555555557</speed><name>Lachendorf</name><desc>L284</desc></trkpt><trkpt lon="10.21848" lat="52.63465"><ele>42.6</ele><time>2009-09-05T17:06:27.000Z</time><speed>23.88888888888889</speed><name>Lachendorf</name><desc>K76 Garßener Straße</desc></trkpt><trkpt lon="10.20595" lat="52.6408"><ele>43.8</ele><time>2009-09-05T17:07:17.000Z</time><speed>32.22222222222222</speed><name>Lachendorf</name><desc>K76</desc></trkpt><trkpt lon="10.18797" lat="52.65"><ele>45.1</ele><time>2009-09-05T17:08:06.000Z</time><speed>31.944444444444443</speed><name>Celle</name><desc>K76 Lachendorfer Weg</desc></trkpt><trkpt lon="10.17927" lat="52.65507"><ele>48.4</ele><time>2009-09-05T17:08:38.000Z</time><speed>23.61111111111111</speed><name>Celle</name><desc>K29</desc></trkpt><trkpt lon="10.17229" lat="52.6575"><ele>45.3</ele><time>2009-09-05T17:09:02.000Z</time><speed>23.88888888888889</speed><name>Celle</name><desc>K29 Alvernsche Straße</desc></trkpt><trkpt lon="10.1274" lat="52.65794"><ele>54.4</ele><time>2009-09-05T17:12:29.000Z</time><speed>8.055555555555555</speed><name>Celle</name><desc>K78 Grauenbarge</desc></trkpt><trkpt lon="10.11331" lat="52.65607"><ele>51.0</ele><time>2009-09-05T17:13:26.000Z</time><speed>16.38888888888889</speed><name>Vorwerk (Celle)</name><desc>K78 Grauenbarge</desc></trkpt><trkpt lon="10.11075" lat="52.65578"><ele>52.0</ele><time>2009-09-05T17:13:37.000Z</time><speed>16.11111111111111</speed><name>Vorwerk (Celle)</name><desc>K78 Garßener Weg; 10</desc></trkpt><trkpt lon="10.10177" lat="52.65499"><ele>50.8</ele><time>2009-09-05T17:14:15.000Z</time><speed>15.555555555555555</speed><name>Vorwerk (Celle)</name><desc>Garßener Weg; 37</desc></trkpt><trkpt lon="10.10254" lat="52.65441"><ele>48.8</ele><time>2009-09-05T17:14:54.000Z</time><speed>12.222222222222221</speed><name>Vorwerk (Celle)</name><desc>K78 Mummenhofstraße; 153</desc></trkpt><trkpt lon="10.101" lat="52.65459"><ele>50.6</ele><time>2009-09-05T17:15:05.000Z</time><speed>15.555555555555555</speed><name>Vorwerk (Celle)</name><desc>K78 Groß-Hehlener-Weg</desc></trkpt><trkpt lon="10.09063" lat="52.65649"><ele>44.5</ele><time>2009-09-05T17:15:41.000Z</time><speed>23.88888888888889</speed><name>Celle</name><desc>K78</desc></trkpt><trkpt lon="10.08154" lat="52.65524"><ele>48.8</ele><time>2009-09-05T17:16:05.000Z</time><speed>26.666666666666668</speed><name>Celle</name><desc>K78 Zur Hasselklink; 28</desc></trkpt><trkpt lon="10.06375" lat="52.65311"><ele>48.6</ele><time>2009-09-05T17:17:43.000Z</time><speed>5.833333333333333</speed><name>Celle</name><desc>B3 Celler Straße; 11</desc></trkpt><trkpt lon="10.06418" lat="52.65443"><ele>50.0</ele><time>2009-09-05T17:17:58.000Z</time><speed>16.38888888888889</speed><name>Celle</name><desc>L240 Scheuener Straße; 2</desc></trkpt><trkpt lon="10.07512" lat="52.67387"><ele>58.0</ele><time>2009-09-05T17:19:31.000Z</time><speed>24.444444444444443</speed><name>Celle</name><desc>L240 Am Stellhorn</desc></trkpt><trkpt lon="10.07627" lat="52.6845"><ele>56.7</ele><time>2009-09-05T17:20:32.000Z</time><speed>23.88888888888889</speed><name>Celle</name><desc>L240 Am Sägewerk</desc></trkpt><trkpt lon="10.08689" lat="52.72995"><ele>46.9</ele><time>2009-09-05T17:24:02.000Z</time><speed>23.88888888888889</speed><name>Bergen (Celle)</name><desc>L240 Altensalzkoth; 12</desc></trkpt><trkpt lon="10.0589" lat="52.75049"><ele>41.3</ele><time>2009-09-05T17:26:24.000Z</time><speed>13.61111111111111</speed><name>Bergen (Celle)</name><desc>L240 Dorfstraße; 51</desc></trkpt><trkpt lon="10.04882" lat="52.75528"><ele>38.1</ele><time>2009-09-05T17:27:25.000Z</time><speed>16.666666666666668</speed><name>Bergen (Celle)</name><desc>L240</desc></trkpt><trkpt lon="10.04212" lat="52.76008"><ele>42.6</ele><time>2009-09-05T17:28:02.000Z</time><speed>15.277777777777779</speed><name>Bergen (Celle)</name><desc>L240 Dorfstraße</desc></trkpt><trkpt lon="10.0387" lat="52.76485"><ele>42.0</ele><time>2009-09-05T17:28:36.000Z</time><speed>16.666666666666668</speed><name>Bergen (Celle)</name><desc>L240 Salzstraße; 27</desc></trkpt><trkpt lon="10.03679" lat="52.77116"><ele>45.0</ele><time>2009-09-05T17:29:40.000Z</time><speed>10.833333333333334</speed><name>Bergen (Celle)</name><desc>K24 Am Salinenbach</desc></trkpt><trkpt lon="10.0304" lat="52.76861"><ele>46.9</ele><time>2009-09-05T17:30:15.000Z</time><speed>9.166666666666666</speed><name>Bergen (Celle)</name><desc>K22 Bergener Straße</desc></trkpt><trkpt lon="10.02807" lat="52.76919"><ele>48.4</ele><time>2009-09-05T17:30:25.000Z</time><speed>18.88888888888889</speed><name>Bergen (Celle)</name><desc>K22</desc></trkpt><trkpt lon="10.00744" lat="52.77705"><ele>51.2</ele><time>2009-09-05T17:31:46.000Z</time><speed>15.833333333333334</speed><name>Bergen (Celle)</name><desc>K22 Katensen; 4</desc></trkpt><trkpt lon="9.99173" lat="52.78406"><ele>60.8</ele><time>2009-09-05T17:32:47.000Z</time><speed>23.333333333333332</speed><name>Bergen (Celle)</name><desc>K22</desc></trkpt><trkpt lon="9.98476" lat="52.79061"><ele>66.7</ele><time>2009-09-05T17:33:16.000Z</time><speed>21.944444444444443</speed><name>Bergen (Celle)</name><desc>K22 Bollersen</desc></trkpt><trkpt lon="9.9756" lat="52.79348"><ele>68.4</ele><time>2009-09-05T17:34:02.000Z</time><speed>16.38888888888889</speed><name>Bergen (Celle)</name><desc>K22</desc></trkpt><trkpt lon="9.971" lat="52.79358"><ele>68.1</ele><time>2009-09-05T17:34:27.000Z</time><speed>8.61111111111111</speed><name>Bergen (Celle)</name><desc>B3</desc></trkpt><trkpt lon="9.969" lat="52.79968"><ele>62.5</ele><time>2009-09-05T17:35:05.000Z</time><speed>10.833333333333334</speed><name>Bergen (Celle)</name><desc>B3 Celler Straße</desc></trkpt><trkpt lon="9.96323" lat="52.8089"><ele>63.8</ele><time>2009-09-05T17:36:47.000Z</time><speed>13.055555555555555</speed><name>Bergen (Celle)</name><desc>B3 Am Friedensplatz; 1</desc></trkpt><trkpt lon="9.96201" lat="52.81025"><ele>65.8</ele><time>2009-09-05T17:37:02.000Z</time><speed>12.5</speed><name>Bergen (Celle)</name><desc>B3 Harburger Straße; 8</desc></trkpt><trkpt lon="9.95208" lat="52.81626"><ele>79.4</ele><time>2009-09-05T17:38:34.000Z</time><speed>27.5</speed><name>Bergen (Celle)</name><desc>B3</desc></trkpt><trkpt lon="9.94021" lat="52.82311"><ele>70.3</ele><time>2009-09-05T17:39:10.000Z</time><speed>30.27777777777778</speed><name>Bergen (Celle)</name><desc>B3 Soltauer Straße</desc></trkpt><trkpt lon="9.92041" lat="52.83714"><ele>74.9</ele><time>2009-09-05T17:40:47.000Z</time><speed>20.555555555555557</speed><name>Bergen (Celle)</name><desc>B3</desc></trkpt><trkpt lon="9.91831" lat="52.84052"><ele>72.8</ele><time>2009-09-05T17:41:00.000Z</time><speed>31.666666666666668</speed><name>Bergen (Celle)</name><desc>B3 Alte Poststraße</desc></trkpt><trkpt lon="9.91258" lat="52.85407"><ele>77.8</ele><time>2009-09-05T17:42:06.000Z</time><speed>31.666666666666668</speed><name>Wietzendorf</name><desc>B3</desc></trkpt><trkpt lon="9.91442" lat="52.87465"><ele>75.5</ele><time>2009-09-05T17:43:21.000Z</time><speed>31.666666666666668</speed><name>Bergen (Celle)</name><desc>B3 Becklingen</desc></trkpt><trkpt lon="9.91554" lat="52.88077"><ele>71.7</ele><time>2009-09-05T17:43:42.000Z</time><speed>31.666666666666668</speed><name>Wietzendorf</name><desc>B3</desc></trkpt><trkpt lon="9.87846" lat="52.94634"><ele>63.9</ele><time>2009-09-05T17:49:00.000Z</time><speed>8.333333333333334</speed><name>Lührsbockel</name><desc>45 As Soltau-Süd</desc></trkpt><trkpt lon="9.88023" lat="52.94978"><ele>68.3</ele><time>2009-09-05T17:49:35.000Z</time><speed>14.166666666666666</speed><name>Hebenbrock</name><desc>45 As Soltau-Süd</desc></trkpt><trkpt lon="9.88324" lat="52.95283"><ele>66.0</ele><time>2009-09-05T17:49:58.000Z</time><speed>23.88888888888889</speed><name>Soltau</name><desc>A7/E45</desc></trkpt><trkpt lon="9.96257" lat="53.07898"><ele>89.6</ele><time>2009-09-05T17:57:00.000Z</time><speed>38.611111111111114</speed><name>Bispingen</name><desc>A7/E45</desc></trkpt><trkpt lon="10.0837" lat="53.18736"><ele>91.2</ele><time>2009-09-05T18:03:40.000Z</time><speed>38.333333333333336</speed><name>Gödenstorf</name><desc>A7/E45</desc></trkpt><trkpt lon="10.07922" lat="53.20253"><ele>115.9</ele><time>2009-09-05T18:04:24.000Z</time><speed>38.611111111111114</speed><name>Egestorf</name><desc>A7/E45</desc></trkpt><trkpt lon="10.07586" lat="53.22389"><ele>84.0</ele><time>2009-09-05T18:05:24.000Z</time><speed>41.111111111111114</speed><name>Garlstorf</name><desc>A7/E45</desc></trkpt><trkpt lon="10.08836" lat="53.25898"><ele>70.0</ele><time>2009-09-05T18:07:05.000Z</time><speed>39.44444444444444</speed><name>Toppenstedt</name><desc>A7/E45</desc></trkpt><trkpt lon="10.07363" lat="53.30208"><ele>39.0</ele><time>2009-09-05T18:09:06.000Z</time><speed>39.44444444444444</speed><name>Brackel (Harburg)</name><desc>A7/E45</desc></trkpt><trkpt lon="10.05812" lat="53.32092"><ele>49.8</ele><time>2009-09-05T18:10:04.000Z</time><speed>41.666666666666664</speed><name>Seevetal</name><desc>A7/E45</desc></trkpt><trkpt lon="10.02525" lat="53.37153"><ele>8.8</ele><time>2009-09-05T18:12:58.000Z</time><speed>32.77777777777778</speed><name>Horst</name><desc>Straße ohne Namen</desc></trkpt><trkpt lon="10.02038" lat="53.38581"><ele>6.4</ele><time>2009-09-05T18:13:54.000Z</time><speed>31.944444444444443</speed><name>Seevetal</name><desc>Straße ohne Namen</desc></trkpt><trkpt lon="10.02288" lat="53.39142"><ele>1.6</ele><time>2009-09-05T18:14:13.000Z</time><speed>33.333333333333336</speed><name>Seevetal</name><desc>A1/E22</desc></trkpt><trkpt lon="10.02925" lat="53.45047"><name>18:17:21 - Gut Moor</name><desc>A1/E22</desc></trkpt><trkpt lon="10.02596" lat="53.4622"><ele>0.5</ele><time>2009-09-05T18:18:00.000Z</time><speed>32.22222222222222</speed><name>Neuland (Hamburg)</name><desc>A1/E22</desc></trkpt><trkpt lon="10.02578" lat="53.48398"><name>18:19:22 - Wilhelmsburg (Hamburg)</name><desc>A1/E22</desc></trkpt><trkpt lon="10.03809" lat="53.50593"><name>18:20:42 - Wilhelmsburg (Hamburg)</name><desc>A255</desc></trkpt><trkpt lon="10.02672" lat="53.51974"><ele>5.6</ele><time>2009-09-05T18:21:41.000Z</time><speed>29.444444444444443</speed><name>Veddel</name><desc>A255</desc></trkpt><trkpt lon="10.02329" lat="53.52832"><ele>0.7</ele><time>2009-09-05T18:22:16.000Z</time><speed>22.77777777777778</speed><name>Veddel</name><desc>A255/B4/B75</desc></trkpt><trkpt lon="10.02493" lat="53.53039"><ele>3.9</ele><time>2009-09-05T18:22:31.000Z</time><speed>18.055555555555557</speed><name>Veddel</name><desc>B4/B75</desc></trkpt><trkpt lon="10.02766" lat="53.53337"><ele>5.3</ele><time>2009-09-05T18:22:59.000Z</time><speed>6.388888888888889</speed><name>Rothenburgsort</name><desc>B4/B75 Billhorner Brückenstraße</desc></trkpt><trkpt lon="10.03352" lat="53.54113"><name>18:24:07 - Rothenburgsort</name><desc>B75 Billhorner Brückenstraße; 1</desc></trkpt><trkpt lon="10.03287" lat="53.54256"><name>18:24:37 - Hammerbrook</name><desc>B75 Schwarze Brücke</desc></trkpt><trkpt lon="10.02583" lat="53.55282"><ele>7.4</ele><time>2009-09-05T18:27:25.000Z</time><speed>12.5</speed><name>Borgfelde</name><desc>B75 Bürgerweide</desc></trkpt><trkpt lon="10.02608" lat="53.55814"><ele>11.1</ele><time>2009-09-05T18:28:19.000Z</time><speed>7.5</speed><name>Borgfelde</name><desc>B75 Wallstraßenbrücke</desc></trkpt><trkpt lon="10.02519" lat="53.56153"><ele>13.1</ele><time>2009-09-05T18:29:07.000Z</time><speed>13.333333333333334</speed><name>Hohenfelde (Hamburg)</name><desc>Mühlendamm; 31</desc></trkpt><trkpt lon="10.02549" lat="53.56703"><ele>4.8</ele><time>2009-09-05T18:29:49.000Z</time><speed>15.555555555555555</speed><name>Hohenfelde (Hamburg)</name><desc>Schürbeker Straße; 4</desc></trkpt><trkpt lon="10.02752" lat="53.56898"><ele>2.8</ele><time>2009-09-05T18:30:06.000Z</time><speed>12.5</speed><name>Uhlenhorst (Hamburg)</name><desc>Schürbeker Bogen; 3</desc></trkpt><trkpt lon="10.02771" lat="53.57004"><ele>1.9</ele><time>2009-09-05T18:30:24.000Z</time><speed>10.555555555555555</speed><name>Uhlenhorst (Hamburg)</name><desc>Lerchenfeld</desc></trkpt><trkpt lon="10.0399" lat="53.57932"><ele>9.7</ele><time>2009-09-05T18:32:11.000Z</time><speed>12.777777777777779</speed><name>Barmbek-Süd</name><desc>Hamburger Straße; 172</desc></trkpt><trkpt lon="10.04044" lat="53.57981"><ele>11.1</ele><time>2009-09-05T18:32:25.000Z</time><speed>0.0</speed><name>Barmbek-Süd</name><desc>Barmbeker Markt</desc></trkpt><trkpt lon="10.04613" lat="53.58275"><ele>15.9</ele><time>2009-09-05T18:33:38.000Z</time><speed>11.944444444444445</speed><name>Barmbek-Süd</name><desc>Bramfelder Straße; 16</desc></trkpt><trkpt lon="10.05133" lat="53.58663"><ele>19.7</ele><time>2009-09-05T18:34:18.000Z</time><speed>18.333333333333332</speed><name>Barmbek-Nord</name><desc>Bramfelder Straße</desc></trkpt><trkpt lon="10.05939" lat="53.59381"><ele>17.9</ele><time>2009-09-05T18:35:27.000Z</time><speed>12.222222222222221</speed><name>Bramfeld</name><desc>Bramfelder Chaussee; 3</desc></trkpt></trkseg></trk></gpx>